<?xml version="1.0" encoding="UTF-8" standalone="no" ?>
<gpx xmlns="http://www.topografix.com/GPX/1/1" xmlns:xsi="http://www.w3.org/2001/XMLSchema-instance" xsi:schemaLocation="http://www.topografix.com/GPX/1/1 http://www.topografix.com/GPX/1/1/gpx.xsd" version="1.1" creator="VisuGPX - https://www.visugpx.com">
  <metadata>
    <name>2017-05-10 Bike ride-Amberieux-Rance O</name>
    <desc><![CDATA[2017-05-10 Bike ride-Amberieux-Rance O]]></desc>
  </metadata>
  <wpt lat="45.92447" lon="4.73713">
    <ele>174</ele>
    <name><![CDATA[2017-05-10 10:09 (Start)]]></name>
  </wpt>
  <wpt lat="45.92457" lon="4.73704">
    <ele>174</ele>
    <name><![CDATA[2017-05-10 10:09 (End)]]></name>
    <desc><![CDATA[Created by Google My Tracks on Android  Name: 2017-05-10 10:09 Activity type: biking Description: - Total distance: 34.87 km (21.7 mi) Total time: 1:44:38 Moving time: 1:43:23 Average speed: 19.99 km/h (12.4 mi/h) Average moving speed: 20.24 km/h (12.6 mi/h) Max speed: 45.33 km/h (28.2 mi/h) Average pace: 3:00 min/km (4:50 min/mi) Average moving pace: 2:58 min/km (4:46 min/mi) Fastest pace: 1:19 min/km (2:08 min/mi) Max elevation: 291 m (954 ft) Min elevation: 161 m (529 ft) Elevation gain: 510 m (1672 ft) Max grade: 18 % Min grade: -15 % Recorded: 10/05/2017 10:09]]></desc>
  </wpt>
  <trk>
    <name><![CDATA[2017-05-10 10:09]]></name>
    <trkseg>
      <trkpt lat="45.92447" lon="4.73713">
        <ele>174</ele>
        <time>2017-05-10T08:09:52.356Z</time>
      </trkpt>
      <trkpt lat="45.92447" lon="4.73714">
        <ele>174</ele>
        <time>2017-05-10T08:10:03Z</time>
      </trkpt>
      <trkpt lat="45.92448" lon="4.73725">
        <ele>174</ele>
        <time>2017-05-10T08:10:27Z</time>
      </trkpt>
      <trkpt lat="45.92453" lon="4.73719">
        <ele>174</ele>
        <time>2017-05-10T08:10:28Z</time>
      </trkpt>
      <trkpt lat="45.92456" lon="4.73711">
        <ele>174</ele>
        <time>2017-05-10T08:10:31Z</time>
      </trkpt>
      <trkpt lat="45.92457" lon="4.73707">
        <ele>174</ele>
        <time>2017-05-10T08:10:32Z</time>
      </trkpt>
      <trkpt lat="45.9246" lon="4.737">
        <ele>174</ele>
        <time>2017-05-10T08:10:34Z</time>
      </trkpt>
      <trkpt lat="45.92461" lon="4.73695">
        <ele>174</ele>
        <time>2017-05-10T08:10:35Z</time>
      </trkpt>
      <trkpt lat="45.92462" lon="4.73687">
        <ele>174</ele>
        <time>2017-05-10T08:10:37Z</time>
      </trkpt>
      <trkpt lat="45.92464" lon="4.73682">
        <ele>174</ele>
        <time>2017-05-10T08:10:38Z</time>
      </trkpt>
      <trkpt lat="45.92467" lon="4.73671">
        <ele>174</ele>
        <time>2017-05-10T08:10:40Z</time>
      </trkpt>
      <trkpt lat="45.92468" lon="4.73667">
        <ele>174</ele>
        <time>2017-05-10T08:10:41Z</time>
      </trkpt>
      <trkpt lat="45.92471" lon="4.73656">
        <ele>174</ele>
        <time>2017-05-10T08:10:43Z</time>
      </trkpt>
      <trkpt lat="45.92473" lon="4.73651">
        <ele>174</ele>
        <time>2017-05-10T08:10:44Z</time>
      </trkpt>
      <trkpt lat="45.92478" lon="4.73644">
        <ele>174</ele>
        <time>2017-05-10T08:10:46Z</time>
      </trkpt>
      <trkpt lat="45.92481" lon="4.73641">
        <ele>174</ele>
        <time>2017-05-10T08:10:47Z</time>
      </trkpt>
      <trkpt lat="45.92488" lon="4.73641">
        <ele>174</ele>
        <time>2017-05-10T08:10:49Z</time>
      </trkpt>
      <trkpt lat="45.92492" lon="4.73641">
        <ele>174</ele>
        <time>2017-05-10T08:10:50Z</time>
      </trkpt>
      <trkpt lat="45.925" lon="4.73641">
        <ele>174</ele>
        <time>2017-05-10T08:10:52Z</time>
      </trkpt>
      <trkpt lat="45.92504" lon="4.73641">
        <ele>174</ele>
        <time>2017-05-10T08:10:53Z</time>
      </trkpt>
      <trkpt lat="45.92513" lon="4.73641">
        <ele>174</ele>
        <time>2017-05-10T08:10:55Z</time>
      </trkpt>
      <trkpt lat="45.92517" lon="4.73641">
        <ele>173</ele>
        <time>2017-05-10T08:10:56Z</time>
      </trkpt>
      <trkpt lat="45.92522" lon="4.7364">
        <ele>173</ele>
        <time>2017-05-10T08:10:57Z</time>
      </trkpt>
      <trkpt lat="45.92527" lon="4.73639">
        <ele>173</ele>
        <time>2017-05-10T08:10:58Z</time>
      </trkpt>
      <trkpt lat="45.92532" lon="4.73639">
        <ele>173</ele>
        <time>2017-05-10T08:10:59Z</time>
      </trkpt>
      <trkpt lat="45.92537" lon="4.73638">
        <ele>173</ele>
        <time>2017-05-10T08:11:00Z</time>
      </trkpt>
      <trkpt lat="45.92542" lon="4.73638">
        <ele>173</ele>
        <time>2017-05-10T08:11:01Z</time>
      </trkpt>
      <trkpt lat="45.92546" lon="4.73637">
        <ele>173</ele>
        <time>2017-05-10T08:11:02Z</time>
      </trkpt>
      <trkpt lat="45.92551" lon="4.73635">
        <ele>173</ele>
        <time>2017-05-10T08:11:03Z</time>
      </trkpt>
      <trkpt lat="45.92556" lon="4.73633">
        <ele>173</ele>
        <time>2017-05-10T08:11:04Z</time>
      </trkpt>
      <trkpt lat="45.92561" lon="4.73631">
        <ele>173</ele>
        <time>2017-05-10T08:11:05Z</time>
      </trkpt>
      <trkpt lat="45.92566" lon="4.73629">
        <ele>173</ele>
        <time>2017-05-10T08:11:06Z</time>
      </trkpt>
      <trkpt lat="45.92571" lon="4.73628">
        <ele>173</ele>
        <time>2017-05-10T08:11:07Z</time>
      </trkpt>
      <trkpt lat="45.92575" lon="4.73626">
        <ele>173</ele>
        <time>2017-05-10T08:11:08Z</time>
      </trkpt>
      <trkpt lat="45.9258" lon="4.73626">
        <ele>173</ele>
        <time>2017-05-10T08:11:09Z</time>
      </trkpt>
      <trkpt lat="45.92586" lon="4.73625">
        <ele>172</ele>
        <time>2017-05-10T08:11:10Z</time>
      </trkpt>
      <trkpt lat="45.9259" lon="4.73624">
        <ele>173</ele>
        <time>2017-05-10T08:11:11Z</time>
      </trkpt>
      <trkpt lat="45.92595" lon="4.73623">
        <ele>173</ele>
        <time>2017-05-10T08:11:12Z</time>
      </trkpt>
      <trkpt lat="45.926" lon="4.73623">
        <ele>173</ele>
        <time>2017-05-10T08:11:13Z</time>
      </trkpt>
      <trkpt lat="45.92605" lon="4.73624">
        <ele>173</ele>
        <time>2017-05-10T08:11:14Z</time>
      </trkpt>
      <trkpt lat="45.9261" lon="4.73625">
        <ele>173</ele>
        <time>2017-05-10T08:11:15Z</time>
      </trkpt>
      <trkpt lat="45.92615" lon="4.73629">
        <ele>173</ele>
        <time>2017-05-10T08:11:16Z</time>
      </trkpt>
      <trkpt lat="45.9262" lon="4.73633">
        <ele>173</ele>
        <time>2017-05-10T08:11:17Z</time>
      </trkpt>
      <trkpt lat="45.92624" lon="4.73639">
        <ele>173</ele>
        <time>2017-05-10T08:11:18Z</time>
      </trkpt>
      <trkpt lat="45.92627" lon="4.73645">
        <ele>173</ele>
        <time>2017-05-10T08:11:19Z</time>
      </trkpt>
      <trkpt lat="45.9263" lon="4.73652">
        <ele>173</ele>
        <time>2017-05-10T08:11:20Z</time>
      </trkpt>
      <trkpt lat="45.92633" lon="4.73659">
        <ele>173</ele>
        <time>2017-05-10T08:11:21Z</time>
      </trkpt>
      <trkpt lat="45.92637" lon="4.73666">
        <ele>173</ele>
        <time>2017-05-10T08:11:22Z</time>
      </trkpt>
      <trkpt lat="45.92641" lon="4.73671">
        <ele>173</ele>
        <time>2017-05-10T08:11:23Z</time>
      </trkpt>
      <trkpt lat="45.92644" lon="4.73677">
        <ele>173</ele>
        <time>2017-05-10T08:11:24Z</time>
      </trkpt>
      <trkpt lat="45.92648" lon="4.73682">
        <ele>173</ele>
        <time>2017-05-10T08:11:25Z</time>
      </trkpt>
      <trkpt lat="45.92652" lon="4.73686">
        <ele>173</ele>
        <time>2017-05-10T08:11:26Z</time>
      </trkpt>
      <trkpt lat="45.92656" lon="4.73691">
        <ele>173</ele>
        <time>2017-05-10T08:11:27Z</time>
      </trkpt>
      <trkpt lat="45.92661" lon="4.73695">
        <ele>173</ele>
        <time>2017-05-10T08:11:28Z</time>
      </trkpt>
      <trkpt lat="45.92666" lon="4.73699">
        <ele>173</ele>
        <time>2017-05-10T08:11:29Z</time>
      </trkpt>
      <trkpt lat="45.92671" lon="4.73702">
        <ele>174</ele>
        <time>2017-05-10T08:11:30Z</time>
      </trkpt>
      <trkpt lat="45.92677" lon="4.73704">
        <ele>173</ele>
        <time>2017-05-10T08:11:31Z</time>
      </trkpt>
      <trkpt lat="45.92682" lon="4.73707">
        <ele>173</ele>
        <time>2017-05-10T08:11:32Z</time>
      </trkpt>
      <trkpt lat="45.92688" lon="4.73709">
        <ele>173</ele>
        <time>2017-05-10T08:11:33Z</time>
      </trkpt>
      <trkpt lat="45.92694" lon="4.73713">
        <ele>173</ele>
        <time>2017-05-10T08:11:34Z</time>
      </trkpt>
      <trkpt lat="45.92699" lon="4.73715">
        <ele>173</ele>
        <time>2017-05-10T08:11:35Z</time>
      </trkpt>
      <trkpt lat="45.92705" lon="4.73717">
        <ele>173</ele>
        <time>2017-05-10T08:11:36Z</time>
      </trkpt>
      <trkpt lat="45.9271" lon="4.73718">
        <ele>173</ele>
        <time>2017-05-10T08:11:37Z</time>
      </trkpt>
      <trkpt lat="45.92715" lon="4.73719">
        <ele>173</ele>
        <time>2017-05-10T08:11:38Z</time>
      </trkpt>
      <trkpt lat="45.92721" lon="4.73721">
        <ele>173</ele>
        <time>2017-05-10T08:11:39Z</time>
      </trkpt>
      <trkpt lat="45.92726" lon="4.73722">
        <ele>173</ele>
        <time>2017-05-10T08:11:40Z</time>
      </trkpt>
      <trkpt lat="45.92731" lon="4.73724">
        <ele>173</ele>
        <time>2017-05-10T08:11:41Z</time>
      </trkpt>
      <trkpt lat="45.92737" lon="4.73725">
        <ele>173</ele>
        <time>2017-05-10T08:11:42Z</time>
      </trkpt>
      <trkpt lat="45.92742" lon="4.73725">
        <ele>173</ele>
        <time>2017-05-10T08:11:43Z</time>
      </trkpt>
      <trkpt lat="45.92746" lon="4.73725">
        <ele>173</ele>
        <time>2017-05-10T08:11:44Z</time>
      </trkpt>
      <trkpt lat="45.92751" lon="4.73726">
        <ele>172</ele>
        <time>2017-05-10T08:11:45Z</time>
      </trkpt>
      <trkpt lat="45.92755" lon="4.73727">
        <ele>172</ele>
        <time>2017-05-10T08:11:46Z</time>
      </trkpt>
      <trkpt lat="45.9276" lon="4.73729">
        <ele>172</ele>
        <time>2017-05-10T08:11:47Z</time>
      </trkpt>
      <trkpt lat="45.92764" lon="4.73731">
        <ele>172</ele>
        <time>2017-05-10T08:11:48Z</time>
      </trkpt>
      <trkpt lat="45.92773" lon="4.73732">
        <ele>172</ele>
        <time>2017-05-10T08:11:50Z</time>
      </trkpt>
      <trkpt lat="45.92776" lon="4.73731">
        <ele>172</ele>
        <time>2017-05-10T08:11:51Z</time>
      </trkpt>
      <trkpt lat="45.92782" lon="4.73722">
        <ele>172</ele>
        <time>2017-05-10T08:11:53Z</time>
      </trkpt>
      <trkpt lat="45.92783" lon="4.73716">
        <ele>172</ele>
        <time>2017-05-10T08:11:54Z</time>
      </trkpt>
      <trkpt lat="45.92785" lon="4.73709">
        <ele>172</ele>
        <time>2017-05-10T08:11:55Z</time>
      </trkpt>
      <trkpt lat="45.92786" lon="4.73702">
        <ele>172</ele>
        <time>2017-05-10T08:11:56Z</time>
      </trkpt>
      <trkpt lat="45.92788" lon="4.73695">
        <ele>172</ele>
        <time>2017-05-10T08:11:57Z</time>
      </trkpt>
      <trkpt lat="45.92789" lon="4.73688">
        <ele>172</ele>
        <time>2017-05-10T08:11:58Z</time>
      </trkpt>
      <trkpt lat="45.92791" lon="4.73681">
        <ele>172</ele>
        <time>2017-05-10T08:11:59Z</time>
      </trkpt>
      <trkpt lat="45.92793" lon="4.73675">
        <ele>172</ele>
        <time>2017-05-10T08:12:00Z</time>
      </trkpt>
      <trkpt lat="45.92795" lon="4.73668">
        <ele>172</ele>
        <time>2017-05-10T08:12:01Z</time>
      </trkpt>
      <trkpt lat="45.92798" lon="4.73661">
        <ele>172</ele>
        <time>2017-05-10T08:12:02Z</time>
      </trkpt>
      <trkpt lat="45.928" lon="4.73655">
        <ele>172</ele>
        <time>2017-05-10T08:12:03Z</time>
      </trkpt>
      <trkpt lat="45.92803" lon="4.73648">
        <ele>172</ele>
        <time>2017-05-10T08:12:04Z</time>
      </trkpt>
      <trkpt lat="45.92809" lon="4.73639">
        <ele>172</ele>
        <time>2017-05-10T08:12:06Z</time>
      </trkpt>
      <trkpt lat="45.92812" lon="4.73636">
        <ele>172</ele>
        <time>2017-05-10T08:12:07Z</time>
      </trkpt>
      <trkpt lat="45.92818" lon="4.73633">
        <ele>172</ele>
        <time>2017-05-10T08:12:09Z</time>
      </trkpt>
      <trkpt lat="45.92821" lon="4.73631">
        <ele>172</ele>
        <time>2017-05-10T08:12:10Z</time>
      </trkpt>
      <trkpt lat="45.92822" lon="4.73623">
        <ele>172</ele>
        <time>2017-05-10T08:12:12Z</time>
      </trkpt>
      <trkpt lat="45.92821" lon="4.73616">
        <ele>172</ele>
        <time>2017-05-10T08:12:13Z</time>
      </trkpt>
      <trkpt lat="45.9282" lon="4.73609">
        <ele>171</ele>
        <time>2017-05-10T08:12:14Z</time>
      </trkpt>
      <trkpt lat="45.9282" lon="4.73602">
        <ele>171</ele>
        <time>2017-05-10T08:12:15Z</time>
      </trkpt>
      <trkpt lat="45.9282" lon="4.73594">
        <ele>171</ele>
        <time>2017-05-10T08:12:16Z</time>
      </trkpt>
      <trkpt lat="45.92819" lon="4.73586">
        <ele>171</ele>
        <time>2017-05-10T08:12:17Z</time>
      </trkpt>
      <trkpt lat="45.92819" lon="4.73579">
        <ele>171</ele>
        <time>2017-05-10T08:12:18Z</time>
      </trkpt>
      <trkpt lat="45.92819" lon="4.73572">
        <ele>171</ele>
        <time>2017-05-10T08:12:19Z</time>
      </trkpt>
      <trkpt lat="45.92819" lon="4.73564">
        <ele>171</ele>
        <time>2017-05-10T08:12:20Z</time>
      </trkpt>
      <trkpt lat="45.92819" lon="4.73556">
        <ele>171</ele>
        <time>2017-05-10T08:12:21Z</time>
      </trkpt>
      <trkpt lat="45.9282" lon="4.73549">
        <ele>171</ele>
        <time>2017-05-10T08:12:22Z</time>
      </trkpt>
      <trkpt lat="45.9282" lon="4.73542">
        <ele>172</ele>
        <time>2017-05-10T08:12:23Z</time>
      </trkpt>
      <trkpt lat="45.92821" lon="4.73534">
        <ele>172</ele>
        <time>2017-05-10T08:12:24Z</time>
      </trkpt>
      <trkpt lat="45.92821" lon="4.73526">
        <ele>172</ele>
        <time>2017-05-10T08:12:25Z</time>
      </trkpt>
      <trkpt lat="45.92822" lon="4.73518">
        <ele>172</ele>
        <time>2017-05-10T08:12:26Z</time>
      </trkpt>
      <trkpt lat="45.92823" lon="4.7351">
        <ele>172</ele>
        <time>2017-05-10T08:12:27Z</time>
      </trkpt>
      <trkpt lat="45.92824" lon="4.73501">
        <ele>172</ele>
        <time>2017-05-10T08:12:28Z</time>
      </trkpt>
      <trkpt lat="45.92825" lon="4.73492">
        <ele>172</ele>
        <time>2017-05-10T08:12:29Z</time>
      </trkpt>
      <trkpt lat="45.92825" lon="4.73484">
        <ele>172</ele>
        <time>2017-05-10T08:12:30Z</time>
      </trkpt>
      <trkpt lat="45.92826" lon="4.73475">
        <ele>172</ele>
        <time>2017-05-10T08:12:31Z</time>
      </trkpt>
      <trkpt lat="45.92827" lon="4.73467">
        <ele>172</ele>
        <time>2017-05-10T08:12:32Z</time>
      </trkpt>
      <trkpt lat="45.92828" lon="4.73459">
        <ele>172</ele>
        <time>2017-05-10T08:12:33Z</time>
      </trkpt>
      <trkpt lat="45.92829" lon="4.73451">
        <ele>172</ele>
        <time>2017-05-10T08:12:34Z</time>
      </trkpt>
      <trkpt lat="45.9283" lon="4.73443">
        <ele>172</ele>
        <time>2017-05-10T08:12:35Z</time>
      </trkpt>
      <trkpt lat="45.92831" lon="4.73434">
        <ele>172</ele>
        <time>2017-05-10T08:12:36Z</time>
      </trkpt>
      <trkpt lat="45.92832" lon="4.73425">
        <ele>172</ele>
        <time>2017-05-10T08:12:37Z</time>
      </trkpt>
      <trkpt lat="45.92833" lon="4.73417">
        <ele>172</ele>
        <time>2017-05-10T08:12:38Z</time>
      </trkpt>
      <trkpt lat="45.92834" lon="4.73409">
        <ele>172</ele>
        <time>2017-05-10T08:12:39Z</time>
      </trkpt>
      <trkpt lat="45.92835" lon="4.734">
        <ele>172</ele>
        <time>2017-05-10T08:12:40Z</time>
      </trkpt>
      <trkpt lat="45.92837" lon="4.73392">
        <ele>172</ele>
        <time>2017-05-10T08:12:41Z</time>
      </trkpt>
      <trkpt lat="45.92838" lon="4.73384">
        <ele>172</ele>
        <time>2017-05-10T08:12:42Z</time>
      </trkpt>
      <trkpt lat="45.92839" lon="4.73375">
        <ele>172</ele>
        <time>2017-05-10T08:12:43Z</time>
      </trkpt>
      <trkpt lat="45.92841" lon="4.73367">
        <ele>171</ele>
        <time>2017-05-10T08:12:44Z</time>
      </trkpt>
      <trkpt lat="45.92842" lon="4.73358">
        <ele>171</ele>
        <time>2017-05-10T08:12:45Z</time>
      </trkpt>
      <trkpt lat="45.92843" lon="4.73349">
        <ele>171</ele>
        <time>2017-05-10T08:12:46Z</time>
      </trkpt>
      <trkpt lat="45.92844" lon="4.7334">
        <ele>171</ele>
        <time>2017-05-10T08:12:47Z</time>
      </trkpt>
      <trkpt lat="45.92845" lon="4.73332">
        <ele>171</ele>
        <time>2017-05-10T08:12:48Z</time>
      </trkpt>
      <trkpt lat="45.92846" lon="4.73323">
        <ele>171</ele>
        <time>2017-05-10T08:12:49Z</time>
      </trkpt>
      <trkpt lat="45.92847" lon="4.73315">
        <ele>171</ele>
        <time>2017-05-10T08:12:50Z</time>
      </trkpt>
      <trkpt lat="45.92847" lon="4.73307">
        <ele>171</ele>
        <time>2017-05-10T08:12:51Z</time>
      </trkpt>
      <trkpt lat="45.92848" lon="4.73299">
        <ele>171</ele>
        <time>2017-05-10T08:12:52Z</time>
      </trkpt>
      <trkpt lat="45.92849" lon="4.73291">
        <ele>171</ele>
        <time>2017-05-10T08:12:53Z</time>
      </trkpt>
      <trkpt lat="45.92849" lon="4.73283">
        <ele>171</ele>
        <time>2017-05-10T08:12:54Z</time>
      </trkpt>
      <trkpt lat="45.92851" lon="4.73275">
        <ele>171</ele>
        <time>2017-05-10T08:12:55Z</time>
      </trkpt>
      <trkpt lat="45.92852" lon="4.73267">
        <ele>171</ele>
        <time>2017-05-10T08:12:56Z</time>
      </trkpt>
      <trkpt lat="45.92853" lon="4.73258">
        <ele>171</ele>
        <time>2017-05-10T08:12:57Z</time>
      </trkpt>
      <trkpt lat="45.92854" lon="4.73251">
        <ele>171</ele>
        <time>2017-05-10T08:12:58Z</time>
      </trkpt>
      <trkpt lat="45.92855" lon="4.73243">
        <ele>171</ele>
        <time>2017-05-10T08:12:59Z</time>
      </trkpt>
      <trkpt lat="45.92856" lon="4.73235">
        <ele>171</ele>
        <time>2017-05-10T08:13:00Z</time>
      </trkpt>
      <trkpt lat="45.92857" lon="4.73227">
        <ele>171</ele>
        <time>2017-05-10T08:13:01Z</time>
      </trkpt>
      <trkpt lat="45.92857" lon="4.73219">
        <ele>171</ele>
        <time>2017-05-10T08:13:02Z</time>
      </trkpt>
      <trkpt lat="45.92858" lon="4.73211">
        <ele>171</ele>
        <time>2017-05-10T08:13:03Z</time>
      </trkpt>
      <trkpt lat="45.92859" lon="4.73203">
        <ele>171</ele>
        <time>2017-05-10T08:13:04Z</time>
      </trkpt>
      <trkpt lat="45.9286" lon="4.73194">
        <ele>171</ele>
        <time>2017-05-10T08:13:05Z</time>
      </trkpt>
      <trkpt lat="45.92861" lon="4.73186">
        <ele>171</ele>
        <time>2017-05-10T08:13:06Z</time>
      </trkpt>
      <trkpt lat="45.92862" lon="4.73177">
        <ele>171</ele>
        <time>2017-05-10T08:13:07Z</time>
      </trkpt>
      <trkpt lat="45.92863" lon="4.73169">
        <ele>171</ele>
        <time>2017-05-10T08:13:08Z</time>
      </trkpt>
      <trkpt lat="45.92864" lon="4.7316">
        <ele>171</ele>
        <time>2017-05-10T08:13:09Z</time>
      </trkpt>
      <trkpt lat="45.92865" lon="4.73151">
        <ele>171</ele>
        <time>2017-05-10T08:13:10Z</time>
      </trkpt>
      <trkpt lat="45.92866" lon="4.73143">
        <ele>171</ele>
        <time>2017-05-10T08:13:11Z</time>
      </trkpt>
      <trkpt lat="45.92867" lon="4.73134">
        <ele>171</ele>
        <time>2017-05-10T08:13:12Z</time>
      </trkpt>
      <trkpt lat="45.92868" lon="4.73126">
        <ele>171</ele>
        <time>2017-05-10T08:13:13Z</time>
      </trkpt>
      <trkpt lat="45.9287" lon="4.73118">
        <ele>171</ele>
        <time>2017-05-10T08:13:14Z</time>
      </trkpt>
      <trkpt lat="45.92872" lon="4.7311">
        <ele>172</ele>
        <time>2017-05-10T08:13:15Z</time>
      </trkpt>
      <trkpt lat="45.92874" lon="4.73102">
        <ele>172</ele>
        <time>2017-05-10T08:13:16Z</time>
      </trkpt>
      <trkpt lat="45.92877" lon="4.73095">
        <ele>172</ele>
        <time>2017-05-10T08:13:17Z</time>
      </trkpt>
      <trkpt lat="45.92879" lon="4.73088">
        <ele>172</ele>
        <time>2017-05-10T08:13:18Z</time>
      </trkpt>
      <trkpt lat="45.92883" lon="4.73081">
        <ele>172</ele>
        <time>2017-05-10T08:13:19Z</time>
      </trkpt>
      <trkpt lat="45.92886" lon="4.73074">
        <ele>172</ele>
        <time>2017-05-10T08:13:20Z</time>
      </trkpt>
      <trkpt lat="45.9289" lon="4.73068">
        <ele>172</ele>
        <time>2017-05-10T08:13:21Z</time>
      </trkpt>
      <trkpt lat="45.92894" lon="4.73061">
        <ele>172</ele>
        <time>2017-05-10T08:13:22Z</time>
      </trkpt>
      <trkpt lat="45.92898" lon="4.73055">
        <ele>172</ele>
        <time>2017-05-10T08:13:23Z</time>
      </trkpt>
      <trkpt lat="45.92902" lon="4.73048">
        <ele>172</ele>
        <time>2017-05-10T08:13:24Z</time>
      </trkpt>
      <trkpt lat="45.92906" lon="4.73042">
        <ele>172</ele>
        <time>2017-05-10T08:13:25Z</time>
      </trkpt>
      <trkpt lat="45.92911" lon="4.73036">
        <ele>172</ele>
        <time>2017-05-10T08:13:26Z</time>
      </trkpt>
      <trkpt lat="45.92915" lon="4.73029">
        <ele>172</ele>
        <time>2017-05-10T08:13:27Z</time>
      </trkpt>
      <trkpt lat="45.9292" lon="4.73023">
        <ele>172</ele>
        <time>2017-05-10T08:13:28Z</time>
      </trkpt>
      <trkpt lat="45.92925" lon="4.73018">
        <ele>172</ele>
        <time>2017-05-10T08:13:29Z</time>
      </trkpt>
      <trkpt lat="45.92929" lon="4.73013">
        <ele>171</ele>
        <time>2017-05-10T08:13:30Z</time>
      </trkpt>
      <trkpt lat="45.92934" lon="4.73007">
        <ele>171</ele>
        <time>2017-05-10T08:13:31Z</time>
      </trkpt>
      <trkpt lat="45.92938" lon="4.73002">
        <ele>171</ele>
        <time>2017-05-10T08:13:32Z</time>
      </trkpt>
      <trkpt lat="45.92942" lon="4.72997">
        <ele>171</ele>
        <time>2017-05-10T08:13:33Z</time>
      </trkpt>
      <trkpt lat="45.92947" lon="4.72991">
        <ele>171</ele>
        <time>2017-05-10T08:13:34Z</time>
      </trkpt>
      <trkpt lat="45.92951" lon="4.72986">
        <ele>171</ele>
        <time>2017-05-10T08:13:35Z</time>
      </trkpt>
      <trkpt lat="45.92956" lon="4.72981">
        <ele>171</ele>
        <time>2017-05-10T08:13:36Z</time>
      </trkpt>
      <trkpt lat="45.92961" lon="4.72976">
        <ele>171</ele>
        <time>2017-05-10T08:13:37Z</time>
      </trkpt>
      <trkpt lat="45.92965" lon="4.7297">
        <ele>171</ele>
        <time>2017-05-10T08:13:38Z</time>
      </trkpt>
      <trkpt lat="45.9297" lon="4.72965">
        <ele>171</ele>
        <time>2017-05-10T08:13:39Z</time>
      </trkpt>
      <trkpt lat="45.92974" lon="4.7296">
        <ele>171</ele>
        <time>2017-05-10T08:13:40Z</time>
      </trkpt>
      <trkpt lat="45.92978" lon="4.72954">
        <ele>171</ele>
        <time>2017-05-10T08:13:41Z</time>
      </trkpt>
      <trkpt lat="45.92983" lon="4.72949">
        <ele>171</ele>
        <time>2017-05-10T08:13:42Z</time>
      </trkpt>
      <trkpt lat="45.92988" lon="4.72943">
        <ele>171</ele>
        <time>2017-05-10T08:13:43Z</time>
      </trkpt>
      <trkpt lat="45.92994" lon="4.72937">
        <ele>171</ele>
        <time>2017-05-10T08:13:44Z</time>
      </trkpt>
      <trkpt lat="45.92998" lon="4.72932">
        <ele>171</ele>
        <time>2017-05-10T08:13:45Z</time>
      </trkpt>
      <trkpt lat="45.93002" lon="4.72927">
        <ele>170</ele>
        <time>2017-05-10T08:13:46Z</time>
      </trkpt>
      <trkpt lat="45.93007" lon="4.72921">
        <ele>170</ele>
        <time>2017-05-10T08:13:47Z</time>
      </trkpt>
      <trkpt lat="45.93011" lon="4.72916">
        <ele>171</ele>
        <time>2017-05-10T08:13:48Z</time>
      </trkpt>
      <trkpt lat="45.93016" lon="4.7291">
        <ele>171</ele>
        <time>2017-05-10T08:13:49Z</time>
      </trkpt>
      <trkpt lat="45.9302" lon="4.72905">
        <ele>172</ele>
        <time>2017-05-10T08:13:50Z</time>
      </trkpt>
      <trkpt lat="45.93025" lon="4.72899">
        <ele>172</ele>
        <time>2017-05-10T08:13:51Z</time>
      </trkpt>
      <trkpt lat="45.93029" lon="4.72894">
        <ele>172</ele>
        <time>2017-05-10T08:13:52Z</time>
      </trkpt>
      <trkpt lat="45.93034" lon="4.72888">
        <ele>172</ele>
        <time>2017-05-10T08:13:53Z</time>
      </trkpt>
      <trkpt lat="45.93039" lon="4.72883">
        <ele>172</ele>
        <time>2017-05-10T08:13:54Z</time>
      </trkpt>
      <trkpt lat="45.93043" lon="4.72877">
        <ele>172</ele>
        <time>2017-05-10T08:13:55Z</time>
      </trkpt>
      <trkpt lat="45.93048" lon="4.72872">
        <ele>172</ele>
        <time>2017-05-10T08:13:56Z</time>
      </trkpt>
      <trkpt lat="45.93052" lon="4.72868">
        <ele>172</ele>
        <time>2017-05-10T08:13:57Z</time>
      </trkpt>
      <trkpt lat="45.93057" lon="4.72863">
        <ele>172</ele>
        <time>2017-05-10T08:13:58Z</time>
      </trkpt>
      <trkpt lat="45.93061" lon="4.72857">
        <ele>172</ele>
        <time>2017-05-10T08:13:59Z</time>
      </trkpt>
      <trkpt lat="45.93065" lon="4.72852">
        <ele>172</ele>
        <time>2017-05-10T08:14:00Z</time>
      </trkpt>
      <trkpt lat="45.9307" lon="4.72847">
        <ele>172</ele>
        <time>2017-05-10T08:14:01Z</time>
      </trkpt>
      <trkpt lat="45.93074" lon="4.72842">
        <ele>173</ele>
        <time>2017-05-10T08:14:02Z</time>
      </trkpt>
      <trkpt lat="45.93077" lon="4.72838">
        <ele>173</ele>
        <time>2017-05-10T08:14:03Z</time>
      </trkpt>
      <trkpt lat="45.93081" lon="4.72834">
        <ele>173</ele>
        <time>2017-05-10T08:14:04Z</time>
      </trkpt>
      <trkpt lat="45.93085" lon="4.72828">
        <ele>173</ele>
        <time>2017-05-10T08:14:05Z</time>
      </trkpt>
      <trkpt lat="45.93089" lon="4.72823">
        <ele>172</ele>
        <time>2017-05-10T08:14:06Z</time>
      </trkpt>
      <trkpt lat="45.93095" lon="4.72817">
        <ele>172</ele>
        <time>2017-05-10T08:14:07Z</time>
      </trkpt>
      <trkpt lat="45.931" lon="4.72813">
        <ele>172</ele>
        <time>2017-05-10T08:14:08Z</time>
      </trkpt>
      <trkpt lat="45.93105" lon="4.72807">
        <ele>171</ele>
        <time>2017-05-10T08:14:09Z</time>
      </trkpt>
      <trkpt lat="45.9311" lon="4.72801">
        <ele>171</ele>
        <time>2017-05-10T08:14:10Z</time>
      </trkpt>
      <trkpt lat="45.93116" lon="4.72795">
        <ele>171</ele>
        <time>2017-05-10T08:14:11Z</time>
      </trkpt>
      <trkpt lat="45.9312" lon="4.7279">
        <ele>171</ele>
        <time>2017-05-10T08:14:12Z</time>
      </trkpt>
      <trkpt lat="45.93125" lon="4.72784">
        <ele>171</ele>
        <time>2017-05-10T08:14:13Z</time>
      </trkpt>
      <trkpt lat="45.93129" lon="4.72779">
        <ele>171</ele>
        <time>2017-05-10T08:14:14Z</time>
      </trkpt>
      <trkpt lat="45.93134" lon="4.72775">
        <ele>171</ele>
        <time>2017-05-10T08:14:15Z</time>
      </trkpt>
      <trkpt lat="45.93139" lon="4.72769">
        <ele>171</ele>
        <time>2017-05-10T08:14:16Z</time>
      </trkpt>
      <trkpt lat="45.93143" lon="4.72763">
        <ele>171</ele>
        <time>2017-05-10T08:14:17Z</time>
      </trkpt>
      <trkpt lat="45.93148" lon="4.72758">
        <ele>170</ele>
        <time>2017-05-10T08:14:18Z</time>
      </trkpt>
      <trkpt lat="45.93153" lon="4.72752">
        <ele>170</ele>
        <time>2017-05-10T08:14:19Z</time>
      </trkpt>
      <trkpt lat="45.93157" lon="4.72747">
        <ele>170</ele>
        <time>2017-05-10T08:14:20Z</time>
      </trkpt>
      <trkpt lat="45.93161" lon="4.72741">
        <ele>170</ele>
        <time>2017-05-10T08:14:21Z</time>
      </trkpt>
      <trkpt lat="45.93165" lon="4.72736">
        <ele>170</ele>
        <time>2017-05-10T08:14:22Z</time>
      </trkpt>
      <trkpt lat="45.93169" lon="4.72731">
        <ele>170</ele>
        <time>2017-05-10T08:14:23Z</time>
      </trkpt>
      <trkpt lat="45.93173" lon="4.72726">
        <ele>170</ele>
        <time>2017-05-10T08:14:24Z</time>
      </trkpt>
      <trkpt lat="45.93177" lon="4.7272">
        <ele>170</ele>
        <time>2017-05-10T08:14:25Z</time>
      </trkpt>
      <trkpt lat="45.93182" lon="4.72715">
        <ele>169</ele>
        <time>2017-05-10T08:14:26Z</time>
      </trkpt>
      <trkpt lat="45.93187" lon="4.7271">
        <ele>169</ele>
        <time>2017-05-10T08:14:27Z</time>
      </trkpt>
      <trkpt lat="45.93192" lon="4.72704">
        <ele>169</ele>
        <time>2017-05-10T08:14:28Z</time>
      </trkpt>
      <trkpt lat="45.93197" lon="4.72698">
        <ele>169</ele>
        <time>2017-05-10T08:14:29Z</time>
      </trkpt>
      <trkpt lat="45.93202" lon="4.72692">
        <ele>169</ele>
        <time>2017-05-10T08:14:30Z</time>
      </trkpt>
      <trkpt lat="45.93207" lon="4.72686">
        <ele>169</ele>
        <time>2017-05-10T08:14:31Z</time>
      </trkpt>
      <trkpt lat="45.93211" lon="4.7268">
        <ele>169</ele>
        <time>2017-05-10T08:14:32Z</time>
      </trkpt>
      <trkpt lat="45.93216" lon="4.72674">
        <ele>169</ele>
        <time>2017-05-10T08:14:33Z</time>
      </trkpt>
      <trkpt lat="45.93221" lon="4.72669">
        <ele>169</ele>
        <time>2017-05-10T08:14:34Z</time>
      </trkpt>
      <trkpt lat="45.93225" lon="4.72664">
        <ele>170</ele>
        <time>2017-05-10T08:14:35Z</time>
      </trkpt>
      <trkpt lat="45.9323" lon="4.72658">
        <ele>169</ele>
        <time>2017-05-10T08:14:36Z</time>
      </trkpt>
      <trkpt lat="45.93235" lon="4.72653">
        <ele>169</ele>
        <time>2017-05-10T08:14:37Z</time>
      </trkpt>
      <trkpt lat="45.9324" lon="4.72647">
        <ele>170</ele>
        <time>2017-05-10T08:14:38Z</time>
      </trkpt>
      <trkpt lat="45.93245" lon="4.72642">
        <ele>170</ele>
        <time>2017-05-10T08:14:39Z</time>
      </trkpt>
      <trkpt lat="45.93249" lon="4.72636">
        <ele>170</ele>
        <time>2017-05-10T08:14:40Z</time>
      </trkpt>
      <trkpt lat="45.93254" lon="4.72629">
        <ele>170</ele>
        <time>2017-05-10T08:14:41Z</time>
      </trkpt>
      <trkpt lat="45.93259" lon="4.72625">
        <ele>170</ele>
        <time>2017-05-10T08:14:42Z</time>
      </trkpt>
      <trkpt lat="45.93264" lon="4.72619">
        <ele>170</ele>
        <time>2017-05-10T08:14:43Z</time>
      </trkpt>
      <trkpt lat="45.93268" lon="4.72614">
        <ele>170</ele>
        <time>2017-05-10T08:14:44Z</time>
      </trkpt>
      <trkpt lat="45.93273" lon="4.72608">
        <ele>170</ele>
        <time>2017-05-10T08:14:45Z</time>
      </trkpt>
      <trkpt lat="45.93277" lon="4.72603">
        <ele>170</ele>
        <time>2017-05-10T08:14:46Z</time>
      </trkpt>
      <trkpt lat="45.93281" lon="4.72598">
        <ele>170</ele>
        <time>2017-05-10T08:14:47Z</time>
      </trkpt>
      <trkpt lat="45.93286" lon="4.72593">
        <ele>170</ele>
        <time>2017-05-10T08:14:48Z</time>
      </trkpt>
      <trkpt lat="45.9329" lon="4.72588">
        <ele>170</ele>
        <time>2017-05-10T08:14:49Z</time>
      </trkpt>
      <trkpt lat="45.93294" lon="4.72583">
        <ele>171</ele>
        <time>2017-05-10T08:14:50Z</time>
      </trkpt>
      <trkpt lat="45.93299" lon="4.72578">
        <ele>171</ele>
        <time>2017-05-10T08:14:51Z</time>
      </trkpt>
      <trkpt lat="45.93302" lon="4.72573">
        <ele>171</ele>
        <time>2017-05-10T08:14:52Z</time>
      </trkpt>
      <trkpt lat="45.93306" lon="4.72568">
        <ele>171</ele>
        <time>2017-05-10T08:14:53Z</time>
      </trkpt>
      <trkpt lat="45.93311" lon="4.72562">
        <ele>171</ele>
        <time>2017-05-10T08:14:54Z</time>
      </trkpt>
      <trkpt lat="45.93316" lon="4.72557">
        <ele>172</ele>
        <time>2017-05-10T08:14:55Z</time>
      </trkpt>
      <trkpt lat="45.9332" lon="4.72551">
        <ele>172</ele>
        <time>2017-05-10T08:14:56Z</time>
      </trkpt>
      <trkpt lat="45.93325" lon="4.72546">
        <ele>172</ele>
        <time>2017-05-10T08:14:57Z</time>
      </trkpt>
      <trkpt lat="45.9333" lon="4.7254">
        <ele>172</ele>
        <time>2017-05-10T08:14:58Z</time>
      </trkpt>
      <trkpt lat="45.93335" lon="4.72535">
        <ele>172</ele>
        <time>2017-05-10T08:14:59Z</time>
      </trkpt>
      <trkpt lat="45.9334" lon="4.7253">
        <ele>172</ele>
        <time>2017-05-10T08:15:00Z</time>
      </trkpt>
      <trkpt lat="45.93345" lon="4.72524">
        <ele>172</ele>
        <time>2017-05-10T08:15:01Z</time>
      </trkpt>
      <trkpt lat="45.9335" lon="4.72519">
        <ele>172</ele>
        <time>2017-05-10T08:15:02Z</time>
      </trkpt>
      <trkpt lat="45.93355" lon="4.72514">
        <ele>172</ele>
        <time>2017-05-10T08:15:03Z</time>
      </trkpt>
      <trkpt lat="45.9336" lon="4.72509">
        <ele>172</ele>
        <time>2017-05-10T08:15:04Z</time>
      </trkpt>
      <trkpt lat="45.93364" lon="4.72503">
        <ele>172</ele>
        <time>2017-05-10T08:15:05Z</time>
      </trkpt>
      <trkpt lat="45.93369" lon="4.72498">
        <ele>173</ele>
        <time>2017-05-10T08:15:06Z</time>
      </trkpt>
      <trkpt lat="45.93373" lon="4.72493">
        <ele>173</ele>
        <time>2017-05-10T08:15:07Z</time>
      </trkpt>
      <trkpt lat="45.93377" lon="4.72488">
        <ele>173</ele>
        <time>2017-05-10T08:15:08Z</time>
      </trkpt>
      <trkpt lat="45.9338" lon="4.72483">
        <ele>173</ele>
        <time>2017-05-10T08:15:09Z</time>
      </trkpt>
      <trkpt lat="45.93384" lon="4.72477">
        <ele>173</ele>
        <time>2017-05-10T08:15:10Z</time>
      </trkpt>
      <trkpt lat="45.93387" lon="4.72472">
        <ele>173</ele>
        <time>2017-05-10T08:15:11Z</time>
      </trkpt>
      <trkpt lat="45.9339" lon="4.72466">
        <ele>173</ele>
        <time>2017-05-10T08:15:12Z</time>
      </trkpt>
      <trkpt lat="45.93392" lon="4.7246">
        <ele>173</ele>
        <time>2017-05-10T08:15:13Z</time>
      </trkpt>
      <trkpt lat="45.93393" lon="4.72453">
        <ele>173</ele>
        <time>2017-05-10T08:15:14Z</time>
      </trkpt>
      <trkpt lat="45.93395" lon="4.72446">
        <ele>173</ele>
        <time>2017-05-10T08:15:15Z</time>
      </trkpt>
      <trkpt lat="45.93397" lon="4.72439">
        <ele>173</ele>
        <time>2017-05-10T08:15:16Z</time>
      </trkpt>
      <trkpt lat="45.934" lon="4.72433">
        <ele>173</ele>
        <time>2017-05-10T08:15:17Z</time>
      </trkpt>
      <trkpt lat="45.93403" lon="4.72428">
        <ele>173</ele>
        <time>2017-05-10T08:15:18Z</time>
      </trkpt>
      <trkpt lat="45.93408" lon="4.72423">
        <ele>174</ele>
        <time>2017-05-10T08:15:19Z</time>
      </trkpt>
      <trkpt lat="45.93413" lon="4.7242">
        <ele>174</ele>
        <time>2017-05-10T08:15:20Z</time>
      </trkpt>
      <trkpt lat="45.93418" lon="4.72417">
        <ele>174</ele>
        <time>2017-05-10T08:15:21Z</time>
      </trkpt>
      <trkpt lat="45.93424" lon="4.72414">
        <ele>174</ele>
        <time>2017-05-10T08:15:22Z</time>
      </trkpt>
      <trkpt lat="45.93429" lon="4.72411">
        <ele>174</ele>
        <time>2017-05-10T08:15:23Z</time>
      </trkpt>
      <trkpt lat="45.93434" lon="4.72407">
        <ele>174</ele>
        <time>2017-05-10T08:15:24Z</time>
      </trkpt>
      <trkpt lat="45.9344" lon="4.72404">
        <ele>173</ele>
        <time>2017-05-10T08:15:25Z</time>
      </trkpt>
      <trkpt lat="45.93445" lon="4.724">
        <ele>173</ele>
        <time>2017-05-10T08:15:26Z</time>
      </trkpt>
      <trkpt lat="45.9345" lon="4.72395">
        <ele>173</ele>
        <time>2017-05-10T08:15:27Z</time>
      </trkpt>
      <trkpt lat="45.93455" lon="4.7239">
        <ele>173</ele>
        <time>2017-05-10T08:15:28Z</time>
      </trkpt>
      <trkpt lat="45.9346" lon="4.72384">
        <ele>173</ele>
        <time>2017-05-10T08:15:29Z</time>
      </trkpt>
      <trkpt lat="45.93465" lon="4.72378">
        <ele>173</ele>
        <time>2017-05-10T08:15:30Z</time>
      </trkpt>
      <trkpt lat="45.93469" lon="4.72372">
        <ele>173</ele>
        <time>2017-05-10T08:15:31Z</time>
      </trkpt>
      <trkpt lat="45.93473" lon="4.72366">
        <ele>173</ele>
        <time>2017-05-10T08:15:32Z</time>
      </trkpt>
      <trkpt lat="45.93478" lon="4.7236">
        <ele>173</ele>
        <time>2017-05-10T08:15:33Z</time>
      </trkpt>
      <trkpt lat="45.93482" lon="4.72353">
        <ele>173</ele>
        <time>2017-05-10T08:15:34Z</time>
      </trkpt>
      <trkpt lat="45.93487" lon="4.72348">
        <ele>173</ele>
        <time>2017-05-10T08:15:35Z</time>
      </trkpt>
      <trkpt lat="45.93491" lon="4.72342">
        <ele>173</ele>
        <time>2017-05-10T08:15:36Z</time>
      </trkpt>
      <trkpt lat="45.93496" lon="4.72337">
        <ele>173</ele>
        <time>2017-05-10T08:15:37Z</time>
      </trkpt>
      <trkpt lat="45.935" lon="4.72332">
        <ele>173</ele>
        <time>2017-05-10T08:15:38Z</time>
      </trkpt>
      <trkpt lat="45.93504" lon="4.72326">
        <ele>173</ele>
        <time>2017-05-10T08:15:39Z</time>
      </trkpt>
      <trkpt lat="45.93508" lon="4.7232">
        <ele>173</ele>
        <time>2017-05-10T08:15:40Z</time>
      </trkpt>
      <trkpt lat="45.93511" lon="4.72314">
        <ele>173</ele>
        <time>2017-05-10T08:15:41Z</time>
      </trkpt>
      <trkpt lat="45.93515" lon="4.72307">
        <ele>173</ele>
        <time>2017-05-10T08:15:42Z</time>
      </trkpt>
      <trkpt lat="45.93519" lon="4.72301">
        <ele>172</ele>
        <time>2017-05-10T08:15:43Z</time>
      </trkpt>
      <trkpt lat="45.93522" lon="4.72293">
        <ele>172</ele>
        <time>2017-05-10T08:15:44Z</time>
      </trkpt>
      <trkpt lat="45.93525" lon="4.72286">
        <ele>172</ele>
        <time>2017-05-10T08:15:45Z</time>
      </trkpt>
      <trkpt lat="45.93527" lon="4.72279">
        <ele>172</ele>
        <time>2017-05-10T08:15:46Z</time>
      </trkpt>
      <trkpt lat="45.9353" lon="4.72272">
        <ele>172</ele>
        <time>2017-05-10T08:15:47Z</time>
      </trkpt>
      <trkpt lat="45.93533" lon="4.72265">
        <ele>172</ele>
        <time>2017-05-10T08:15:48Z</time>
      </trkpt>
      <trkpt lat="45.93535" lon="4.72258">
        <ele>172</ele>
        <time>2017-05-10T08:15:49Z</time>
      </trkpt>
      <trkpt lat="45.93538" lon="4.72252">
        <ele>172</ele>
        <time>2017-05-10T08:15:50Z</time>
      </trkpt>
      <trkpt lat="45.93541" lon="4.72245">
        <ele>172</ele>
        <time>2017-05-10T08:15:51Z</time>
      </trkpt>
      <trkpt lat="45.93543" lon="4.72238">
        <ele>172</ele>
        <time>2017-05-10T08:15:52Z</time>
      </trkpt>
      <trkpt lat="45.93546" lon="4.72232">
        <ele>172</ele>
        <time>2017-05-10T08:15:53Z</time>
      </trkpt>
      <trkpt lat="45.93549" lon="4.72227">
        <ele>172</ele>
        <time>2017-05-10T08:15:54Z</time>
      </trkpt>
      <trkpt lat="45.93554" lon="4.72225">
        <ele>173</ele>
        <time>2017-05-10T08:15:55Z</time>
      </trkpt>
      <trkpt lat="45.9356" lon="4.72225">
        <ele>173</ele>
        <time>2017-05-10T08:15:56Z</time>
      </trkpt>
      <trkpt lat="45.93564" lon="4.72229">
        <ele>173</ele>
        <time>2017-05-10T08:15:57Z</time>
      </trkpt>
      <trkpt lat="45.93568" lon="4.72234">
        <ele>173</ele>
        <time>2017-05-10T08:15:58Z</time>
      </trkpt>
      <trkpt lat="45.93573" lon="4.72238">
        <ele>173</ele>
        <time>2017-05-10T08:15:59Z</time>
      </trkpt>
      <trkpt lat="45.93577" lon="4.72243">
        <ele>173</ele>
        <time>2017-05-10T08:16:00Z</time>
      </trkpt>
      <trkpt lat="45.9358" lon="4.72247">
        <ele>173</ele>
        <time>2017-05-10T08:16:01Z</time>
      </trkpt>
      <trkpt lat="45.93584" lon="4.72252">
        <ele>173</ele>
        <time>2017-05-10T08:16:02Z</time>
      </trkpt>
      <trkpt lat="45.93589" lon="4.72256">
        <ele>173</ele>
        <time>2017-05-10T08:16:03Z</time>
      </trkpt>
      <trkpt lat="45.93592" lon="4.72261">
        <ele>173</ele>
        <time>2017-05-10T08:16:04Z</time>
      </trkpt>
      <trkpt lat="45.93596" lon="4.72265">
        <ele>173</ele>
        <time>2017-05-10T08:16:05Z</time>
      </trkpt>
      <trkpt lat="45.936" lon="4.72269">
        <ele>173</ele>
        <time>2017-05-10T08:16:06Z</time>
      </trkpt>
      <trkpt lat="45.93605" lon="4.72274">
        <ele>172</ele>
        <time>2017-05-10T08:16:07Z</time>
      </trkpt>
      <trkpt lat="45.93609" lon="4.72279">
        <ele>172</ele>
        <time>2017-05-10T08:16:08Z</time>
      </trkpt>
      <trkpt lat="45.93614" lon="4.72284">
        <ele>172</ele>
        <time>2017-05-10T08:16:09Z</time>
      </trkpt>
      <trkpt lat="45.93619" lon="4.72289">
        <ele>172</ele>
        <time>2017-05-10T08:16:10Z</time>
      </trkpt>
      <trkpt lat="45.93623" lon="4.72294">
        <ele>172</ele>
        <time>2017-05-10T08:16:11Z</time>
      </trkpt>
      <trkpt lat="45.93628" lon="4.72298">
        <ele>172</ele>
        <time>2017-05-10T08:16:12Z</time>
      </trkpt>
      <trkpt lat="45.93633" lon="4.72302">
        <ele>172</ele>
        <time>2017-05-10T08:16:13Z</time>
      </trkpt>
      <trkpt lat="45.93637" lon="4.72307">
        <ele>172</ele>
        <time>2017-05-10T08:16:14Z</time>
      </trkpt>
      <trkpt lat="45.93643" lon="4.72312">
        <ele>172</ele>
        <time>2017-05-10T08:16:15Z</time>
      </trkpt>
      <trkpt lat="45.93648" lon="4.72318">
        <ele>172</ele>
        <time>2017-05-10T08:16:16Z</time>
      </trkpt>
      <trkpt lat="45.93654" lon="4.72323">
        <ele>172</ele>
        <time>2017-05-10T08:16:17Z</time>
      </trkpt>
      <trkpt lat="45.93659" lon="4.72328">
        <ele>171</ele>
        <time>2017-05-10T08:16:18Z</time>
      </trkpt>
      <trkpt lat="45.93664" lon="4.72332">
        <ele>171</ele>
        <time>2017-05-10T08:16:19Z</time>
      </trkpt>
      <trkpt lat="45.93669" lon="4.72336">
        <ele>171</ele>
        <time>2017-05-10T08:16:20Z</time>
      </trkpt>
      <trkpt lat="45.93674" lon="4.72341">
        <ele>171</ele>
        <time>2017-05-10T08:16:21Z</time>
      </trkpt>
      <trkpt lat="45.93678" lon="4.72346">
        <ele>171</ele>
        <time>2017-05-10T08:16:22Z</time>
      </trkpt>
      <trkpt lat="45.93683" lon="4.72351">
        <ele>171</ele>
        <time>2017-05-10T08:16:23Z</time>
      </trkpt>
      <trkpt lat="45.93688" lon="4.72354">
        <ele>171</ele>
        <time>2017-05-10T08:16:24Z</time>
      </trkpt>
      <trkpt lat="45.93692" lon="4.72358">
        <ele>171</ele>
        <time>2017-05-10T08:16:25Z</time>
      </trkpt>
      <trkpt lat="45.93697" lon="4.72362">
        <ele>171</ele>
        <time>2017-05-10T08:16:26Z</time>
      </trkpt>
      <trkpt lat="45.93701" lon="4.72367">
        <ele>171</ele>
        <time>2017-05-10T08:16:27Z</time>
      </trkpt>
      <trkpt lat="45.93706" lon="4.72372">
        <ele>171</ele>
        <time>2017-05-10T08:16:28Z</time>
      </trkpt>
      <trkpt lat="45.9371" lon="4.72378">
        <ele>171</ele>
        <time>2017-05-10T08:16:29Z</time>
      </trkpt>
      <trkpt lat="45.93714" lon="4.72382">
        <ele>171</ele>
        <time>2017-05-10T08:16:30Z</time>
      </trkpt>
      <trkpt lat="45.93719" lon="4.72386">
        <ele>171</ele>
        <time>2017-05-10T08:16:31Z</time>
      </trkpt>
      <trkpt lat="45.93724" lon="4.7239">
        <ele>171</ele>
        <time>2017-05-10T08:16:32Z</time>
      </trkpt>
      <trkpt lat="45.93729" lon="4.72395">
        <ele>171</ele>
        <time>2017-05-10T08:16:33Z</time>
      </trkpt>
      <trkpt lat="45.93733" lon="4.72399">
        <ele>171</ele>
        <time>2017-05-10T08:16:34Z</time>
      </trkpt>
      <trkpt lat="45.93738" lon="4.72404">
        <ele>171</ele>
        <time>2017-05-10T08:16:35Z</time>
      </trkpt>
      <trkpt lat="45.93743" lon="4.72408">
        <ele>171</ele>
        <time>2017-05-10T08:16:36Z</time>
      </trkpt>
      <trkpt lat="45.93747" lon="4.72413">
        <ele>171</ele>
        <time>2017-05-10T08:16:37Z</time>
      </trkpt>
      <trkpt lat="45.93752" lon="4.72418">
        <ele>171</ele>
        <time>2017-05-10T08:16:38Z</time>
      </trkpt>
      <trkpt lat="45.93756" lon="4.72423">
        <ele>171</ele>
        <time>2017-05-10T08:16:39Z</time>
      </trkpt>
      <trkpt lat="45.93761" lon="4.72427">
        <ele>171</ele>
        <time>2017-05-10T08:16:40Z</time>
      </trkpt>
      <trkpt lat="45.93766" lon="4.72432">
        <ele>171</ele>
        <time>2017-05-10T08:16:41Z</time>
      </trkpt>
      <trkpt lat="45.93771" lon="4.72437">
        <ele>171</ele>
        <time>2017-05-10T08:16:42Z</time>
      </trkpt>
      <trkpt lat="45.93776" lon="4.72442">
        <ele>172</ele>
        <time>2017-05-10T08:16:43Z</time>
      </trkpt>
      <trkpt lat="45.93781" lon="4.72447">
        <ele>172</ele>
        <time>2017-05-10T08:16:44Z</time>
      </trkpt>
      <trkpt lat="45.93786" lon="4.72452">
        <ele>172</ele>
        <time>2017-05-10T08:16:45Z</time>
      </trkpt>
      <trkpt lat="45.93792" lon="4.72456">
        <ele>172</ele>
        <time>2017-05-10T08:16:46Z</time>
      </trkpt>
      <trkpt lat="45.93797" lon="4.72459">
        <ele>172</ele>
        <time>2017-05-10T08:16:47Z</time>
      </trkpt>
      <trkpt lat="45.93802" lon="4.72465">
        <ele>172</ele>
        <time>2017-05-10T08:16:48Z</time>
      </trkpt>
      <trkpt lat="45.93807" lon="4.72471">
        <ele>172</ele>
        <time>2017-05-10T08:16:49Z</time>
      </trkpt>
      <trkpt lat="45.93813" lon="4.72476">
        <ele>172</ele>
        <time>2017-05-10T08:16:50Z</time>
      </trkpt>
      <trkpt lat="45.93818" lon="4.7248">
        <ele>173</ele>
        <time>2017-05-10T08:16:51Z</time>
      </trkpt>
      <trkpt lat="45.93823" lon="4.72484">
        <ele>173</ele>
        <time>2017-05-10T08:16:52Z</time>
      </trkpt>
      <trkpt lat="45.93827" lon="4.72488">
        <ele>173</ele>
        <time>2017-05-10T08:16:53Z</time>
      </trkpt>
      <trkpt lat="45.93832" lon="4.72491">
        <ele>173</ele>
        <time>2017-05-10T08:16:54Z</time>
      </trkpt>
      <trkpt lat="45.93837" lon="4.72493">
        <ele>174</ele>
        <time>2017-05-10T08:16:55Z</time>
      </trkpt>
      <trkpt lat="45.93841" lon="4.72496">
        <ele>173</ele>
        <time>2017-05-10T08:16:56Z</time>
      </trkpt>
      <trkpt lat="45.93845" lon="4.72499">
        <ele>173</ele>
        <time>2017-05-10T08:16:57Z</time>
      </trkpt>
      <trkpt lat="45.9385" lon="4.72505">
        <ele>174</ele>
        <time>2017-05-10T08:16:58Z</time>
      </trkpt>
      <trkpt lat="45.93855" lon="4.72514">
        <ele>173</ele>
        <time>2017-05-10T08:16:59Z</time>
      </trkpt>
      <trkpt lat="45.93859" lon="4.72518">
        <ele>173</ele>
        <time>2017-05-10T08:17:00Z</time>
      </trkpt>
      <trkpt lat="45.93865" lon="4.7252">
        <ele>173</ele>
        <time>2017-05-10T08:17:01Z</time>
      </trkpt>
      <trkpt lat="45.93871" lon="4.72519">
        <ele>173</ele>
        <time>2017-05-10T08:17:02Z</time>
      </trkpt>
      <trkpt lat="45.93877" lon="4.72517">
        <ele>173</ele>
        <time>2017-05-10T08:17:03Z</time>
      </trkpt>
      <trkpt lat="45.93882" lon="4.72512">
        <ele>173</ele>
        <time>2017-05-10T08:17:04Z</time>
      </trkpt>
      <trkpt lat="45.93887" lon="4.72506">
        <ele>173</ele>
        <time>2017-05-10T08:17:05Z</time>
      </trkpt>
      <trkpt lat="45.93891" lon="4.725">
        <ele>172</ele>
        <time>2017-05-10T08:17:06Z</time>
      </trkpt>
      <trkpt lat="45.93896" lon="4.72493">
        <ele>172</ele>
        <time>2017-05-10T08:17:07Z</time>
      </trkpt>
      <trkpt lat="45.939" lon="4.72487">
        <ele>172</ele>
        <time>2017-05-10T08:17:08Z</time>
      </trkpt>
      <trkpt lat="45.93905" lon="4.72481">
        <ele>172</ele>
        <time>2017-05-10T08:17:09Z</time>
      </trkpt>
      <trkpt lat="45.9391" lon="4.72475">
        <ele>172</ele>
        <time>2017-05-10T08:17:10Z</time>
      </trkpt>
      <trkpt lat="45.93915" lon="4.72468">
        <ele>172</ele>
        <time>2017-05-10T08:17:11Z</time>
      </trkpt>
      <trkpt lat="45.9392" lon="4.72462">
        <ele>171</ele>
        <time>2017-05-10T08:17:12Z</time>
      </trkpt>
      <trkpt lat="45.93925" lon="4.72456">
        <ele>171</ele>
        <time>2017-05-10T08:17:13Z</time>
      </trkpt>
      <trkpt lat="45.9393" lon="4.72449">
        <ele>171</ele>
        <time>2017-05-10T08:17:14Z</time>
      </trkpt>
      <trkpt lat="45.93935" lon="4.72443">
        <ele>171</ele>
        <time>2017-05-10T08:17:15Z</time>
      </trkpt>
      <trkpt lat="45.93941" lon="4.72436">
        <ele>171</ele>
        <time>2017-05-10T08:17:16Z</time>
      </trkpt>
      <trkpt lat="45.93946" lon="4.72431">
        <ele>171</ele>
        <time>2017-05-10T08:17:17Z</time>
      </trkpt>
      <trkpt lat="45.93952" lon="4.72424">
        <ele>171</ele>
        <time>2017-05-10T08:17:18Z</time>
      </trkpt>
      <trkpt lat="45.93957" lon="4.72418">
        <ele>171</ele>
        <time>2017-05-10T08:17:19Z</time>
      </trkpt>
      <trkpt lat="45.93962" lon="4.72412">
        <ele>171</ele>
        <time>2017-05-10T08:17:20Z</time>
      </trkpt>
      <trkpt lat="45.93967" lon="4.72406">
        <ele>171</ele>
        <time>2017-05-10T08:17:21Z</time>
      </trkpt>
      <trkpt lat="45.93972" lon="4.72399">
        <ele>171</ele>
        <time>2017-05-10T08:17:22Z</time>
      </trkpt>
      <trkpt lat="45.93977" lon="4.72393">
        <ele>171</ele>
        <time>2017-05-10T08:17:23Z</time>
      </trkpt>
      <trkpt lat="45.93982" lon="4.72387">
        <ele>171</ele>
        <time>2017-05-10T08:17:24Z</time>
      </trkpt>
      <trkpt lat="45.93987" lon="4.72381">
        <ele>171</ele>
        <time>2017-05-10T08:17:25Z</time>
      </trkpt>
      <trkpt lat="45.93991" lon="4.72375">
        <ele>171</ele>
        <time>2017-05-10T08:17:26Z</time>
      </trkpt>
      <trkpt lat="45.93996" lon="4.7237">
        <ele>171</ele>
        <time>2017-05-10T08:17:27Z</time>
      </trkpt>
      <trkpt lat="45.94001" lon="4.72363">
        <ele>171</ele>
        <time>2017-05-10T08:17:28Z</time>
      </trkpt>
      <trkpt lat="45.94005" lon="4.72358">
        <ele>171</ele>
        <time>2017-05-10T08:17:29Z</time>
      </trkpt>
      <trkpt lat="45.9401" lon="4.72352">
        <ele>171</ele>
        <time>2017-05-10T08:17:30Z</time>
      </trkpt>
      <trkpt lat="45.94015" lon="4.72347">
        <ele>171</ele>
        <time>2017-05-10T08:17:31Z</time>
      </trkpt>
      <trkpt lat="45.94019" lon="4.72342">
        <ele>171</ele>
        <time>2017-05-10T08:17:32Z</time>
      </trkpt>
      <trkpt lat="45.94022" lon="4.72337">
        <ele>171</ele>
        <time>2017-05-10T08:17:33Z</time>
      </trkpt>
      <trkpt lat="45.94026" lon="4.72332">
        <ele>171</ele>
        <time>2017-05-10T08:17:34Z</time>
      </trkpt>
      <trkpt lat="45.9403" lon="4.72327">
        <ele>171</ele>
        <time>2017-05-10T08:17:35Z</time>
      </trkpt>
      <trkpt lat="45.94034" lon="4.72321">
        <ele>171</ele>
        <time>2017-05-10T08:17:36Z</time>
      </trkpt>
      <trkpt lat="45.94038" lon="4.72316">
        <ele>171</ele>
        <time>2017-05-10T08:17:37Z</time>
      </trkpt>
      <trkpt lat="45.94042" lon="4.72311">
        <ele>171</ele>
        <time>2017-05-10T08:17:38Z</time>
      </trkpt>
      <trkpt lat="45.94046" lon="4.72306">
        <ele>171</ele>
        <time>2017-05-10T08:17:39Z</time>
      </trkpt>
      <trkpt lat="45.94049" lon="4.72301">
        <ele>171</ele>
        <time>2017-05-10T08:17:40Z</time>
      </trkpt>
      <trkpt lat="45.94053" lon="4.72295">
        <ele>171</ele>
        <time>2017-05-10T08:17:41Z</time>
      </trkpt>
      <trkpt lat="45.94057" lon="4.72291">
        <ele>171</ele>
        <time>2017-05-10T08:17:42Z</time>
      </trkpt>
      <trkpt lat="45.94061" lon="4.72287">
        <ele>171</ele>
        <time>2017-05-10T08:17:43Z</time>
      </trkpt>
      <trkpt lat="45.94064" lon="4.72284">
        <ele>171</ele>
        <time>2017-05-10T08:17:44Z</time>
      </trkpt>
      <trkpt lat="45.94069" lon="4.7228">
        <ele>171</ele>
        <time>2017-05-10T08:17:45Z</time>
      </trkpt>
      <trkpt lat="45.94073" lon="4.72277">
        <ele>171</ele>
        <time>2017-05-10T08:17:46Z</time>
      </trkpt>
      <trkpt lat="45.94079" lon="4.72274">
        <ele>171</ele>
        <time>2017-05-10T08:17:47Z</time>
      </trkpt>
      <trkpt lat="45.94086" lon="4.72271">
        <ele>171</ele>
        <time>2017-05-10T08:17:48Z</time>
      </trkpt>
      <trkpt lat="45.94093" lon="4.7227">
        <ele>171</ele>
        <time>2017-05-10T08:17:49Z</time>
      </trkpt>
      <trkpt lat="45.941" lon="4.72269">
        <ele>171</ele>
        <time>2017-05-10T08:17:50Z</time>
      </trkpt>
      <trkpt lat="45.94107" lon="4.72268">
        <ele>171</ele>
        <time>2017-05-10T08:17:51Z</time>
      </trkpt>
      <trkpt lat="45.94112" lon="4.7227">
        <ele>171</ele>
        <time>2017-05-10T08:17:52Z</time>
      </trkpt>
      <trkpt lat="45.94118" lon="4.72272">
        <ele>171</ele>
        <time>2017-05-10T08:17:53Z</time>
      </trkpt>
      <trkpt lat="45.94124" lon="4.72274">
        <ele>171</ele>
        <time>2017-05-10T08:17:54Z</time>
      </trkpt>
      <trkpt lat="45.94129" lon="4.72276">
        <ele>171</ele>
        <time>2017-05-10T08:17:55Z</time>
      </trkpt>
      <trkpt lat="45.94135" lon="4.72279">
        <ele>171</ele>
        <time>2017-05-10T08:17:56Z</time>
      </trkpt>
      <trkpt lat="45.9414" lon="4.72281">
        <ele>171</ele>
        <time>2017-05-10T08:17:57Z</time>
      </trkpt>
      <trkpt lat="45.94145" lon="4.72284">
        <ele>171</ele>
        <time>2017-05-10T08:17:58Z</time>
      </trkpt>
      <trkpt lat="45.94151" lon="4.72287">
        <ele>171</ele>
        <time>2017-05-10T08:17:59Z</time>
      </trkpt>
      <trkpt lat="45.94156" lon="4.72288">
        <ele>171</ele>
        <time>2017-05-10T08:18:00Z</time>
      </trkpt>
      <trkpt lat="45.94162" lon="4.72289">
        <ele>171</ele>
        <time>2017-05-10T08:18:01Z</time>
      </trkpt>
      <trkpt lat="45.94167" lon="4.7229">
        <ele>171</ele>
        <time>2017-05-10T08:18:02Z</time>
      </trkpt>
      <trkpt lat="45.94172" lon="4.7229">
        <ele>171</ele>
        <time>2017-05-10T08:18:03Z</time>
      </trkpt>
      <trkpt lat="45.94177" lon="4.72291">
        <ele>171</ele>
        <time>2017-05-10T08:18:04Z</time>
      </trkpt>
      <trkpt lat="45.94182" lon="4.72291">
        <ele>171</ele>
        <time>2017-05-10T08:18:05Z</time>
      </trkpt>
      <trkpt lat="45.94187" lon="4.72292">
        <ele>171</ele>
        <time>2017-05-10T08:18:06Z</time>
      </trkpt>
      <trkpt lat="45.94192" lon="4.72292">
        <ele>171</ele>
        <time>2017-05-10T08:18:07Z</time>
      </trkpt>
      <trkpt lat="45.94198" lon="4.72292">
        <ele>171</ele>
        <time>2017-05-10T08:18:08Z</time>
      </trkpt>
      <trkpt lat="45.94204" lon="4.72292">
        <ele>171</ele>
        <time>2017-05-10T08:18:09Z</time>
      </trkpt>
      <trkpt lat="45.94209" lon="4.72291">
        <ele>171</ele>
        <time>2017-05-10T08:18:10Z</time>
      </trkpt>
      <trkpt lat="45.94215" lon="4.7229">
        <ele>171</ele>
        <time>2017-05-10T08:18:11Z</time>
      </trkpt>
      <trkpt lat="45.94221" lon="4.7229">
        <ele>171</ele>
        <time>2017-05-10T08:18:12Z</time>
      </trkpt>
      <trkpt lat="45.94226" lon="4.72289">
        <ele>171</ele>
        <time>2017-05-10T08:18:13Z</time>
      </trkpt>
      <trkpt lat="45.94231" lon="4.72288">
        <ele>171</ele>
        <time>2017-05-10T08:18:14Z</time>
      </trkpt>
      <trkpt lat="45.94236" lon="4.72286">
        <ele>171</ele>
        <time>2017-05-10T08:18:15Z</time>
      </trkpt>
      <trkpt lat="45.94241" lon="4.72285">
        <ele>171</ele>
        <time>2017-05-10T08:18:16Z</time>
      </trkpt>
      <trkpt lat="45.94246" lon="4.72284">
        <ele>171</ele>
        <time>2017-05-10T08:18:17Z</time>
      </trkpt>
      <trkpt lat="45.94254" lon="4.72283">
        <ele>171</ele>
        <time>2017-05-10T08:18:19Z</time>
      </trkpt>
      <trkpt lat="45.94259" lon="4.72281">
        <ele>171</ele>
        <time>2017-05-10T08:18:20Z</time>
      </trkpt>
      <trkpt lat="45.94266" lon="4.7228">
        <ele>171</ele>
        <time>2017-05-10T08:18:22Z</time>
      </trkpt>
      <trkpt lat="45.94269" lon="4.7228">
        <ele>171</ele>
        <time>2017-05-10T08:18:23Z</time>
      </trkpt>
      <trkpt lat="45.94274" lon="4.72287">
        <ele>171</ele>
        <time>2017-05-10T08:18:26Z</time>
      </trkpt>
      <trkpt lat="45.94276" lon="4.72291">
        <ele>171</ele>
        <time>2017-05-10T08:18:27Z</time>
      </trkpt>
      <trkpt lat="45.9428" lon="4.72302">
        <ele>171</ele>
        <time>2017-05-10T08:18:29Z</time>
      </trkpt>
      <trkpt lat="45.94282" lon="4.72308">
        <ele>171</ele>
        <time>2017-05-10T08:18:30Z</time>
      </trkpt>
      <trkpt lat="45.94285" lon="4.72314">
        <ele>171</ele>
        <time>2017-05-10T08:18:31Z</time>
      </trkpt>
      <trkpt lat="45.94288" lon="4.7232">
        <ele>171</ele>
        <time>2017-05-10T08:18:32Z</time>
      </trkpt>
      <trkpt lat="45.94291" lon="4.72326">
        <ele>171</ele>
        <time>2017-05-10T08:18:33Z</time>
      </trkpt>
      <trkpt lat="45.94293" lon="4.72333">
        <ele>171</ele>
        <time>2017-05-10T08:18:34Z</time>
      </trkpt>
      <trkpt lat="45.94296" lon="4.72339">
        <ele>172</ele>
        <time>2017-05-10T08:18:35Z</time>
      </trkpt>
      <trkpt lat="45.94298" lon="4.72345">
        <ele>172</ele>
        <time>2017-05-10T08:18:36Z</time>
      </trkpt>
      <trkpt lat="45.94301" lon="4.7235">
        <ele>172</ele>
        <time>2017-05-10T08:18:37Z</time>
      </trkpt>
      <trkpt lat="45.94303" lon="4.72356">
        <ele>172</ele>
        <time>2017-05-10T08:18:38Z</time>
      </trkpt>
      <trkpt lat="45.94306" lon="4.72363">
        <ele>172</ele>
        <time>2017-05-10T08:18:39Z</time>
      </trkpt>
      <trkpt lat="45.94308" lon="4.72369">
        <ele>172</ele>
        <time>2017-05-10T08:18:40Z</time>
      </trkpt>
      <trkpt lat="45.94311" lon="4.72376">
        <ele>172</ele>
        <time>2017-05-10T08:18:41Z</time>
      </trkpt>
      <trkpt lat="45.94313" lon="4.72382">
        <ele>172</ele>
        <time>2017-05-10T08:18:42Z</time>
      </trkpt>
      <trkpt lat="45.94316" lon="4.7239">
        <ele>172</ele>
        <time>2017-05-10T08:18:43Z</time>
      </trkpt>
      <trkpt lat="45.94318" lon="4.72396">
        <ele>172</ele>
        <time>2017-05-10T08:18:44Z</time>
      </trkpt>
      <trkpt lat="45.94321" lon="4.72404">
        <ele>172</ele>
        <time>2017-05-10T08:18:45Z</time>
      </trkpt>
      <trkpt lat="45.94324" lon="4.72411">
        <ele>173</ele>
        <time>2017-05-10T08:18:46Z</time>
      </trkpt>
      <trkpt lat="45.94327" lon="4.72419">
        <ele>173</ele>
        <time>2017-05-10T08:18:47Z</time>
      </trkpt>
      <trkpt lat="45.9433" lon="4.72426">
        <ele>173</ele>
        <time>2017-05-10T08:18:48Z</time>
      </trkpt>
      <trkpt lat="45.94334" lon="4.72433">
        <ele>173</ele>
        <time>2017-05-10T08:18:49Z</time>
      </trkpt>
      <trkpt lat="45.94337" lon="4.7244">
        <ele>173</ele>
        <time>2017-05-10T08:18:50Z</time>
      </trkpt>
      <trkpt lat="45.9434" lon="4.72448">
        <ele>173</ele>
        <time>2017-05-10T08:18:51Z</time>
      </trkpt>
      <trkpt lat="45.94343" lon="4.72454">
        <ele>173</ele>
        <time>2017-05-10T08:18:52Z</time>
      </trkpt>
      <trkpt lat="45.94347" lon="4.7246">
        <ele>173</ele>
        <time>2017-05-10T08:18:53Z</time>
      </trkpt>
      <trkpt lat="45.9435" lon="4.72467">
        <ele>173</ele>
        <time>2017-05-10T08:18:54Z</time>
      </trkpt>
      <trkpt lat="45.94353" lon="4.72473">
        <ele>173</ele>
        <time>2017-05-10T08:18:55Z</time>
      </trkpt>
      <trkpt lat="45.94355" lon="4.72481">
        <ele>173</ele>
        <time>2017-05-10T08:18:56Z</time>
      </trkpt>
      <trkpt lat="45.94358" lon="4.72487">
        <ele>173</ele>
        <time>2017-05-10T08:18:57Z</time>
      </trkpt>
      <trkpt lat="45.94361" lon="4.72493">
        <ele>173</ele>
        <time>2017-05-10T08:18:58Z</time>
      </trkpt>
      <trkpt lat="45.94363" lon="4.725">
        <ele>173</ele>
        <time>2017-05-10T08:18:59Z</time>
      </trkpt>
      <trkpt lat="45.94366" lon="4.72507">
        <ele>173</ele>
        <time>2017-05-10T08:19:00Z</time>
      </trkpt>
      <trkpt lat="45.94368" lon="4.72513">
        <ele>173</ele>
        <time>2017-05-10T08:19:01Z</time>
      </trkpt>
      <trkpt lat="45.9437" lon="4.7252">
        <ele>173</ele>
        <time>2017-05-10T08:19:02Z</time>
      </trkpt>
      <trkpt lat="45.94372" lon="4.72527">
        <ele>173</ele>
        <time>2017-05-10T08:19:03Z</time>
      </trkpt>
      <trkpt lat="45.94374" lon="4.72534">
        <ele>173</ele>
        <time>2017-05-10T08:19:04Z</time>
      </trkpt>
      <trkpt lat="45.94376" lon="4.72541">
        <ele>174</ele>
        <time>2017-05-10T08:19:05Z</time>
      </trkpt>
      <trkpt lat="45.94378" lon="4.72548">
        <ele>173</ele>
        <time>2017-05-10T08:19:06Z</time>
      </trkpt>
      <trkpt lat="45.94379" lon="4.72555">
        <ele>173</ele>
        <time>2017-05-10T08:19:07Z</time>
      </trkpt>
      <trkpt lat="45.9438" lon="4.72563">
        <ele>173</ele>
        <time>2017-05-10T08:19:08Z</time>
      </trkpt>
      <trkpt lat="45.94382" lon="4.7257">
        <ele>173</ele>
        <time>2017-05-10T08:19:09Z</time>
      </trkpt>
      <trkpt lat="45.94383" lon="4.72578">
        <ele>173</ele>
        <time>2017-05-10T08:19:10Z</time>
      </trkpt>
      <trkpt lat="45.94384" lon="4.72585">
        <ele>173</ele>
        <time>2017-05-10T08:19:11Z</time>
      </trkpt>
      <trkpt lat="45.94384" lon="4.72594">
        <ele>173</ele>
        <time>2017-05-10T08:19:12Z</time>
      </trkpt>
      <trkpt lat="45.94385" lon="4.72602">
        <ele>173</ele>
        <time>2017-05-10T08:19:13Z</time>
      </trkpt>
      <trkpt lat="45.94386" lon="4.72609">
        <ele>173</ele>
        <time>2017-05-10T08:19:14Z</time>
      </trkpt>
      <trkpt lat="45.94387" lon="4.72617">
        <ele>173</ele>
        <time>2017-05-10T08:19:15Z</time>
      </trkpt>
      <trkpt lat="45.94388" lon="4.72624">
        <ele>173</ele>
        <time>2017-05-10T08:19:16Z</time>
      </trkpt>
      <trkpt lat="45.94389" lon="4.72632">
        <ele>174</ele>
        <time>2017-05-10T08:19:17Z</time>
      </trkpt>
      <trkpt lat="45.9439" lon="4.72639">
        <ele>174</ele>
        <time>2017-05-10T08:19:18Z</time>
      </trkpt>
      <trkpt lat="45.94391" lon="4.72647">
        <ele>174</ele>
        <time>2017-05-10T08:19:19Z</time>
      </trkpt>
      <trkpt lat="45.94392" lon="4.72654">
        <ele>174</ele>
        <time>2017-05-10T08:19:20Z</time>
      </trkpt>
      <trkpt lat="45.94391" lon="4.72664">
        <ele>174</ele>
        <time>2017-05-10T08:19:21Z</time>
      </trkpt>
      <trkpt lat="45.94391" lon="4.72671">
        <ele>173</ele>
        <time>2017-05-10T08:19:22Z</time>
      </trkpt>
      <trkpt lat="45.94392" lon="4.7268">
        <ele>173</ele>
        <time>2017-05-10T08:19:23Z</time>
      </trkpt>
      <trkpt lat="45.94393" lon="4.72688">
        <ele>173</ele>
        <time>2017-05-10T08:19:24Z</time>
      </trkpt>
      <trkpt lat="45.94395" lon="4.72697">
        <ele>172</ele>
        <time>2017-05-10T08:19:25Z</time>
      </trkpt>
      <trkpt lat="45.94396" lon="4.72705">
        <ele>172</ele>
        <time>2017-05-10T08:19:26Z</time>
      </trkpt>
      <trkpt lat="45.94397" lon="4.72713">
        <ele>172</ele>
        <time>2017-05-10T08:19:27Z</time>
      </trkpt>
      <trkpt lat="45.94399" lon="4.72721">
        <ele>172</ele>
        <time>2017-05-10T08:19:28Z</time>
      </trkpt>
      <trkpt lat="45.94401" lon="4.72729">
        <ele>172</ele>
        <time>2017-05-10T08:19:29Z</time>
      </trkpt>
      <trkpt lat="45.94402" lon="4.72737">
        <ele>172</ele>
        <time>2017-05-10T08:19:30Z</time>
      </trkpt>
      <trkpt lat="45.94404" lon="4.72745">
        <ele>171</ele>
        <time>2017-05-10T08:19:31Z</time>
      </trkpt>
      <trkpt lat="45.94405" lon="4.72753">
        <ele>170</ele>
        <time>2017-05-10T08:19:32Z</time>
      </trkpt>
      <trkpt lat="45.94406" lon="4.72761">
        <ele>170</ele>
        <time>2017-05-10T08:19:33Z</time>
      </trkpt>
      <trkpt lat="45.94407" lon="4.72769">
        <ele>169</ele>
        <time>2017-05-10T08:19:34Z</time>
      </trkpt>
      <trkpt lat="45.94409" lon="4.72777">
        <ele>169</ele>
        <time>2017-05-10T08:19:35Z</time>
      </trkpt>
      <trkpt lat="45.9441" lon="4.72785">
        <ele>169</ele>
        <time>2017-05-10T08:19:36Z</time>
      </trkpt>
      <trkpt lat="45.94412" lon="4.72792">
        <ele>168</ele>
        <time>2017-05-10T08:19:37Z</time>
      </trkpt>
      <trkpt lat="45.94413" lon="4.728">
        <ele>168</ele>
        <time>2017-05-10T08:19:38Z</time>
      </trkpt>
      <trkpt lat="45.94414" lon="4.72807">
        <ele>168</ele>
        <time>2017-05-10T08:19:39Z</time>
      </trkpt>
      <trkpt lat="45.94415" lon="4.72814">
        <ele>167</ele>
        <time>2017-05-10T08:19:40Z</time>
      </trkpt>
      <trkpt lat="45.94416" lon="4.72822">
        <ele>167</ele>
        <time>2017-05-10T08:19:41Z</time>
      </trkpt>
      <trkpt lat="45.94417" lon="4.72829">
        <ele>166</ele>
        <time>2017-05-10T08:19:42Z</time>
      </trkpt>
      <trkpt lat="45.94417" lon="4.72836">
        <ele>166</ele>
        <time>2017-05-10T08:19:43Z</time>
      </trkpt>
      <trkpt lat="45.94418" lon="4.72842">
        <ele>166</ele>
        <time>2017-05-10T08:19:44Z</time>
      </trkpt>
      <trkpt lat="45.94419" lon="4.72849">
        <ele>166</ele>
        <time>2017-05-10T08:19:45Z</time>
      </trkpt>
      <trkpt lat="45.9442" lon="4.72856">
        <ele>166</ele>
        <time>2017-05-10T08:19:46Z</time>
      </trkpt>
      <trkpt lat="45.94422" lon="4.72868">
        <ele>166</ele>
        <time>2017-05-10T08:19:48Z</time>
      </trkpt>
      <trkpt lat="45.94423" lon="4.72874">
        <ele>166</ele>
        <time>2017-05-10T08:19:49Z</time>
      </trkpt>
      <trkpt lat="45.94423" lon="4.7288">
        <ele>166</ele>
        <time>2017-05-10T08:19:50Z</time>
      </trkpt>
      <trkpt lat="45.94424" lon="4.72886">
        <ele>166</ele>
        <time>2017-05-10T08:19:51Z</time>
      </trkpt>
      <trkpt lat="45.94425" lon="4.72893">
        <ele>166</ele>
        <time>2017-05-10T08:19:52Z</time>
      </trkpt>
      <trkpt lat="45.94426" lon="4.72899">
        <ele>166</ele>
        <time>2017-05-10T08:19:53Z</time>
      </trkpt>
      <trkpt lat="45.94428" lon="4.72912">
        <ele>166</ele>
        <time>2017-05-10T08:19:55Z</time>
      </trkpt>
      <trkpt lat="45.94429" lon="4.72918">
        <ele>166</ele>
        <time>2017-05-10T08:19:56Z</time>
      </trkpt>
      <trkpt lat="45.94431" lon="4.7293">
        <ele>167</ele>
        <time>2017-05-10T08:19:58Z</time>
      </trkpt>
      <trkpt lat="45.94432" lon="4.72937">
        <ele>167</ele>
        <time>2017-05-10T08:19:59Z</time>
      </trkpt>
      <trkpt lat="45.94433" lon="4.72944">
        <ele>167</ele>
        <time>2017-05-10T08:20:00Z</time>
      </trkpt>
      <trkpt lat="45.94435" lon="4.72951">
        <ele>167</ele>
        <time>2017-05-10T08:20:01Z</time>
      </trkpt>
      <trkpt lat="45.94436" lon="4.72959">
        <ele>167</ele>
        <time>2017-05-10T08:20:02Z</time>
      </trkpt>
      <trkpt lat="45.94436" lon="4.72967">
        <ele>167</ele>
        <time>2017-05-10T08:20:03Z</time>
      </trkpt>
      <trkpt lat="45.94437" lon="4.72975">
        <ele>167</ele>
        <time>2017-05-10T08:20:04Z</time>
      </trkpt>
      <trkpt lat="45.94438" lon="4.72983">
        <ele>167</ele>
        <time>2017-05-10T08:20:05Z</time>
      </trkpt>
      <trkpt lat="45.94439" lon="4.72992">
        <ele>167</ele>
        <time>2017-05-10T08:20:06Z</time>
      </trkpt>
      <trkpt lat="45.9444" lon="4.73001">
        <ele>168</ele>
        <time>2017-05-10T08:20:07Z</time>
      </trkpt>
      <trkpt lat="45.94441" lon="4.7301">
        <ele>168</ele>
        <time>2017-05-10T08:20:08Z</time>
      </trkpt>
      <trkpt lat="45.94443" lon="4.73019">
        <ele>169</ele>
        <time>2017-05-10T08:20:09Z</time>
      </trkpt>
      <trkpt lat="45.94444" lon="4.73029">
        <ele>169</ele>
        <time>2017-05-10T08:20:10Z</time>
      </trkpt>
      <trkpt lat="45.94445" lon="4.73039">
        <ele>169</ele>
        <time>2017-05-10T08:20:11Z</time>
      </trkpt>
      <trkpt lat="45.94447" lon="4.73049">
        <ele>169</ele>
        <time>2017-05-10T08:20:12Z</time>
      </trkpt>
      <trkpt lat="45.94448" lon="4.73059">
        <ele>169</ele>
        <time>2017-05-10T08:20:13Z</time>
      </trkpt>
      <trkpt lat="45.94449" lon="4.7307">
        <ele>170</ele>
        <time>2017-05-10T08:20:14Z</time>
      </trkpt>
      <trkpt lat="45.9445" lon="4.7308">
        <ele>170</ele>
        <time>2017-05-10T08:20:15Z</time>
      </trkpt>
      <trkpt lat="45.94452" lon="4.7309">
        <ele>171</ele>
        <time>2017-05-10T08:20:16Z</time>
      </trkpt>
      <trkpt lat="45.94453" lon="4.731">
        <ele>171</ele>
        <time>2017-05-10T08:20:17Z</time>
      </trkpt>
      <trkpt lat="45.94454" lon="4.7311">
        <ele>171</ele>
        <time>2017-05-10T08:20:18Z</time>
      </trkpt>
      <trkpt lat="45.94455" lon="4.7312">
        <ele>172</ele>
        <time>2017-05-10T08:20:19Z</time>
      </trkpt>
      <trkpt lat="45.94457" lon="4.73128">
        <ele>172</ele>
        <time>2017-05-10T08:20:20Z</time>
      </trkpt>
      <trkpt lat="45.94458" lon="4.73137">
        <ele>172</ele>
        <time>2017-05-10T08:20:21Z</time>
      </trkpt>
      <trkpt lat="45.9446" lon="4.73145">
        <ele>172</ele>
        <time>2017-05-10T08:20:22Z</time>
      </trkpt>
      <trkpt lat="45.94461" lon="4.73154">
        <ele>172</ele>
        <time>2017-05-10T08:20:23Z</time>
      </trkpt>
      <trkpt lat="45.94463" lon="4.73161">
        <ele>172</ele>
        <time>2017-05-10T08:20:24Z</time>
      </trkpt>
      <trkpt lat="45.94465" lon="4.73169">
        <ele>174</ele>
        <time>2017-05-10T08:20:25Z</time>
      </trkpt>
      <trkpt lat="45.94466" lon="4.73177">
        <ele>174</ele>
        <time>2017-05-10T08:20:26Z</time>
      </trkpt>
      <trkpt lat="45.94468" lon="4.73185">
        <ele>174</ele>
        <time>2017-05-10T08:20:27Z</time>
      </trkpt>
      <trkpt lat="45.94469" lon="4.73192">
        <ele>174</ele>
        <time>2017-05-10T08:20:28Z</time>
      </trkpt>
      <trkpt lat="45.9447" lon="4.73198">
        <ele>174</ele>
        <time>2017-05-10T08:20:29Z</time>
      </trkpt>
      <trkpt lat="45.94471" lon="4.73205">
        <ele>175</ele>
        <time>2017-05-10T08:20:30Z</time>
      </trkpt>
      <trkpt lat="45.94472" lon="4.73212">
        <ele>175</ele>
        <time>2017-05-10T08:20:31Z</time>
      </trkpt>
      <trkpt lat="45.94473" lon="4.73218">
        <ele>175</ele>
        <time>2017-05-10T08:20:32Z</time>
      </trkpt>
      <trkpt lat="45.94474" lon="4.73225">
        <ele>175</ele>
        <time>2017-05-10T08:20:33Z</time>
      </trkpt>
      <trkpt lat="45.94475" lon="4.73232">
        <ele>175</ele>
        <time>2017-05-10T08:20:34Z</time>
      </trkpt>
      <trkpt lat="45.94477" lon="4.73238">
        <ele>175</ele>
        <time>2017-05-10T08:20:35Z</time>
      </trkpt>
      <trkpt lat="45.94477" lon="4.73244">
        <ele>175</ele>
        <time>2017-05-10T08:20:36Z</time>
      </trkpt>
      <trkpt lat="45.94478" lon="4.73251">
        <ele>176</ele>
        <time>2017-05-10T08:20:37Z</time>
      </trkpt>
      <trkpt lat="45.94479" lon="4.73257">
        <ele>177</ele>
        <time>2017-05-10T08:20:38Z</time>
      </trkpt>
      <trkpt lat="45.94481" lon="4.73264">
        <ele>177</ele>
        <time>2017-05-10T08:20:39Z</time>
      </trkpt>
      <trkpt lat="45.94481" lon="4.73272">
        <ele>177</ele>
        <time>2017-05-10T08:20:40Z</time>
      </trkpt>
      <trkpt lat="45.94481" lon="4.73279">
        <ele>177</ele>
        <time>2017-05-10T08:20:41Z</time>
      </trkpt>
      <trkpt lat="45.94482" lon="4.73286">
        <ele>177</ele>
        <time>2017-05-10T08:20:42Z</time>
      </trkpt>
      <trkpt lat="45.94483" lon="4.73293">
        <ele>177</ele>
        <time>2017-05-10T08:20:43Z</time>
      </trkpt>
      <trkpt lat="45.94483" lon="4.73301">
        <ele>177</ele>
        <time>2017-05-10T08:20:44Z</time>
      </trkpt>
      <trkpt lat="45.94485" lon="4.73308">
        <ele>177</ele>
        <time>2017-05-10T08:20:45Z</time>
      </trkpt>
      <trkpt lat="45.94485" lon="4.73315">
        <ele>177</ele>
        <time>2017-05-10T08:20:46Z</time>
      </trkpt>
      <trkpt lat="45.94486" lon="4.73323">
        <ele>177</ele>
        <time>2017-05-10T08:20:47Z</time>
      </trkpt>
      <trkpt lat="45.94487" lon="4.73331">
        <ele>177</ele>
        <time>2017-05-10T08:20:48Z</time>
      </trkpt>
      <trkpt lat="45.94488" lon="4.73338">
        <ele>178</ele>
        <time>2017-05-10T08:20:49Z</time>
      </trkpt>
      <trkpt lat="45.94489" lon="4.73346">
        <ele>178</ele>
        <time>2017-05-10T08:20:50Z</time>
      </trkpt>
      <trkpt lat="45.9449" lon="4.73353">
        <ele>178</ele>
        <time>2017-05-10T08:20:51Z</time>
      </trkpt>
      <trkpt lat="45.9449" lon="4.73361">
        <ele>179</ele>
        <time>2017-05-10T08:20:52Z</time>
      </trkpt>
      <trkpt lat="45.94491" lon="4.73368">
        <ele>179</ele>
        <time>2017-05-10T08:20:53Z</time>
      </trkpt>
      <trkpt lat="45.94491" lon="4.73377">
        <ele>179</ele>
        <time>2017-05-10T08:20:54Z</time>
      </trkpt>
      <trkpt lat="45.94492" lon="4.73385">
        <ele>179</ele>
        <time>2017-05-10T08:20:55Z</time>
      </trkpt>
      <trkpt lat="45.94492" lon="4.73392">
        <ele>179</ele>
        <time>2017-05-10T08:20:56Z</time>
      </trkpt>
      <trkpt lat="45.94493" lon="4.734">
        <ele>180</ele>
        <time>2017-05-10T08:20:57Z</time>
      </trkpt>
      <trkpt lat="45.94492" lon="4.73408">
        <ele>180</ele>
        <time>2017-05-10T08:20:58Z</time>
      </trkpt>
      <trkpt lat="45.94493" lon="4.73415">
        <ele>180</ele>
        <time>2017-05-10T08:20:59Z</time>
      </trkpt>
      <trkpt lat="45.94493" lon="4.73421">
        <ele>181</ele>
        <time>2017-05-10T08:21:00Z</time>
      </trkpt>
      <trkpt lat="45.94493" lon="4.73428">
        <ele>181</ele>
        <time>2017-05-10T08:21:01Z</time>
      </trkpt>
      <trkpt lat="45.94493" lon="4.73441">
        <ele>181</ele>
        <time>2017-05-10T08:21:03Z</time>
      </trkpt>
      <trkpt lat="45.94493" lon="4.73447">
        <ele>181</ele>
        <time>2017-05-10T08:21:04Z</time>
      </trkpt>
      <trkpt lat="45.94495" lon="4.73457">
        <ele>182</ele>
        <time>2017-05-10T08:21:06Z</time>
      </trkpt>
      <trkpt lat="45.94495" lon="4.73462">
        <ele>182</ele>
        <time>2017-05-10T08:21:07Z</time>
      </trkpt>
      <trkpt lat="45.94497" lon="4.73473">
        <ele>182</ele>
        <time>2017-05-10T08:21:09Z</time>
      </trkpt>
      <trkpt lat="45.94497" lon="4.7348">
        <ele>182</ele>
        <time>2017-05-10T08:21:10Z</time>
      </trkpt>
      <trkpt lat="45.94497" lon="4.73487">
        <ele>183</ele>
        <time>2017-05-10T08:21:11Z</time>
      </trkpt>
      <trkpt lat="45.94497" lon="4.73493">
        <ele>183</ele>
        <time>2017-05-10T08:21:12Z</time>
      </trkpt>
      <trkpt lat="45.94497" lon="4.735">
        <ele>183</ele>
        <time>2017-05-10T08:21:13Z</time>
      </trkpt>
      <trkpt lat="45.94496" lon="4.73508">
        <ele>183</ele>
        <time>2017-05-10T08:21:14Z</time>
      </trkpt>
      <trkpt lat="45.94495" lon="4.7352">
        <ele>184</ele>
        <time>2017-05-10T08:21:16Z</time>
      </trkpt>
      <trkpt lat="45.94495" lon="4.73526">
        <ele>184</ele>
        <time>2017-05-10T08:21:17Z</time>
      </trkpt>
      <trkpt lat="45.94495" lon="4.73538">
        <ele>184</ele>
        <time>2017-05-10T08:21:19Z</time>
      </trkpt>
      <trkpt lat="45.94495" lon="4.73544">
        <ele>185</ele>
        <time>2017-05-10T08:21:20Z</time>
      </trkpt>
      <trkpt lat="45.94496" lon="4.73555">
        <ele>185</ele>
        <time>2017-05-10T08:21:22Z</time>
      </trkpt>
      <trkpt lat="45.94496" lon="4.7356">
        <ele>185</ele>
        <time>2017-05-10T08:21:23Z</time>
      </trkpt>
      <trkpt lat="45.94496" lon="4.73567">
        <ele>185</ele>
        <time>2017-05-10T08:21:24Z</time>
      </trkpt>
      <trkpt lat="45.94496" lon="4.73574">
        <ele>185</ele>
        <time>2017-05-10T08:21:25Z</time>
      </trkpt>
      <trkpt lat="45.94494" lon="4.73583">
        <ele>185</ele>
        <time>2017-05-10T08:21:26Z</time>
      </trkpt>
      <trkpt lat="45.94493" lon="4.73591">
        <ele>185</ele>
        <time>2017-05-10T08:21:27Z</time>
      </trkpt>
      <trkpt lat="45.94492" lon="4.73598">
        <ele>185</ele>
        <time>2017-05-10T08:21:28Z</time>
      </trkpt>
      <trkpt lat="45.94492" lon="4.73606">
        <ele>186</ele>
        <time>2017-05-10T08:21:29Z</time>
      </trkpt>
      <trkpt lat="45.94491" lon="4.73613">
        <ele>186</ele>
        <time>2017-05-10T08:21:30Z</time>
      </trkpt>
      <trkpt lat="45.9449" lon="4.7362">
        <ele>186</ele>
        <time>2017-05-10T08:21:31Z</time>
      </trkpt>
      <trkpt lat="45.94489" lon="4.73627">
        <ele>186</ele>
        <time>2017-05-10T08:21:32Z</time>
      </trkpt>
      <trkpt lat="45.94488" lon="4.73633">
        <ele>186</ele>
        <time>2017-05-10T08:21:33Z</time>
      </trkpt>
      <trkpt lat="45.94487" lon="4.73639">
        <ele>186</ele>
        <time>2017-05-10T08:21:34Z</time>
      </trkpt>
      <trkpt lat="45.94486" lon="4.73647">
        <ele>186</ele>
        <time>2017-05-10T08:21:35Z</time>
      </trkpt>
      <trkpt lat="45.94485" lon="4.73654">
        <ele>186</ele>
        <time>2017-05-10T08:21:36Z</time>
      </trkpt>
      <trkpt lat="45.94483" lon="4.73662">
        <ele>186</ele>
        <time>2017-05-10T08:21:37Z</time>
      </trkpt>
      <trkpt lat="45.94482" lon="4.7367">
        <ele>186</ele>
        <time>2017-05-10T08:21:38Z</time>
      </trkpt>
      <trkpt lat="45.9448" lon="4.73677">
        <ele>186</ele>
        <time>2017-05-10T08:21:39Z</time>
      </trkpt>
      <trkpt lat="45.94479" lon="4.73684">
        <ele>186</ele>
        <time>2017-05-10T08:21:40Z</time>
      </trkpt>
      <trkpt lat="45.94477" lon="4.73692">
        <ele>186</ele>
        <time>2017-05-10T08:21:41Z</time>
      </trkpt>
      <trkpt lat="45.94476" lon="4.73699">
        <ele>186</ele>
        <time>2017-05-10T08:21:42Z</time>
      </trkpt>
      <trkpt lat="45.94475" lon="4.73707">
        <ele>186</ele>
        <time>2017-05-10T08:21:43Z</time>
      </trkpt>
      <trkpt lat="45.94473" lon="4.73714">
        <ele>186</ele>
        <time>2017-05-10T08:21:44Z</time>
      </trkpt>
      <trkpt lat="45.94472" lon="4.73721">
        <ele>186</ele>
        <time>2017-05-10T08:21:45Z</time>
      </trkpt>
      <trkpt lat="45.94471" lon="4.73728">
        <ele>186</ele>
        <time>2017-05-10T08:21:46Z</time>
      </trkpt>
      <trkpt lat="45.9447" lon="4.73735">
        <ele>186</ele>
        <time>2017-05-10T08:21:47Z</time>
      </trkpt>
      <trkpt lat="45.94468" lon="4.73742">
        <ele>186</ele>
        <time>2017-05-10T08:21:48Z</time>
      </trkpt>
      <trkpt lat="45.94467" lon="4.73748">
        <ele>186</ele>
        <time>2017-05-10T08:21:49Z</time>
      </trkpt>
      <trkpt lat="45.94464" lon="4.73759">
        <ele>186</ele>
        <time>2017-05-10T08:21:51Z</time>
      </trkpt>
      <trkpt lat="45.94464" lon="4.73766">
        <ele>186</ele>
        <time>2017-05-10T08:21:52Z</time>
      </trkpt>
      <trkpt lat="45.94466" lon="4.73772">
        <ele>186</ele>
        <time>2017-05-10T08:21:53Z</time>
      </trkpt>
      <trkpt lat="45.9447" lon="4.73778">
        <ele>186</ele>
        <time>2017-05-10T08:21:54Z</time>
      </trkpt>
      <trkpt lat="45.94475" lon="4.73781">
        <ele>186</ele>
        <time>2017-05-10T08:21:55Z</time>
      </trkpt>
      <trkpt lat="45.94479" lon="4.73785">
        <ele>186</ele>
        <time>2017-05-10T08:21:56Z</time>
      </trkpt>
      <trkpt lat="45.94483" lon="4.73789">
        <ele>186</ele>
        <time>2017-05-10T08:21:57Z</time>
      </trkpt>
      <trkpt lat="45.94487" lon="4.73792">
        <ele>185</ele>
        <time>2017-05-10T08:21:58Z</time>
      </trkpt>
      <trkpt lat="45.94492" lon="4.73795">
        <ele>185</ele>
        <time>2017-05-10T08:21:59Z</time>
      </trkpt>
      <trkpt lat="45.94496" lon="4.73799">
        <ele>185</ele>
        <time>2017-05-10T08:22:00Z</time>
      </trkpt>
      <trkpt lat="45.945" lon="4.73801">
        <ele>186</ele>
        <time>2017-05-10T08:22:01Z</time>
      </trkpt>
      <trkpt lat="45.94504" lon="4.73805">
        <ele>186</ele>
        <time>2017-05-10T08:22:02Z</time>
      </trkpt>
      <trkpt lat="45.94508" lon="4.73808">
        <ele>186</ele>
        <time>2017-05-10T08:22:03Z</time>
      </trkpt>
      <trkpt lat="45.94512" lon="4.73811">
        <ele>186</ele>
        <time>2017-05-10T08:22:04Z</time>
      </trkpt>
      <trkpt lat="45.94519" lon="4.73817">
        <ele>186</ele>
        <time>2017-05-10T08:22:06Z</time>
      </trkpt>
      <trkpt lat="45.94524" lon="4.7382">
        <ele>186</ele>
        <time>2017-05-10T08:22:07Z</time>
      </trkpt>
      <trkpt lat="45.94531" lon="4.73827">
        <ele>186</ele>
        <time>2017-05-10T08:22:09Z</time>
      </trkpt>
      <trkpt lat="45.94535" lon="4.73831">
        <ele>186</ele>
        <time>2017-05-10T08:22:10Z</time>
      </trkpt>
      <trkpt lat="45.94542" lon="4.73838">
        <ele>186</ele>
        <time>2017-05-10T08:22:12Z</time>
      </trkpt>
      <trkpt lat="45.94546" lon="4.73841">
        <ele>186</ele>
        <time>2017-05-10T08:22:13Z</time>
      </trkpt>
      <trkpt lat="45.9455" lon="4.73844">
        <ele>186</ele>
        <time>2017-05-10T08:22:14Z</time>
      </trkpt>
      <trkpt lat="45.94554" lon="4.73848">
        <ele>186</ele>
        <time>2017-05-10T08:22:15Z</time>
      </trkpt>
      <trkpt lat="45.94558" lon="4.73852">
        <ele>186</ele>
        <time>2017-05-10T08:22:16Z</time>
      </trkpt>
      <trkpt lat="45.94562" lon="4.73855">
        <ele>186</ele>
        <time>2017-05-10T08:22:17Z</time>
      </trkpt>
      <trkpt lat="45.94566" lon="4.73859">
        <ele>186</ele>
        <time>2017-05-10T08:22:18Z</time>
      </trkpt>
      <trkpt lat="45.94569" lon="4.73863">
        <ele>186</ele>
        <time>2017-05-10T08:22:19Z</time>
      </trkpt>
      <trkpt lat="45.94576" lon="4.7387">
        <ele>186</ele>
        <time>2017-05-10T08:22:21Z</time>
      </trkpt>
      <trkpt lat="45.94579" lon="4.73874">
        <ele>186</ele>
        <time>2017-05-10T08:22:22Z</time>
      </trkpt>
      <trkpt lat="45.94585" lon="4.73883">
        <ele>187</ele>
        <time>2017-05-10T08:22:24Z</time>
      </trkpt>
      <trkpt lat="45.94589" lon="4.73887">
        <ele>187</ele>
        <time>2017-05-10T08:22:25Z</time>
      </trkpt>
      <trkpt lat="45.94596" lon="4.73895">
        <ele>187</ele>
        <time>2017-05-10T08:22:27Z</time>
      </trkpt>
      <trkpt lat="45.94599" lon="4.73899">
        <ele>187</ele>
        <time>2017-05-10T08:22:28Z</time>
      </trkpt>
      <trkpt lat="45.94603" lon="4.73903">
        <ele>187</ele>
        <time>2017-05-10T08:22:29Z</time>
      </trkpt>
      <trkpt lat="45.94607" lon="4.73908">
        <ele>187</ele>
        <time>2017-05-10T08:22:30Z</time>
      </trkpt>
      <trkpt lat="45.94611" lon="4.73913">
        <ele>187</ele>
        <time>2017-05-10T08:22:31Z</time>
      </trkpt>
      <trkpt lat="45.94616" lon="4.73918">
        <ele>187</ele>
        <time>2017-05-10T08:22:32Z</time>
      </trkpt>
      <trkpt lat="45.9462" lon="4.73923">
        <ele>187</ele>
        <time>2017-05-10T08:22:33Z</time>
      </trkpt>
      <trkpt lat="45.94624" lon="4.73929">
        <ele>187</ele>
        <time>2017-05-10T08:22:34Z</time>
      </trkpt>
      <trkpt lat="45.94628" lon="4.73934">
        <ele>187</ele>
        <time>2017-05-10T08:22:35Z</time>
      </trkpt>
      <trkpt lat="45.94631" lon="4.73939">
        <ele>187</ele>
        <time>2017-05-10T08:22:36Z</time>
      </trkpt>
      <trkpt lat="45.94636" lon="4.73944">
        <ele>187</ele>
        <time>2017-05-10T08:22:37Z</time>
      </trkpt>
      <trkpt lat="45.9464" lon="4.73948">
        <ele>187</ele>
        <time>2017-05-10T08:22:38Z</time>
      </trkpt>
      <trkpt lat="45.94643" lon="4.73953">
        <ele>187</ele>
        <time>2017-05-10T08:22:39Z</time>
      </trkpt>
      <trkpt lat="45.94647" lon="4.73958">
        <ele>187</ele>
        <time>2017-05-10T08:22:40Z</time>
      </trkpt>
      <trkpt lat="45.9465" lon="4.73962">
        <ele>187</ele>
        <time>2017-05-10T08:22:41Z</time>
      </trkpt>
      <trkpt lat="45.94653" lon="4.73967">
        <ele>187</ele>
        <time>2017-05-10T08:22:42Z</time>
      </trkpt>
      <trkpt lat="45.94657" lon="4.73971">
        <ele>187</ele>
        <time>2017-05-10T08:22:43Z</time>
      </trkpt>
      <trkpt lat="45.9466" lon="4.73976">
        <ele>187</ele>
        <time>2017-05-10T08:22:44Z</time>
      </trkpt>
      <trkpt lat="45.94664" lon="4.73981">
        <ele>187</ele>
        <time>2017-05-10T08:22:45Z</time>
      </trkpt>
      <trkpt lat="45.94667" lon="4.73986">
        <ele>187</ele>
        <time>2017-05-10T08:22:46Z</time>
      </trkpt>
      <trkpt lat="45.94671" lon="4.7399">
        <ele>187</ele>
        <time>2017-05-10T08:22:47Z</time>
      </trkpt>
      <trkpt lat="45.94674" lon="4.73995">
        <ele>187</ele>
        <time>2017-05-10T08:22:48Z</time>
      </trkpt>
      <trkpt lat="45.94678" lon="4.74">
        <ele>187</ele>
        <time>2017-05-10T08:22:49Z</time>
      </trkpt>
      <trkpt lat="45.94681" lon="4.74004">
        <ele>187</ele>
        <time>2017-05-10T08:22:50Z</time>
      </trkpt>
      <trkpt lat="45.94685" lon="4.74009">
        <ele>187</ele>
        <time>2017-05-10T08:22:51Z</time>
      </trkpt>
      <trkpt lat="45.94688" lon="4.74015">
        <ele>187</ele>
        <time>2017-05-10T08:22:52Z</time>
      </trkpt>
      <trkpt lat="45.94692" lon="4.7402">
        <ele>187</ele>
        <time>2017-05-10T08:22:53Z</time>
      </trkpt>
      <trkpt lat="45.94695" lon="4.74025">
        <ele>187</ele>
        <time>2017-05-10T08:22:54Z</time>
      </trkpt>
      <trkpt lat="45.94699" lon="4.74029">
        <ele>187</ele>
        <time>2017-05-10T08:22:55Z</time>
      </trkpt>
      <trkpt lat="45.94702" lon="4.74034">
        <ele>187</ele>
        <time>2017-05-10T08:22:56Z</time>
      </trkpt>
      <trkpt lat="45.94706" lon="4.74038">
        <ele>187</ele>
        <time>2017-05-10T08:22:57Z</time>
      </trkpt>
      <trkpt lat="45.9471" lon="4.74043">
        <ele>187</ele>
        <time>2017-05-10T08:22:58Z</time>
      </trkpt>
      <trkpt lat="45.94713" lon="4.74047">
        <ele>187</ele>
        <time>2017-05-10T08:22:59Z</time>
      </trkpt>
      <trkpt lat="45.94716" lon="4.74052">
        <ele>187</ele>
        <time>2017-05-10T08:23:00Z</time>
      </trkpt>
      <trkpt lat="45.94719" lon="4.74057">
        <ele>187</ele>
        <time>2017-05-10T08:23:01Z</time>
      </trkpt>
      <trkpt lat="45.94723" lon="4.74061">
        <ele>188</ele>
        <time>2017-05-10T08:23:02Z</time>
      </trkpt>
      <trkpt lat="45.94726" lon="4.74066">
        <ele>188</ele>
        <time>2017-05-10T08:23:03Z</time>
      </trkpt>
      <trkpt lat="45.9473" lon="4.7407">
        <ele>188</ele>
        <time>2017-05-10T08:23:04Z</time>
      </trkpt>
      <trkpt lat="45.94736" lon="4.74079">
        <ele>188</ele>
        <time>2017-05-10T08:23:06Z</time>
      </trkpt>
      <trkpt lat="45.94739" lon="4.74084">
        <ele>188</ele>
        <time>2017-05-10T08:23:07Z</time>
      </trkpt>
      <trkpt lat="45.94742" lon="4.74088">
        <ele>188</ele>
        <time>2017-05-10T08:23:08Z</time>
      </trkpt>
      <trkpt lat="45.94745" lon="4.74093">
        <ele>188</ele>
        <time>2017-05-10T08:23:09Z</time>
      </trkpt>
      <trkpt lat="45.94749" lon="4.74098">
        <ele>188</ele>
        <time>2017-05-10T08:23:10Z</time>
      </trkpt>
      <trkpt lat="45.94752" lon="4.74102">
        <ele>189</ele>
        <time>2017-05-10T08:23:11Z</time>
      </trkpt>
      <trkpt lat="45.94759" lon="4.74111">
        <ele>189</ele>
        <time>2017-05-10T08:23:13Z</time>
      </trkpt>
      <trkpt lat="45.94762" lon="4.74115">
        <ele>189</ele>
        <time>2017-05-10T08:23:14Z</time>
      </trkpt>
      <trkpt lat="45.94766" lon="4.7412">
        <ele>189</ele>
        <time>2017-05-10T08:23:15Z</time>
      </trkpt>
      <trkpt lat="45.94769" lon="4.74125">
        <ele>189</ele>
        <time>2017-05-10T08:23:16Z</time>
      </trkpt>
      <trkpt lat="45.94773" lon="4.74129">
        <ele>189</ele>
        <time>2017-05-10T08:23:17Z</time>
      </trkpt>
      <trkpt lat="45.94776" lon="4.74134">
        <ele>189</ele>
        <time>2017-05-10T08:23:18Z</time>
      </trkpt>
      <trkpt lat="45.9478" lon="4.7414">
        <ele>189</ele>
        <time>2017-05-10T08:23:19Z</time>
      </trkpt>
      <trkpt lat="45.94783" lon="4.74145">
        <ele>189</ele>
        <time>2017-05-10T08:23:20Z</time>
      </trkpt>
      <trkpt lat="45.94787" lon="4.7415">
        <ele>189</ele>
        <time>2017-05-10T08:23:21Z</time>
      </trkpt>
      <trkpt lat="45.9479" lon="4.74155">
        <ele>189</ele>
        <time>2017-05-10T08:23:22Z</time>
      </trkpt>
      <trkpt lat="45.94794" lon="4.7416">
        <ele>189</ele>
        <time>2017-05-10T08:23:23Z</time>
      </trkpt>
      <trkpt lat="45.94797" lon="4.74165">
        <ele>189</ele>
        <time>2017-05-10T08:23:24Z</time>
      </trkpt>
      <trkpt lat="45.94801" lon="4.7417">
        <ele>189</ele>
        <time>2017-05-10T08:23:25Z</time>
      </trkpt>
      <trkpt lat="45.94804" lon="4.74176">
        <ele>189</ele>
        <time>2017-05-10T08:23:26Z</time>
      </trkpt>
      <trkpt lat="45.94807" lon="4.74181">
        <ele>189</ele>
        <time>2017-05-10T08:23:27Z</time>
      </trkpt>
      <trkpt lat="45.9481" lon="4.74187">
        <ele>189</ele>
        <time>2017-05-10T08:23:28Z</time>
      </trkpt>
      <trkpt lat="45.94813" lon="4.74195">
        <ele>189</ele>
        <time>2017-05-10T08:23:29Z</time>
      </trkpt>
      <trkpt lat="45.94817" lon="4.74201">
        <ele>189</ele>
        <time>2017-05-10T08:23:30Z</time>
      </trkpt>
      <trkpt lat="45.9482" lon="4.74206">
        <ele>188</ele>
        <time>2017-05-10T08:23:31Z</time>
      </trkpt>
      <trkpt lat="45.94824" lon="4.7421">
        <ele>188</ele>
        <time>2017-05-10T08:23:32Z</time>
      </trkpt>
      <trkpt lat="45.94828" lon="4.74215">
        <ele>188</ele>
        <time>2017-05-10T08:23:33Z</time>
      </trkpt>
      <trkpt lat="45.9483" lon="4.7422">
        <ele>188</ele>
        <time>2017-05-10T08:23:34Z</time>
      </trkpt>
      <trkpt lat="45.94834" lon="4.74224">
        <ele>190</ele>
        <time>2017-05-10T08:23:35Z</time>
      </trkpt>
      <trkpt lat="45.94837" lon="4.7423">
        <ele>190</ele>
        <time>2017-05-10T08:23:36Z</time>
      </trkpt>
      <trkpt lat="45.94841" lon="4.74235">
        <ele>190</ele>
        <time>2017-05-10T08:23:37Z</time>
      </trkpt>
      <trkpt lat="45.94844" lon="4.7424">
        <ele>190</ele>
        <time>2017-05-10T08:23:38Z</time>
      </trkpt>
      <trkpt lat="45.94847" lon="4.74245">
        <ele>190</ele>
        <time>2017-05-10T08:23:39Z</time>
      </trkpt>
      <trkpt lat="45.9485" lon="4.7425">
        <ele>190</ele>
        <time>2017-05-10T08:23:40Z</time>
      </trkpt>
      <trkpt lat="45.94853" lon="4.74255">
        <ele>190</ele>
        <time>2017-05-10T08:23:41Z</time>
      </trkpt>
      <trkpt lat="45.94855" lon="4.7426">
        <ele>190</ele>
        <time>2017-05-10T08:23:42Z</time>
      </trkpt>
      <trkpt lat="45.94857" lon="4.74266">
        <ele>190</ele>
        <time>2017-05-10T08:23:43Z</time>
      </trkpt>
      <trkpt lat="45.9486" lon="4.74272">
        <ele>190</ele>
        <time>2017-05-10T08:23:44Z</time>
      </trkpt>
      <trkpt lat="45.94862" lon="4.74277">
        <ele>190</ele>
        <time>2017-05-10T08:23:45Z</time>
      </trkpt>
      <trkpt lat="45.94865" lon="4.74283">
        <ele>191</ele>
        <time>2017-05-10T08:23:46Z</time>
      </trkpt>
      <trkpt lat="45.94867" lon="4.74289">
        <ele>191</ele>
        <time>2017-05-10T08:23:47Z</time>
      </trkpt>
      <trkpt lat="45.94869" lon="4.74295">
        <ele>191</ele>
        <time>2017-05-10T08:23:48Z</time>
      </trkpt>
      <trkpt lat="45.94874" lon="4.74306">
        <ele>191</ele>
        <time>2017-05-10T08:23:50Z</time>
      </trkpt>
      <trkpt lat="45.94876" lon="4.74311">
        <ele>191</ele>
        <time>2017-05-10T08:23:51Z</time>
      </trkpt>
      <trkpt lat="45.94881" lon="4.74321">
        <ele>191</ele>
        <time>2017-05-10T08:23:53Z</time>
      </trkpt>
      <trkpt lat="45.94883" lon="4.74326">
        <ele>191</ele>
        <time>2017-05-10T08:23:54Z</time>
      </trkpt>
      <trkpt lat="45.94885" lon="4.74332">
        <ele>191</ele>
        <time>2017-05-10T08:23:55Z</time>
      </trkpt>
      <trkpt lat="45.94888" lon="4.74337">
        <ele>191</ele>
        <time>2017-05-10T08:23:56Z</time>
      </trkpt>
      <trkpt lat="45.94891" lon="4.74343">
        <ele>191</ele>
        <time>2017-05-10T08:23:57Z</time>
      </trkpt>
      <trkpt lat="45.94894" lon="4.7435">
        <ele>191</ele>
        <time>2017-05-10T08:23:58Z</time>
      </trkpt>
      <trkpt lat="45.94897" lon="4.74356">
        <ele>191</ele>
        <time>2017-05-10T08:23:59Z</time>
      </trkpt>
      <trkpt lat="45.94899" lon="4.74363">
        <ele>191</ele>
        <time>2017-05-10T08:24:00Z</time>
      </trkpt>
      <trkpt lat="45.94903" lon="4.7437">
        <ele>191</ele>
        <time>2017-05-10T08:24:01Z</time>
      </trkpt>
      <trkpt lat="45.94906" lon="4.74376">
        <ele>191</ele>
        <time>2017-05-10T08:24:02Z</time>
      </trkpt>
      <trkpt lat="45.94909" lon="4.74382">
        <ele>191</ele>
        <time>2017-05-10T08:24:03Z</time>
      </trkpt>
      <trkpt lat="45.94912" lon="4.74388">
        <ele>191</ele>
        <time>2017-05-10T08:24:04Z</time>
      </trkpt>
      <trkpt lat="45.94915" lon="4.74394">
        <ele>191</ele>
        <time>2017-05-10T08:24:05Z</time>
      </trkpt>
      <trkpt lat="45.94918" lon="4.744">
        <ele>192</ele>
        <time>2017-05-10T08:24:06Z</time>
      </trkpt>
      <trkpt lat="45.9492" lon="4.74405">
        <ele>192</ele>
        <time>2017-05-10T08:24:07Z</time>
      </trkpt>
      <trkpt lat="45.94923" lon="4.74411">
        <ele>192</ele>
        <time>2017-05-10T08:24:08Z</time>
      </trkpt>
      <trkpt lat="45.94926" lon="4.74416">
        <ele>192</ele>
        <time>2017-05-10T08:24:09Z</time>
      </trkpt>
      <trkpt lat="45.94929" lon="4.74421">
        <ele>192</ele>
        <time>2017-05-10T08:24:10Z</time>
      </trkpt>
      <trkpt lat="45.94932" lon="4.74427">
        <ele>192</ele>
        <time>2017-05-10T08:24:11Z</time>
      </trkpt>
      <trkpt lat="45.94934" lon="4.74432">
        <ele>192</ele>
        <time>2017-05-10T08:24:12Z</time>
      </trkpt>
      <trkpt lat="45.94937" lon="4.74437">
        <ele>192</ele>
        <time>2017-05-10T08:24:13Z</time>
      </trkpt>
      <trkpt lat="45.9494" lon="4.74443">
        <ele>192</ele>
        <time>2017-05-10T08:24:14Z</time>
      </trkpt>
      <trkpt lat="45.94943" lon="4.74448">
        <ele>192</ele>
        <time>2017-05-10T08:24:15Z</time>
      </trkpt>
      <trkpt lat="45.94946" lon="4.74454">
        <ele>192</ele>
        <time>2017-05-10T08:24:16Z</time>
      </trkpt>
      <trkpt lat="45.94949" lon="4.74459">
        <ele>193</ele>
        <time>2017-05-10T08:24:17Z</time>
      </trkpt>
      <trkpt lat="45.94952" lon="4.74465">
        <ele>193</ele>
        <time>2017-05-10T08:24:18Z</time>
      </trkpt>
      <trkpt lat="45.94955" lon="4.74471">
        <ele>193</ele>
        <time>2017-05-10T08:24:19Z</time>
      </trkpt>
      <trkpt lat="45.94958" lon="4.74477">
        <ele>193</ele>
        <time>2017-05-10T08:24:20Z</time>
      </trkpt>
      <trkpt lat="45.94962" lon="4.74483">
        <ele>193</ele>
        <time>2017-05-10T08:24:21Z</time>
      </trkpt>
      <trkpt lat="45.94965" lon="4.7449">
        <ele>193</ele>
        <time>2017-05-10T08:24:22Z</time>
      </trkpt>
      <trkpt lat="45.94968" lon="4.74496">
        <ele>193</ele>
        <time>2017-05-10T08:24:23Z</time>
      </trkpt>
      <trkpt lat="45.94971" lon="4.74503">
        <ele>193</ele>
        <time>2017-05-10T08:24:24Z</time>
      </trkpt>
      <trkpt lat="45.94974" lon="4.74509">
        <ele>193</ele>
        <time>2017-05-10T08:24:25Z</time>
      </trkpt>
      <trkpt lat="45.94976" lon="4.74516">
        <ele>193</ele>
        <time>2017-05-10T08:24:26Z</time>
      </trkpt>
      <trkpt lat="45.94979" lon="4.74522">
        <ele>193</ele>
        <time>2017-05-10T08:24:27Z</time>
      </trkpt>
      <trkpt lat="45.94982" lon="4.74527">
        <ele>193</ele>
        <time>2017-05-10T08:24:28Z</time>
      </trkpt>
      <trkpt lat="45.94985" lon="4.74533">
        <ele>193</ele>
        <time>2017-05-10T08:24:29Z</time>
      </trkpt>
      <trkpt lat="45.94988" lon="4.74539">
        <ele>193</ele>
        <time>2017-05-10T08:24:30Z</time>
      </trkpt>
      <trkpt lat="45.94991" lon="4.74544">
        <ele>193</ele>
        <time>2017-05-10T08:24:31Z</time>
      </trkpt>
      <trkpt lat="45.94995" lon="4.7455">
        <ele>193</ele>
        <time>2017-05-10T08:24:32Z</time>
      </trkpt>
      <trkpt lat="45.94998" lon="4.74556">
        <ele>193</ele>
        <time>2017-05-10T08:24:33Z</time>
      </trkpt>
      <trkpt lat="45.95001" lon="4.74561">
        <ele>194</ele>
        <time>2017-05-10T08:24:34Z</time>
      </trkpt>
      <trkpt lat="45.95004" lon="4.74567">
        <ele>194</ele>
        <time>2017-05-10T08:24:35Z</time>
      </trkpt>
      <trkpt lat="45.95007" lon="4.74572">
        <ele>194</ele>
        <time>2017-05-10T08:24:36Z</time>
      </trkpt>
      <trkpt lat="45.9501" lon="4.74578">
        <ele>194</ele>
        <time>2017-05-10T08:24:37Z</time>
      </trkpt>
      <trkpt lat="45.95014" lon="4.74583">
        <ele>194</ele>
        <time>2017-05-10T08:24:38Z</time>
      </trkpt>
      <trkpt lat="45.95017" lon="4.74589">
        <ele>194</ele>
        <time>2017-05-10T08:24:39Z</time>
      </trkpt>
      <trkpt lat="45.95021" lon="4.74594">
        <ele>194</ele>
        <time>2017-05-10T08:24:40Z</time>
      </trkpt>
      <trkpt lat="45.95024" lon="4.74599">
        <ele>194</ele>
        <time>2017-05-10T08:24:41Z</time>
      </trkpt>
      <trkpt lat="45.95028" lon="4.74605">
        <ele>194</ele>
        <time>2017-05-10T08:24:42Z</time>
      </trkpt>
      <trkpt lat="45.95031" lon="4.7461">
        <ele>194</ele>
        <time>2017-05-10T08:24:43Z</time>
      </trkpt>
      <trkpt lat="45.95034" lon="4.74616">
        <ele>194</ele>
        <time>2017-05-10T08:24:44Z</time>
      </trkpt>
      <trkpt lat="45.95037" lon="4.74621">
        <ele>194</ele>
        <time>2017-05-10T08:24:45Z</time>
      </trkpt>
      <trkpt lat="45.9504" lon="4.74627">
        <ele>194</ele>
        <time>2017-05-10T08:24:46Z</time>
      </trkpt>
      <trkpt lat="45.95042" lon="4.74633">
        <ele>194</ele>
        <time>2017-05-10T08:24:47Z</time>
      </trkpt>
      <trkpt lat="45.95045" lon="4.74638">
        <ele>194</ele>
        <time>2017-05-10T08:24:48Z</time>
      </trkpt>
      <trkpt lat="45.95049" lon="4.74644">
        <ele>194</ele>
        <time>2017-05-10T08:24:49Z</time>
      </trkpt>
      <trkpt lat="45.95052" lon="4.7465">
        <ele>194</ele>
        <time>2017-05-10T08:24:50Z</time>
      </trkpt>
      <trkpt lat="45.95055" lon="4.74656">
        <ele>194</ele>
        <time>2017-05-10T08:24:51Z</time>
      </trkpt>
      <trkpt lat="45.95059" lon="4.74662">
        <ele>194</ele>
        <time>2017-05-10T08:24:52Z</time>
      </trkpt>
      <trkpt lat="45.95062" lon="4.74668">
        <ele>194</ele>
        <time>2017-05-10T08:24:53Z</time>
      </trkpt>
      <trkpt lat="45.95065" lon="4.74675">
        <ele>194</ele>
        <time>2017-05-10T08:24:54Z</time>
      </trkpt>
      <trkpt lat="45.95068" lon="4.74681">
        <ele>194</ele>
        <time>2017-05-10T08:24:55Z</time>
      </trkpt>
      <trkpt lat="45.95071" lon="4.74688">
        <ele>194</ele>
        <time>2017-05-10T08:24:56Z</time>
      </trkpt>
      <trkpt lat="45.95074" lon="4.74694">
        <ele>194</ele>
        <time>2017-05-10T08:24:57Z</time>
      </trkpt>
      <trkpt lat="45.95077" lon="4.74699">
        <ele>194</ele>
        <time>2017-05-10T08:24:58Z</time>
      </trkpt>
      <trkpt lat="45.9508" lon="4.74705">
        <ele>194</ele>
        <time>2017-05-10T08:24:59Z</time>
      </trkpt>
      <trkpt lat="45.95083" lon="4.74711">
        <ele>194</ele>
        <time>2017-05-10T08:25:00Z</time>
      </trkpt>
      <trkpt lat="45.95087" lon="4.74716">
        <ele>194</ele>
        <time>2017-05-10T08:25:01Z</time>
      </trkpt>
      <trkpt lat="45.9509" lon="4.74722">
        <ele>194</ele>
        <time>2017-05-10T08:25:02Z</time>
      </trkpt>
      <trkpt lat="45.95094" lon="4.74728">
        <ele>194</ele>
        <time>2017-05-10T08:25:03Z</time>
      </trkpt>
      <trkpt lat="45.95097" lon="4.74733">
        <ele>194</ele>
        <time>2017-05-10T08:25:04Z</time>
      </trkpt>
      <trkpt lat="45.951" lon="4.74738">
        <ele>194</ele>
        <time>2017-05-10T08:25:05Z</time>
      </trkpt>
      <trkpt lat="45.95104" lon="4.74743">
        <ele>194</ele>
        <time>2017-05-10T08:25:06Z</time>
      </trkpt>
      <trkpt lat="45.95107" lon="4.74748">
        <ele>194</ele>
        <time>2017-05-10T08:25:07Z</time>
      </trkpt>
      <trkpt lat="45.95111" lon="4.74753">
        <ele>194</ele>
        <time>2017-05-10T08:25:08Z</time>
      </trkpt>
      <trkpt lat="45.95114" lon="4.74759">
        <ele>194</ele>
        <time>2017-05-10T08:25:09Z</time>
      </trkpt>
      <trkpt lat="45.95117" lon="4.74765">
        <ele>194</ele>
        <time>2017-05-10T08:25:10Z</time>
      </trkpt>
      <trkpt lat="45.95121" lon="4.74772">
        <ele>194</ele>
        <time>2017-05-10T08:25:11Z</time>
      </trkpt>
      <trkpt lat="45.95125" lon="4.74778">
        <ele>194</ele>
        <time>2017-05-10T08:25:12Z</time>
      </trkpt>
      <trkpt lat="45.95128" lon="4.74785">
        <ele>194</ele>
        <time>2017-05-10T08:25:13Z</time>
      </trkpt>
      <trkpt lat="45.95132" lon="4.74791">
        <ele>194</ele>
        <time>2017-05-10T08:25:14Z</time>
      </trkpt>
      <trkpt lat="45.95136" lon="4.74796">
        <ele>194</ele>
        <time>2017-05-10T08:25:15Z</time>
      </trkpt>
      <trkpt lat="45.9514" lon="4.74801">
        <ele>194</ele>
        <time>2017-05-10T08:25:16Z</time>
      </trkpt>
      <trkpt lat="45.95144" lon="4.74806">
        <ele>194</ele>
        <time>2017-05-10T08:25:17Z</time>
      </trkpt>
      <trkpt lat="45.95147" lon="4.74812">
        <ele>194</ele>
        <time>2017-05-10T08:25:18Z</time>
      </trkpt>
      <trkpt lat="45.9515" lon="4.74817">
        <ele>194</ele>
        <time>2017-05-10T08:25:19Z</time>
      </trkpt>
      <trkpt lat="45.95153" lon="4.74822">
        <ele>194</ele>
        <time>2017-05-10T08:25:20Z</time>
      </trkpt>
      <trkpt lat="45.95157" lon="4.74827">
        <ele>194</ele>
        <time>2017-05-10T08:25:21Z</time>
      </trkpt>
      <trkpt lat="45.9516" lon="4.74832">
        <ele>194</ele>
        <time>2017-05-10T08:25:22Z</time>
      </trkpt>
      <trkpt lat="45.95165" lon="4.74842">
        <ele>194</ele>
        <time>2017-05-10T08:25:24Z</time>
      </trkpt>
      <trkpt lat="45.95169" lon="4.74847">
        <ele>194</ele>
        <time>2017-05-10T08:25:25Z</time>
      </trkpt>
      <trkpt lat="45.95172" lon="4.74853">
        <ele>194</ele>
        <time>2017-05-10T08:25:26Z</time>
      </trkpt>
      <trkpt lat="45.95175" lon="4.74858">
        <ele>194</ele>
        <time>2017-05-10T08:25:27Z</time>
      </trkpt>
      <trkpt lat="45.95178" lon="4.74864">
        <ele>194</ele>
        <time>2017-05-10T08:25:28Z</time>
      </trkpt>
      <trkpt lat="45.95182" lon="4.74869">
        <ele>194</ele>
        <time>2017-05-10T08:25:29Z</time>
      </trkpt>
      <trkpt lat="45.95186" lon="4.74874">
        <ele>194</ele>
        <time>2017-05-10T08:25:30Z</time>
      </trkpt>
      <trkpt lat="45.95191" lon="4.74879">
        <ele>194</ele>
        <time>2017-05-10T08:25:31Z</time>
      </trkpt>
      <trkpt lat="45.95194" lon="4.74885">
        <ele>194</ele>
        <time>2017-05-10T08:25:32Z</time>
      </trkpt>
      <trkpt lat="45.95199" lon="4.7489">
        <ele>194</ele>
        <time>2017-05-10T08:25:33Z</time>
      </trkpt>
      <trkpt lat="45.95203" lon="4.74896">
        <ele>194</ele>
        <time>2017-05-10T08:25:34Z</time>
      </trkpt>
      <trkpt lat="45.95206" lon="4.74901">
        <ele>194</ele>
        <time>2017-05-10T08:25:35Z</time>
      </trkpt>
      <trkpt lat="45.9521" lon="4.74907">
        <ele>193</ele>
        <time>2017-05-10T08:25:36Z</time>
      </trkpt>
      <trkpt lat="45.95213" lon="4.74914">
        <ele>193</ele>
        <time>2017-05-10T08:25:37Z</time>
      </trkpt>
      <trkpt lat="45.95217" lon="4.7492">
        <ele>192</ele>
        <time>2017-05-10T08:25:38Z</time>
      </trkpt>
      <trkpt lat="45.95221" lon="4.74925">
        <ele>192</ele>
        <time>2017-05-10T08:25:39Z</time>
      </trkpt>
      <trkpt lat="45.95224" lon="4.7493">
        <ele>192</ele>
        <time>2017-05-10T08:25:40Z</time>
      </trkpt>
      <trkpt lat="45.95227" lon="4.74935">
        <ele>192</ele>
        <time>2017-05-10T08:25:41Z</time>
      </trkpt>
      <trkpt lat="45.9523" lon="4.74941">
        <ele>192</ele>
        <time>2017-05-10T08:25:42Z</time>
      </trkpt>
      <trkpt lat="45.95233" lon="4.74947">
        <ele>192</ele>
        <time>2017-05-10T08:25:43Z</time>
      </trkpt>
      <trkpt lat="45.95237" lon="4.74953">
        <ele>192</ele>
        <time>2017-05-10T08:25:44Z</time>
      </trkpt>
      <trkpt lat="45.9524" lon="4.74959">
        <ele>191</ele>
        <time>2017-05-10T08:25:45Z</time>
      </trkpt>
      <trkpt lat="45.95244" lon="4.74964">
        <ele>191</ele>
        <time>2017-05-10T08:25:46Z</time>
      </trkpt>
      <trkpt lat="45.95247" lon="4.7497">
        <ele>191</ele>
        <time>2017-05-10T08:25:47Z</time>
      </trkpt>
      <trkpt lat="45.95251" lon="4.74976">
        <ele>192</ele>
        <time>2017-05-10T08:25:48Z</time>
      </trkpt>
      <trkpt lat="45.95254" lon="4.74982">
        <ele>192</ele>
        <time>2017-05-10T08:25:49Z</time>
      </trkpt>
      <trkpt lat="45.95258" lon="4.74987">
        <ele>192</ele>
        <time>2017-05-10T08:25:50Z</time>
      </trkpt>
      <trkpt lat="45.95262" lon="4.74993">
        <ele>192</ele>
        <time>2017-05-10T08:25:51Z</time>
      </trkpt>
      <trkpt lat="45.95265" lon="4.75">
        <ele>192</ele>
        <time>2017-05-10T08:25:52Z</time>
      </trkpt>
      <trkpt lat="45.95269" lon="4.75006">
        <ele>191</ele>
        <time>2017-05-10T08:25:53Z</time>
      </trkpt>
      <trkpt lat="45.95273" lon="4.75012">
        <ele>191</ele>
        <time>2017-05-10T08:25:54Z</time>
      </trkpt>
      <trkpt lat="45.95277" lon="4.75018">
        <ele>191</ele>
        <time>2017-05-10T08:25:55Z</time>
      </trkpt>
      <trkpt lat="45.9528" lon="4.75024">
        <ele>191</ele>
        <time>2017-05-10T08:25:56Z</time>
      </trkpt>
      <trkpt lat="45.95285" lon="4.7503">
        <ele>191</ele>
        <time>2017-05-10T08:25:57Z</time>
      </trkpt>
      <trkpt lat="45.95289" lon="4.75036">
        <ele>191</ele>
        <time>2017-05-10T08:25:58Z</time>
      </trkpt>
      <trkpt lat="45.95293" lon="4.75042">
        <ele>191</ele>
        <time>2017-05-10T08:25:59Z</time>
      </trkpt>
      <trkpt lat="45.95297" lon="4.75047">
        <ele>191</ele>
        <time>2017-05-10T08:26:00Z</time>
      </trkpt>
      <trkpt lat="45.95301" lon="4.75053">
        <ele>191</ele>
        <time>2017-05-10T08:26:01Z</time>
      </trkpt>
      <trkpt lat="45.95305" lon="4.75059">
        <ele>191</ele>
        <time>2017-05-10T08:26:02Z</time>
      </trkpt>
      <trkpt lat="45.95309" lon="4.75064">
        <ele>192</ele>
        <time>2017-05-10T08:26:03Z</time>
      </trkpt>
      <trkpt lat="45.95312" lon="4.75071">
        <ele>192</ele>
        <time>2017-05-10T08:26:04Z</time>
      </trkpt>
      <trkpt lat="45.95316" lon="4.75077">
        <ele>192</ele>
        <time>2017-05-10T08:26:05Z</time>
      </trkpt>
      <trkpt lat="45.95319" lon="4.75083">
        <ele>192</ele>
        <time>2017-05-10T08:26:06Z</time>
      </trkpt>
      <trkpt lat="45.95323" lon="4.75089">
        <ele>191</ele>
        <time>2017-05-10T08:26:07Z</time>
      </trkpt>
      <trkpt lat="45.95326" lon="4.75094">
        <ele>191</ele>
        <time>2017-05-10T08:26:08Z</time>
      </trkpt>
      <trkpt lat="45.95329" lon="4.751">
        <ele>190</ele>
        <time>2017-05-10T08:26:09Z</time>
      </trkpt>
      <trkpt lat="45.95333" lon="4.75105">
        <ele>190</ele>
        <time>2017-05-10T08:26:10Z</time>
      </trkpt>
      <trkpt lat="45.95336" lon="4.75111">
        <ele>192</ele>
        <time>2017-05-10T08:26:11Z</time>
      </trkpt>
      <trkpt lat="45.9534" lon="4.75116">
        <ele>192</ele>
        <time>2017-05-10T08:26:12Z</time>
      </trkpt>
      <trkpt lat="45.95343" lon="4.75121">
        <ele>191</ele>
        <time>2017-05-10T08:26:13Z</time>
      </trkpt>
      <trkpt lat="45.95347" lon="4.75127">
        <ele>191</ele>
        <time>2017-05-10T08:26:14Z</time>
      </trkpt>
      <trkpt lat="45.9535" lon="4.75133">
        <ele>191</ele>
        <time>2017-05-10T08:26:15Z</time>
      </trkpt>
      <trkpt lat="45.95354" lon="4.75138">
        <ele>191</ele>
        <time>2017-05-10T08:26:16Z</time>
      </trkpt>
      <trkpt lat="45.95357" lon="4.75144">
        <ele>191</ele>
        <time>2017-05-10T08:26:17Z</time>
      </trkpt>
      <trkpt lat="45.9536" lon="4.7515">
        <ele>191</ele>
        <time>2017-05-10T08:26:18Z</time>
      </trkpt>
      <trkpt lat="45.95364" lon="4.75157">
        <ele>191</ele>
        <time>2017-05-10T08:26:19Z</time>
      </trkpt>
      <trkpt lat="45.95368" lon="4.75163">
        <ele>191</ele>
        <time>2017-05-10T08:26:20Z</time>
      </trkpt>
      <trkpt lat="45.95371" lon="4.75169">
        <ele>188</ele>
        <time>2017-05-10T08:26:21Z</time>
      </trkpt>
      <trkpt lat="45.95375" lon="4.75176">
        <ele>189</ele>
        <time>2017-05-10T08:26:22Z</time>
      </trkpt>
      <trkpt lat="45.95379" lon="4.75183">
        <ele>189</ele>
        <time>2017-05-10T08:26:23Z</time>
      </trkpt>
      <trkpt lat="45.95383" lon="4.7519">
        <ele>189</ele>
        <time>2017-05-10T08:26:24Z</time>
      </trkpt>
      <trkpt lat="45.95387" lon="4.75197">
        <ele>189</ele>
        <time>2017-05-10T08:26:25Z</time>
      </trkpt>
      <trkpt lat="45.95391" lon="4.75204">
        <ele>188</ele>
        <time>2017-05-10T08:26:26Z</time>
      </trkpt>
      <trkpt lat="45.95395" lon="4.75211">
        <ele>188</ele>
        <time>2017-05-10T08:26:27Z</time>
      </trkpt>
      <trkpt lat="45.95398" lon="4.75218">
        <ele>188</ele>
        <time>2017-05-10T08:26:28Z</time>
      </trkpt>
      <trkpt lat="45.95402" lon="4.75224">
        <ele>188</ele>
        <time>2017-05-10T08:26:29Z</time>
      </trkpt>
      <trkpt lat="45.95407" lon="4.75231">
        <ele>188</ele>
        <time>2017-05-10T08:26:30Z</time>
      </trkpt>
      <trkpt lat="45.95411" lon="4.75237">
        <ele>189</ele>
        <time>2017-05-10T08:26:31Z</time>
      </trkpt>
      <trkpt lat="45.95415" lon="4.75244">
        <ele>189</ele>
        <time>2017-05-10T08:26:32Z</time>
      </trkpt>
      <trkpt lat="45.95419" lon="4.7525">
        <ele>189</ele>
        <time>2017-05-10T08:26:33Z</time>
      </trkpt>
      <trkpt lat="45.95423" lon="4.75257">
        <ele>189</ele>
        <time>2017-05-10T08:26:34Z</time>
      </trkpt>
      <trkpt lat="45.95426" lon="4.75264">
        <ele>189</ele>
        <time>2017-05-10T08:26:35Z</time>
      </trkpt>
      <trkpt lat="45.9543" lon="4.75271">
        <ele>189</ele>
        <time>2017-05-10T08:26:36Z</time>
      </trkpt>
      <trkpt lat="45.95434" lon="4.75277">
        <ele>188</ele>
        <time>2017-05-10T08:26:37Z</time>
      </trkpt>
      <trkpt lat="45.95438" lon="4.75284">
        <ele>188</ele>
        <time>2017-05-10T08:26:38Z</time>
      </trkpt>
      <trkpt lat="45.95442" lon="4.75289">
        <ele>188</ele>
        <time>2017-05-10T08:26:39Z</time>
      </trkpt>
      <trkpt lat="45.95446" lon="4.75296">
        <ele>188</ele>
        <time>2017-05-10T08:26:40Z</time>
      </trkpt>
      <trkpt lat="45.95449" lon="4.75304">
        <ele>188</ele>
        <time>2017-05-10T08:26:41Z</time>
      </trkpt>
      <trkpt lat="45.95452" lon="4.7531">
        <ele>188</ele>
        <time>2017-05-10T08:26:42Z</time>
      </trkpt>
      <trkpt lat="45.95456" lon="4.75318">
        <ele>188</ele>
        <time>2017-05-10T08:26:43Z</time>
      </trkpt>
      <trkpt lat="45.9546" lon="4.75325">
        <ele>188</ele>
        <time>2017-05-10T08:26:44Z</time>
      </trkpt>
      <trkpt lat="45.95464" lon="4.75333">
        <ele>188</ele>
        <time>2017-05-10T08:26:45Z</time>
      </trkpt>
      <trkpt lat="45.95469" lon="4.75341">
        <ele>186</ele>
        <time>2017-05-10T08:26:46Z</time>
      </trkpt>
      <trkpt lat="45.95473" lon="4.75349">
        <ele>186</ele>
        <time>2017-05-10T08:26:47Z</time>
      </trkpt>
      <trkpt lat="45.95477" lon="4.75356">
        <ele>186</ele>
        <time>2017-05-10T08:26:48Z</time>
      </trkpt>
      <trkpt lat="45.95481" lon="4.75364">
        <ele>185</ele>
        <time>2017-05-10T08:26:49Z</time>
      </trkpt>
      <trkpt lat="45.95485" lon="4.75372">
        <ele>185</ele>
        <time>2017-05-10T08:26:50Z</time>
      </trkpt>
      <trkpt lat="45.95489" lon="4.75381">
        <ele>185</ele>
        <time>2017-05-10T08:26:51Z</time>
      </trkpt>
      <trkpt lat="45.95492" lon="4.75389">
        <ele>185</ele>
        <time>2017-05-10T08:26:52Z</time>
      </trkpt>
      <trkpt lat="45.95495" lon="4.75398">
        <ele>185</ele>
        <time>2017-05-10T08:26:53Z</time>
      </trkpt>
      <trkpt lat="45.95497" lon="4.75408">
        <ele>185</ele>
        <time>2017-05-10T08:26:54Z</time>
      </trkpt>
      <trkpt lat="45.95499" lon="4.75417">
        <ele>185</ele>
        <time>2017-05-10T08:26:55Z</time>
      </trkpt>
      <trkpt lat="45.95501" lon="4.75427">
        <ele>186</ele>
        <time>2017-05-10T08:26:56Z</time>
      </trkpt>
      <trkpt lat="45.95503" lon="4.75435">
        <ele>186</ele>
        <time>2017-05-10T08:26:57Z</time>
      </trkpt>
      <trkpt lat="45.95504" lon="4.75446">
        <ele>186</ele>
        <time>2017-05-10T08:26:59Z</time>
      </trkpt>
      <trkpt lat="45.95505" lon="4.75449">
        <ele>186</ele>
        <time>2017-05-10T08:27:00Z</time>
      </trkpt>
      <trkpt lat="45.95504" lon="4.75457">
        <ele>186</ele>
        <time>2017-05-10T08:27:02Z</time>
      </trkpt>
      <trkpt lat="45.95503" lon="4.75462">
        <ele>186</ele>
        <time>2017-05-10T08:27:03Z</time>
      </trkpt>
      <trkpt lat="45.95502" lon="4.75468">
        <ele>186</ele>
        <time>2017-05-10T08:27:04Z</time>
      </trkpt>
      <trkpt lat="45.95502" lon="4.75475">
        <ele>186</ele>
        <time>2017-05-10T08:27:05Z</time>
      </trkpt>
      <trkpt lat="45.95502" lon="4.75482">
        <ele>186</ele>
        <time>2017-05-10T08:27:06Z</time>
      </trkpt>
      <trkpt lat="45.95504" lon="4.75488">
        <ele>185</ele>
        <time>2017-05-10T08:27:07Z</time>
      </trkpt>
      <trkpt lat="45.9551" lon="4.75495">
        <ele>185</ele>
        <time>2017-05-10T08:27:09Z</time>
      </trkpt>
      <trkpt lat="45.95514" lon="4.75498">
        <ele>185</ele>
        <time>2017-05-10T08:27:10Z</time>
      </trkpt>
      <trkpt lat="45.95521" lon="4.75505">
        <ele>185</ele>
        <time>2017-05-10T08:27:12Z</time>
      </trkpt>
      <trkpt lat="45.95526" lon="4.75509">
        <ele>185</ele>
        <time>2017-05-10T08:27:13Z</time>
      </trkpt>
      <trkpt lat="45.9553" lon="4.75513">
        <ele>185</ele>
        <time>2017-05-10T08:27:14Z</time>
      </trkpt>
      <trkpt lat="45.95534" lon="4.75518">
        <ele>185</ele>
        <time>2017-05-10T08:27:15Z</time>
      </trkpt>
      <trkpt lat="45.95539" lon="4.75523">
        <ele>186</ele>
        <time>2017-05-10T08:27:16Z</time>
      </trkpt>
      <trkpt lat="45.95544" lon="4.75528">
        <ele>186</ele>
        <time>2017-05-10T08:27:17Z</time>
      </trkpt>
      <trkpt lat="45.95549" lon="4.75532">
        <ele>186</ele>
        <time>2017-05-10T08:27:18Z</time>
      </trkpt>
      <trkpt lat="45.95553" lon="4.75536">
        <ele>186</ele>
        <time>2017-05-10T08:27:19Z</time>
      </trkpt>
      <trkpt lat="45.95558" lon="4.7554">
        <ele>186</ele>
        <time>2017-05-10T08:27:20Z</time>
      </trkpt>
      <trkpt lat="45.95563" lon="4.75545">
        <ele>186</ele>
        <time>2017-05-10T08:27:21Z</time>
      </trkpt>
      <trkpt lat="45.95567" lon="4.75549">
        <ele>186</ele>
        <time>2017-05-10T08:27:22Z</time>
      </trkpt>
      <trkpt lat="45.95572" lon="4.75554">
        <ele>186</ele>
        <time>2017-05-10T08:27:23Z</time>
      </trkpt>
      <trkpt lat="45.95575" lon="4.7556">
        <ele>186</ele>
        <time>2017-05-10T08:27:24Z</time>
      </trkpt>
      <trkpt lat="45.95579" lon="4.75565">
        <ele>186</ele>
        <time>2017-05-10T08:27:25Z</time>
      </trkpt>
      <trkpt lat="45.95583" lon="4.75571">
        <ele>186</ele>
        <time>2017-05-10T08:27:26Z</time>
      </trkpt>
      <trkpt lat="45.95586" lon="4.75576">
        <ele>187</ele>
        <time>2017-05-10T08:27:27Z</time>
      </trkpt>
      <trkpt lat="45.9559" lon="4.75582">
        <ele>187</ele>
        <time>2017-05-10T08:27:28Z</time>
      </trkpt>
      <trkpt lat="45.95593" lon="4.75589">
        <ele>187</ele>
        <time>2017-05-10T08:27:29Z</time>
      </trkpt>
      <trkpt lat="45.95595" lon="4.75596">
        <ele>187</ele>
        <time>2017-05-10T08:27:30Z</time>
      </trkpt>
      <trkpt lat="45.95598" lon="4.75603">
        <ele>187</ele>
        <time>2017-05-10T08:27:31Z</time>
      </trkpt>
      <trkpt lat="45.95601" lon="4.7561">
        <ele>187</ele>
        <time>2017-05-10T08:27:32Z</time>
      </trkpt>
      <trkpt lat="45.95604" lon="4.75617">
        <ele>187</ele>
        <time>2017-05-10T08:27:33Z</time>
      </trkpt>
      <trkpt lat="45.95606" lon="4.75624">
        <ele>188</ele>
        <time>2017-05-10T08:27:34Z</time>
      </trkpt>
      <trkpt lat="45.95608" lon="4.75632">
        <ele>188</ele>
        <time>2017-05-10T08:27:35Z</time>
      </trkpt>
      <trkpt lat="45.9561" lon="4.7564">
        <ele>188</ele>
        <time>2017-05-10T08:27:36Z</time>
      </trkpt>
      <trkpt lat="45.95612" lon="4.75648">
        <ele>188</ele>
        <time>2017-05-10T08:27:37Z</time>
      </trkpt>
      <trkpt lat="45.95613" lon="4.75657">
        <ele>188</ele>
        <time>2017-05-10T08:27:38Z</time>
      </trkpt>
      <trkpt lat="45.95615" lon="4.75665">
        <ele>188</ele>
        <time>2017-05-10T08:27:39Z</time>
      </trkpt>
      <trkpt lat="45.95616" lon="4.75674">
        <ele>187</ele>
        <time>2017-05-10T08:27:40Z</time>
      </trkpt>
      <trkpt lat="45.95618" lon="4.75682">
        <ele>187</ele>
        <time>2017-05-10T08:27:41Z</time>
      </trkpt>
      <trkpt lat="45.95619" lon="4.7569">
        <ele>187</ele>
        <time>2017-05-10T08:27:42Z</time>
      </trkpt>
      <trkpt lat="45.9562" lon="4.75698">
        <ele>187</ele>
        <time>2017-05-10T08:27:43Z</time>
      </trkpt>
      <trkpt lat="45.95621" lon="4.75705">
        <ele>187</ele>
        <time>2017-05-10T08:27:44Z</time>
      </trkpt>
      <trkpt lat="45.95622" lon="4.75713">
        <ele>187</ele>
        <time>2017-05-10T08:27:45Z</time>
      </trkpt>
      <trkpt lat="45.95623" lon="4.7572">
        <ele>187</ele>
        <time>2017-05-10T08:27:46Z</time>
      </trkpt>
      <trkpt lat="45.95624" lon="4.75727">
        <ele>187</ele>
        <time>2017-05-10T08:27:47Z</time>
      </trkpt>
      <trkpt lat="45.95625" lon="4.75735">
        <ele>187</ele>
        <time>2017-05-10T08:27:48Z</time>
      </trkpt>
      <trkpt lat="45.95626" lon="4.75742">
        <ele>187</ele>
        <time>2017-05-10T08:27:49Z</time>
      </trkpt>
      <trkpt lat="45.95627" lon="4.7575">
        <ele>187</ele>
        <time>2017-05-10T08:27:50Z</time>
      </trkpt>
      <trkpt lat="45.95629" lon="4.75757">
        <ele>185</ele>
        <time>2017-05-10T08:27:51Z</time>
      </trkpt>
      <trkpt lat="45.95629" lon="4.75764">
        <ele>185</ele>
        <time>2017-05-10T08:27:52Z</time>
      </trkpt>
      <trkpt lat="45.9563" lon="4.75771">
        <ele>185</ele>
        <time>2017-05-10T08:27:53Z</time>
      </trkpt>
      <trkpt lat="45.95631" lon="4.75778">
        <ele>185</ele>
        <time>2017-05-10T08:27:54Z</time>
      </trkpt>
      <trkpt lat="45.95632" lon="4.75785">
        <ele>185</ele>
        <time>2017-05-10T08:27:55Z</time>
      </trkpt>
      <trkpt lat="45.95633" lon="4.75792">
        <ele>185</ele>
        <time>2017-05-10T08:27:56Z</time>
      </trkpt>
      <trkpt lat="45.95634" lon="4.75798">
        <ele>185</ele>
        <time>2017-05-10T08:27:57Z</time>
      </trkpt>
      <trkpt lat="45.95636" lon="4.75805">
        <ele>185</ele>
        <time>2017-05-10T08:27:58Z</time>
      </trkpt>
      <trkpt lat="45.95638" lon="4.75811">
        <ele>185</ele>
        <time>2017-05-10T08:27:59Z</time>
      </trkpt>
      <trkpt lat="45.95639" lon="4.75818">
        <ele>185</ele>
        <time>2017-05-10T08:28:00Z</time>
      </trkpt>
      <trkpt lat="45.95641" lon="4.75825">
        <ele>185</ele>
        <time>2017-05-10T08:28:01Z</time>
      </trkpt>
      <trkpt lat="45.95642" lon="4.75832">
        <ele>185</ele>
        <time>2017-05-10T08:28:02Z</time>
      </trkpt>
      <trkpt lat="45.95644" lon="4.75839">
        <ele>184</ele>
        <time>2017-05-10T08:28:03Z</time>
      </trkpt>
      <trkpt lat="45.95645" lon="4.75846">
        <ele>184</ele>
        <time>2017-05-10T08:28:04Z</time>
      </trkpt>
      <trkpt lat="45.95647" lon="4.75854">
        <ele>184</ele>
        <time>2017-05-10T08:28:05Z</time>
      </trkpt>
      <trkpt lat="45.95649" lon="4.75861">
        <ele>184</ele>
        <time>2017-05-10T08:28:06Z</time>
      </trkpt>
      <trkpt lat="45.95651" lon="4.75868">
        <ele>184</ele>
        <time>2017-05-10T08:28:07Z</time>
      </trkpt>
      <trkpt lat="45.95654" lon="4.75875">
        <ele>184</ele>
        <time>2017-05-10T08:28:08Z</time>
      </trkpt>
      <trkpt lat="45.95656" lon="4.75883">
        <ele>184</ele>
        <time>2017-05-10T08:28:09Z</time>
      </trkpt>
      <trkpt lat="45.95659" lon="4.7589">
        <ele>184</ele>
        <time>2017-05-10T08:28:10Z</time>
      </trkpt>
      <trkpt lat="45.95662" lon="4.75898">
        <ele>184</ele>
        <time>2017-05-10T08:28:11Z</time>
      </trkpt>
      <trkpt lat="45.95664" lon="4.75905">
        <ele>184</ele>
        <time>2017-05-10T08:28:12Z</time>
      </trkpt>
      <trkpt lat="45.95667" lon="4.75913">
        <ele>184</ele>
        <time>2017-05-10T08:28:13Z</time>
      </trkpt>
      <trkpt lat="45.95671" lon="4.7592">
        <ele>184</ele>
        <time>2017-05-10T08:28:14Z</time>
      </trkpt>
      <trkpt lat="45.95674" lon="4.75928">
        <ele>185</ele>
        <time>2017-05-10T08:28:15Z</time>
      </trkpt>
      <trkpt lat="45.95677" lon="4.75935">
        <ele>185</ele>
        <time>2017-05-10T08:28:16Z</time>
      </trkpt>
      <trkpt lat="45.9568" lon="4.75943">
        <ele>185</ele>
        <time>2017-05-10T08:28:17Z</time>
      </trkpt>
      <trkpt lat="45.95684" lon="4.7595">
        <ele>185</ele>
        <time>2017-05-10T08:28:18Z</time>
      </trkpt>
      <trkpt lat="45.95687" lon="4.75957">
        <ele>185</ele>
        <time>2017-05-10T08:28:19Z</time>
      </trkpt>
      <trkpt lat="45.9569" lon="4.75964">
        <ele>185</ele>
        <time>2017-05-10T08:28:20Z</time>
      </trkpt>
      <trkpt lat="45.95693" lon="4.75971">
        <ele>185</ele>
        <time>2017-05-10T08:28:21Z</time>
      </trkpt>
      <trkpt lat="45.95697" lon="4.75978">
        <ele>185</ele>
        <time>2017-05-10T08:28:22Z</time>
      </trkpt>
      <trkpt lat="45.957" lon="4.75985">
        <ele>185</ele>
        <time>2017-05-10T08:28:23Z</time>
      </trkpt>
      <trkpt lat="45.95703" lon="4.75992">
        <ele>185</ele>
        <time>2017-05-10T08:28:24Z</time>
      </trkpt>
      <trkpt lat="45.95706" lon="4.75999">
        <ele>185</ele>
        <time>2017-05-10T08:28:25Z</time>
      </trkpt>
      <trkpt lat="45.95709" lon="4.76006">
        <ele>184</ele>
        <time>2017-05-10T08:28:26Z</time>
      </trkpt>
      <trkpt lat="45.95712" lon="4.76012">
        <ele>184</ele>
        <time>2017-05-10T08:28:27Z</time>
      </trkpt>
      <trkpt lat="45.95715" lon="4.76018">
        <ele>184</ele>
        <time>2017-05-10T08:28:28Z</time>
      </trkpt>
      <trkpt lat="45.95718" lon="4.76025">
        <ele>184</ele>
        <time>2017-05-10T08:28:29Z</time>
      </trkpt>
      <trkpt lat="45.95721" lon="4.76031">
        <ele>184</ele>
        <time>2017-05-10T08:28:30Z</time>
      </trkpt>
      <trkpt lat="45.95724" lon="4.76038">
        <ele>184</ele>
        <time>2017-05-10T08:28:31Z</time>
      </trkpt>
      <trkpt lat="45.95727" lon="4.76045">
        <ele>184</ele>
        <time>2017-05-10T08:28:32Z</time>
      </trkpt>
      <trkpt lat="45.95731" lon="4.76052">
        <ele>184</ele>
        <time>2017-05-10T08:28:33Z</time>
      </trkpt>
      <trkpt lat="45.95734" lon="4.76059">
        <ele>184</ele>
        <time>2017-05-10T08:28:34Z</time>
      </trkpt>
      <trkpt lat="45.95737" lon="4.76066">
        <ele>184</ele>
        <time>2017-05-10T08:28:35Z</time>
      </trkpt>
      <trkpt lat="45.9574" lon="4.76073">
        <ele>185</ele>
        <time>2017-05-10T08:28:36Z</time>
      </trkpt>
      <trkpt lat="45.95743" lon="4.7608">
        <ele>185</ele>
        <time>2017-05-10T08:28:37Z</time>
      </trkpt>
      <trkpt lat="45.95745" lon="4.76086">
        <ele>185</ele>
        <time>2017-05-10T08:28:38Z</time>
      </trkpt>
      <trkpt lat="45.95747" lon="4.76092">
        <ele>185</ele>
        <time>2017-05-10T08:28:39Z</time>
      </trkpt>
      <trkpt lat="45.95749" lon="4.76098">
        <ele>184</ele>
        <time>2017-05-10T08:28:40Z</time>
      </trkpt>
      <trkpt lat="45.95751" lon="4.76104">
        <ele>186</ele>
        <time>2017-05-10T08:28:41Z</time>
      </trkpt>
      <trkpt lat="45.95753" lon="4.76111">
        <ele>186</ele>
        <time>2017-05-10T08:28:42Z</time>
      </trkpt>
      <trkpt lat="45.95755" lon="4.76118">
        <ele>186</ele>
        <time>2017-05-10T08:28:43Z</time>
      </trkpt>
      <trkpt lat="45.95757" lon="4.76125">
        <ele>186</ele>
        <time>2017-05-10T08:28:44Z</time>
      </trkpt>
      <trkpt lat="45.95758" lon="4.76133">
        <ele>186</ele>
        <time>2017-05-10T08:28:45Z</time>
      </trkpt>
      <trkpt lat="45.95758" lon="4.76141">
        <ele>186</ele>
        <time>2017-05-10T08:28:46Z</time>
      </trkpt>
      <trkpt lat="45.95759" lon="4.7615">
        <ele>186</ele>
        <time>2017-05-10T08:28:47Z</time>
      </trkpt>
      <trkpt lat="45.95759" lon="4.76158">
        <ele>186</ele>
        <time>2017-05-10T08:28:48Z</time>
      </trkpt>
      <trkpt lat="45.9576" lon="4.76167">
        <ele>185</ele>
        <time>2017-05-10T08:28:49Z</time>
      </trkpt>
      <trkpt lat="45.9576" lon="4.76175">
        <ele>185</ele>
        <time>2017-05-10T08:28:50Z</time>
      </trkpt>
      <trkpt lat="45.9576" lon="4.76184">
        <ele>186</ele>
        <time>2017-05-10T08:28:51Z</time>
      </trkpt>
      <trkpt lat="45.9576" lon="4.76193">
        <ele>186</ele>
        <time>2017-05-10T08:28:52Z</time>
      </trkpt>
      <trkpt lat="45.95761" lon="4.76202">
        <ele>186</ele>
        <time>2017-05-10T08:28:53Z</time>
      </trkpt>
      <trkpt lat="45.95761" lon="4.7621">
        <ele>186</ele>
        <time>2017-05-10T08:28:54Z</time>
      </trkpt>
      <trkpt lat="45.95761" lon="4.76217">
        <ele>186</ele>
        <time>2017-05-10T08:28:55Z</time>
      </trkpt>
      <trkpt lat="45.95762" lon="4.76225">
        <ele>186</ele>
        <time>2017-05-10T08:28:56Z</time>
      </trkpt>
      <trkpt lat="45.95762" lon="4.76232">
        <ele>186</ele>
        <time>2017-05-10T08:28:57Z</time>
      </trkpt>
      <trkpt lat="45.95763" lon="4.76239">
        <ele>185</ele>
        <time>2017-05-10T08:28:58Z</time>
      </trkpt>
      <trkpt lat="45.95763" lon="4.76247">
        <ele>185</ele>
        <time>2017-05-10T08:28:59Z</time>
      </trkpt>
      <trkpt lat="45.95763" lon="4.76254">
        <ele>185</ele>
        <time>2017-05-10T08:29:00Z</time>
      </trkpt>
      <trkpt lat="45.95763" lon="4.76261">
        <ele>185</ele>
        <time>2017-05-10T08:29:01Z</time>
      </trkpt>
      <trkpt lat="45.95764" lon="4.76268">
        <ele>185</ele>
        <time>2017-05-10T08:29:02Z</time>
      </trkpt>
      <trkpt lat="45.95764" lon="4.76276">
        <ele>186</ele>
        <time>2017-05-10T08:29:03Z</time>
      </trkpt>
      <trkpt lat="45.95764" lon="4.76284">
        <ele>186</ele>
        <time>2017-05-10T08:29:04Z</time>
      </trkpt>
      <trkpt lat="45.95765" lon="4.76292">
        <ele>186</ele>
        <time>2017-05-10T08:29:05Z</time>
      </trkpt>
      <trkpt lat="45.95765" lon="4.76299">
        <ele>186</ele>
        <time>2017-05-10T08:29:06Z</time>
      </trkpt>
      <trkpt lat="45.95766" lon="4.76308">
        <ele>185</ele>
        <time>2017-05-10T08:29:07Z</time>
      </trkpt>
      <trkpt lat="45.95766" lon="4.76316">
        <ele>185</ele>
        <time>2017-05-10T08:29:08Z</time>
      </trkpt>
      <trkpt lat="45.95767" lon="4.76324">
        <ele>185</ele>
        <time>2017-05-10T08:29:09Z</time>
      </trkpt>
      <trkpt lat="45.95767" lon="4.76333">
        <ele>185</ele>
        <time>2017-05-10T08:29:10Z</time>
      </trkpt>
      <trkpt lat="45.95768" lon="4.76341">
        <ele>186</ele>
        <time>2017-05-10T08:29:11Z</time>
      </trkpt>
      <trkpt lat="45.95769" lon="4.76349">
        <ele>186</ele>
        <time>2017-05-10T08:29:12Z</time>
      </trkpt>
      <trkpt lat="45.95769" lon="4.76356">
        <ele>186</ele>
        <time>2017-05-10T08:29:13Z</time>
      </trkpt>
      <trkpt lat="45.9577" lon="4.76363">
        <ele>186</ele>
        <time>2017-05-10T08:29:14Z</time>
      </trkpt>
      <trkpt lat="45.9577" lon="4.76371">
        <ele>186</ele>
        <time>2017-05-10T08:29:15Z</time>
      </trkpt>
      <trkpt lat="45.95771" lon="4.76378">
        <ele>186</ele>
        <time>2017-05-10T08:29:16Z</time>
      </trkpt>
      <trkpt lat="45.95771" lon="4.76384">
        <ele>186</ele>
        <time>2017-05-10T08:29:17Z</time>
      </trkpt>
      <trkpt lat="45.95771" lon="4.76391">
        <ele>186</ele>
        <time>2017-05-10T08:29:18Z</time>
      </trkpt>
      <trkpt lat="45.95772" lon="4.76399">
        <ele>186</ele>
        <time>2017-05-10T08:29:19Z</time>
      </trkpt>
      <trkpt lat="45.95772" lon="4.76406">
        <ele>186</ele>
        <time>2017-05-10T08:29:20Z</time>
      </trkpt>
      <trkpt lat="45.95773" lon="4.76414">
        <ele>186</ele>
        <time>2017-05-10T08:29:21Z</time>
      </trkpt>
      <trkpt lat="45.95774" lon="4.76421">
        <ele>186</ele>
        <time>2017-05-10T08:29:22Z</time>
      </trkpt>
      <trkpt lat="45.95775" lon="4.76429">
        <ele>186</ele>
        <time>2017-05-10T08:29:23Z</time>
      </trkpt>
      <trkpt lat="45.95775" lon="4.76437">
        <ele>186</ele>
        <time>2017-05-10T08:29:24Z</time>
      </trkpt>
      <trkpt lat="45.95776" lon="4.76445">
        <ele>186</ele>
        <time>2017-05-10T08:29:25Z</time>
      </trkpt>
      <trkpt lat="45.95777" lon="4.76452">
        <ele>186</ele>
        <time>2017-05-10T08:29:26Z</time>
      </trkpt>
      <trkpt lat="45.95778" lon="4.7646">
        <ele>186</ele>
        <time>2017-05-10T08:29:27Z</time>
      </trkpt>
      <trkpt lat="45.95779" lon="4.76468">
        <ele>186</ele>
        <time>2017-05-10T08:29:28Z</time>
      </trkpt>
      <trkpt lat="45.9578" lon="4.76475">
        <ele>186</ele>
        <time>2017-05-10T08:29:29Z</time>
      </trkpt>
      <trkpt lat="45.95782" lon="4.76483">
        <ele>186</ele>
        <time>2017-05-10T08:29:30Z</time>
      </trkpt>
      <trkpt lat="45.95783" lon="4.7649">
        <ele>186</ele>
        <time>2017-05-10T08:29:31Z</time>
      </trkpt>
      <trkpt lat="45.95784" lon="4.76497">
        <ele>186</ele>
        <time>2017-05-10T08:29:32Z</time>
      </trkpt>
      <trkpt lat="45.95785" lon="4.76504">
        <ele>186</ele>
        <time>2017-05-10T08:29:33Z</time>
      </trkpt>
      <trkpt lat="45.95786" lon="4.76511">
        <ele>187</ele>
        <time>2017-05-10T08:29:34Z</time>
      </trkpt>
      <trkpt lat="45.95787" lon="4.76517">
        <ele>187</ele>
        <time>2017-05-10T08:29:35Z</time>
      </trkpt>
      <trkpt lat="45.95788" lon="4.76524">
        <ele>187</ele>
        <time>2017-05-10T08:29:36Z</time>
      </trkpt>
      <trkpt lat="45.95789" lon="4.76531">
        <ele>187</ele>
        <time>2017-05-10T08:29:37Z</time>
      </trkpt>
      <trkpt lat="45.9579" lon="4.76538">
        <ele>187</ele>
        <time>2017-05-10T08:29:38Z</time>
      </trkpt>
      <trkpt lat="45.95791" lon="4.76545">
        <ele>187</ele>
        <time>2017-05-10T08:29:39Z</time>
      </trkpt>
      <trkpt lat="45.95792" lon="4.76552">
        <ele>187</ele>
        <time>2017-05-10T08:29:40Z</time>
      </trkpt>
      <trkpt lat="45.95794" lon="4.76559">
        <ele>187</ele>
        <time>2017-05-10T08:29:41Z</time>
      </trkpt>
      <trkpt lat="45.95795" lon="4.76566">
        <ele>187</ele>
        <time>2017-05-10T08:29:42Z</time>
      </trkpt>
      <trkpt lat="45.95795" lon="4.76573">
        <ele>187</ele>
        <time>2017-05-10T08:29:43Z</time>
      </trkpt>
      <trkpt lat="45.95796" lon="4.7658">
        <ele>187</ele>
        <time>2017-05-10T08:29:44Z</time>
      </trkpt>
      <trkpt lat="45.95797" lon="4.76587">
        <ele>187</ele>
        <time>2017-05-10T08:29:45Z</time>
      </trkpt>
      <trkpt lat="45.95798" lon="4.76594">
        <ele>187</ele>
        <time>2017-05-10T08:29:46Z</time>
      </trkpt>
      <trkpt lat="45.958" lon="4.76601">
        <ele>187</ele>
        <time>2017-05-10T08:29:47Z</time>
      </trkpt>
      <trkpt lat="45.95801" lon="4.76608">
        <ele>187</ele>
        <time>2017-05-10T08:29:48Z</time>
      </trkpt>
      <trkpt lat="45.95802" lon="4.76615">
        <ele>188</ele>
        <time>2017-05-10T08:29:49Z</time>
      </trkpt>
      <trkpt lat="45.95803" lon="4.76623">
        <ele>188</ele>
        <time>2017-05-10T08:29:50Z</time>
      </trkpt>
      <trkpt lat="45.95804" lon="4.7663">
        <ele>188</ele>
        <time>2017-05-10T08:29:51Z</time>
      </trkpt>
      <trkpt lat="45.95805" lon="4.76637">
        <ele>188</ele>
        <time>2017-05-10T08:29:52Z</time>
      </trkpt>
      <trkpt lat="45.95805" lon="4.76644">
        <ele>188</ele>
        <time>2017-05-10T08:29:53Z</time>
      </trkpt>
      <trkpt lat="45.95806" lon="4.76651">
        <ele>188</ele>
        <time>2017-05-10T08:29:54Z</time>
      </trkpt>
      <trkpt lat="45.95808" lon="4.76658">
        <ele>188</ele>
        <time>2017-05-10T08:29:55Z</time>
      </trkpt>
      <trkpt lat="45.95809" lon="4.76665">
        <ele>188</ele>
        <time>2017-05-10T08:29:56Z</time>
      </trkpt>
      <trkpt lat="45.9581" lon="4.76672">
        <ele>189</ele>
        <time>2017-05-10T08:29:57Z</time>
      </trkpt>
      <trkpt lat="45.95811" lon="4.76679">
        <ele>189</ele>
        <time>2017-05-10T08:29:58Z</time>
      </trkpt>
      <trkpt lat="45.95812" lon="4.76685">
        <ele>189</ele>
        <time>2017-05-10T08:29:59Z</time>
      </trkpt>
      <trkpt lat="45.95813" lon="4.76692">
        <ele>189</ele>
        <time>2017-05-10T08:30:00Z</time>
      </trkpt>
      <trkpt lat="45.95814" lon="4.76698">
        <ele>189</ele>
        <time>2017-05-10T08:30:01Z</time>
      </trkpt>
      <trkpt lat="45.95815" lon="4.76706">
        <ele>189</ele>
        <time>2017-05-10T08:30:02Z</time>
      </trkpt>
      <trkpt lat="45.95817" lon="4.76713">
        <ele>189</ele>
        <time>2017-05-10T08:30:03Z</time>
      </trkpt>
      <trkpt lat="45.95818" lon="4.76721">
        <ele>189</ele>
        <time>2017-05-10T08:30:04Z</time>
      </trkpt>
      <trkpt lat="45.95819" lon="4.76729">
        <ele>190</ele>
        <time>2017-05-10T08:30:05Z</time>
      </trkpt>
      <trkpt lat="45.9582" lon="4.76737">
        <ele>190</ele>
        <time>2017-05-10T08:30:06Z</time>
      </trkpt>
      <trkpt lat="45.95821" lon="4.76745">
        <ele>190</ele>
        <time>2017-05-10T08:30:07Z</time>
      </trkpt>
      <trkpt lat="45.95823" lon="4.76753">
        <ele>191</ele>
        <time>2017-05-10T08:30:08Z</time>
      </trkpt>
      <trkpt lat="45.95824" lon="4.76761">
        <ele>190</ele>
        <time>2017-05-10T08:30:09Z</time>
      </trkpt>
      <trkpt lat="45.95825" lon="4.76768">
        <ele>190</ele>
        <time>2017-05-10T08:30:10Z</time>
      </trkpt>
      <trkpt lat="45.95826" lon="4.76775">
        <ele>190</ele>
        <time>2017-05-10T08:30:11Z</time>
      </trkpt>
      <trkpt lat="45.95827" lon="4.76781">
        <ele>190</ele>
        <time>2017-05-10T08:30:12Z</time>
      </trkpt>
      <trkpt lat="45.95828" lon="4.76788">
        <ele>190</ele>
        <time>2017-05-10T08:30:13Z</time>
      </trkpt>
      <trkpt lat="45.95829" lon="4.76795">
        <ele>190</ele>
        <time>2017-05-10T08:30:14Z</time>
      </trkpt>
      <trkpt lat="45.95829" lon="4.76802">
        <ele>190</ele>
        <time>2017-05-10T08:30:15Z</time>
      </trkpt>
      <trkpt lat="45.9583" lon="4.76809">
        <ele>190</ele>
        <time>2017-05-10T08:30:16Z</time>
      </trkpt>
      <trkpt lat="45.9583" lon="4.76817">
        <ele>190</ele>
        <time>2017-05-10T08:30:17Z</time>
      </trkpt>
      <trkpt lat="45.95829" lon="4.76825">
        <ele>190</ele>
        <time>2017-05-10T08:30:18Z</time>
      </trkpt>
      <trkpt lat="45.95828" lon="4.76832">
        <ele>190</ele>
        <time>2017-05-10T08:30:19Z</time>
      </trkpt>
      <trkpt lat="45.95827" lon="4.7684">
        <ele>190</ele>
        <time>2017-05-10T08:30:20Z</time>
      </trkpt>
      <trkpt lat="45.95825" lon="4.76847">
        <ele>190</ele>
        <time>2017-05-10T08:30:21Z</time>
      </trkpt>
      <trkpt lat="45.95824" lon="4.76855">
        <ele>189</ele>
        <time>2017-05-10T08:30:22Z</time>
      </trkpt>
      <trkpt lat="45.95822" lon="4.76863">
        <ele>189</ele>
        <time>2017-05-10T08:30:23Z</time>
      </trkpt>
      <trkpt lat="45.9582" lon="4.76871">
        <ele>189</ele>
        <time>2017-05-10T08:30:24Z</time>
      </trkpt>
      <trkpt lat="45.95818" lon="4.76878">
        <ele>189</ele>
        <time>2017-05-10T08:30:25Z</time>
      </trkpt>
      <trkpt lat="45.95817" lon="4.76886">
        <ele>189</ele>
        <time>2017-05-10T08:30:26Z</time>
      </trkpt>
      <trkpt lat="45.95815" lon="4.76894">
        <ele>189</ele>
        <time>2017-05-10T08:30:27Z</time>
      </trkpt>
      <trkpt lat="45.95813" lon="4.76901">
        <ele>189</ele>
        <time>2017-05-10T08:30:28Z</time>
      </trkpt>
      <trkpt lat="45.95812" lon="4.76909">
        <ele>189</ele>
        <time>2017-05-10T08:30:29Z</time>
      </trkpt>
      <trkpt lat="45.9581" lon="4.76917">
        <ele>189</ele>
        <time>2017-05-10T08:30:30Z</time>
      </trkpt>
      <trkpt lat="45.95808" lon="4.76925">
        <ele>189</ele>
        <time>2017-05-10T08:30:31Z</time>
      </trkpt>
      <trkpt lat="45.95807" lon="4.76933">
        <ele>189</ele>
        <time>2017-05-10T08:30:32Z</time>
      </trkpt>
      <trkpt lat="45.95805" lon="4.76941">
        <ele>189</ele>
        <time>2017-05-10T08:30:33Z</time>
      </trkpt>
      <trkpt lat="45.95803" lon="4.76949">
        <ele>189</ele>
        <time>2017-05-10T08:30:34Z</time>
      </trkpt>
      <trkpt lat="45.95802" lon="4.76957">
        <ele>189</ele>
        <time>2017-05-10T08:30:35Z</time>
      </trkpt>
      <trkpt lat="45.958" lon="4.76965">
        <ele>189</ele>
        <time>2017-05-10T08:30:36Z</time>
      </trkpt>
      <trkpt lat="45.958" lon="4.76972">
        <ele>189</ele>
        <time>2017-05-10T08:30:37Z</time>
      </trkpt>
      <trkpt lat="45.95799" lon="4.7698">
        <ele>189</ele>
        <time>2017-05-10T08:30:38Z</time>
      </trkpt>
      <trkpt lat="45.95798" lon="4.76987">
        <ele>189</ele>
        <time>2017-05-10T08:30:39Z</time>
      </trkpt>
      <trkpt lat="45.95798" lon="4.76995">
        <ele>189</ele>
        <time>2017-05-10T08:30:40Z</time>
      </trkpt>
      <trkpt lat="45.95799" lon="4.77002">
        <ele>190</ele>
        <time>2017-05-10T08:30:41Z</time>
      </trkpt>
      <trkpt lat="45.958" lon="4.77009">
        <ele>190</ele>
        <time>2017-05-10T08:30:42Z</time>
      </trkpt>
      <trkpt lat="45.95801" lon="4.77017">
        <ele>190</ele>
        <time>2017-05-10T08:30:43Z</time>
      </trkpt>
      <trkpt lat="45.95804" lon="4.77024">
        <ele>190</ele>
        <time>2017-05-10T08:30:44Z</time>
      </trkpt>
      <trkpt lat="45.95806" lon="4.7703">
        <ele>190</ele>
        <time>2017-05-10T08:30:45Z</time>
      </trkpt>
      <trkpt lat="45.95809" lon="4.77037">
        <ele>190</ele>
        <time>2017-05-10T08:30:46Z</time>
      </trkpt>
      <trkpt lat="45.95812" lon="4.77043">
        <ele>190</ele>
        <time>2017-05-10T08:30:47Z</time>
      </trkpt>
      <trkpt lat="45.95815" lon="4.7705">
        <ele>190</ele>
        <time>2017-05-10T08:30:48Z</time>
      </trkpt>
      <trkpt lat="45.95818" lon="4.77056">
        <ele>190</ele>
        <time>2017-05-10T08:30:49Z</time>
      </trkpt>
      <trkpt lat="45.95821" lon="4.77062">
        <ele>190</ele>
        <time>2017-05-10T08:30:50Z</time>
      </trkpt>
      <trkpt lat="45.95823" lon="4.77069">
        <ele>191</ele>
        <time>2017-05-10T08:30:51Z</time>
      </trkpt>
      <trkpt lat="45.95826" lon="4.77075">
        <ele>191</ele>
        <time>2017-05-10T08:30:52Z</time>
      </trkpt>
      <trkpt lat="45.95829" lon="4.77082">
        <ele>192</ele>
        <time>2017-05-10T08:30:53Z</time>
      </trkpt>
      <trkpt lat="45.95832" lon="4.77089">
        <ele>191</ele>
        <time>2017-05-10T08:30:54Z</time>
      </trkpt>
      <trkpt lat="45.95834" lon="4.77096">
        <ele>193</ele>
        <time>2017-05-10T08:30:55Z</time>
      </trkpt>
      <trkpt lat="45.95836" lon="4.77103">
        <ele>193</ele>
        <time>2017-05-10T08:30:56Z</time>
      </trkpt>
      <trkpt lat="45.95838" lon="4.77109">
        <ele>193</ele>
        <time>2017-05-10T08:30:57Z</time>
      </trkpt>
      <trkpt lat="45.9584" lon="4.77116">
        <ele>193</ele>
        <time>2017-05-10T08:30:58Z</time>
      </trkpt>
      <trkpt lat="45.95842" lon="4.77123">
        <ele>193</ele>
        <time>2017-05-10T08:30:59Z</time>
      </trkpt>
      <trkpt lat="45.95844" lon="4.77129">
        <ele>193</ele>
        <time>2017-05-10T08:31:00Z</time>
      </trkpt>
      <trkpt lat="45.95845" lon="4.77136">
        <ele>193</ele>
        <time>2017-05-10T08:31:01Z</time>
      </trkpt>
      <trkpt lat="45.95847" lon="4.77143">
        <ele>192</ele>
        <time>2017-05-10T08:31:02Z</time>
      </trkpt>
      <trkpt lat="45.95849" lon="4.7715">
        <ele>192</ele>
        <time>2017-05-10T08:31:03Z</time>
      </trkpt>
      <trkpt lat="45.95851" lon="4.77157">
        <ele>192</ele>
        <time>2017-05-10T08:31:04Z</time>
      </trkpt>
      <trkpt lat="45.95853" lon="4.77164">
        <ele>192</ele>
        <time>2017-05-10T08:31:05Z</time>
      </trkpt>
      <trkpt lat="45.95855" lon="4.77171">
        <ele>192</ele>
        <time>2017-05-10T08:31:06Z</time>
      </trkpt>
      <trkpt lat="45.95857" lon="4.77178">
        <ele>192</ele>
        <time>2017-05-10T08:31:07Z</time>
      </trkpt>
      <trkpt lat="45.95858" lon="4.77185">
        <ele>192</ele>
        <time>2017-05-10T08:31:08Z</time>
      </trkpt>
      <trkpt lat="45.9586" lon="4.77192">
        <ele>192</ele>
        <time>2017-05-10T08:31:09Z</time>
      </trkpt>
      <trkpt lat="45.95861" lon="4.77199">
        <ele>192</ele>
        <time>2017-05-10T08:31:10Z</time>
      </trkpt>
      <trkpt lat="45.95863" lon="4.77206">
        <ele>193</ele>
        <time>2017-05-10T08:31:11Z</time>
      </trkpt>
      <trkpt lat="45.95865" lon="4.77213">
        <ele>193</ele>
        <time>2017-05-10T08:31:12Z</time>
      </trkpt>
      <trkpt lat="45.95866" lon="4.7722">
        <ele>193</ele>
        <time>2017-05-10T08:31:13Z</time>
      </trkpt>
      <trkpt lat="45.95868" lon="4.77227">
        <ele>193</ele>
        <time>2017-05-10T08:31:14Z</time>
      </trkpt>
      <trkpt lat="45.95869" lon="4.77235">
        <ele>193</ele>
        <time>2017-05-10T08:31:15Z</time>
      </trkpt>
      <trkpt lat="45.9587" lon="4.77242">
        <ele>193</ele>
        <time>2017-05-10T08:31:16Z</time>
      </trkpt>
      <trkpt lat="45.95872" lon="4.77249">
        <ele>193</ele>
        <time>2017-05-10T08:31:17Z</time>
      </trkpt>
      <trkpt lat="45.95873" lon="4.77256">
        <ele>193</ele>
        <time>2017-05-10T08:31:18Z</time>
      </trkpt>
      <trkpt lat="45.95874" lon="4.77262">
        <ele>193</ele>
        <time>2017-05-10T08:31:19Z</time>
      </trkpt>
      <trkpt lat="45.95875" lon="4.77269">
        <ele>193</ele>
        <time>2017-05-10T08:31:20Z</time>
      </trkpt>
      <trkpt lat="45.95876" lon="4.77276">
        <ele>193</ele>
        <time>2017-05-10T08:31:21Z</time>
      </trkpt>
      <trkpt lat="45.95878" lon="4.77282">
        <ele>193</ele>
        <time>2017-05-10T08:31:22Z</time>
      </trkpt>
      <trkpt lat="45.9588" lon="4.77289">
        <ele>193</ele>
        <time>2017-05-10T08:31:23Z</time>
      </trkpt>
      <trkpt lat="45.95881" lon="4.77296">
        <ele>193</ele>
        <time>2017-05-10T08:31:24Z</time>
      </trkpt>
      <trkpt lat="45.95883" lon="4.77302">
        <ele>193</ele>
        <time>2017-05-10T08:31:25Z</time>
      </trkpt>
      <trkpt lat="45.95884" lon="4.77308">
        <ele>193</ele>
        <time>2017-05-10T08:31:26Z</time>
      </trkpt>
      <trkpt lat="45.95886" lon="4.77314">
        <ele>193</ele>
        <time>2017-05-10T08:31:27Z</time>
      </trkpt>
      <trkpt lat="45.9589" lon="4.77326">
        <ele>193</ele>
        <time>2017-05-10T08:31:29Z</time>
      </trkpt>
      <trkpt lat="45.95891" lon="4.77331">
        <ele>193</ele>
        <time>2017-05-10T08:31:30Z</time>
      </trkpt>
      <trkpt lat="45.95893" lon="4.77337">
        <ele>193</ele>
        <time>2017-05-10T08:31:31Z</time>
      </trkpt>
      <trkpt lat="45.95895" lon="4.77343">
        <ele>193</ele>
        <time>2017-05-10T08:31:32Z</time>
      </trkpt>
      <trkpt lat="45.95897" lon="4.77349">
        <ele>193</ele>
        <time>2017-05-10T08:31:33Z</time>
      </trkpt>
      <trkpt lat="45.95899" lon="4.77355">
        <ele>193</ele>
        <time>2017-05-10T08:31:34Z</time>
      </trkpt>
      <trkpt lat="45.95902" lon="4.77361">
        <ele>193</ele>
        <time>2017-05-10T08:31:35Z</time>
      </trkpt>
      <trkpt lat="45.95904" lon="4.77367">
        <ele>193</ele>
        <time>2017-05-10T08:31:36Z</time>
      </trkpt>
      <trkpt lat="45.95906" lon="4.77374">
        <ele>193</ele>
        <time>2017-05-10T08:31:37Z</time>
      </trkpt>
      <trkpt lat="45.95908" lon="4.7738">
        <ele>193</ele>
        <time>2017-05-10T08:31:38Z</time>
      </trkpt>
      <trkpt lat="45.9591" lon="4.77386">
        <ele>193</ele>
        <time>2017-05-10T08:31:39Z</time>
      </trkpt>
      <trkpt lat="45.95913" lon="4.77392">
        <ele>193</ele>
        <time>2017-05-10T08:31:40Z</time>
      </trkpt>
      <trkpt lat="45.95917" lon="4.77404">
        <ele>195</ele>
        <time>2017-05-10T08:31:42Z</time>
      </trkpt>
      <trkpt lat="45.95919" lon="4.7741">
        <ele>195</ele>
        <time>2017-05-10T08:31:43Z</time>
      </trkpt>
      <trkpt lat="45.95921" lon="4.77417">
        <ele>195</ele>
        <time>2017-05-10T08:31:44Z</time>
      </trkpt>
      <trkpt lat="45.95923" lon="4.77424">
        <ele>195</ele>
        <time>2017-05-10T08:31:45Z</time>
      </trkpt>
      <trkpt lat="45.95926" lon="4.7743">
        <ele>195</ele>
        <time>2017-05-10T08:31:46Z</time>
      </trkpt>
      <trkpt lat="45.95928" lon="4.77437">
        <ele>195</ele>
        <time>2017-05-10T08:31:47Z</time>
      </trkpt>
      <trkpt lat="45.95931" lon="4.77444">
        <ele>195</ele>
        <time>2017-05-10T08:31:48Z</time>
      </trkpt>
      <trkpt lat="45.95933" lon="4.77451">
        <ele>195</ele>
        <time>2017-05-10T08:31:49Z</time>
      </trkpt>
      <trkpt lat="45.95935" lon="4.77458">
        <ele>195</ele>
        <time>2017-05-10T08:31:50Z</time>
      </trkpt>
      <trkpt lat="45.95938" lon="4.77464">
        <ele>195</ele>
        <time>2017-05-10T08:31:51Z</time>
      </trkpt>
      <trkpt lat="45.9594" lon="4.77471">
        <ele>195</ele>
        <time>2017-05-10T08:31:52Z</time>
      </trkpt>
      <trkpt lat="45.95942" lon="4.77476">
        <ele>195</ele>
        <time>2017-05-10T08:31:53Z</time>
      </trkpt>
      <trkpt lat="45.95945" lon="4.77482">
        <ele>195</ele>
        <time>2017-05-10T08:31:54Z</time>
      </trkpt>
      <trkpt lat="45.95947" lon="4.77488">
        <ele>195</ele>
        <time>2017-05-10T08:31:55Z</time>
      </trkpt>
      <trkpt lat="45.95951" lon="4.77499">
        <ele>195</ele>
        <time>2017-05-10T08:31:57Z</time>
      </trkpt>
      <trkpt lat="45.95953" lon="4.77504">
        <ele>195</ele>
        <time>2017-05-10T08:31:58Z</time>
      </trkpt>
      <trkpt lat="45.95958" lon="4.77514">
        <ele>195</ele>
        <time>2017-05-10T08:32:00Z</time>
      </trkpt>
      <trkpt lat="45.95961" lon="4.7752">
        <ele>195</ele>
        <time>2017-05-10T08:32:01Z</time>
      </trkpt>
      <trkpt lat="45.95963" lon="4.77526">
        <ele>195</ele>
        <time>2017-05-10T08:32:02Z</time>
      </trkpt>
      <trkpt lat="45.95966" lon="4.77532">
        <ele>195</ele>
        <time>2017-05-10T08:32:03Z</time>
      </trkpt>
      <trkpt lat="45.95968" lon="4.77537">
        <ele>195</ele>
        <time>2017-05-10T08:32:04Z</time>
      </trkpt>
      <trkpt lat="45.95971" lon="4.77542">
        <ele>195</ele>
        <time>2017-05-10T08:32:05Z</time>
      </trkpt>
      <trkpt lat="45.95976" lon="4.77553">
        <ele>195</ele>
        <time>2017-05-10T08:32:07Z</time>
      </trkpt>
      <trkpt lat="45.95978" lon="4.77558">
        <ele>195</ele>
        <time>2017-05-10T08:32:08Z</time>
      </trkpt>
      <trkpt lat="45.95981" lon="4.77564">
        <ele>196</ele>
        <time>2017-05-10T08:32:09Z</time>
      </trkpt>
      <trkpt lat="45.95983" lon="4.77571">
        <ele>196</ele>
        <time>2017-05-10T08:32:10Z</time>
      </trkpt>
      <trkpt lat="45.95986" lon="4.77577">
        <ele>196</ele>
        <time>2017-05-10T08:32:11Z</time>
      </trkpt>
      <trkpt lat="45.95989" lon="4.77584">
        <ele>196</ele>
        <time>2017-05-10T08:32:12Z</time>
      </trkpt>
      <trkpt lat="45.95992" lon="4.77591">
        <ele>196</ele>
        <time>2017-05-10T08:32:13Z</time>
      </trkpt>
      <trkpt lat="45.95996" lon="4.77596">
        <ele>196</ele>
        <time>2017-05-10T08:32:14Z</time>
      </trkpt>
      <trkpt lat="45.96" lon="4.77601">
        <ele>195</ele>
        <time>2017-05-10T08:32:15Z</time>
      </trkpt>
      <trkpt lat="45.96004" lon="4.77605">
        <ele>198</ele>
        <time>2017-05-10T08:32:16Z</time>
      </trkpt>
      <trkpt lat="45.96007" lon="4.7761">
        <ele>199</ele>
        <time>2017-05-10T08:32:17Z</time>
      </trkpt>
      <trkpt lat="45.96011" lon="4.77615">
        <ele>199</ele>
        <time>2017-05-10T08:32:18Z</time>
      </trkpt>
      <trkpt lat="45.96014" lon="4.7762">
        <ele>199</ele>
        <time>2017-05-10T08:32:19Z</time>
      </trkpt>
      <trkpt lat="45.96018" lon="4.77624">
        <ele>199</ele>
        <time>2017-05-10T08:32:20Z</time>
      </trkpt>
      <trkpt lat="45.96024" lon="4.77631">
        <ele>199</ele>
        <time>2017-05-10T08:32:22Z</time>
      </trkpt>
      <trkpt lat="45.96028" lon="4.77634">
        <ele>199</ele>
        <time>2017-05-10T08:32:23Z</time>
      </trkpt>
      <trkpt lat="45.96034" lon="4.77641">
        <ele>199</ele>
        <time>2017-05-10T08:32:25Z</time>
      </trkpt>
      <trkpt lat="45.96037" lon="4.77645">
        <ele>199</ele>
        <time>2017-05-10T08:32:26Z</time>
      </trkpt>
      <trkpt lat="45.9604" lon="4.7765">
        <ele>199</ele>
        <time>2017-05-10T08:32:27Z</time>
      </trkpt>
      <trkpt lat="45.96044" lon="4.77655">
        <ele>199</ele>
        <time>2017-05-10T08:32:28Z</time>
      </trkpt>
      <trkpt lat="45.96048" lon="4.7766">
        <ele>199</ele>
        <time>2017-05-10T08:32:29Z</time>
      </trkpt>
      <trkpt lat="45.96052" lon="4.77665">
        <ele>200</ele>
        <time>2017-05-10T08:32:30Z</time>
      </trkpt>
      <trkpt lat="45.96055" lon="4.7767">
        <ele>197</ele>
        <time>2017-05-10T08:32:31Z</time>
      </trkpt>
      <trkpt lat="45.96059" lon="4.77675">
        <ele>198</ele>
        <time>2017-05-10T08:32:32Z</time>
      </trkpt>
      <trkpt lat="45.96063" lon="4.7768">
        <ele>198</ele>
        <time>2017-05-10T08:32:33Z</time>
      </trkpt>
      <trkpt lat="45.96066" lon="4.77685">
        <ele>198</ele>
        <time>2017-05-10T08:32:34Z</time>
      </trkpt>
      <trkpt lat="45.9607" lon="4.7769">
        <ele>197</ele>
        <time>2017-05-10T08:32:35Z</time>
      </trkpt>
      <trkpt lat="45.96073" lon="4.77695">
        <ele>197</ele>
        <time>2017-05-10T08:32:36Z</time>
      </trkpt>
      <trkpt lat="45.96075" lon="4.77701">
        <ele>197</ele>
        <time>2017-05-10T08:32:37Z</time>
      </trkpt>
      <trkpt lat="45.96078" lon="4.77706">
        <ele>197</ele>
        <time>2017-05-10T08:32:38Z</time>
      </trkpt>
      <trkpt lat="45.96081" lon="4.77711">
        <ele>196</ele>
        <time>2017-05-10T08:32:39Z</time>
      </trkpt>
      <trkpt lat="45.96084" lon="4.77717">
        <ele>199</ele>
        <time>2017-05-10T08:32:40Z</time>
      </trkpt>
      <trkpt lat="45.96087" lon="4.77722">
        <ele>199</ele>
        <time>2017-05-10T08:32:41Z</time>
      </trkpt>
      <trkpt lat="45.96089" lon="4.77727">
        <ele>199</ele>
        <time>2017-05-10T08:32:42Z</time>
      </trkpt>
      <trkpt lat="45.96094" lon="4.77737">
        <ele>198</ele>
        <time>2017-05-10T08:32:44Z</time>
      </trkpt>
      <trkpt lat="45.96097" lon="4.77742">
        <ele>198</ele>
        <time>2017-05-10T08:32:45Z</time>
      </trkpt>
      <trkpt lat="45.96103" lon="4.7775">
        <ele>196</ele>
        <time>2017-05-10T08:32:47Z</time>
      </trkpt>
      <trkpt lat="45.96106" lon="4.77755">
        <ele>197</ele>
        <time>2017-05-10T08:32:48Z</time>
      </trkpt>
      <trkpt lat="45.96112" lon="4.77765">
        <ele>197</ele>
        <time>2017-05-10T08:32:50Z</time>
      </trkpt>
      <trkpt lat="45.96114" lon="4.7777">
        <ele>197</ele>
        <time>2017-05-10T08:32:51Z</time>
      </trkpt>
      <trkpt lat="45.96119" lon="4.7778">
        <ele>197</ele>
        <time>2017-05-10T08:32:53Z</time>
      </trkpt>
      <trkpt lat="45.96122" lon="4.77785">
        <ele>197</ele>
        <time>2017-05-10T08:32:54Z</time>
      </trkpt>
      <trkpt lat="45.96125" lon="4.7779">
        <ele>197</ele>
        <time>2017-05-10T08:32:55Z</time>
      </trkpt>
      <trkpt lat="45.96128" lon="4.77795">
        <ele>197</ele>
        <time>2017-05-10T08:32:56Z</time>
      </trkpt>
      <trkpt lat="45.96131" lon="4.77801">
        <ele>197</ele>
        <time>2017-05-10T08:32:57Z</time>
      </trkpt>
      <trkpt lat="45.96133" lon="4.77806">
        <ele>197</ele>
        <time>2017-05-10T08:32:58Z</time>
      </trkpt>
      <trkpt lat="45.96138" lon="4.77816">
        <ele>198</ele>
        <time>2017-05-10T08:33:00Z</time>
      </trkpt>
      <trkpt lat="45.9614" lon="4.7782">
        <ele>198</ele>
        <time>2017-05-10T08:33:01Z</time>
      </trkpt>
      <trkpt lat="45.96145" lon="4.7783">
        <ele>198</ele>
        <time>2017-05-10T08:33:03Z</time>
      </trkpt>
      <trkpt lat="45.96149" lon="4.77836">
        <ele>196</ele>
        <time>2017-05-10T08:33:04Z</time>
      </trkpt>
      <trkpt lat="45.96153" lon="4.77842">
        <ele>197</ele>
        <time>2017-05-10T08:33:05Z</time>
      </trkpt>
      <trkpt lat="45.96157" lon="4.77847">
        <ele>196</ele>
        <time>2017-05-10T08:33:06Z</time>
      </trkpt>
      <trkpt lat="45.9616" lon="4.77853">
        <ele>196</ele>
        <time>2017-05-10T08:33:07Z</time>
      </trkpt>
      <trkpt lat="45.96164" lon="4.77858">
        <ele>196</ele>
        <time>2017-05-10T08:33:08Z</time>
      </trkpt>
      <trkpt lat="45.96167" lon="4.77864">
        <ele>201</ele>
        <time>2017-05-10T08:33:09Z</time>
      </trkpt>
      <trkpt lat="45.96171" lon="4.77869">
        <ele>201</ele>
        <time>2017-05-10T08:33:10Z</time>
      </trkpt>
      <trkpt lat="45.96177" lon="4.77878">
        <ele>201</ele>
        <time>2017-05-10T08:33:12Z</time>
      </trkpt>
      <trkpt lat="45.9618" lon="4.77883">
        <ele>201</ele>
        <time>2017-05-10T08:33:13Z</time>
      </trkpt>
      <trkpt lat="45.96183" lon="4.77888">
        <ele>201</ele>
        <time>2017-05-10T08:33:14Z</time>
      </trkpt>
      <trkpt lat="45.96187" lon="4.77893">
        <ele>200</ele>
        <time>2017-05-10T08:33:15Z</time>
      </trkpt>
      <trkpt lat="45.9619" lon="4.77898">
        <ele>200</ele>
        <time>2017-05-10T08:33:16Z</time>
      </trkpt>
      <trkpt lat="45.96194" lon="4.77903">
        <ele>201</ele>
        <time>2017-05-10T08:33:17Z</time>
      </trkpt>
      <trkpt lat="45.96198" lon="4.77909">
        <ele>201</ele>
        <time>2017-05-10T08:33:18Z</time>
      </trkpt>
      <trkpt lat="45.96201" lon="4.77914">
        <ele>201</ele>
        <time>2017-05-10T08:33:19Z</time>
      </trkpt>
      <trkpt lat="45.96204" lon="4.7792">
        <ele>198</ele>
        <time>2017-05-10T08:33:20Z</time>
      </trkpt>
      <trkpt lat="45.96207" lon="4.77926">
        <ele>199</ele>
        <time>2017-05-10T08:33:21Z</time>
      </trkpt>
      <trkpt lat="45.96211" lon="4.77931">
        <ele>199</ele>
        <time>2017-05-10T08:33:22Z</time>
      </trkpt>
      <trkpt lat="45.96214" lon="4.77937">
        <ele>199</ele>
        <time>2017-05-10T08:33:23Z</time>
      </trkpt>
      <trkpt lat="45.96218" lon="4.77942">
        <ele>199</ele>
        <time>2017-05-10T08:33:24Z</time>
      </trkpt>
      <trkpt lat="45.96221" lon="4.77948">
        <ele>199</ele>
        <time>2017-05-10T08:33:25Z</time>
      </trkpt>
      <trkpt lat="45.96225" lon="4.77952">
        <ele>199</ele>
        <time>2017-05-10T08:33:26Z</time>
      </trkpt>
      <trkpt lat="45.96229" lon="4.77957">
        <ele>199</ele>
        <time>2017-05-10T08:33:27Z</time>
      </trkpt>
      <trkpt lat="45.96233" lon="4.77961">
        <ele>199</ele>
        <time>2017-05-10T08:33:28Z</time>
      </trkpt>
      <trkpt lat="45.96237" lon="4.77965">
        <ele>199</ele>
        <time>2017-05-10T08:33:29Z</time>
      </trkpt>
      <trkpt lat="45.96241" lon="4.77969">
        <ele>198</ele>
        <time>2017-05-10T08:33:30Z</time>
      </trkpt>
      <trkpt lat="45.96246" lon="4.77972">
        <ele>198</ele>
        <time>2017-05-10T08:33:31Z</time>
      </trkpt>
      <trkpt lat="45.96251" lon="4.77976">
        <ele>202</ele>
        <time>2017-05-10T08:33:32Z</time>
      </trkpt>
      <trkpt lat="45.96255" lon="4.7798">
        <ele>202</ele>
        <time>2017-05-10T08:33:33Z</time>
      </trkpt>
      <trkpt lat="45.96259" lon="4.77984">
        <ele>201</ele>
        <time>2017-05-10T08:33:34Z</time>
      </trkpt>
      <trkpt lat="45.96263" lon="4.77988">
        <ele>201</ele>
        <time>2017-05-10T08:33:35Z</time>
      </trkpt>
      <trkpt lat="45.96266" lon="4.77992">
        <ele>201</ele>
        <time>2017-05-10T08:33:36Z</time>
      </trkpt>
      <trkpt lat="45.96271" lon="4.77995">
        <ele>202</ele>
        <time>2017-05-10T08:33:37Z</time>
      </trkpt>
      <trkpt lat="45.96275" lon="4.77999">
        <ele>202</ele>
        <time>2017-05-10T08:33:38Z</time>
      </trkpt>
      <trkpt lat="45.9628" lon="4.78004">
        <ele>198</ele>
        <time>2017-05-10T08:33:39Z</time>
      </trkpt>
      <trkpt lat="45.96284" lon="4.78009">
        <ele>198</ele>
        <time>2017-05-10T08:33:40Z</time>
      </trkpt>
      <trkpt lat="45.96288" lon="4.78013">
        <ele>199</ele>
        <time>2017-05-10T08:33:41Z</time>
      </trkpt>
      <trkpt lat="45.96292" lon="4.78018">
        <ele>199</ele>
        <time>2017-05-10T08:33:42Z</time>
      </trkpt>
      <trkpt lat="45.96296" lon="4.78023">
        <ele>199</ele>
        <time>2017-05-10T08:33:43Z</time>
      </trkpt>
      <trkpt lat="45.96299" lon="4.78028">
        <ele>199</ele>
        <time>2017-05-10T08:33:44Z</time>
      </trkpt>
      <trkpt lat="45.96303" lon="4.78033">
        <ele>199</ele>
        <time>2017-05-10T08:33:45Z</time>
      </trkpt>
      <trkpt lat="45.96308" lon="4.78038">
        <ele>199</ele>
        <time>2017-05-10T08:33:46Z</time>
      </trkpt>
      <trkpt lat="45.96312" lon="4.78043">
        <ele>199</ele>
        <time>2017-05-10T08:33:47Z</time>
      </trkpt>
      <trkpt lat="45.96316" lon="4.78047">
        <ele>199</ele>
        <time>2017-05-10T08:33:48Z</time>
      </trkpt>
      <trkpt lat="45.96321" lon="4.78052">
        <ele>199</ele>
        <time>2017-05-10T08:33:49Z</time>
      </trkpt>
      <trkpt lat="45.96326" lon="4.78057">
        <ele>199</ele>
        <time>2017-05-10T08:33:50Z</time>
      </trkpt>
      <trkpt lat="45.9633" lon="4.78062">
        <ele>199</ele>
        <time>2017-05-10T08:33:51Z</time>
      </trkpt>
      <trkpt lat="45.96334" lon="4.78067">
        <ele>201</ele>
        <time>2017-05-10T08:33:52Z</time>
      </trkpt>
      <trkpt lat="45.96339" lon="4.78072">
        <ele>200</ele>
        <time>2017-05-10T08:33:53Z</time>
      </trkpt>
      <trkpt lat="45.96343" lon="4.78077">
        <ele>200</ele>
        <time>2017-05-10T08:33:54Z</time>
      </trkpt>
      <trkpt lat="45.96348" lon="4.78082">
        <ele>201</ele>
        <time>2017-05-10T08:33:55Z</time>
      </trkpt>
      <trkpt lat="45.96352" lon="4.78087">
        <ele>199</ele>
        <time>2017-05-10T08:33:56Z</time>
      </trkpt>
      <trkpt lat="45.96356" lon="4.78092">
        <ele>199</ele>
        <time>2017-05-10T08:33:57Z</time>
      </trkpt>
      <trkpt lat="45.96361" lon="4.78096">
        <ele>199</ele>
        <time>2017-05-10T08:33:58Z</time>
      </trkpt>
      <trkpt lat="45.96365" lon="4.781">
        <ele>199</ele>
        <time>2017-05-10T08:33:59Z</time>
      </trkpt>
      <trkpt lat="45.9637" lon="4.78104">
        <ele>199</ele>
        <time>2017-05-10T08:34:00Z</time>
      </trkpt>
      <trkpt lat="45.96374" lon="4.78108">
        <ele>199</ele>
        <time>2017-05-10T08:34:01Z</time>
      </trkpt>
      <trkpt lat="45.96378" lon="4.78112">
        <ele>199</ele>
        <time>2017-05-10T08:34:02Z</time>
      </trkpt>
      <trkpt lat="45.96382" lon="4.78115">
        <ele>199</ele>
        <time>2017-05-10T08:34:03Z</time>
      </trkpt>
      <trkpt lat="45.96387" lon="4.7812">
        <ele>199</ele>
        <time>2017-05-10T08:34:04Z</time>
      </trkpt>
      <trkpt lat="45.9639" lon="4.78123">
        <ele>199</ele>
        <time>2017-05-10T08:34:05Z</time>
      </trkpt>
      <trkpt lat="45.96394" lon="4.78127">
        <ele>199</ele>
        <time>2017-05-10T08:34:06Z</time>
      </trkpt>
      <trkpt lat="45.96398" lon="4.78131">
        <ele>199</ele>
        <time>2017-05-10T08:34:07Z</time>
      </trkpt>
      <trkpt lat="45.96402" lon="4.78135">
        <ele>199</ele>
        <time>2017-05-10T08:34:08Z</time>
      </trkpt>
      <trkpt lat="45.96406" lon="4.78138">
        <ele>199</ele>
        <time>2017-05-10T08:34:09Z</time>
      </trkpt>
      <trkpt lat="45.9641" lon="4.78142">
        <ele>199</ele>
        <time>2017-05-10T08:34:10Z</time>
      </trkpt>
      <trkpt lat="45.96414" lon="4.78146">
        <ele>199</ele>
        <time>2017-05-10T08:34:11Z</time>
      </trkpt>
      <trkpt lat="45.96418" lon="4.7815">
        <ele>202</ele>
        <time>2017-05-10T08:34:12Z</time>
      </trkpt>
      <trkpt lat="45.96422" lon="4.78154">
        <ele>201</ele>
        <time>2017-05-10T08:34:13Z</time>
      </trkpt>
      <trkpt lat="45.96427" lon="4.78158">
        <ele>201</ele>
        <time>2017-05-10T08:34:14Z</time>
      </trkpt>
      <trkpt lat="45.96431" lon="4.78162">
        <ele>201</ele>
        <time>2017-05-10T08:34:15Z</time>
      </trkpt>
      <trkpt lat="45.96436" lon="4.78166">
        <ele>202</ele>
        <time>2017-05-10T08:34:16Z</time>
      </trkpt>
      <trkpt lat="45.9644" lon="4.7817">
        <ele>199</ele>
        <time>2017-05-10T08:34:17Z</time>
      </trkpt>
      <trkpt lat="45.96445" lon="4.78174">
        <ele>199</ele>
        <time>2017-05-10T08:34:18Z</time>
      </trkpt>
      <trkpt lat="45.96449" lon="4.78178">
        <ele>199</ele>
        <time>2017-05-10T08:34:19Z</time>
      </trkpt>
      <trkpt lat="45.96454" lon="4.78182">
        <ele>199</ele>
        <time>2017-05-10T08:34:20Z</time>
      </trkpt>
      <trkpt lat="45.96458" lon="4.78186">
        <ele>200</ele>
        <time>2017-05-10T08:34:21Z</time>
      </trkpt>
      <trkpt lat="45.96462" lon="4.7819">
        <ele>200</ele>
        <time>2017-05-10T08:34:22Z</time>
      </trkpt>
      <trkpt lat="45.96467" lon="4.78192">
        <ele>200</ele>
        <time>2017-05-10T08:34:23Z</time>
      </trkpt>
      <trkpt lat="45.96472" lon="4.78194">
        <ele>200</ele>
        <time>2017-05-10T08:34:24Z</time>
      </trkpt>
      <trkpt lat="45.96476" lon="4.78196">
        <ele>200</ele>
        <time>2017-05-10T08:34:25Z</time>
      </trkpt>
      <trkpt lat="45.96484" lon="4.78201">
        <ele>200</ele>
        <time>2017-05-10T08:34:27Z</time>
      </trkpt>
      <trkpt lat="45.96488" lon="4.78204">
        <ele>200</ele>
        <time>2017-05-10T08:34:28Z</time>
      </trkpt>
      <trkpt lat="45.96493" lon="4.78208">
        <ele>200</ele>
        <time>2017-05-10T08:34:29Z</time>
      </trkpt>
      <trkpt lat="45.96497" lon="4.78213">
        <ele>200</ele>
        <time>2017-05-10T08:34:30Z</time>
      </trkpt>
      <trkpt lat="45.965" lon="4.78219">
        <ele>204</ele>
        <time>2017-05-10T08:34:31Z</time>
      </trkpt>
      <trkpt lat="45.96504" lon="4.78225">
        <ele>203</ele>
        <time>2017-05-10T08:34:32Z</time>
      </trkpt>
      <trkpt lat="45.96507" lon="4.78231">
        <ele>203</ele>
        <time>2017-05-10T08:34:33Z</time>
      </trkpt>
      <trkpt lat="45.96511" lon="4.78237">
        <ele>202</ele>
        <time>2017-05-10T08:34:34Z</time>
      </trkpt>
      <trkpt lat="45.96515" lon="4.78243">
        <ele>202</ele>
        <time>2017-05-10T08:34:35Z</time>
      </trkpt>
      <trkpt lat="45.96519" lon="4.78249">
        <ele>203</ele>
        <time>2017-05-10T08:34:36Z</time>
      </trkpt>
      <trkpt lat="45.96524" lon="4.78255">
        <ele>199</ele>
        <time>2017-05-10T08:34:37Z</time>
      </trkpt>
      <trkpt lat="45.96527" lon="4.78261">
        <ele>200</ele>
        <time>2017-05-10T08:34:38Z</time>
      </trkpt>
      <trkpt lat="45.96531" lon="4.78267">
        <ele>200</ele>
        <time>2017-05-10T08:34:39Z</time>
      </trkpt>
      <trkpt lat="45.96534" lon="4.78272">
        <ele>200</ele>
        <time>2017-05-10T08:34:40Z</time>
      </trkpt>
      <trkpt lat="45.96538" lon="4.78277">
        <ele>200</ele>
        <time>2017-05-10T08:34:41Z</time>
      </trkpt>
      <trkpt lat="45.96541" lon="4.78282">
        <ele>200</ele>
        <time>2017-05-10T08:34:42Z</time>
      </trkpt>
      <trkpt lat="45.96544" lon="4.78286">
        <ele>200</ele>
        <time>2017-05-10T08:34:43Z</time>
      </trkpt>
      <trkpt lat="45.96548" lon="4.78291">
        <ele>200</ele>
        <time>2017-05-10T08:34:44Z</time>
      </trkpt>
      <trkpt lat="45.96552" lon="4.78296">
        <ele>200</ele>
        <time>2017-05-10T08:34:45Z</time>
      </trkpt>
      <trkpt lat="45.96556" lon="4.783">
        <ele>200</ele>
        <time>2017-05-10T08:34:46Z</time>
      </trkpt>
      <trkpt lat="45.9656" lon="4.78304">
        <ele>200</ele>
        <time>2017-05-10T08:34:47Z</time>
      </trkpt>
      <trkpt lat="45.96564" lon="4.78308">
        <ele>200</ele>
        <time>2017-05-10T08:34:48Z</time>
      </trkpt>
      <trkpt lat="45.96568" lon="4.78312">
        <ele>199</ele>
        <time>2017-05-10T08:34:49Z</time>
      </trkpt>
      <trkpt lat="45.96572" lon="4.78316">
        <ele>199</ele>
        <time>2017-05-10T08:34:50Z</time>
      </trkpt>
      <trkpt lat="45.96576" lon="4.7832">
        <ele>199</ele>
        <time>2017-05-10T08:34:51Z</time>
      </trkpt>
      <trkpt lat="45.9658" lon="4.78324">
        <ele>199</ele>
        <time>2017-05-10T08:34:52Z</time>
      </trkpt>
      <trkpt lat="45.96584" lon="4.78328">
        <ele>200</ele>
        <time>2017-05-10T08:34:53Z</time>
      </trkpt>
      <trkpt lat="45.96588" lon="4.78332">
        <ele>199</ele>
        <time>2017-05-10T08:34:54Z</time>
      </trkpt>
      <trkpt lat="45.96591" lon="4.78336">
        <ele>199</ele>
        <time>2017-05-10T08:34:55Z</time>
      </trkpt>
      <trkpt lat="45.96595" lon="4.78339">
        <ele>199</ele>
        <time>2017-05-10T08:34:56Z</time>
      </trkpt>
      <trkpt lat="45.96603" lon="4.78346">
        <ele>200</ele>
        <time>2017-05-10T08:34:58Z</time>
      </trkpt>
      <trkpt lat="45.96606" lon="4.7835">
        <ele>200</ele>
        <time>2017-05-10T08:34:59Z</time>
      </trkpt>
      <trkpt lat="45.9661" lon="4.78354">
        <ele>200</ele>
        <time>2017-05-10T08:35:00Z</time>
      </trkpt>
      <trkpt lat="45.96614" lon="4.78358">
        <ele>200</ele>
        <time>2017-05-10T08:35:01Z</time>
      </trkpt>
      <trkpt lat="45.96618" lon="4.78362">
        <ele>201</ele>
        <time>2017-05-10T08:35:02Z</time>
      </trkpt>
      <trkpt lat="45.96623" lon="4.78366">
        <ele>201</ele>
        <time>2017-05-10T08:35:03Z</time>
      </trkpt>
      <trkpt lat="45.96627" lon="4.7837">
        <ele>201</ele>
        <time>2017-05-10T08:35:04Z</time>
      </trkpt>
      <trkpt lat="45.96631" lon="4.78374">
        <ele>201</ele>
        <time>2017-05-10T08:35:05Z</time>
      </trkpt>
      <trkpt lat="45.96636" lon="4.78379">
        <ele>201</ele>
        <time>2017-05-10T08:35:06Z</time>
      </trkpt>
      <trkpt lat="45.9664" lon="4.78383">
        <ele>201</ele>
        <time>2017-05-10T08:35:07Z</time>
      </trkpt>
      <trkpt lat="45.96645" lon="4.78388">
        <ele>201</ele>
        <time>2017-05-10T08:35:08Z</time>
      </trkpt>
      <trkpt lat="45.9665" lon="4.78392">
        <ele>201</ele>
        <time>2017-05-10T08:35:09Z</time>
      </trkpt>
      <trkpt lat="45.96654" lon="4.78396">
        <ele>201</ele>
        <time>2017-05-10T08:35:10Z</time>
      </trkpt>
      <trkpt lat="45.96659" lon="4.784">
        <ele>201</ele>
        <time>2017-05-10T08:35:11Z</time>
      </trkpt>
      <trkpt lat="45.96663" lon="4.78405">
        <ele>201</ele>
        <time>2017-05-10T08:35:12Z</time>
      </trkpt>
      <trkpt lat="45.96667" lon="4.78408">
        <ele>203</ele>
        <time>2017-05-10T08:35:13Z</time>
      </trkpt>
      <trkpt lat="45.96671" lon="4.78412">
        <ele>202</ele>
        <time>2017-05-10T08:35:14Z</time>
      </trkpt>
      <trkpt lat="45.96675" lon="4.78415">
        <ele>203</ele>
        <time>2017-05-10T08:35:15Z</time>
      </trkpt>
      <trkpt lat="45.96683" lon="4.78422">
        <ele>202</ele>
        <time>2017-05-10T08:35:17Z</time>
      </trkpt>
      <trkpt lat="45.96686" lon="4.78425">
        <ele>202</ele>
        <time>2017-05-10T08:35:18Z</time>
      </trkpt>
      <trkpt lat="45.96692" lon="4.78432">
        <ele>202</ele>
        <time>2017-05-10T08:35:20Z</time>
      </trkpt>
      <trkpt lat="45.96695" lon="4.78436">
        <ele>203</ele>
        <time>2017-05-10T08:35:21Z</time>
      </trkpt>
      <trkpt lat="45.967" lon="4.7844">
        <ele>203</ele>
        <time>2017-05-10T08:35:22Z</time>
      </trkpt>
      <trkpt lat="45.96703" lon="4.78445">
        <ele>203</ele>
        <time>2017-05-10T08:35:23Z</time>
      </trkpt>
      <trkpt lat="45.96708" lon="4.78449">
        <ele>203</ele>
        <time>2017-05-10T08:35:24Z</time>
      </trkpt>
      <trkpt lat="45.96712" lon="4.78454">
        <ele>203</ele>
        <time>2017-05-10T08:35:25Z</time>
      </trkpt>
      <trkpt lat="45.96716" lon="4.78458">
        <ele>203</ele>
        <time>2017-05-10T08:35:26Z</time>
      </trkpt>
      <trkpt lat="45.96721" lon="4.78463">
        <ele>203</ele>
        <time>2017-05-10T08:35:27Z</time>
      </trkpt>
      <trkpt lat="45.96725" lon="4.78467">
        <ele>203</ele>
        <time>2017-05-10T08:35:28Z</time>
      </trkpt>
      <trkpt lat="45.9673" lon="4.78472">
        <ele>203</ele>
        <time>2017-05-10T08:35:29Z</time>
      </trkpt>
      <trkpt lat="45.96734" lon="4.78476">
        <ele>203</ele>
        <time>2017-05-10T08:35:30Z</time>
      </trkpt>
      <trkpt lat="45.96739" lon="4.7848">
        <ele>203</ele>
        <time>2017-05-10T08:35:31Z</time>
      </trkpt>
      <trkpt lat="45.96743" lon="4.78484">
        <ele>203</ele>
        <time>2017-05-10T08:35:32Z</time>
      </trkpt>
      <trkpt lat="45.96748" lon="4.78487">
        <ele>203</ele>
        <time>2017-05-10T08:35:33Z</time>
      </trkpt>
      <trkpt lat="45.96753" lon="4.78491">
        <ele>204</ele>
        <time>2017-05-10T08:35:34Z</time>
      </trkpt>
      <trkpt lat="45.96757" lon="4.78496">
        <ele>204</ele>
        <time>2017-05-10T08:35:35Z</time>
      </trkpt>
      <trkpt lat="45.96761" lon="4.78501">
        <ele>203</ele>
        <time>2017-05-10T08:35:36Z</time>
      </trkpt>
      <trkpt lat="45.96765" lon="4.78507">
        <ele>203</ele>
        <time>2017-05-10T08:35:37Z</time>
      </trkpt>
      <trkpt lat="45.96768" lon="4.78513">
        <ele>203</ele>
        <time>2017-05-10T08:35:38Z</time>
      </trkpt>
      <trkpt lat="45.96772" lon="4.78519">
        <ele>203</ele>
        <time>2017-05-10T08:35:39Z</time>
      </trkpt>
      <trkpt lat="45.96775" lon="4.78524">
        <ele>203</ele>
        <time>2017-05-10T08:35:40Z</time>
      </trkpt>
      <trkpt lat="45.96779" lon="4.78529">
        <ele>203</ele>
        <time>2017-05-10T08:35:41Z</time>
      </trkpt>
      <trkpt lat="45.96783" lon="4.78534">
        <ele>203</ele>
        <time>2017-05-10T08:35:42Z</time>
      </trkpt>
      <trkpt lat="45.96787" lon="4.78539">
        <ele>203</ele>
        <time>2017-05-10T08:35:43Z</time>
      </trkpt>
      <trkpt lat="45.9679" lon="4.78544">
        <ele>203</ele>
        <time>2017-05-10T08:35:44Z</time>
      </trkpt>
      <trkpt lat="45.96794" lon="4.7855">
        <ele>203</ele>
        <time>2017-05-10T08:35:45Z</time>
      </trkpt>
      <trkpt lat="45.96797" lon="4.78555">
        <ele>203</ele>
        <time>2017-05-10T08:35:46Z</time>
      </trkpt>
      <trkpt lat="45.96801" lon="4.78561">
        <ele>203</ele>
        <time>2017-05-10T08:35:47Z</time>
      </trkpt>
      <trkpt lat="45.96804" lon="4.78566">
        <ele>203</ele>
        <time>2017-05-10T08:35:48Z</time>
      </trkpt>
      <trkpt lat="45.96808" lon="4.78572">
        <ele>203</ele>
        <time>2017-05-10T08:35:49Z</time>
      </trkpt>
      <trkpt lat="45.96812" lon="4.78577">
        <ele>203</ele>
        <time>2017-05-10T08:35:50Z</time>
      </trkpt>
      <trkpt lat="45.96815" lon="4.78582">
        <ele>203</ele>
        <time>2017-05-10T08:35:51Z</time>
      </trkpt>
      <trkpt lat="45.9682" lon="4.78591">
        <ele>202</ele>
        <time>2017-05-10T08:35:53Z</time>
      </trkpt>
      <trkpt lat="45.96822" lon="4.78597">
        <ele>202</ele>
        <time>2017-05-10T08:35:54Z</time>
      </trkpt>
      <trkpt lat="45.96824" lon="4.78603">
        <ele>202</ele>
        <time>2017-05-10T08:35:55Z</time>
      </trkpt>
      <trkpt lat="45.96826" lon="4.7861">
        <ele>202</ele>
        <time>2017-05-10T08:35:56Z</time>
      </trkpt>
      <trkpt lat="45.96828" lon="4.78617">
        <ele>202</ele>
        <time>2017-05-10T08:35:57Z</time>
      </trkpt>
      <trkpt lat="45.9683" lon="4.78623">
        <ele>201</ele>
        <time>2017-05-10T08:35:58Z</time>
      </trkpt>
      <trkpt lat="45.96834" lon="4.7863">
        <ele>203</ele>
        <time>2017-05-10T08:35:59Z</time>
      </trkpt>
      <trkpt lat="45.96836" lon="4.78636">
        <ele>203</ele>
        <time>2017-05-10T08:36:00Z</time>
      </trkpt>
      <trkpt lat="45.96839" lon="4.78642">
        <ele>203</ele>
        <time>2017-05-10T08:36:01Z</time>
      </trkpt>
      <trkpt lat="45.96842" lon="4.78647">
        <ele>203</ele>
        <time>2017-05-10T08:36:02Z</time>
      </trkpt>
      <trkpt lat="45.96845" lon="4.78653">
        <ele>203</ele>
        <time>2017-05-10T08:36:03Z</time>
      </trkpt>
      <trkpt lat="45.96848" lon="4.78659">
        <ele>202</ele>
        <time>2017-05-10T08:36:04Z</time>
      </trkpt>
      <trkpt lat="45.96851" lon="4.78665">
        <ele>202</ele>
        <time>2017-05-10T08:36:05Z</time>
      </trkpt>
      <trkpt lat="45.96854" lon="4.78671">
        <ele>202</ele>
        <time>2017-05-10T08:36:06Z</time>
      </trkpt>
      <trkpt lat="45.96857" lon="4.78677">
        <ele>202</ele>
        <time>2017-05-10T08:36:07Z</time>
      </trkpt>
      <trkpt lat="45.96859" lon="4.78682">
        <ele>202</ele>
        <time>2017-05-10T08:36:08Z</time>
      </trkpt>
      <trkpt lat="45.96862" lon="4.78688">
        <ele>202</ele>
        <time>2017-05-10T08:36:09Z</time>
      </trkpt>
      <trkpt lat="45.96866" lon="4.78693">
        <ele>202</ele>
        <time>2017-05-10T08:36:10Z</time>
      </trkpt>
      <trkpt lat="45.96872" lon="4.78702">
        <ele>202</ele>
        <time>2017-05-10T08:36:12Z</time>
      </trkpt>
      <trkpt lat="45.96874" lon="4.78707">
        <ele>202</ele>
        <time>2017-05-10T08:36:13Z</time>
      </trkpt>
      <trkpt lat="45.96879" lon="4.78716">
        <ele>202</ele>
        <time>2017-05-10T08:36:15Z</time>
      </trkpt>
      <trkpt lat="45.96881" lon="4.78721">
        <ele>202</ele>
        <time>2017-05-10T08:36:16Z</time>
      </trkpt>
      <trkpt lat="45.96885" lon="4.78731">
        <ele>202</ele>
        <time>2017-05-10T08:36:18Z</time>
      </trkpt>
      <trkpt lat="45.96887" lon="4.78735">
        <ele>202</ele>
        <time>2017-05-10T08:36:19Z</time>
      </trkpt>
      <trkpt lat="45.96889" lon="4.7874">
        <ele>202</ele>
        <time>2017-05-10T08:36:20Z</time>
      </trkpt>
      <trkpt lat="45.9689" lon="4.78748">
        <ele>202</ele>
        <time>2017-05-10T08:36:21Z</time>
      </trkpt>
      <trkpt lat="45.96892" lon="4.78754">
        <ele>201</ele>
        <time>2017-05-10T08:36:22Z</time>
      </trkpt>
      <trkpt lat="45.96893" lon="4.7876">
        <ele>201</ele>
        <time>2017-05-10T08:36:23Z</time>
      </trkpt>
      <trkpt lat="45.96895" lon="4.78766">
        <ele>201</ele>
        <time>2017-05-10T08:36:24Z</time>
      </trkpt>
      <trkpt lat="45.96897" lon="4.78772">
        <ele>201</ele>
        <time>2017-05-10T08:36:25Z</time>
      </trkpt>
      <trkpt lat="45.969" lon="4.78778">
        <ele>201</ele>
        <time>2017-05-10T08:36:26Z</time>
      </trkpt>
      <trkpt lat="45.96902" lon="4.78784">
        <ele>201</ele>
        <time>2017-05-10T08:36:27Z</time>
      </trkpt>
      <trkpt lat="45.96905" lon="4.7879">
        <ele>201</ele>
        <time>2017-05-10T08:36:28Z</time>
      </trkpt>
      <trkpt lat="45.96909" lon="4.78796">
        <ele>201</ele>
        <time>2017-05-10T08:36:29Z</time>
      </trkpt>
      <trkpt lat="45.96912" lon="4.78802">
        <ele>200</ele>
        <time>2017-05-10T08:36:30Z</time>
      </trkpt>
      <trkpt lat="45.96915" lon="4.78807">
        <ele>200</ele>
        <time>2017-05-10T08:36:31Z</time>
      </trkpt>
      <trkpt lat="45.96918" lon="4.78812">
        <ele>202</ele>
        <time>2017-05-10T08:36:32Z</time>
      </trkpt>
      <trkpt lat="45.96921" lon="4.78818">
        <ele>202</ele>
        <time>2017-05-10T08:36:33Z</time>
      </trkpt>
      <trkpt lat="45.96925" lon="4.78823">
        <ele>202</ele>
        <time>2017-05-10T08:36:34Z</time>
      </trkpt>
      <trkpt lat="45.96928" lon="4.78827">
        <ele>202</ele>
        <time>2017-05-10T08:36:35Z</time>
      </trkpt>
      <trkpt lat="45.96934" lon="4.78836">
        <ele>201</ele>
        <time>2017-05-10T08:36:37Z</time>
      </trkpt>
      <trkpt lat="45.96936" lon="4.7884">
        <ele>202</ele>
        <time>2017-05-10T08:36:38Z</time>
      </trkpt>
      <trkpt lat="45.96943" lon="4.78849">
        <ele>202</ele>
        <time>2017-05-10T08:36:40Z</time>
      </trkpt>
      <trkpt lat="45.96946" lon="4.78853">
        <ele>202</ele>
        <time>2017-05-10T08:36:41Z</time>
      </trkpt>
      <trkpt lat="45.96951" lon="4.78857">
        <ele>203</ele>
        <time>2017-05-10T08:36:42Z</time>
      </trkpt>
      <trkpt lat="45.96955" lon="4.78862">
        <ele>203</ele>
        <time>2017-05-10T08:36:43Z</time>
      </trkpt>
      <trkpt lat="45.96959" lon="4.78867">
        <ele>203</ele>
        <time>2017-05-10T08:36:44Z</time>
      </trkpt>
      <trkpt lat="45.96963" lon="4.78872">
        <ele>203</ele>
        <time>2017-05-10T08:36:45Z</time>
      </trkpt>
      <trkpt lat="45.96968" lon="4.78877">
        <ele>203</ele>
        <time>2017-05-10T08:36:46Z</time>
      </trkpt>
      <trkpt lat="45.96972" lon="4.78882">
        <ele>203</ele>
        <time>2017-05-10T08:36:47Z</time>
      </trkpt>
      <trkpt lat="45.96976" lon="4.78887">
        <ele>203</ele>
        <time>2017-05-10T08:36:48Z</time>
      </trkpt>
      <trkpt lat="45.9698" lon="4.78892">
        <ele>203</ele>
        <time>2017-05-10T08:36:49Z</time>
      </trkpt>
      <trkpt lat="45.96984" lon="4.78897">
        <ele>203</ele>
        <time>2017-05-10T08:36:50Z</time>
      </trkpt>
      <trkpt lat="45.96988" lon="4.78901">
        <ele>203</ele>
        <time>2017-05-10T08:36:51Z</time>
      </trkpt>
      <trkpt lat="45.96994" lon="4.78908">
        <ele>204</ele>
        <time>2017-05-10T08:36:53Z</time>
      </trkpt>
      <trkpt lat="45.96997" lon="4.78912">
        <ele>204</ele>
        <time>2017-05-10T08:36:54Z</time>
      </trkpt>
      <trkpt lat="45.97002" lon="4.7892">
        <ele>204</ele>
        <time>2017-05-10T08:36:56Z</time>
      </trkpt>
      <trkpt lat="45.97005" lon="4.78925">
        <ele>204</ele>
        <time>2017-05-10T08:36:57Z</time>
      </trkpt>
      <trkpt lat="45.97011" lon="4.78933">
        <ele>205</ele>
        <time>2017-05-10T08:36:59Z</time>
      </trkpt>
      <trkpt lat="45.97014" lon="4.78937">
        <ele>205</ele>
        <time>2017-05-10T08:37:00Z</time>
      </trkpt>
      <trkpt lat="45.97021" lon="4.78946">
        <ele>205</ele>
        <time>2017-05-10T08:37:02Z</time>
      </trkpt>
      <trkpt lat="45.97024" lon="4.78951">
        <ele>205</ele>
        <time>2017-05-10T08:37:03Z</time>
      </trkpt>
      <trkpt lat="45.9703" lon="4.7896">
        <ele>205</ele>
        <time>2017-05-10T08:37:05Z</time>
      </trkpt>
      <trkpt lat="45.97033" lon="4.78965">
        <ele>205</ele>
        <time>2017-05-10T08:37:06Z</time>
      </trkpt>
      <trkpt lat="45.97038" lon="4.78975">
        <ele>204</ele>
        <time>2017-05-10T08:37:08Z</time>
      </trkpt>
      <trkpt lat="45.9704" lon="4.7898">
        <ele>204</ele>
        <time>2017-05-10T08:37:09Z</time>
      </trkpt>
      <trkpt lat="45.97044" lon="4.7899">
        <ele>204</ele>
        <time>2017-05-10T08:37:11Z</time>
      </trkpt>
      <trkpt lat="45.97046" lon="4.78995">
        <ele>204</ele>
        <time>2017-05-10T08:37:12Z</time>
      </trkpt>
      <trkpt lat="45.9705" lon="4.79006">
        <ele>203</ele>
        <time>2017-05-10T08:37:14Z</time>
      </trkpt>
      <trkpt lat="45.97051" lon="4.79012">
        <ele>203</ele>
        <time>2017-05-10T08:37:15Z</time>
      </trkpt>
      <trkpt lat="45.97053" lon="4.79018">
        <ele>203</ele>
        <time>2017-05-10T08:37:16Z</time>
      </trkpt>
      <trkpt lat="45.97055" lon="4.79025">
        <ele>203</ele>
        <time>2017-05-10T08:37:17Z</time>
      </trkpt>
      <trkpt lat="45.97058" lon="4.79031">
        <ele>203</ele>
        <time>2017-05-10T08:37:18Z</time>
      </trkpt>
      <trkpt lat="45.97061" lon="4.79036">
        <ele>203</ele>
        <time>2017-05-10T08:37:19Z</time>
      </trkpt>
      <trkpt lat="45.97062" lon="4.79042">
        <ele>203</ele>
        <time>2017-05-10T08:37:20Z</time>
      </trkpt>
      <trkpt lat="45.97064" lon="4.79049">
        <ele>203</ele>
        <time>2017-05-10T08:37:21Z</time>
      </trkpt>
      <trkpt lat="45.97065" lon="4.79056">
        <ele>203</ele>
        <time>2017-05-10T08:37:22Z</time>
      </trkpt>
      <trkpt lat="45.97067" lon="4.79063">
        <ele>203</ele>
        <time>2017-05-10T08:37:23Z</time>
      </trkpt>
      <trkpt lat="45.97069" lon="4.79069">
        <ele>203</ele>
        <time>2017-05-10T08:37:24Z</time>
      </trkpt>
      <trkpt lat="45.9707" lon="4.79076">
        <ele>204</ele>
        <time>2017-05-10T08:37:25Z</time>
      </trkpt>
      <trkpt lat="45.97071" lon="4.79083">
        <ele>204</ele>
        <time>2017-05-10T08:37:26Z</time>
      </trkpt>
      <trkpt lat="45.97072" lon="4.7909">
        <ele>204</ele>
        <time>2017-05-10T08:37:27Z</time>
      </trkpt>
      <trkpt lat="45.97074" lon="4.79102">
        <ele>204</ele>
        <time>2017-05-10T08:37:29Z</time>
      </trkpt>
      <trkpt lat="45.97076" lon="4.79108">
        <ele>204</ele>
        <time>2017-05-10T08:37:30Z</time>
      </trkpt>
      <trkpt lat="45.97078" lon="4.79113">
        <ele>204</ele>
        <time>2017-05-10T08:37:31Z</time>
      </trkpt>
      <trkpt lat="45.97081" lon="4.79119">
        <ele>204</ele>
        <time>2017-05-10T08:37:32Z</time>
      </trkpt>
      <trkpt lat="45.97084" lon="4.79125">
        <ele>206</ele>
        <time>2017-05-10T08:37:33Z</time>
      </trkpt>
      <trkpt lat="45.97087" lon="4.7913">
        <ele>206</ele>
        <time>2017-05-10T08:37:34Z</time>
      </trkpt>
      <trkpt lat="45.9709" lon="4.79136">
        <ele>206</ele>
        <time>2017-05-10T08:37:35Z</time>
      </trkpt>
      <trkpt lat="45.97093" lon="4.79141">
        <ele>206</ele>
        <time>2017-05-10T08:37:36Z</time>
      </trkpt>
      <trkpt lat="45.97096" lon="4.79146">
        <ele>206</ele>
        <time>2017-05-10T08:37:37Z</time>
      </trkpt>
      <trkpt lat="45.97099" lon="4.79151">
        <ele>206</ele>
        <time>2017-05-10T08:37:38Z</time>
      </trkpt>
      <trkpt lat="45.97102" lon="4.79156">
        <ele>206</ele>
        <time>2017-05-10T08:37:39Z</time>
      </trkpt>
      <trkpt lat="45.97104" lon="4.79162">
        <ele>206</ele>
        <time>2017-05-10T08:37:40Z</time>
      </trkpt>
      <trkpt lat="45.97107" lon="4.79167">
        <ele>205</ele>
        <time>2017-05-10T08:37:41Z</time>
      </trkpt>
      <trkpt lat="45.9711" lon="4.79173">
        <ele>205</ele>
        <time>2017-05-10T08:37:42Z</time>
      </trkpt>
      <trkpt lat="45.97112" lon="4.79179">
        <ele>205</ele>
        <time>2017-05-10T08:37:43Z</time>
      </trkpt>
      <trkpt lat="45.97115" lon="4.79185">
        <ele>205</ele>
        <time>2017-05-10T08:37:44Z</time>
      </trkpt>
      <trkpt lat="45.97119" lon="4.79195">
        <ele>206</ele>
        <time>2017-05-10T08:37:46Z</time>
      </trkpt>
      <trkpt lat="45.97121" lon="4.79201">
        <ele>206</ele>
        <time>2017-05-10T08:37:47Z</time>
      </trkpt>
      <trkpt lat="45.97123" lon="4.79207">
        <ele>205</ele>
        <time>2017-05-10T08:37:48Z</time>
      </trkpt>
      <trkpt lat="45.97126" lon="4.79213">
        <ele>205</ele>
        <time>2017-05-10T08:37:49Z</time>
      </trkpt>
      <trkpt lat="45.97128" lon="4.79219">
        <ele>205</ele>
        <time>2017-05-10T08:37:50Z</time>
      </trkpt>
      <trkpt lat="45.9713" lon="4.79224">
        <ele>205</ele>
        <time>2017-05-10T08:37:51Z</time>
      </trkpt>
      <trkpt lat="45.97132" lon="4.7923">
        <ele>205</ele>
        <time>2017-05-10T08:37:52Z</time>
      </trkpt>
      <trkpt lat="45.97134" lon="4.79236">
        <ele>205</ele>
        <time>2017-05-10T08:37:53Z</time>
      </trkpt>
      <trkpt lat="45.97136" lon="4.79241">
        <ele>205</ele>
        <time>2017-05-10T08:37:54Z</time>
      </trkpt>
      <trkpt lat="45.97138" lon="4.79247">
        <ele>205</ele>
        <time>2017-05-10T08:37:55Z</time>
      </trkpt>
      <trkpt lat="45.97141" lon="4.79253">
        <ele>204</ele>
        <time>2017-05-10T08:37:56Z</time>
      </trkpt>
      <trkpt lat="45.97144" lon="4.79259">
        <ele>204</ele>
        <time>2017-05-10T08:37:57Z</time>
      </trkpt>
      <trkpt lat="45.97146" lon="4.79264">
        <ele>204</ele>
        <time>2017-05-10T08:37:58Z</time>
      </trkpt>
      <trkpt lat="45.97149" lon="4.7927">
        <ele>204</ele>
        <time>2017-05-10T08:37:59Z</time>
      </trkpt>
      <trkpt lat="45.97151" lon="4.79276">
        <ele>204</ele>
        <time>2017-05-10T08:38:00Z</time>
      </trkpt>
      <trkpt lat="45.97153" lon="4.79282">
        <ele>204</ele>
        <time>2017-05-10T08:38:01Z</time>
      </trkpt>
      <trkpt lat="45.97157" lon="4.79293">
        <ele>204</ele>
        <time>2017-05-10T08:38:03Z</time>
      </trkpt>
      <trkpt lat="45.97159" lon="4.79299">
        <ele>204</ele>
        <time>2017-05-10T08:38:04Z</time>
      </trkpt>
      <trkpt lat="45.97163" lon="4.7931">
        <ele>204</ele>
        <time>2017-05-10T08:38:06Z</time>
      </trkpt>
      <trkpt lat="45.97165" lon="4.79315">
        <ele>205</ele>
        <time>2017-05-10T08:38:07Z</time>
      </trkpt>
      <trkpt lat="45.9717" lon="4.79325">
        <ele>206</ele>
        <time>2017-05-10T08:38:09Z</time>
      </trkpt>
      <trkpt lat="45.97172" lon="4.7933">
        <ele>206</ele>
        <time>2017-05-10T08:38:10Z</time>
      </trkpt>
      <trkpt lat="45.97177" lon="4.7934">
        <ele>206</ele>
        <time>2017-05-10T08:38:12Z</time>
      </trkpt>
      <trkpt lat="45.9718" lon="4.79345">
        <ele>206</ele>
        <time>2017-05-10T08:38:13Z</time>
      </trkpt>
      <trkpt lat="45.97184" lon="4.79355">
        <ele>207</ele>
        <time>2017-05-10T08:38:15Z</time>
      </trkpt>
      <trkpt lat="45.97186" lon="4.79361">
        <ele>207</ele>
        <time>2017-05-10T08:38:16Z</time>
      </trkpt>
      <trkpt lat="45.97188" lon="4.79367">
        <ele>207</ele>
        <time>2017-05-10T08:38:17Z</time>
      </trkpt>
      <trkpt lat="45.97191" lon="4.79372">
        <ele>207</ele>
        <time>2017-05-10T08:38:18Z</time>
      </trkpt>
      <trkpt lat="45.97195" lon="4.79382">
        <ele>207</ele>
        <time>2017-05-10T08:38:20Z</time>
      </trkpt>
      <trkpt lat="45.97198" lon="4.79387">
        <ele>207</ele>
        <time>2017-05-10T08:38:21Z</time>
      </trkpt>
      <trkpt lat="45.97202" lon="4.79397">
        <ele>207</ele>
        <time>2017-05-10T08:38:23Z</time>
      </trkpt>
      <trkpt lat="45.97204" lon="4.79402">
        <ele>207</ele>
        <time>2017-05-10T08:38:24Z</time>
      </trkpt>
      <trkpt lat="45.97209" lon="4.79412">
        <ele>208</ele>
        <time>2017-05-10T08:38:26Z</time>
      </trkpt>
      <trkpt lat="45.97211" lon="4.79417">
        <ele>208</ele>
        <time>2017-05-10T08:38:27Z</time>
      </trkpt>
      <trkpt lat="45.97214" lon="4.79425">
        <ele>208</ele>
        <time>2017-05-10T08:38:29Z</time>
      </trkpt>
      <trkpt lat="45.97216" lon="4.7943">
        <ele>208</ele>
        <time>2017-05-10T08:38:30Z</time>
      </trkpt>
      <trkpt lat="45.97219" lon="4.79436">
        <ele>208</ele>
        <time>2017-05-10T08:38:31Z</time>
      </trkpt>
      <trkpt lat="45.97222" lon="4.79442">
        <ele>209</ele>
        <time>2017-05-10T08:38:32Z</time>
      </trkpt>
      <trkpt lat="45.97224" lon="4.79448">
        <ele>209</ele>
        <time>2017-05-10T08:38:33Z</time>
      </trkpt>
      <trkpt lat="45.97226" lon="4.79454">
        <ele>209</ele>
        <time>2017-05-10T08:38:34Z</time>
      </trkpt>
      <trkpt lat="45.9723" lon="4.79466">
        <ele>209</ele>
        <time>2017-05-10T08:38:36Z</time>
      </trkpt>
      <trkpt lat="45.97231" lon="4.79472">
        <ele>209</ele>
        <time>2017-05-10T08:38:37Z</time>
      </trkpt>
      <trkpt lat="45.97234" lon="4.79483">
        <ele>209</ele>
        <time>2017-05-10T08:38:39Z</time>
      </trkpt>
      <trkpt lat="45.97236" lon="4.79488">
        <ele>210</ele>
        <time>2017-05-10T08:38:40Z</time>
      </trkpt>
      <trkpt lat="45.97238" lon="4.79499">
        <ele>210</ele>
        <time>2017-05-10T08:38:42Z</time>
      </trkpt>
      <trkpt lat="45.9724" lon="4.79504">
        <ele>210</ele>
        <time>2017-05-10T08:38:43Z</time>
      </trkpt>
      <trkpt lat="45.97242" lon="4.79515">
        <ele>210</ele>
        <time>2017-05-10T08:38:45Z</time>
      </trkpt>
      <trkpt lat="45.97243" lon="4.7952">
        <ele>210</ele>
        <time>2017-05-10T08:38:46Z</time>
      </trkpt>
      <trkpt lat="45.97246" lon="4.79531">
        <ele>210</ele>
        <time>2017-05-10T08:38:48Z</time>
      </trkpt>
      <trkpt lat="45.97247" lon="4.79537">
        <ele>210</ele>
        <time>2017-05-10T08:38:49Z</time>
      </trkpt>
      <trkpt lat="45.9725" lon="4.79548">
        <ele>210</ele>
        <time>2017-05-10T08:38:51Z</time>
      </trkpt>
      <trkpt lat="45.97251" lon="4.79554">
        <ele>213</ele>
        <time>2017-05-10T08:38:52Z</time>
      </trkpt>
      <trkpt lat="45.97252" lon="4.79564">
        <ele>213</ele>
        <time>2017-05-10T08:38:54Z</time>
      </trkpt>
      <trkpt lat="45.97252" lon="4.7957">
        <ele>212</ele>
        <time>2017-05-10T08:38:55Z</time>
      </trkpt>
      <trkpt lat="45.97252" lon="4.79577">
        <ele>211</ele>
        <time>2017-05-10T08:38:56Z</time>
      </trkpt>
      <trkpt lat="45.97253" lon="4.79583">
        <ele>211</ele>
        <time>2017-05-10T08:38:57Z</time>
      </trkpt>
      <trkpt lat="45.97253" lon="4.79596">
        <ele>212</ele>
        <time>2017-05-10T08:38:59Z</time>
      </trkpt>
      <trkpt lat="45.97254" lon="4.79603">
        <ele>212</ele>
        <time>2017-05-10T08:39:00Z</time>
      </trkpt>
      <trkpt lat="45.97254" lon="4.79614">
        <ele>213</ele>
        <time>2017-05-10T08:39:02Z</time>
      </trkpt>
      <trkpt lat="45.97254" lon="4.79618">
        <ele>213</ele>
        <time>2017-05-10T08:39:03Z</time>
      </trkpt>
      <trkpt lat="45.97254" lon="4.79629">
        <ele>213</ele>
        <time>2017-05-10T08:39:05Z</time>
      </trkpt>
      <trkpt lat="45.97254" lon="4.79634">
        <ele>213</ele>
        <time>2017-05-10T08:39:06Z</time>
      </trkpt>
      <trkpt lat="45.97255" lon="4.79646">
        <ele>212</ele>
        <time>2017-05-10T08:39:08Z</time>
      </trkpt>
      <trkpt lat="45.97254" lon="4.79651">
        <ele>211</ele>
        <time>2017-05-10T08:39:09Z</time>
      </trkpt>
      <trkpt lat="45.97252" lon="4.79661">
        <ele>209</ele>
        <time>2017-05-10T08:39:11Z</time>
      </trkpt>
      <trkpt lat="45.97249" lon="4.79668">
        <ele>208</ele>
        <time>2017-05-10T08:39:12Z</time>
      </trkpt>
      <trkpt lat="45.97249" lon="4.79675">
        <ele>208</ele>
        <time>2017-05-10T08:39:13Z</time>
      </trkpt>
      <trkpt lat="45.97248" lon="4.79681">
        <ele>208</ele>
        <time>2017-05-10T08:39:14Z</time>
      </trkpt>
      <trkpt lat="45.97246" lon="4.79694">
        <ele>208</ele>
        <time>2017-05-10T08:39:16Z</time>
      </trkpt>
      <trkpt lat="45.97247" lon="4.797">
        <ele>208</ele>
        <time>2017-05-10T08:39:17Z</time>
      </trkpt>
      <trkpt lat="45.97246" lon="4.79706">
        <ele>208</ele>
        <time>2017-05-10T08:39:18Z</time>
      </trkpt>
      <trkpt lat="45.97246" lon="4.79713">
        <ele>209</ele>
        <time>2017-05-10T08:39:19Z</time>
      </trkpt>
      <trkpt lat="45.97245" lon="4.7972">
        <ele>209</ele>
        <time>2017-05-10T08:39:20Z</time>
      </trkpt>
      <trkpt lat="45.97243" lon="4.79727">
        <ele>209</ele>
        <time>2017-05-10T08:39:21Z</time>
      </trkpt>
      <trkpt lat="45.97242" lon="4.79734">
        <ele>209</ele>
        <time>2017-05-10T08:39:22Z</time>
      </trkpt>
      <trkpt lat="45.97241" lon="4.7974">
        <ele>209</ele>
        <time>2017-05-10T08:39:23Z</time>
      </trkpt>
      <trkpt lat="45.9724" lon="4.79746">
        <ele>209</ele>
        <time>2017-05-10T08:39:24Z</time>
      </trkpt>
      <trkpt lat="45.97239" lon="4.79754">
        <ele>209</ele>
        <time>2017-05-10T08:39:25Z</time>
      </trkpt>
      <trkpt lat="45.97239" lon="4.7976">
        <ele>209</ele>
        <time>2017-05-10T08:39:26Z</time>
      </trkpt>
      <trkpt lat="45.97238" lon="4.79767">
        <ele>210</ele>
        <time>2017-05-10T08:39:27Z</time>
      </trkpt>
      <trkpt lat="45.97237" lon="4.79774">
        <ele>210</ele>
        <time>2017-05-10T08:39:28Z</time>
      </trkpt>
      <trkpt lat="45.97237" lon="4.79781">
        <ele>210</ele>
        <time>2017-05-10T08:39:29Z</time>
      </trkpt>
      <trkpt lat="45.97235" lon="4.79787">
        <ele>210</ele>
        <time>2017-05-10T08:39:30Z</time>
      </trkpt>
      <trkpt lat="45.97234" lon="4.79794">
        <ele>210</ele>
        <time>2017-05-10T08:39:31Z</time>
      </trkpt>
      <trkpt lat="45.97235" lon="4.79806">
        <ele>210</ele>
        <time>2017-05-10T08:39:33Z</time>
      </trkpt>
      <trkpt lat="45.97235" lon="4.79812">
        <ele>210</ele>
        <time>2017-05-10T08:39:34Z</time>
      </trkpt>
      <trkpt lat="45.97236" lon="4.79825">
        <ele>211</ele>
        <time>2017-05-10T08:39:36Z</time>
      </trkpt>
      <trkpt lat="45.97235" lon="4.79831">
        <ele>211</ele>
        <time>2017-05-10T08:39:37Z</time>
      </trkpt>
      <trkpt lat="45.97236" lon="4.79842">
        <ele>211</ele>
        <time>2017-05-10T08:39:39Z</time>
      </trkpt>
      <trkpt lat="45.97236" lon="4.79848">
        <ele>211</ele>
        <time>2017-05-10T08:39:40Z</time>
      </trkpt>
      <trkpt lat="45.97238" lon="4.7986">
        <ele>211</ele>
        <time>2017-05-10T08:39:42Z</time>
      </trkpt>
      <trkpt lat="45.9724" lon="4.79866">
        <ele>211</ele>
        <time>2017-05-10T08:39:43Z</time>
      </trkpt>
      <trkpt lat="45.97243" lon="4.79876">
        <ele>211</ele>
        <time>2017-05-10T08:39:45Z</time>
      </trkpt>
      <trkpt lat="45.97244" lon="4.79882">
        <ele>211</ele>
        <time>2017-05-10T08:39:46Z</time>
      </trkpt>
      <trkpt lat="45.97246" lon="4.7989">
        <ele>211</ele>
        <time>2017-05-10T08:39:48Z</time>
      </trkpt>
      <trkpt lat="45.97246" lon="4.79895">
        <ele>211</ele>
        <time>2017-05-10T08:39:49Z</time>
      </trkpt>
      <trkpt lat="45.97246" lon="4.79908">
        <ele>212</ele>
        <time>2017-05-10T08:39:54Z</time>
      </trkpt>
      <trkpt lat="45.97246" lon="4.79909">
        <ele>212</ele>
        <time>2017-05-10T08:39:55Z</time>
      </trkpt>
      <trkpt lat="45.9725" lon="4.79918">
        <ele>212</ele>
        <time>2017-05-10T08:39:59Z</time>
      </trkpt>
      <trkpt lat="45.97254" lon="4.79919">
        <ele>212</ele>
        <time>2017-05-10T08:40:00Z</time>
      </trkpt>
      <trkpt lat="45.97259" lon="4.79921">
        <ele>212</ele>
        <time>2017-05-10T08:40:01Z</time>
      </trkpt>
      <trkpt lat="45.97263" lon="4.7992">
        <ele>212</ele>
        <time>2017-05-10T08:40:02Z</time>
      </trkpt>
      <trkpt lat="45.9727" lon="4.79919">
        <ele>212</ele>
        <time>2017-05-10T08:40:04Z</time>
      </trkpt>
      <trkpt lat="45.97274" lon="4.79919">
        <ele>212</ele>
        <time>2017-05-10T08:40:05Z</time>
      </trkpt>
      <trkpt lat="45.97282" lon="4.79918">
        <ele>212</ele>
        <time>2017-05-10T08:40:07Z</time>
      </trkpt>
      <trkpt lat="45.97286" lon="4.79918">
        <ele>212</ele>
        <time>2017-05-10T08:40:08Z</time>
      </trkpt>
      <trkpt lat="45.97294" lon="4.79918">
        <ele>212</ele>
        <time>2017-05-10T08:40:10Z</time>
      </trkpt>
      <trkpt lat="45.97298" lon="4.79918">
        <ele>212</ele>
        <time>2017-05-10T08:40:11Z</time>
      </trkpt>
      <trkpt lat="45.97305" lon="4.79916">
        <ele>213</ele>
        <time>2017-05-10T08:40:13Z</time>
      </trkpt>
      <trkpt lat="45.97309" lon="4.79916">
        <ele>213</ele>
        <time>2017-05-10T08:40:14Z</time>
      </trkpt>
      <trkpt lat="45.97316" lon="4.79914">
        <ele>213</ele>
        <time>2017-05-10T08:40:16Z</time>
      </trkpt>
      <trkpt lat="45.9732" lon="4.79913">
        <ele>213</ele>
        <time>2017-05-10T08:40:17Z</time>
      </trkpt>
      <trkpt lat="45.97328" lon="4.79912">
        <ele>213</ele>
        <time>2017-05-10T08:40:19Z</time>
      </trkpt>
      <trkpt lat="45.97332" lon="4.79911">
        <ele>213</ele>
        <time>2017-05-10T08:40:20Z</time>
      </trkpt>
      <trkpt lat="45.9734" lon="4.7991">
        <ele>214</ele>
        <time>2017-05-10T08:40:22Z</time>
      </trkpt>
      <trkpt lat="45.97344" lon="4.79909">
        <ele>215</ele>
        <time>2017-05-10T08:40:23Z</time>
      </trkpt>
      <trkpt lat="45.97351" lon="4.79907">
        <ele>216</ele>
        <time>2017-05-10T08:40:25Z</time>
      </trkpt>
      <trkpt lat="45.97355" lon="4.79906">
        <ele>216</ele>
        <time>2017-05-10T08:40:26Z</time>
      </trkpt>
      <trkpt lat="45.97362" lon="4.79905">
        <ele>216</ele>
        <time>2017-05-10T08:40:28Z</time>
      </trkpt>
      <trkpt lat="45.97366" lon="4.79905">
        <ele>216</ele>
        <time>2017-05-10T08:40:29Z</time>
      </trkpt>
      <trkpt lat="45.97373" lon="4.79904">
        <ele>217</ele>
        <time>2017-05-10T08:40:31Z</time>
      </trkpt>
      <trkpt lat="45.97376" lon="4.79903">
        <ele>217</ele>
        <time>2017-05-10T08:40:32Z</time>
      </trkpt>
      <trkpt lat="45.97385" lon="4.79902">
        <ele>217</ele>
        <time>2017-05-10T08:40:34Z</time>
      </trkpt>
      <trkpt lat="45.9739" lon="4.79903">
        <ele>217</ele>
        <time>2017-05-10T08:40:35Z</time>
      </trkpt>
      <trkpt lat="45.97399" lon="4.79903">
        <ele>217</ele>
        <time>2017-05-10T08:40:37Z</time>
      </trkpt>
      <trkpt lat="45.97403" lon="4.79902">
        <ele>217</ele>
        <time>2017-05-10T08:40:38Z</time>
      </trkpt>
      <trkpt lat="45.9741" lon="4.79902">
        <ele>217</ele>
        <time>2017-05-10T08:40:40Z</time>
      </trkpt>
      <trkpt lat="45.97415" lon="4.799">
        <ele>217</ele>
        <time>2017-05-10T08:40:41Z</time>
      </trkpt>
      <trkpt lat="45.97423" lon="4.79899">
        <ele>219</ele>
        <time>2017-05-10T08:40:43Z</time>
      </trkpt>
      <trkpt lat="45.97427" lon="4.79899">
        <ele>219</ele>
        <time>2017-05-10T08:40:44Z</time>
      </trkpt>
      <trkpt lat="45.97435" lon="4.79898">
        <ele>219</ele>
        <time>2017-05-10T08:40:46Z</time>
      </trkpt>
      <trkpt lat="45.97439" lon="4.79898">
        <ele>220</ele>
        <time>2017-05-10T08:40:47Z</time>
      </trkpt>
      <trkpt lat="45.97448" lon="4.79897">
        <ele>220</ele>
        <time>2017-05-10T08:40:49Z</time>
      </trkpt>
      <trkpt lat="45.97451" lon="4.79897">
        <ele>220</ele>
        <time>2017-05-10T08:40:50Z</time>
      </trkpt>
      <trkpt lat="45.97458" lon="4.79897">
        <ele>220</ele>
        <time>2017-05-10T08:40:52Z</time>
      </trkpt>
      <trkpt lat="45.97462" lon="4.79896">
        <ele>220</ele>
        <time>2017-05-10T08:40:53Z</time>
      </trkpt>
      <trkpt lat="45.97469" lon="4.79896">
        <ele>221</ele>
        <time>2017-05-10T08:40:55Z</time>
      </trkpt>
      <trkpt lat="45.97472" lon="4.79896">
        <ele>221</ele>
        <time>2017-05-10T08:40:56Z</time>
      </trkpt>
      <trkpt lat="45.9748" lon="4.79896">
        <ele>221</ele>
        <time>2017-05-10T08:40:58Z</time>
      </trkpt>
      <trkpt lat="45.97484" lon="4.79895">
        <ele>221</ele>
        <time>2017-05-10T08:40:59Z</time>
      </trkpt>
      <trkpt lat="45.97491" lon="4.79895">
        <ele>221</ele>
        <time>2017-05-10T08:41:01Z</time>
      </trkpt>
      <trkpt lat="45.97495" lon="4.79894">
        <ele>221</ele>
        <time>2017-05-10T08:41:02Z</time>
      </trkpt>
      <trkpt lat="45.97502" lon="4.79894">
        <ele>221</ele>
        <time>2017-05-10T08:41:04Z</time>
      </trkpt>
      <trkpt lat="45.97506" lon="4.79894">
        <ele>221</ele>
        <time>2017-05-10T08:41:05Z</time>
      </trkpt>
      <trkpt lat="45.97514" lon="4.79894">
        <ele>221</ele>
        <time>2017-05-10T08:41:07Z</time>
      </trkpt>
      <trkpt lat="45.97519" lon="4.79894">
        <ele>221</ele>
        <time>2017-05-10T08:41:08Z</time>
      </trkpt>
      <trkpt lat="45.97526" lon="4.79893">
        <ele>221</ele>
        <time>2017-05-10T08:41:10Z</time>
      </trkpt>
      <trkpt lat="45.97531" lon="4.79893">
        <ele>221</ele>
        <time>2017-05-10T08:41:11Z</time>
      </trkpt>
      <trkpt lat="45.97538" lon="4.79892">
        <ele>221</ele>
        <time>2017-05-10T08:41:13Z</time>
      </trkpt>
      <trkpt lat="45.97542" lon="4.79891">
        <ele>221</ele>
        <time>2017-05-10T08:41:14Z</time>
      </trkpt>
      <trkpt lat="45.9755" lon="4.79889">
        <ele>221</ele>
        <time>2017-05-10T08:41:16Z</time>
      </trkpt>
      <trkpt lat="45.97554" lon="4.79888">
        <ele>221</ele>
        <time>2017-05-10T08:41:17Z</time>
      </trkpt>
      <trkpt lat="45.97562" lon="4.79885">
        <ele>221</ele>
        <time>2017-05-10T08:41:19Z</time>
      </trkpt>
      <trkpt lat="45.97566" lon="4.79883">
        <ele>221</ele>
        <time>2017-05-10T08:41:20Z</time>
      </trkpt>
      <trkpt lat="45.97574" lon="4.7988">
        <ele>221</ele>
        <time>2017-05-10T08:41:22Z</time>
      </trkpt>
      <trkpt lat="45.97578" lon="4.79879">
        <ele>221</ele>
        <time>2017-05-10T08:41:23Z</time>
      </trkpt>
      <trkpt lat="45.97587" lon="4.79875">
        <ele>221</ele>
        <time>2017-05-10T08:41:25Z</time>
      </trkpt>
      <trkpt lat="45.97591" lon="4.79874">
        <ele>221</ele>
        <time>2017-05-10T08:41:26Z</time>
      </trkpt>
      <trkpt lat="45.97599" lon="4.79871">
        <ele>221</ele>
        <time>2017-05-10T08:41:28Z</time>
      </trkpt>
      <trkpt lat="45.97603" lon="4.79869">
        <ele>221</ele>
        <time>2017-05-10T08:41:29Z</time>
      </trkpt>
      <trkpt lat="45.9761" lon="4.79867">
        <ele>221</ele>
        <time>2017-05-10T08:41:31Z</time>
      </trkpt>
      <trkpt lat="45.97613" lon="4.79865">
        <ele>221</ele>
        <time>2017-05-10T08:41:32Z</time>
      </trkpt>
      <trkpt lat="45.97621" lon="4.79862">
        <ele>221</ele>
        <time>2017-05-10T08:41:34Z</time>
      </trkpt>
      <trkpt lat="45.97625" lon="4.7986">
        <ele>221</ele>
        <time>2017-05-10T08:41:35Z</time>
      </trkpt>
      <trkpt lat="45.97633" lon="4.79857">
        <ele>221</ele>
        <time>2017-05-10T08:41:37Z</time>
      </trkpt>
      <trkpt lat="45.97637" lon="4.79856">
        <ele>221</ele>
        <time>2017-05-10T08:41:38Z</time>
      </trkpt>
      <trkpt lat="45.97644" lon="4.79853">
        <ele>221</ele>
        <time>2017-05-10T08:41:40Z</time>
      </trkpt>
      <trkpt lat="45.97648" lon="4.79851">
        <ele>221</ele>
        <time>2017-05-10T08:41:41Z</time>
      </trkpt>
      <trkpt lat="45.97655" lon="4.79849">
        <ele>221</ele>
        <time>2017-05-10T08:41:43Z</time>
      </trkpt>
      <trkpt lat="45.97659" lon="4.79848">
        <ele>221</ele>
        <time>2017-05-10T08:41:44Z</time>
      </trkpt>
      <trkpt lat="45.97666" lon="4.79844">
        <ele>221</ele>
        <time>2017-05-10T08:41:46Z</time>
      </trkpt>
      <trkpt lat="45.9767" lon="4.79843">
        <ele>221</ele>
        <time>2017-05-10T08:41:47Z</time>
      </trkpt>
      <trkpt lat="45.97677" lon="4.79842">
        <ele>221</ele>
        <time>2017-05-10T08:41:49Z</time>
      </trkpt>
      <trkpt lat="45.97681" lon="4.79842">
        <ele>221</ele>
        <time>2017-05-10T08:41:50Z</time>
      </trkpt>
      <trkpt lat="45.97689" lon="4.7984">
        <ele>220</ele>
        <time>2017-05-10T08:41:52Z</time>
      </trkpt>
      <trkpt lat="45.97694" lon="4.79839">
        <ele>220</ele>
        <time>2017-05-10T08:41:53Z</time>
      </trkpt>
      <trkpt lat="45.97702" lon="4.79837">
        <ele>220</ele>
        <time>2017-05-10T08:41:55Z</time>
      </trkpt>
      <trkpt lat="45.97706" lon="4.79836">
        <ele>220</ele>
        <time>2017-05-10T08:41:56Z</time>
      </trkpt>
      <trkpt lat="45.97711" lon="4.79835">
        <ele>220</ele>
        <time>2017-05-10T08:41:57Z</time>
      </trkpt>
      <trkpt lat="45.97715" lon="4.79834">
        <ele>220</ele>
        <time>2017-05-10T08:41:58Z</time>
      </trkpt>
      <trkpt lat="45.9772" lon="4.79833">
        <ele>223</ele>
        <time>2017-05-10T08:41:59Z</time>
      </trkpt>
      <trkpt lat="45.97724" lon="4.79832">
        <ele>223</ele>
        <time>2017-05-10T08:42:00Z</time>
      </trkpt>
      <trkpt lat="45.97729" lon="4.79831">
        <ele>223</ele>
        <time>2017-05-10T08:42:01Z</time>
      </trkpt>
      <trkpt lat="45.97734" lon="4.7983">
        <ele>223</ele>
        <time>2017-05-10T08:42:02Z</time>
      </trkpt>
      <trkpt lat="45.97739" lon="4.79829">
        <ele>223</ele>
        <time>2017-05-10T08:42:03Z</time>
      </trkpt>
      <trkpt lat="45.97744" lon="4.79828">
        <ele>222</ele>
        <time>2017-05-10T08:42:04Z</time>
      </trkpt>
      <trkpt lat="45.97749" lon="4.79827">
        <ele>222</ele>
        <time>2017-05-10T08:42:05Z</time>
      </trkpt>
      <trkpt lat="45.97754" lon="4.79826">
        <ele>222</ele>
        <time>2017-05-10T08:42:06Z</time>
      </trkpt>
      <trkpt lat="45.97759" lon="4.79825">
        <ele>223</ele>
        <time>2017-05-10T08:42:07Z</time>
      </trkpt>
      <trkpt lat="45.97765" lon="4.79824">
        <ele>223</ele>
        <time>2017-05-10T08:42:08Z</time>
      </trkpt>
      <trkpt lat="45.9777" lon="4.79823">
        <ele>223</ele>
        <time>2017-05-10T08:42:09Z</time>
      </trkpt>
      <trkpt lat="45.97775" lon="4.79822">
        <ele>223</ele>
        <time>2017-05-10T08:42:10Z</time>
      </trkpt>
      <trkpt lat="45.9778" lon="4.79821">
        <ele>223</ele>
        <time>2017-05-10T08:42:11Z</time>
      </trkpt>
      <trkpt lat="45.97784" lon="4.79821">
        <ele>223</ele>
        <time>2017-05-10T08:42:12Z</time>
      </trkpt>
      <trkpt lat="45.97789" lon="4.7982">
        <ele>223</ele>
        <time>2017-05-10T08:42:13Z</time>
      </trkpt>
      <trkpt lat="45.97794" lon="4.79819">
        <ele>223</ele>
        <time>2017-05-10T08:42:14Z</time>
      </trkpt>
      <trkpt lat="45.97799" lon="4.79818">
        <ele>223</ele>
        <time>2017-05-10T08:42:15Z</time>
      </trkpt>
      <trkpt lat="45.97803" lon="4.79817">
        <ele>223</ele>
        <time>2017-05-10T08:42:16Z</time>
      </trkpt>
      <trkpt lat="45.97808" lon="4.79817">
        <ele>223</ele>
        <time>2017-05-10T08:42:17Z</time>
      </trkpt>
      <trkpt lat="45.97812" lon="4.79816">
        <ele>223</ele>
        <time>2017-05-10T08:42:18Z</time>
      </trkpt>
      <trkpt lat="45.97817" lon="4.79815">
        <ele>223</ele>
        <time>2017-05-10T08:42:19Z</time>
      </trkpt>
      <trkpt lat="45.97822" lon="4.79814">
        <ele>223</ele>
        <time>2017-05-10T08:42:20Z</time>
      </trkpt>
      <trkpt lat="45.97826" lon="4.79814">
        <ele>223</ele>
        <time>2017-05-10T08:42:21Z</time>
      </trkpt>
      <trkpt lat="45.97831" lon="4.79813">
        <ele>223</ele>
        <time>2017-05-10T08:42:22Z</time>
      </trkpt>
      <trkpt lat="45.97835" lon="4.79812">
        <ele>224</ele>
        <time>2017-05-10T08:42:23Z</time>
      </trkpt>
      <trkpt lat="45.9784" lon="4.79811">
        <ele>224</ele>
        <time>2017-05-10T08:42:24Z</time>
      </trkpt>
      <trkpt lat="45.97845" lon="4.7981">
        <ele>224</ele>
        <time>2017-05-10T08:42:25Z</time>
      </trkpt>
      <trkpt lat="45.9785" lon="4.7981">
        <ele>224</ele>
        <time>2017-05-10T08:42:26Z</time>
      </trkpt>
      <trkpt lat="45.97854" lon="4.79809">
        <ele>224</ele>
        <time>2017-05-10T08:42:27Z</time>
      </trkpt>
      <trkpt lat="45.97859" lon="4.79809">
        <ele>224</ele>
        <time>2017-05-10T08:42:28Z</time>
      </trkpt>
      <trkpt lat="45.97864" lon="4.79808">
        <ele>224</ele>
        <time>2017-05-10T08:42:29Z</time>
      </trkpt>
      <trkpt lat="45.97869" lon="4.79808">
        <ele>224</ele>
        <time>2017-05-10T08:42:30Z</time>
      </trkpt>
      <trkpt lat="45.97873" lon="4.79807">
        <ele>224</ele>
        <time>2017-05-10T08:42:31Z</time>
      </trkpt>
      <trkpt lat="45.97879" lon="4.79806">
        <ele>224</ele>
        <time>2017-05-10T08:42:32Z</time>
      </trkpt>
      <trkpt lat="45.97884" lon="4.79806">
        <ele>224</ele>
        <time>2017-05-10T08:42:33Z</time>
      </trkpt>
      <trkpt lat="45.97889" lon="4.79805">
        <ele>224</ele>
        <time>2017-05-10T08:42:34Z</time>
      </trkpt>
      <trkpt lat="45.97894" lon="4.79804">
        <ele>224</ele>
        <time>2017-05-10T08:42:35Z</time>
      </trkpt>
      <trkpt lat="45.97899" lon="4.79802">
        <ele>224</ele>
        <time>2017-05-10T08:42:36Z</time>
      </trkpt>
      <trkpt lat="45.97905" lon="4.79801">
        <ele>224</ele>
        <time>2017-05-10T08:42:37Z</time>
      </trkpt>
      <trkpt lat="45.9791" lon="4.798">
        <ele>224</ele>
        <time>2017-05-10T08:42:38Z</time>
      </trkpt>
      <trkpt lat="45.97914" lon="4.798">
        <ele>224</ele>
        <time>2017-05-10T08:42:39Z</time>
      </trkpt>
      <trkpt lat="45.97919" lon="4.79798">
        <ele>224</ele>
        <time>2017-05-10T08:42:40Z</time>
      </trkpt>
      <trkpt lat="45.97923" lon="4.79798">
        <ele>224</ele>
        <time>2017-05-10T08:42:41Z</time>
      </trkpt>
      <trkpt lat="45.97928" lon="4.79796">
        <ele>224</ele>
        <time>2017-05-10T08:42:42Z</time>
      </trkpt>
      <trkpt lat="45.97933" lon="4.79796">
        <ele>224</ele>
        <time>2017-05-10T08:42:43Z</time>
      </trkpt>
      <trkpt lat="45.97938" lon="4.79794">
        <ele>224</ele>
        <time>2017-05-10T08:42:44Z</time>
      </trkpt>
      <trkpt lat="45.97942" lon="4.79794">
        <ele>224</ele>
        <time>2017-05-10T08:42:45Z</time>
      </trkpt>
      <trkpt lat="45.97947" lon="4.79793">
        <ele>224</ele>
        <time>2017-05-10T08:42:46Z</time>
      </trkpt>
      <trkpt lat="45.97952" lon="4.79792">
        <ele>224</ele>
        <time>2017-05-10T08:42:47Z</time>
      </trkpt>
      <trkpt lat="45.97957" lon="4.79792">
        <ele>224</ele>
        <time>2017-05-10T08:42:48Z</time>
      </trkpt>
      <trkpt lat="45.97962" lon="4.79791">
        <ele>224</ele>
        <time>2017-05-10T08:42:49Z</time>
      </trkpt>
      <trkpt lat="45.97967" lon="4.7979">
        <ele>224</ele>
        <time>2017-05-10T08:42:50Z</time>
      </trkpt>
      <trkpt lat="45.97972" lon="4.7979">
        <ele>224</ele>
        <time>2017-05-10T08:42:51Z</time>
      </trkpt>
      <trkpt lat="45.97977" lon="4.79789">
        <ele>224</ele>
        <time>2017-05-10T08:42:52Z</time>
      </trkpt>
      <trkpt lat="45.97982" lon="4.79789">
        <ele>224</ele>
        <time>2017-05-10T08:42:53Z</time>
      </trkpt>
      <trkpt lat="45.97987" lon="4.79788">
        <ele>224</ele>
        <time>2017-05-10T08:42:54Z</time>
      </trkpt>
      <trkpt lat="45.97991" lon="4.79788">
        <ele>224</ele>
        <time>2017-05-10T08:42:55Z</time>
      </trkpt>
      <trkpt lat="45.97996" lon="4.79787">
        <ele>224</ele>
        <time>2017-05-10T08:42:56Z</time>
      </trkpt>
      <trkpt lat="45.98005" lon="4.79786">
        <ele>223</ele>
        <time>2017-05-10T08:42:58Z</time>
      </trkpt>
      <trkpt lat="45.9801" lon="4.79786">
        <ele>223</ele>
        <time>2017-05-10T08:42:59Z</time>
      </trkpt>
      <trkpt lat="45.98014" lon="4.79785">
        <ele>223</ele>
        <time>2017-05-10T08:43:00Z</time>
      </trkpt>
      <trkpt lat="45.98019" lon="4.79784">
        <ele>223</ele>
        <time>2017-05-10T08:43:01Z</time>
      </trkpt>
      <trkpt lat="45.98023" lon="4.79784">
        <ele>223</ele>
        <time>2017-05-10T08:43:02Z</time>
      </trkpt>
      <trkpt lat="45.98028" lon="4.79783">
        <ele>223</ele>
        <time>2017-05-10T08:43:03Z</time>
      </trkpt>
      <trkpt lat="45.98033" lon="4.79782">
        <ele>223</ele>
        <time>2017-05-10T08:43:04Z</time>
      </trkpt>
      <trkpt lat="45.98038" lon="4.79781">
        <ele>223</ele>
        <time>2017-05-10T08:43:05Z</time>
      </trkpt>
      <trkpt lat="45.98043" lon="4.79781">
        <ele>223</ele>
        <time>2017-05-10T08:43:06Z</time>
      </trkpt>
      <trkpt lat="45.98047" lon="4.79779">
        <ele>223</ele>
        <time>2017-05-10T08:43:07Z</time>
      </trkpt>
      <trkpt lat="45.98052" lon="4.79778">
        <ele>223</ele>
        <time>2017-05-10T08:43:08Z</time>
      </trkpt>
      <trkpt lat="45.98057" lon="4.79777">
        <ele>223</ele>
        <time>2017-05-10T08:43:09Z</time>
      </trkpt>
      <trkpt lat="45.98062" lon="4.79777">
        <ele>223</ele>
        <time>2017-05-10T08:43:10Z</time>
      </trkpt>
      <trkpt lat="45.98067" lon="4.79776">
        <ele>223</ele>
        <time>2017-05-10T08:43:11Z</time>
      </trkpt>
      <trkpt lat="45.98072" lon="4.79776">
        <ele>223</ele>
        <time>2017-05-10T08:43:12Z</time>
      </trkpt>
      <trkpt lat="45.98078" lon="4.79774">
        <ele>223</ele>
        <time>2017-05-10T08:43:13Z</time>
      </trkpt>
      <trkpt lat="45.98084" lon="4.79773">
        <ele>223</ele>
        <time>2017-05-10T08:43:14Z</time>
      </trkpt>
      <trkpt lat="45.98089" lon="4.79772">
        <ele>223</ele>
        <time>2017-05-10T08:43:15Z</time>
      </trkpt>
      <trkpt lat="45.98095" lon="4.79771">
        <ele>223</ele>
        <time>2017-05-10T08:43:16Z</time>
      </trkpt>
      <trkpt lat="45.981" lon="4.7977">
        <ele>223</ele>
        <time>2017-05-10T08:43:17Z</time>
      </trkpt>
      <trkpt lat="45.98106" lon="4.79769">
        <ele>224</ele>
        <time>2017-05-10T08:43:18Z</time>
      </trkpt>
      <trkpt lat="45.98111" lon="4.79769">
        <ele>224</ele>
        <time>2017-05-10T08:43:19Z</time>
      </trkpt>
      <trkpt lat="45.98116" lon="4.79768">
        <ele>224</ele>
        <time>2017-05-10T08:43:20Z</time>
      </trkpt>
      <trkpt lat="45.98122" lon="4.79768">
        <ele>224</ele>
        <time>2017-05-10T08:43:21Z</time>
      </trkpt>
      <trkpt lat="45.98127" lon="4.79767">
        <ele>224</ele>
        <time>2017-05-10T08:43:22Z</time>
      </trkpt>
      <trkpt lat="45.98132" lon="4.79766">
        <ele>224</ele>
        <time>2017-05-10T08:43:23Z</time>
      </trkpt>
      <trkpt lat="45.98138" lon="4.79766">
        <ele>224</ele>
        <time>2017-05-10T08:43:24Z</time>
      </trkpt>
      <trkpt lat="45.98143" lon="4.79766">
        <ele>224</ele>
        <time>2017-05-10T08:43:25Z</time>
      </trkpt>
      <trkpt lat="45.98148" lon="4.79766">
        <ele>225</ele>
        <time>2017-05-10T08:43:26Z</time>
      </trkpt>
      <trkpt lat="45.98153" lon="4.79767">
        <ele>225</ele>
        <time>2017-05-10T08:43:27Z</time>
      </trkpt>
      <trkpt lat="45.98158" lon="4.79769">
        <ele>225</ele>
        <time>2017-05-10T08:43:28Z</time>
      </trkpt>
      <trkpt lat="45.98162" lon="4.79773">
        <ele>225</ele>
        <time>2017-05-10T08:43:29Z</time>
      </trkpt>
      <trkpt lat="45.98166" lon="4.79778">
        <ele>225</ele>
        <time>2017-05-10T08:43:30Z</time>
      </trkpt>
      <trkpt lat="45.98169" lon="4.79784">
        <ele>226</ele>
        <time>2017-05-10T08:43:31Z</time>
      </trkpt>
      <trkpt lat="45.98172" lon="4.7979">
        <ele>226</ele>
        <time>2017-05-10T08:43:32Z</time>
      </trkpt>
      <trkpt lat="45.98174" lon="4.79797">
        <ele>226</ele>
        <time>2017-05-10T08:43:33Z</time>
      </trkpt>
      <trkpt lat="45.98177" lon="4.79803">
        <ele>225</ele>
        <time>2017-05-10T08:43:34Z</time>
      </trkpt>
      <trkpt lat="45.98179" lon="4.7981">
        <ele>225</ele>
        <time>2017-05-10T08:43:35Z</time>
      </trkpt>
      <trkpt lat="45.98182" lon="4.79817">
        <ele>225</ele>
        <time>2017-05-10T08:43:36Z</time>
      </trkpt>
      <trkpt lat="45.98185" lon="4.79825">
        <ele>225</ele>
        <time>2017-05-10T08:43:37Z</time>
      </trkpt>
      <trkpt lat="45.98188" lon="4.79833">
        <ele>225</ele>
        <time>2017-05-10T08:43:38Z</time>
      </trkpt>
      <trkpt lat="45.9819" lon="4.79842">
        <ele>225</ele>
        <time>2017-05-10T08:43:39Z</time>
      </trkpt>
      <trkpt lat="45.98193" lon="4.79851">
        <ele>225</ele>
        <time>2017-05-10T08:43:40Z</time>
      </trkpt>
      <trkpt lat="45.98197" lon="4.7986">
        <ele>225</ele>
        <time>2017-05-10T08:43:41Z</time>
      </trkpt>
      <trkpt lat="45.982" lon="4.79868">
        <ele>225</ele>
        <time>2017-05-10T08:43:42Z</time>
      </trkpt>
      <trkpt lat="45.98203" lon="4.79877">
        <ele>225</ele>
        <time>2017-05-10T08:43:43Z</time>
      </trkpt>
      <trkpt lat="45.98206" lon="4.79886">
        <ele>225</ele>
        <time>2017-05-10T08:43:44Z</time>
      </trkpt>
      <trkpt lat="45.98209" lon="4.79895">
        <ele>225</ele>
        <time>2017-05-10T08:43:45Z</time>
      </trkpt>
      <trkpt lat="45.98212" lon="4.79903">
        <ele>225</ele>
        <time>2017-05-10T08:43:46Z</time>
      </trkpt>
      <trkpt lat="45.98216" lon="4.79912">
        <ele>225</ele>
        <time>2017-05-10T08:43:47Z</time>
      </trkpt>
      <trkpt lat="45.98219" lon="4.7992">
        <ele>225</ele>
        <time>2017-05-10T08:43:48Z</time>
      </trkpt>
      <trkpt lat="45.98222" lon="4.79928">
        <ele>225</ele>
        <time>2017-05-10T08:43:49Z</time>
      </trkpt>
      <trkpt lat="45.98225" lon="4.79936">
        <ele>225</ele>
        <time>2017-05-10T08:43:50Z</time>
      </trkpt>
      <trkpt lat="45.98228" lon="4.79943">
        <ele>225</ele>
        <time>2017-05-10T08:43:51Z</time>
      </trkpt>
      <trkpt lat="45.9823" lon="4.7995">
        <ele>225</ele>
        <time>2017-05-10T08:43:52Z</time>
      </trkpt>
      <trkpt lat="45.98233" lon="4.79957">
        <ele>225</ele>
        <time>2017-05-10T08:43:53Z</time>
      </trkpt>
      <trkpt lat="45.98235" lon="4.79964">
        <ele>225</ele>
        <time>2017-05-10T08:43:54Z</time>
      </trkpt>
      <trkpt lat="45.98237" lon="4.79971">
        <ele>225</ele>
        <time>2017-05-10T08:43:55Z</time>
      </trkpt>
      <trkpt lat="45.98239" lon="4.79977">
        <ele>225</ele>
        <time>2017-05-10T08:43:56Z</time>
      </trkpt>
      <trkpt lat="45.98242" lon="4.79984">
        <ele>225</ele>
        <time>2017-05-10T08:43:57Z</time>
      </trkpt>
      <trkpt lat="45.98244" lon="4.7999">
        <ele>226</ele>
        <time>2017-05-10T08:43:58Z</time>
      </trkpt>
      <trkpt lat="45.98246" lon="4.79997">
        <ele>226</ele>
        <time>2017-05-10T08:43:59Z</time>
      </trkpt>
      <trkpt lat="45.98249" lon="4.80004">
        <ele>226</ele>
        <time>2017-05-10T08:44:00Z</time>
      </trkpt>
      <trkpt lat="45.98251" lon="4.80011">
        <ele>227</ele>
        <time>2017-05-10T08:44:01Z</time>
      </trkpt>
      <trkpt lat="45.98254" lon="4.80018">
        <ele>228</ele>
        <time>2017-05-10T08:44:02Z</time>
      </trkpt>
      <trkpt lat="45.98256" lon="4.80025">
        <ele>228</ele>
        <time>2017-05-10T08:44:03Z</time>
      </trkpt>
      <trkpt lat="45.98259" lon="4.80033">
        <ele>228</ele>
        <time>2017-05-10T08:44:04Z</time>
      </trkpt>
      <trkpt lat="45.98261" lon="4.8004">
        <ele>228</ele>
        <time>2017-05-10T08:44:05Z</time>
      </trkpt>
      <trkpt lat="45.98264" lon="4.80047">
        <ele>228</ele>
        <time>2017-05-10T08:44:06Z</time>
      </trkpt>
      <trkpt lat="45.98266" lon="4.80053">
        <ele>228</ele>
        <time>2017-05-10T08:44:07Z</time>
      </trkpt>
      <trkpt lat="45.98269" lon="4.8006">
        <ele>228</ele>
        <time>2017-05-10T08:44:08Z</time>
      </trkpt>
      <trkpt lat="45.98271" lon="4.80067">
        <ele>228</ele>
        <time>2017-05-10T08:44:09Z</time>
      </trkpt>
      <trkpt lat="45.98273" lon="4.80074">
        <ele>228</ele>
        <time>2017-05-10T08:44:10Z</time>
      </trkpt>
      <trkpt lat="45.98275" lon="4.8008">
        <ele>228</ele>
        <time>2017-05-10T08:44:11Z</time>
      </trkpt>
      <trkpt lat="45.98278" lon="4.80087">
        <ele>228</ele>
        <time>2017-05-10T08:44:12Z</time>
      </trkpt>
      <trkpt lat="45.9828" lon="4.80094">
        <ele>228</ele>
        <time>2017-05-10T08:44:13Z</time>
      </trkpt>
      <trkpt lat="45.98282" lon="4.801">
        <ele>228</ele>
        <time>2017-05-10T08:44:14Z</time>
      </trkpt>
      <trkpt lat="45.98284" lon="4.80106">
        <ele>228</ele>
        <time>2017-05-10T08:44:15Z</time>
      </trkpt>
      <trkpt lat="45.98286" lon="4.80112">
        <ele>228</ele>
        <time>2017-05-10T08:44:16Z</time>
      </trkpt>
      <trkpt lat="45.98288" lon="4.80118">
        <ele>228</ele>
        <time>2017-05-10T08:44:17Z</time>
      </trkpt>
      <trkpt lat="45.98291" lon="4.80124">
        <ele>228</ele>
        <time>2017-05-10T08:44:18Z</time>
      </trkpt>
      <trkpt lat="45.98293" lon="4.80131">
        <ele>228</ele>
        <time>2017-05-10T08:44:19Z</time>
      </trkpt>
      <trkpt lat="45.98295" lon="4.80137">
        <ele>228</ele>
        <time>2017-05-10T08:44:20Z</time>
      </trkpt>
      <trkpt lat="45.98297" lon="4.80143">
        <ele>228</ele>
        <time>2017-05-10T08:44:21Z</time>
      </trkpt>
      <trkpt lat="45.983" lon="4.8015">
        <ele>228</ele>
        <time>2017-05-10T08:44:22Z</time>
      </trkpt>
      <trkpt lat="45.98302" lon="4.80156">
        <ele>228</ele>
        <time>2017-05-10T08:44:23Z</time>
      </trkpt>
      <trkpt lat="45.98305" lon="4.80163">
        <ele>228</ele>
        <time>2017-05-10T08:44:24Z</time>
      </trkpt>
      <trkpt lat="45.98307" lon="4.8017">
        <ele>227</ele>
        <time>2017-05-10T08:44:25Z</time>
      </trkpt>
      <trkpt lat="45.9831" lon="4.80176">
        <ele>227</ele>
        <time>2017-05-10T08:44:26Z</time>
      </trkpt>
      <trkpt lat="45.98312" lon="4.80183">
        <ele>227</ele>
        <time>2017-05-10T08:44:27Z</time>
      </trkpt>
      <trkpt lat="45.98315" lon="4.8019">
        <ele>227</ele>
        <time>2017-05-10T08:44:28Z</time>
      </trkpt>
      <trkpt lat="45.98317" lon="4.80197">
        <ele>227</ele>
        <time>2017-05-10T08:44:29Z</time>
      </trkpt>
      <trkpt lat="45.9832" lon="4.80204">
        <ele>227</ele>
        <time>2017-05-10T08:44:30Z</time>
      </trkpt>
      <trkpt lat="45.98322" lon="4.8021">
        <ele>227</ele>
        <time>2017-05-10T08:44:31Z</time>
      </trkpt>
      <trkpt lat="45.98325" lon="4.80217">
        <ele>227</ele>
        <time>2017-05-10T08:44:32Z</time>
      </trkpt>
      <trkpt lat="45.98326" lon="4.80223">
        <ele>227</ele>
        <time>2017-05-10T08:44:33Z</time>
      </trkpt>
      <trkpt lat="45.98327" lon="4.8023">
        <ele>228</ele>
        <time>2017-05-10T08:44:34Z</time>
      </trkpt>
      <trkpt lat="45.98327" lon="4.80237">
        <ele>228</ele>
        <time>2017-05-10T08:44:35Z</time>
      </trkpt>
      <trkpt lat="45.98325" lon="4.80244">
        <ele>229</ele>
        <time>2017-05-10T08:44:36Z</time>
      </trkpt>
      <trkpt lat="45.98323" lon="4.8025">
        <ele>228</ele>
        <time>2017-05-10T08:44:37Z</time>
      </trkpt>
      <trkpt lat="45.98321" lon="4.80257">
        <ele>228</ele>
        <time>2017-05-10T08:44:38Z</time>
      </trkpt>
      <trkpt lat="45.98319" lon="4.80264">
        <ele>227</ele>
        <time>2017-05-10T08:44:39Z</time>
      </trkpt>
      <trkpt lat="45.98318" lon="4.80271">
        <ele>227</ele>
        <time>2017-05-10T08:44:40Z</time>
      </trkpt>
      <trkpt lat="45.98316" lon="4.80278">
        <ele>227</ele>
        <time>2017-05-10T08:44:41Z</time>
      </trkpt>
      <trkpt lat="45.98314" lon="4.80285">
        <ele>226</ele>
        <time>2017-05-10T08:44:42Z</time>
      </trkpt>
      <trkpt lat="45.98312" lon="4.80293">
        <ele>226</ele>
        <time>2017-05-10T08:44:43Z</time>
      </trkpt>
      <trkpt lat="45.9831" lon="4.80302">
        <ele>226</ele>
        <time>2017-05-10T08:44:44Z</time>
      </trkpt>
      <trkpt lat="45.98308" lon="4.8031">
        <ele>226</ele>
        <time>2017-05-10T08:44:45Z</time>
      </trkpt>
      <trkpt lat="45.98306" lon="4.80319">
        <ele>226</ele>
        <time>2017-05-10T08:44:46Z</time>
      </trkpt>
      <trkpt lat="45.98304" lon="4.80328">
        <ele>226</ele>
        <time>2017-05-10T08:44:47Z</time>
      </trkpt>
      <trkpt lat="45.98303" lon="4.80337">
        <ele>225</ele>
        <time>2017-05-10T08:44:48Z</time>
      </trkpt>
      <trkpt lat="45.983" lon="4.80345">
        <ele>225</ele>
        <time>2017-05-10T08:44:49Z</time>
      </trkpt>
      <trkpt lat="45.98299" lon="4.80354">
        <ele>225</ele>
        <time>2017-05-10T08:44:50Z</time>
      </trkpt>
      <trkpt lat="45.98297" lon="4.80363">
        <ele>225</ele>
        <time>2017-05-10T08:44:51Z</time>
      </trkpt>
      <trkpt lat="45.98295" lon="4.80372">
        <ele>224</ele>
        <time>2017-05-10T08:44:52Z</time>
      </trkpt>
      <trkpt lat="45.98293" lon="4.80381">
        <ele>224</ele>
        <time>2017-05-10T08:44:53Z</time>
      </trkpt>
      <trkpt lat="45.98291" lon="4.80391">
        <ele>224</ele>
        <time>2017-05-10T08:44:54Z</time>
      </trkpt>
      <trkpt lat="45.98289" lon="4.804">
        <ele>224</ele>
        <time>2017-05-10T08:44:55Z</time>
      </trkpt>
      <trkpt lat="45.98287" lon="4.8041">
        <ele>224</ele>
        <time>2017-05-10T08:44:56Z</time>
      </trkpt>
      <trkpt lat="45.98285" lon="4.80419">
        <ele>223</ele>
        <time>2017-05-10T08:44:57Z</time>
      </trkpt>
      <trkpt lat="45.98283" lon="4.80427">
        <ele>223</ele>
        <time>2017-05-10T08:44:58Z</time>
      </trkpt>
      <trkpt lat="45.98282" lon="4.80435">
        <ele>223</ele>
        <time>2017-05-10T08:44:59Z</time>
      </trkpt>
      <trkpt lat="45.98279" lon="4.80444">
        <ele>223</ele>
        <time>2017-05-10T08:45:00Z</time>
      </trkpt>
      <trkpt lat="45.98276" lon="4.80453">
        <ele>223</ele>
        <time>2017-05-10T08:45:01Z</time>
      </trkpt>
      <trkpt lat="45.98274" lon="4.80462">
        <ele>223</ele>
        <time>2017-05-10T08:45:02Z</time>
      </trkpt>
      <trkpt lat="45.98272" lon="4.8047">
        <ele>223</ele>
        <time>2017-05-10T08:45:03Z</time>
      </trkpt>
      <trkpt lat="45.98271" lon="4.80478">
        <ele>223</ele>
        <time>2017-05-10T08:45:04Z</time>
      </trkpt>
      <trkpt lat="45.98269" lon="4.80486">
        <ele>223</ele>
        <time>2017-05-10T08:45:05Z</time>
      </trkpt>
      <trkpt lat="45.98267" lon="4.80494">
        <ele>223</ele>
        <time>2017-05-10T08:45:06Z</time>
      </trkpt>
      <trkpt lat="45.98265" lon="4.80501">
        <ele>223</ele>
        <time>2017-05-10T08:45:07Z</time>
      </trkpt>
      <trkpt lat="45.98264" lon="4.80508">
        <ele>223</ele>
        <time>2017-05-10T08:45:08Z</time>
      </trkpt>
      <trkpt lat="45.98262" lon="4.80515">
        <ele>223</ele>
        <time>2017-05-10T08:45:09Z</time>
      </trkpt>
      <trkpt lat="45.98262" lon="4.80522">
        <ele>223</ele>
        <time>2017-05-10T08:45:10Z</time>
      </trkpt>
      <trkpt lat="45.9826" lon="4.80531">
        <ele>224</ele>
        <time>2017-05-10T08:45:11Z</time>
      </trkpt>
      <trkpt lat="45.98258" lon="4.80537">
        <ele>224</ele>
        <time>2017-05-10T08:45:12Z</time>
      </trkpt>
      <trkpt lat="45.98256" lon="4.80545">
        <ele>224</ele>
        <time>2017-05-10T08:45:13Z</time>
      </trkpt>
      <trkpt lat="45.98254" lon="4.80552">
        <ele>224</ele>
        <time>2017-05-10T08:45:14Z</time>
      </trkpt>
      <trkpt lat="45.98252" lon="4.8056">
        <ele>224</ele>
        <time>2017-05-10T08:45:15Z</time>
      </trkpt>
      <trkpt lat="45.9825" lon="4.80567">
        <ele>224</ele>
        <time>2017-05-10T08:45:16Z</time>
      </trkpt>
      <trkpt lat="45.98248" lon="4.80574">
        <ele>224</ele>
        <time>2017-05-10T08:45:17Z</time>
      </trkpt>
      <trkpt lat="45.98245" lon="4.80581">
        <ele>224</ele>
        <time>2017-05-10T08:45:18Z</time>
      </trkpt>
      <trkpt lat="45.98243" lon="4.80588">
        <ele>224</ele>
        <time>2017-05-10T08:45:19Z</time>
      </trkpt>
      <trkpt lat="45.98241" lon="4.80596">
        <ele>224</ele>
        <time>2017-05-10T08:45:20Z</time>
      </trkpt>
      <trkpt lat="45.98239" lon="4.80603">
        <ele>224</ele>
        <time>2017-05-10T08:45:21Z</time>
      </trkpt>
      <trkpt lat="45.98237" lon="4.80611">
        <ele>224</ele>
        <time>2017-05-10T08:45:22Z</time>
      </trkpt>
      <trkpt lat="45.98235" lon="4.80618">
        <ele>224</ele>
        <time>2017-05-10T08:45:23Z</time>
      </trkpt>
      <trkpt lat="45.98233" lon="4.80624">
        <ele>224</ele>
        <time>2017-05-10T08:45:24Z</time>
      </trkpt>
      <trkpt lat="45.98231" lon="4.8063">
        <ele>224</ele>
        <time>2017-05-10T08:45:25Z</time>
      </trkpt>
      <trkpt lat="45.98228" lon="4.80636">
        <ele>224</ele>
        <time>2017-05-10T08:45:26Z</time>
      </trkpt>
      <trkpt lat="45.98226" lon="4.80642">
        <ele>224</ele>
        <time>2017-05-10T08:45:27Z</time>
      </trkpt>
      <trkpt lat="45.98223" lon="4.80649">
        <ele>224</ele>
        <time>2017-05-10T08:45:28Z</time>
      </trkpt>
      <trkpt lat="45.98221" lon="4.80655">
        <ele>224</ele>
        <time>2017-05-10T08:45:29Z</time>
      </trkpt>
      <trkpt lat="45.98218" lon="4.8066">
        <ele>224</ele>
        <time>2017-05-10T08:45:30Z</time>
      </trkpt>
      <trkpt lat="45.98215" lon="4.80665">
        <ele>224</ele>
        <time>2017-05-10T08:45:31Z</time>
      </trkpt>
      <trkpt lat="45.98208" lon="4.80672">
        <ele>224</ele>
        <time>2017-05-10T08:45:33Z</time>
      </trkpt>
      <trkpt lat="45.98204" lon="4.80675">
        <ele>224</ele>
        <time>2017-05-10T08:45:34Z</time>
      </trkpt>
      <trkpt lat="45.98197" lon="4.80679">
        <ele>225</ele>
        <time>2017-05-10T08:45:36Z</time>
      </trkpt>
      <trkpt lat="45.98193" lon="4.8068">
        <ele>225</ele>
        <time>2017-05-10T08:45:37Z</time>
      </trkpt>
      <trkpt lat="45.98188" lon="4.80682">
        <ele>225</ele>
        <time>2017-05-10T08:45:38Z</time>
      </trkpt>
      <trkpt lat="45.98184" lon="4.80682">
        <ele>225</ele>
        <time>2017-05-10T08:45:39Z</time>
      </trkpt>
      <trkpt lat="45.98178" lon="4.80683">
        <ele>225</ele>
        <time>2017-05-10T08:45:40Z</time>
      </trkpt>
      <trkpt lat="45.98174" lon="4.80684">
        <ele>225</ele>
        <time>2017-05-10T08:45:41Z</time>
      </trkpt>
      <trkpt lat="45.98165" lon="4.80686">
        <ele>227</ele>
        <time>2017-05-10T08:45:43Z</time>
      </trkpt>
      <trkpt lat="45.98161" lon="4.80686">
        <ele>227</ele>
        <time>2017-05-10T08:45:44Z</time>
      </trkpt>
      <trkpt lat="45.98153" lon="4.80687">
        <ele>227</ele>
        <time>2017-05-10T08:45:46Z</time>
      </trkpt>
      <trkpt lat="45.98149" lon="4.80688">
        <ele>228</ele>
        <time>2017-05-10T08:45:47Z</time>
      </trkpt>
      <trkpt lat="45.98141" lon="4.80688">
        <ele>228</ele>
        <time>2017-05-10T08:45:49Z</time>
      </trkpt>
      <trkpt lat="45.98136" lon="4.80688">
        <ele>228</ele>
        <time>2017-05-10T08:45:50Z</time>
      </trkpt>
      <trkpt lat="45.98128" lon="4.80687">
        <ele>228</ele>
        <time>2017-05-10T08:45:52Z</time>
      </trkpt>
      <trkpt lat="45.98124" lon="4.80687">
        <ele>228</ele>
        <time>2017-05-10T08:45:53Z</time>
      </trkpt>
      <trkpt lat="45.98116" lon="4.80687">
        <ele>228</ele>
        <time>2017-05-10T08:45:55Z</time>
      </trkpt>
      <trkpt lat="45.98113" lon="4.80687">
        <ele>228</ele>
        <time>2017-05-10T08:45:56Z</time>
      </trkpt>
      <trkpt lat="45.98106" lon="4.80688">
        <ele>228</ele>
        <time>2017-05-10T08:45:58Z</time>
      </trkpt>
      <trkpt lat="45.98102" lon="4.80688">
        <ele>228</ele>
        <time>2017-05-10T08:45:59Z</time>
      </trkpt>
      <trkpt lat="45.98096" lon="4.80688">
        <ele>228</ele>
        <time>2017-05-10T08:46:01Z</time>
      </trkpt>
      <trkpt lat="45.98092" lon="4.80689">
        <ele>228</ele>
        <time>2017-05-10T08:46:02Z</time>
      </trkpt>
      <trkpt lat="45.98085" lon="4.80689">
        <ele>228</ele>
        <time>2017-05-10T08:46:04Z</time>
      </trkpt>
      <trkpt lat="45.98081" lon="4.80689">
        <ele>229</ele>
        <time>2017-05-10T08:46:05Z</time>
      </trkpt>
      <trkpt lat="45.98075" lon="4.80688">
        <ele>230</ele>
        <time>2017-05-10T08:46:07Z</time>
      </trkpt>
      <trkpt lat="45.98071" lon="4.80689">
        <ele>230</ele>
        <time>2017-05-10T08:46:08Z</time>
      </trkpt>
      <trkpt lat="45.98065" lon="4.80691">
        <ele>230</ele>
        <time>2017-05-10T08:46:10Z</time>
      </trkpt>
      <trkpt lat="45.98062" lon="4.80692">
        <ele>230</ele>
        <time>2017-05-10T08:46:11Z</time>
      </trkpt>
      <trkpt lat="45.98055" lon="4.80693">
        <ele>230</ele>
        <time>2017-05-10T08:46:13Z</time>
      </trkpt>
      <trkpt lat="45.98052" lon="4.80695">
        <ele>230</ele>
        <time>2017-05-10T08:46:14Z</time>
      </trkpt>
      <trkpt lat="45.98045" lon="4.80696">
        <ele>230</ele>
        <time>2017-05-10T08:46:16Z</time>
      </trkpt>
      <trkpt lat="45.98042" lon="4.80697">
        <ele>230</ele>
        <time>2017-05-10T08:46:17Z</time>
      </trkpt>
      <trkpt lat="45.98033" lon="4.80702">
        <ele>230</ele>
        <time>2017-05-10T08:46:20Z</time>
      </trkpt>
      <trkpt lat="45.98031" lon="4.80705">
        <ele>231</ele>
        <time>2017-05-10T08:46:21Z</time>
      </trkpt>
      <trkpt lat="45.9803" lon="4.80717">
        <ele>231</ele>
        <time>2017-05-10T08:46:24Z</time>
      </trkpt>
      <trkpt lat="45.9803" lon="4.80722">
        <ele>231</ele>
        <time>2017-05-10T08:46:25Z</time>
      </trkpt>
      <trkpt lat="45.98032" lon="4.80733">
        <ele>231</ele>
        <time>2017-05-10T08:46:28Z</time>
      </trkpt>
      <trkpt lat="45.98032" lon="4.80737">
        <ele>231</ele>
        <time>2017-05-10T08:46:29Z</time>
      </trkpt>
      <trkpt lat="45.98034" lon="4.80748">
        <ele>231</ele>
        <time>2017-05-10T08:46:32Z</time>
      </trkpt>
      <trkpt lat="45.98035" lon="4.80752">
        <ele>233</ele>
        <time>2017-05-10T08:46:33Z</time>
      </trkpt>
      <trkpt lat="45.98039" lon="4.80764">
        <ele>233</ele>
        <time>2017-05-10T08:46:36Z</time>
      </trkpt>
      <trkpt lat="45.9804" lon="4.80768">
        <ele>233</ele>
        <time>2017-05-10T08:46:37Z</time>
      </trkpt>
      <trkpt lat="45.98042" lon="4.80779">
        <ele>233</ele>
        <time>2017-05-10T08:46:40Z</time>
      </trkpt>
      <trkpt lat="45.98042" lon="4.80782">
        <ele>233</ele>
        <time>2017-05-10T08:46:41Z</time>
      </trkpt>
      <trkpt lat="45.98045" lon="4.80794">
        <ele>234</ele>
        <time>2017-05-10T08:46:44Z</time>
      </trkpt>
      <trkpt lat="45.98045" lon="4.80798">
        <ele>234</ele>
        <time>2017-05-10T08:46:45Z</time>
      </trkpt>
      <trkpt lat="45.98047" lon="4.8081">
        <ele>234</ele>
        <time>2017-05-10T08:46:48Z</time>
      </trkpt>
      <trkpt lat="45.98048" lon="4.80813">
        <ele>234</ele>
        <time>2017-05-10T08:46:49Z</time>
      </trkpt>
      <trkpt lat="45.9805" lon="4.80824">
        <ele>234</ele>
        <time>2017-05-10T08:46:52Z</time>
      </trkpt>
      <trkpt lat="45.98051" lon="4.80827">
        <ele>234</ele>
        <time>2017-05-10T08:46:53Z</time>
      </trkpt>
      <trkpt lat="45.98054" lon="4.80839">
        <ele>236</ele>
        <time>2017-05-10T08:46:56Z</time>
      </trkpt>
      <trkpt lat="45.98055" lon="4.80843">
        <ele>236</ele>
        <time>2017-05-10T08:46:57Z</time>
      </trkpt>
      <trkpt lat="45.98058" lon="4.80854">
        <ele>236</ele>
        <time>2017-05-10T08:47:00Z</time>
      </trkpt>
      <trkpt lat="45.98059" lon="4.80858">
        <ele>237</ele>
        <time>2017-05-10T08:47:01Z</time>
      </trkpt>
      <trkpt lat="45.98062" lon="4.80867">
        <ele>237</ele>
        <time>2017-05-10T08:47:04Z</time>
      </trkpt>
      <trkpt lat="45.98063" lon="4.80871">
        <ele>237</ele>
        <time>2017-05-10T08:47:05Z</time>
      </trkpt>
      <trkpt lat="45.98065" lon="4.80881">
        <ele>237</ele>
        <time>2017-05-10T08:47:08Z</time>
      </trkpt>
      <trkpt lat="45.98066" lon="4.80885">
        <ele>237</ele>
        <time>2017-05-10T08:47:09Z</time>
      </trkpt>
      <trkpt lat="45.98067" lon="4.80896">
        <ele>238</ele>
        <time>2017-05-10T08:47:12Z</time>
      </trkpt>
      <trkpt lat="45.98068" lon="4.80899">
        <ele>238</ele>
        <time>2017-05-10T08:47:13Z</time>
      </trkpt>
      <trkpt lat="45.98071" lon="4.80909">
        <ele>238</ele>
        <time>2017-05-10T08:47:16Z</time>
      </trkpt>
      <trkpt lat="45.98073" lon="4.80912">
        <ele>238</ele>
        <time>2017-05-10T08:47:17Z</time>
      </trkpt>
      <trkpt lat="45.98076" lon="4.80923">
        <ele>240</ele>
        <time>2017-05-10T08:47:20Z</time>
      </trkpt>
      <trkpt lat="45.98076" lon="4.80927">
        <ele>240</ele>
        <time>2017-05-10T08:47:21Z</time>
      </trkpt>
      <trkpt lat="45.98079" lon="4.80939">
        <ele>240</ele>
        <time>2017-05-10T08:47:24Z</time>
      </trkpt>
      <trkpt lat="45.9808" lon="4.80943">
        <ele>240</ele>
        <time>2017-05-10T08:47:25Z</time>
      </trkpt>
      <trkpt lat="45.98084" lon="4.80953">
        <ele>238</ele>
        <time>2017-05-10T08:47:28Z</time>
      </trkpt>
      <trkpt lat="45.98085" lon="4.80956">
        <ele>239</ele>
        <time>2017-05-10T08:47:29Z</time>
      </trkpt>
      <trkpt lat="45.98088" lon="4.80966">
        <ele>239</ele>
        <time>2017-05-10T08:47:32Z</time>
      </trkpt>
      <trkpt lat="45.98089" lon="4.8097">
        <ele>239</ele>
        <time>2017-05-10T08:47:33Z</time>
      </trkpt>
      <trkpt lat="45.98093" lon="4.80981">
        <ele>240</ele>
        <time>2017-05-10T08:47:36Z</time>
      </trkpt>
      <trkpt lat="45.98093" lon="4.80985">
        <ele>240</ele>
        <time>2017-05-10T08:47:37Z</time>
      </trkpt>
      <trkpt lat="45.98095" lon="4.80995">
        <ele>240</ele>
        <time>2017-05-10T08:47:40Z</time>
      </trkpt>
      <trkpt lat="45.98097" lon="4.80999">
        <ele>240</ele>
        <time>2017-05-10T08:47:41Z</time>
      </trkpt>
      <trkpt lat="45.98101" lon="4.81008">
        <ele>242</ele>
        <time>2017-05-10T08:47:43Z</time>
      </trkpt>
      <trkpt lat="45.98103" lon="4.81013">
        <ele>242</ele>
        <time>2017-05-10T08:47:44Z</time>
      </trkpt>
      <trkpt lat="45.98107" lon="4.81025">
        <ele>242</ele>
        <time>2017-05-10T08:47:46Z</time>
      </trkpt>
      <trkpt lat="45.98108" lon="4.8103">
        <ele>242</ele>
        <time>2017-05-10T08:47:47Z</time>
      </trkpt>
      <trkpt lat="45.98112" lon="4.8104">
        <ele>242</ele>
        <time>2017-05-10T08:47:49Z</time>
      </trkpt>
      <trkpt lat="45.98114" lon="4.81045">
        <ele>243</ele>
        <time>2017-05-10T08:47:50Z</time>
      </trkpt>
      <trkpt lat="45.98117" lon="4.81055">
        <ele>243</ele>
        <time>2017-05-10T08:47:52Z</time>
      </trkpt>
      <trkpt lat="45.98119" lon="4.8106">
        <ele>243</ele>
        <time>2017-05-10T08:47:53Z</time>
      </trkpt>
      <trkpt lat="45.98121" lon="4.81069">
        <ele>243</ele>
        <time>2017-05-10T08:47:55Z</time>
      </trkpt>
      <trkpt lat="45.98122" lon="4.81074">
        <ele>243</ele>
        <time>2017-05-10T08:47:56Z</time>
      </trkpt>
      <trkpt lat="45.98126" lon="4.81083">
        <ele>243</ele>
        <time>2017-05-10T08:47:58Z</time>
      </trkpt>
      <trkpt lat="45.98127" lon="4.81088">
        <ele>245</ele>
        <time>2017-05-10T08:47:59Z</time>
      </trkpt>
      <trkpt lat="45.9813" lon="4.81096">
        <ele>245</ele>
        <time>2017-05-10T08:48:01Z</time>
      </trkpt>
      <trkpt lat="45.98132" lon="4.81101">
        <ele>245</ele>
        <time>2017-05-10T08:48:02Z</time>
      </trkpt>
      <trkpt lat="45.98134" lon="4.8111">
        <ele>245</ele>
        <time>2017-05-10T08:48:04Z</time>
      </trkpt>
      <trkpt lat="45.98136" lon="4.81115">
        <ele>245</ele>
        <time>2017-05-10T08:48:05Z</time>
      </trkpt>
      <trkpt lat="45.98139" lon="4.81124">
        <ele>245</ele>
        <time>2017-05-10T08:48:07Z</time>
      </trkpt>
      <trkpt lat="45.98141" lon="4.81128">
        <ele>245</ele>
        <time>2017-05-10T08:48:08Z</time>
      </trkpt>
      <trkpt lat="45.98145" lon="4.81139">
        <ele>245</ele>
        <time>2017-05-10T08:48:10Z</time>
      </trkpt>
      <trkpt lat="45.98147" lon="4.81145">
        <ele>245</ele>
        <time>2017-05-10T08:48:11Z</time>
      </trkpt>
      <trkpt lat="45.98151" lon="4.81155">
        <ele>245</ele>
        <time>2017-05-10T08:48:13Z</time>
      </trkpt>
      <trkpt lat="45.98152" lon="4.81159">
        <ele>245</ele>
        <time>2017-05-10T08:48:14Z</time>
      </trkpt>
      <trkpt lat="45.98156" lon="4.81168">
        <ele>246</ele>
        <time>2017-05-10T08:48:16Z</time>
      </trkpt>
      <trkpt lat="45.98157" lon="4.81173">
        <ele>246</ele>
        <time>2017-05-10T08:48:17Z</time>
      </trkpt>
      <trkpt lat="45.98159" lon="4.81185">
        <ele>246</ele>
        <time>2017-05-10T08:48:19Z</time>
      </trkpt>
      <trkpt lat="45.9816" lon="4.81191">
        <ele>246</ele>
        <time>2017-05-10T08:48:20Z</time>
      </trkpt>
      <trkpt lat="45.98163" lon="4.81202">
        <ele>246</ele>
        <time>2017-05-10T08:48:22Z</time>
      </trkpt>
      <trkpt lat="45.98163" lon="4.81208">
        <ele>247</ele>
        <time>2017-05-10T08:48:23Z</time>
      </trkpt>
      <trkpt lat="45.98166" lon="4.8122">
        <ele>247</ele>
        <time>2017-05-10T08:48:25Z</time>
      </trkpt>
      <trkpt lat="45.98167" lon="4.81226">
        <ele>247</ele>
        <time>2017-05-10T08:48:26Z</time>
      </trkpt>
      <trkpt lat="45.98169" lon="4.81238">
        <ele>247</ele>
        <time>2017-05-10T08:48:28Z</time>
      </trkpt>
      <trkpt lat="45.98169" lon="4.81243">
        <ele>247</ele>
        <time>2017-05-10T08:48:29Z</time>
      </trkpt>
      <trkpt lat="45.98172" lon="4.81254">
        <ele>248</ele>
        <time>2017-05-10T08:48:31Z</time>
      </trkpt>
      <trkpt lat="45.98173" lon="4.81259">
        <ele>247</ele>
        <time>2017-05-10T08:48:32Z</time>
      </trkpt>
      <trkpt lat="45.98176" lon="4.81269">
        <ele>247</ele>
        <time>2017-05-10T08:48:34Z</time>
      </trkpt>
      <trkpt lat="45.98175" lon="4.81274">
        <ele>247</ele>
        <time>2017-05-10T08:48:35Z</time>
      </trkpt>
      <trkpt lat="45.98176" lon="4.81284">
        <ele>247</ele>
        <time>2017-05-10T08:48:37Z</time>
      </trkpt>
      <trkpt lat="45.98177" lon="4.81289">
        <ele>247</ele>
        <time>2017-05-10T08:48:38Z</time>
      </trkpt>
      <trkpt lat="45.98179" lon="4.81298">
        <ele>247</ele>
        <time>2017-05-10T08:48:40Z</time>
      </trkpt>
      <trkpt lat="45.98181" lon="4.81303">
        <ele>247</ele>
        <time>2017-05-10T08:48:41Z</time>
      </trkpt>
      <trkpt lat="45.98182" lon="4.81313">
        <ele>247</ele>
        <time>2017-05-10T08:48:43Z</time>
      </trkpt>
      <trkpt lat="45.98184" lon="4.81319">
        <ele>247</ele>
        <time>2017-05-10T08:48:44Z</time>
      </trkpt>
      <trkpt lat="45.98187" lon="4.8133">
        <ele>247</ele>
        <time>2017-05-10T08:48:46Z</time>
      </trkpt>
      <trkpt lat="45.98188" lon="4.81335">
        <ele>248</ele>
        <time>2017-05-10T08:48:47Z</time>
      </trkpt>
      <trkpt lat="45.98191" lon="4.81347">
        <ele>248</ele>
        <time>2017-05-10T08:48:49Z</time>
      </trkpt>
      <trkpt lat="45.98191" lon="4.81353">
        <ele>248</ele>
        <time>2017-05-10T08:48:50Z</time>
      </trkpt>
      <trkpt lat="45.98193" lon="4.81364">
        <ele>248</ele>
        <time>2017-05-10T08:48:52Z</time>
      </trkpt>
      <trkpt lat="45.98194" lon="4.81369">
        <ele>248</ele>
        <time>2017-05-10T08:48:53Z</time>
      </trkpt>
      <trkpt lat="45.98196" lon="4.81379">
        <ele>248</ele>
        <time>2017-05-10T08:48:55Z</time>
      </trkpt>
      <trkpt lat="45.98198" lon="4.81385">
        <ele>248</ele>
        <time>2017-05-10T08:48:56Z</time>
      </trkpt>
      <trkpt lat="45.982" lon="4.81395">
        <ele>248</ele>
        <time>2017-05-10T08:48:58Z</time>
      </trkpt>
      <trkpt lat="45.98202" lon="4.814">
        <ele>248</ele>
        <time>2017-05-10T08:48:59Z</time>
      </trkpt>
      <trkpt lat="45.98206" lon="4.81411">
        <ele>248</ele>
        <time>2017-05-10T08:49:01Z</time>
      </trkpt>
      <trkpt lat="45.98207" lon="4.81416">
        <ele>248</ele>
        <time>2017-05-10T08:49:02Z</time>
      </trkpt>
      <trkpt lat="45.98211" lon="4.81427">
        <ele>249</ele>
        <time>2017-05-10T08:49:04Z</time>
      </trkpt>
      <trkpt lat="45.98213" lon="4.81432">
        <ele>249</ele>
        <time>2017-05-10T08:49:05Z</time>
      </trkpt>
      <trkpt lat="45.98216" lon="4.81442">
        <ele>249</ele>
        <time>2017-05-10T08:49:07Z</time>
      </trkpt>
      <trkpt lat="45.98218" lon="4.81447">
        <ele>249</ele>
        <time>2017-05-10T08:49:08Z</time>
      </trkpt>
      <trkpt lat="45.98221" lon="4.81457">
        <ele>249</ele>
        <time>2017-05-10T08:49:10Z</time>
      </trkpt>
      <trkpt lat="45.98223" lon="4.81463">
        <ele>249</ele>
        <time>2017-05-10T08:49:11Z</time>
      </trkpt>
      <trkpt lat="45.98226" lon="4.81474">
        <ele>249</ele>
        <time>2017-05-10T08:49:13Z</time>
      </trkpt>
      <trkpt lat="45.98228" lon="4.81479">
        <ele>249</ele>
        <time>2017-05-10T08:49:14Z</time>
      </trkpt>
      <trkpt lat="45.98231" lon="4.8149">
        <ele>249</ele>
        <time>2017-05-10T08:49:16Z</time>
      </trkpt>
      <trkpt lat="45.98233" lon="4.81496">
        <ele>249</ele>
        <time>2017-05-10T08:49:17Z</time>
      </trkpt>
      <trkpt lat="45.98237" lon="4.81507">
        <ele>249</ele>
        <time>2017-05-10T08:49:19Z</time>
      </trkpt>
      <trkpt lat="45.98239" lon="4.81513">
        <ele>249</ele>
        <time>2017-05-10T08:49:20Z</time>
      </trkpt>
      <trkpt lat="45.98241" lon="4.81519">
        <ele>249</ele>
        <time>2017-05-10T08:49:21Z</time>
      </trkpt>
      <trkpt lat="45.98243" lon="4.81525">
        <ele>249</ele>
        <time>2017-05-10T08:49:22Z</time>
      </trkpt>
      <trkpt lat="45.98245" lon="4.81531">
        <ele>249</ele>
        <time>2017-05-10T08:49:23Z</time>
      </trkpt>
      <trkpt lat="45.98248" lon="4.81536">
        <ele>249</ele>
        <time>2017-05-10T08:49:24Z</time>
      </trkpt>
      <trkpt lat="45.98251" lon="4.81541">
        <ele>247</ele>
        <time>2017-05-10T08:49:25Z</time>
      </trkpt>
      <trkpt lat="45.98253" lon="4.81547">
        <ele>247</ele>
        <time>2017-05-10T08:49:26Z</time>
      </trkpt>
      <trkpt lat="45.98254" lon="4.81553">
        <ele>247</ele>
        <time>2017-05-10T08:49:27Z</time>
      </trkpt>
      <trkpt lat="45.98255" lon="4.8156">
        <ele>247</ele>
        <time>2017-05-10T08:49:28Z</time>
      </trkpt>
      <trkpt lat="45.98257" lon="4.81566">
        <ele>247</ele>
        <time>2017-05-10T08:49:29Z</time>
      </trkpt>
      <trkpt lat="45.98259" lon="4.81573">
        <ele>247</ele>
        <time>2017-05-10T08:49:30Z</time>
      </trkpt>
      <trkpt lat="45.98261" lon="4.81579">
        <ele>247</ele>
        <time>2017-05-10T08:49:31Z</time>
      </trkpt>
      <trkpt lat="45.98263" lon="4.81586">
        <ele>247</ele>
        <time>2017-05-10T08:49:32Z</time>
      </trkpt>
      <trkpt lat="45.98265" lon="4.81593">
        <ele>247</ele>
        <time>2017-05-10T08:49:33Z</time>
      </trkpt>
      <trkpt lat="45.98268" lon="4.81599">
        <ele>247</ele>
        <time>2017-05-10T08:49:34Z</time>
      </trkpt>
      <trkpt lat="45.9827" lon="4.81605">
        <ele>247</ele>
        <time>2017-05-10T08:49:35Z</time>
      </trkpt>
      <trkpt lat="45.98273" lon="4.81611">
        <ele>247</ele>
        <time>2017-05-10T08:49:36Z</time>
      </trkpt>
      <trkpt lat="45.98276" lon="4.81617">
        <ele>247</ele>
        <time>2017-05-10T08:49:37Z</time>
      </trkpt>
      <trkpt lat="45.98279" lon="4.81622">
        <ele>247</ele>
        <time>2017-05-10T08:49:38Z</time>
      </trkpt>
      <trkpt lat="45.98282" lon="4.81627">
        <ele>247</ele>
        <time>2017-05-10T08:49:39Z</time>
      </trkpt>
      <trkpt lat="45.98286" lon="4.81632">
        <ele>247</ele>
        <time>2017-05-10T08:49:40Z</time>
      </trkpt>
      <trkpt lat="45.98289" lon="4.81637">
        <ele>247</ele>
        <time>2017-05-10T08:49:41Z</time>
      </trkpt>
      <trkpt lat="45.98293" lon="4.81641">
        <ele>247</ele>
        <time>2017-05-10T08:49:42Z</time>
      </trkpt>
      <trkpt lat="45.98297" lon="4.81645">
        <ele>247</ele>
        <time>2017-05-10T08:49:43Z</time>
      </trkpt>
      <trkpt lat="45.98301" lon="4.81649">
        <ele>247</ele>
        <time>2017-05-10T08:49:44Z</time>
      </trkpt>
      <trkpt lat="45.98305" lon="4.81653">
        <ele>246</ele>
        <time>2017-05-10T08:49:45Z</time>
      </trkpt>
      <trkpt lat="45.98309" lon="4.81658">
        <ele>246</ele>
        <time>2017-05-10T08:49:46Z</time>
      </trkpt>
      <trkpt lat="45.98314" lon="4.81661">
        <ele>246</ele>
        <time>2017-05-10T08:49:47Z</time>
      </trkpt>
      <trkpt lat="45.98319" lon="4.81665">
        <ele>246</ele>
        <time>2017-05-10T08:49:48Z</time>
      </trkpt>
      <trkpt lat="45.98323" lon="4.81668">
        <ele>246</ele>
        <time>2017-05-10T08:49:49Z</time>
      </trkpt>
      <trkpt lat="45.98329" lon="4.81671">
        <ele>246</ele>
        <time>2017-05-10T08:49:50Z</time>
      </trkpt>
      <trkpt lat="45.98334" lon="4.81674">
        <ele>246</ele>
        <time>2017-05-10T08:49:51Z</time>
      </trkpt>
      <trkpt lat="45.98339" lon="4.81676">
        <ele>245</ele>
        <time>2017-05-10T08:49:52Z</time>
      </trkpt>
      <trkpt lat="45.98345" lon="4.81677">
        <ele>245</ele>
        <time>2017-05-10T08:49:53Z</time>
      </trkpt>
      <trkpt lat="45.9835" lon="4.81679">
        <ele>245</ele>
        <time>2017-05-10T08:49:54Z</time>
      </trkpt>
      <trkpt lat="45.98355" lon="4.81679">
        <ele>245</ele>
        <time>2017-05-10T08:49:55Z</time>
      </trkpt>
      <trkpt lat="45.9836" lon="4.81679">
        <ele>244</ele>
        <time>2017-05-10T08:49:56Z</time>
      </trkpt>
      <trkpt lat="45.98366" lon="4.81679">
        <ele>244</ele>
        <time>2017-05-10T08:49:57Z</time>
      </trkpt>
      <trkpt lat="45.98371" lon="4.81678">
        <ele>244</ele>
        <time>2017-05-10T08:49:58Z</time>
      </trkpt>
      <trkpt lat="45.98376" lon="4.81677">
        <ele>244</ele>
        <time>2017-05-10T08:49:59Z</time>
      </trkpt>
      <trkpt lat="45.98382" lon="4.81676">
        <ele>244</ele>
        <time>2017-05-10T08:50:00Z</time>
      </trkpt>
      <trkpt lat="45.98387" lon="4.81674">
        <ele>243</ele>
        <time>2017-05-10T08:50:01Z</time>
      </trkpt>
      <trkpt lat="45.98392" lon="4.81672">
        <ele>243</ele>
        <time>2017-05-10T08:50:02Z</time>
      </trkpt>
      <trkpt lat="45.98398" lon="4.8167">
        <ele>243</ele>
        <time>2017-05-10T08:50:03Z</time>
      </trkpt>
      <trkpt lat="45.98403" lon="4.81669">
        <ele>242</ele>
        <time>2017-05-10T08:50:04Z</time>
      </trkpt>
      <trkpt lat="45.98408" lon="4.81669">
        <ele>242</ele>
        <time>2017-05-10T08:50:05Z</time>
      </trkpt>
      <trkpt lat="45.98413" lon="4.81669">
        <ele>241</ele>
        <time>2017-05-10T08:50:06Z</time>
      </trkpt>
      <trkpt lat="45.98418" lon="4.81669">
        <ele>241</ele>
        <time>2017-05-10T08:50:07Z</time>
      </trkpt>
      <trkpt lat="45.98423" lon="4.81671">
        <ele>240</ele>
        <time>2017-05-10T08:50:08Z</time>
      </trkpt>
      <trkpt lat="45.98428" lon="4.81673">
        <ele>240</ele>
        <time>2017-05-10T08:50:09Z</time>
      </trkpt>
      <trkpt lat="45.98433" lon="4.81677">
        <ele>240</ele>
        <time>2017-05-10T08:50:10Z</time>
      </trkpt>
      <trkpt lat="45.98437" lon="4.81682">
        <ele>240</ele>
        <time>2017-05-10T08:50:11Z</time>
      </trkpt>
      <trkpt lat="45.98441" lon="4.81687">
        <ele>239</ele>
        <time>2017-05-10T08:50:12Z</time>
      </trkpt>
      <trkpt lat="45.98444" lon="4.81693">
        <ele>239</ele>
        <time>2017-05-10T08:50:13Z</time>
      </trkpt>
      <trkpt lat="45.98448" lon="4.81698">
        <ele>239</ele>
        <time>2017-05-10T08:50:14Z</time>
      </trkpt>
      <trkpt lat="45.98451" lon="4.81705">
        <ele>239</ele>
        <time>2017-05-10T08:50:15Z</time>
      </trkpt>
      <trkpt lat="45.98455" lon="4.81711">
        <ele>239</ele>
        <time>2017-05-10T08:50:16Z</time>
      </trkpt>
      <trkpt lat="45.98459" lon="4.81717">
        <ele>239</ele>
        <time>2017-05-10T08:50:17Z</time>
      </trkpt>
      <trkpt lat="45.98463" lon="4.81724">
        <ele>239</ele>
        <time>2017-05-10T08:50:18Z</time>
      </trkpt>
      <trkpt lat="45.98468" lon="4.8173">
        <ele>239</ele>
        <time>2017-05-10T08:50:19Z</time>
      </trkpt>
      <trkpt lat="45.98473" lon="4.81736">
        <ele>239</ele>
        <time>2017-05-10T08:50:20Z</time>
      </trkpt>
      <trkpt lat="45.98479" lon="4.81742">
        <ele>238</ele>
        <time>2017-05-10T08:50:21Z</time>
      </trkpt>
      <trkpt lat="45.98486" lon="4.81749">
        <ele>238</ele>
        <time>2017-05-10T08:50:22Z</time>
      </trkpt>
      <trkpt lat="45.98492" lon="4.81755">
        <ele>238</ele>
        <time>2017-05-10T08:50:23Z</time>
      </trkpt>
      <trkpt lat="45.98499" lon="4.81762">
        <ele>238</ele>
        <time>2017-05-10T08:50:24Z</time>
      </trkpt>
      <trkpt lat="45.98506" lon="4.81769">
        <ele>237</ele>
        <time>2017-05-10T08:50:25Z</time>
      </trkpt>
      <trkpt lat="45.98512" lon="4.81778">
        <ele>238</ele>
        <time>2017-05-10T08:50:26Z</time>
      </trkpt>
      <trkpt lat="45.98518" lon="4.81787">
        <ele>238</ele>
        <time>2017-05-10T08:50:27Z</time>
      </trkpt>
      <trkpt lat="45.98524" lon="4.81795">
        <ele>238</ele>
        <time>2017-05-10T08:50:28Z</time>
      </trkpt>
      <trkpt lat="45.9853" lon="4.81802">
        <ele>238</ele>
        <time>2017-05-10T08:50:29Z</time>
      </trkpt>
      <trkpt lat="45.98535" lon="4.81808">
        <ele>238</ele>
        <time>2017-05-10T08:50:30Z</time>
      </trkpt>
      <trkpt lat="45.98541" lon="4.81812">
        <ele>238</ele>
        <time>2017-05-10T08:50:31Z</time>
      </trkpt>
      <trkpt lat="45.98548" lon="4.81812">
        <ele>238</ele>
        <time>2017-05-10T08:50:32Z</time>
      </trkpt>
      <trkpt lat="45.98554" lon="4.8181">
        <ele>238</ele>
        <time>2017-05-10T08:50:33Z</time>
      </trkpt>
      <trkpt lat="45.98559" lon="4.81806">
        <ele>238</ele>
        <time>2017-05-10T08:50:34Z</time>
      </trkpt>
      <trkpt lat="45.98563" lon="4.81801">
        <ele>238</ele>
        <time>2017-05-10T08:50:35Z</time>
      </trkpt>
      <trkpt lat="45.98567" lon="4.81795">
        <ele>238</ele>
        <time>2017-05-10T08:50:36Z</time>
      </trkpt>
      <trkpt lat="45.98572" lon="4.81789">
        <ele>238</ele>
        <time>2017-05-10T08:50:37Z</time>
      </trkpt>
      <trkpt lat="45.98576" lon="4.81784">
        <ele>238</ele>
        <time>2017-05-10T08:50:38Z</time>
      </trkpt>
      <trkpt lat="45.98581" lon="4.81779">
        <ele>238</ele>
        <time>2017-05-10T08:50:39Z</time>
      </trkpt>
      <trkpt lat="45.98586" lon="4.81775">
        <ele>238</ele>
        <time>2017-05-10T08:50:40Z</time>
      </trkpt>
      <trkpt lat="45.98591" lon="4.81771">
        <ele>238</ele>
        <time>2017-05-10T08:50:41Z</time>
      </trkpt>
      <trkpt lat="45.98597" lon="4.81769">
        <ele>238</ele>
        <time>2017-05-10T08:50:42Z</time>
      </trkpt>
      <trkpt lat="45.98602" lon="4.81767">
        <ele>238</ele>
        <time>2017-05-10T08:50:43Z</time>
      </trkpt>
      <trkpt lat="45.98607" lon="4.81765">
        <ele>238</ele>
        <time>2017-05-10T08:50:44Z</time>
      </trkpt>
      <trkpt lat="45.98613" lon="4.81763">
        <ele>238</ele>
        <time>2017-05-10T08:50:45Z</time>
      </trkpt>
      <trkpt lat="45.98619" lon="4.81761">
        <ele>238</ele>
        <time>2017-05-10T08:50:46Z</time>
      </trkpt>
      <trkpt lat="45.98625" lon="4.81759">
        <ele>238</ele>
        <time>2017-05-10T08:50:47Z</time>
      </trkpt>
      <trkpt lat="45.98631" lon="4.81757">
        <ele>238</ele>
        <time>2017-05-10T08:50:48Z</time>
      </trkpt>
      <trkpt lat="45.98637" lon="4.81756">
        <ele>238</ele>
        <time>2017-05-10T08:50:49Z</time>
      </trkpt>
      <trkpt lat="45.98643" lon="4.81753">
        <ele>238</ele>
        <time>2017-05-10T08:50:50Z</time>
      </trkpt>
      <trkpt lat="45.98649" lon="4.81752">
        <ele>238</ele>
        <time>2017-05-10T08:50:51Z</time>
      </trkpt>
      <trkpt lat="45.98655" lon="4.8175">
        <ele>238</ele>
        <time>2017-05-10T08:50:52Z</time>
      </trkpt>
      <trkpt lat="45.9866" lon="4.81749">
        <ele>238</ele>
        <time>2017-05-10T08:50:53Z</time>
      </trkpt>
      <trkpt lat="45.98665" lon="4.81749">
        <ele>238</ele>
        <time>2017-05-10T08:50:54Z</time>
      </trkpt>
      <trkpt lat="45.9867" lon="4.81748">
        <ele>238</ele>
        <time>2017-05-10T08:50:55Z</time>
      </trkpt>
      <trkpt lat="45.98675" lon="4.81745">
        <ele>238</ele>
        <time>2017-05-10T08:50:56Z</time>
      </trkpt>
      <trkpt lat="45.9868" lon="4.81743">
        <ele>238</ele>
        <time>2017-05-10T08:50:57Z</time>
      </trkpt>
      <trkpt lat="45.98685" lon="4.8174">
        <ele>238</ele>
        <time>2017-05-10T08:50:58Z</time>
      </trkpt>
      <trkpt lat="45.9869" lon="4.81739">
        <ele>238</ele>
        <time>2017-05-10T08:50:59Z</time>
      </trkpt>
      <trkpt lat="45.98694" lon="4.81738">
        <ele>238</ele>
        <time>2017-05-10T08:51:00Z</time>
      </trkpt>
      <trkpt lat="45.98699" lon="4.81737">
        <ele>239</ele>
        <time>2017-05-10T08:51:01Z</time>
      </trkpt>
      <trkpt lat="45.98704" lon="4.81735">
        <ele>239</ele>
        <time>2017-05-10T08:51:02Z</time>
      </trkpt>
      <trkpt lat="45.98709" lon="4.81734">
        <ele>239</ele>
        <time>2017-05-10T08:51:03Z</time>
      </trkpt>
      <trkpt lat="45.98714" lon="4.81733">
        <ele>239</ele>
        <time>2017-05-10T08:51:04Z</time>
      </trkpt>
      <trkpt lat="45.98722" lon="4.81735">
        <ele>239</ele>
        <time>2017-05-10T08:51:06Z</time>
      </trkpt>
      <trkpt lat="45.98726" lon="4.81738">
        <ele>239</ele>
        <time>2017-05-10T08:51:07Z</time>
      </trkpt>
      <trkpt lat="45.98729" lon="4.81742">
        <ele>240</ele>
        <time>2017-05-10T08:51:08Z</time>
      </trkpt>
      <trkpt lat="45.98732" lon="4.81748">
        <ele>240</ele>
        <time>2017-05-10T08:51:09Z</time>
      </trkpt>
      <trkpt lat="45.98735" lon="4.81754">
        <ele>240</ele>
        <time>2017-05-10T08:51:10Z</time>
      </trkpt>
      <trkpt lat="45.98738" lon="4.8176">
        <ele>240</ele>
        <time>2017-05-10T08:51:11Z</time>
      </trkpt>
      <trkpt lat="45.98741" lon="4.81766">
        <ele>240</ele>
        <time>2017-05-10T08:51:12Z</time>
      </trkpt>
      <trkpt lat="45.98744" lon="4.81773">
        <ele>240</ele>
        <time>2017-05-10T08:51:13Z</time>
      </trkpt>
      <trkpt lat="45.98747" lon="4.8178">
        <ele>240</ele>
        <time>2017-05-10T08:51:14Z</time>
      </trkpt>
      <trkpt lat="45.9875" lon="4.81787">
        <ele>241</ele>
        <time>2017-05-10T08:51:15Z</time>
      </trkpt>
      <trkpt lat="45.98754" lon="4.81794">
        <ele>240</ele>
        <time>2017-05-10T08:51:16Z</time>
      </trkpt>
      <trkpt lat="45.98758" lon="4.81801">
        <ele>240</ele>
        <time>2017-05-10T08:51:17Z</time>
      </trkpt>
      <trkpt lat="45.98761" lon="4.81808">
        <ele>240</ele>
        <time>2017-05-10T08:51:18Z</time>
      </trkpt>
      <trkpt lat="45.98764" lon="4.81817">
        <ele>240</ele>
        <time>2017-05-10T08:51:19Z</time>
      </trkpt>
      <trkpt lat="45.98768" lon="4.81824">
        <ele>240</ele>
        <time>2017-05-10T08:51:20Z</time>
      </trkpt>
      <trkpt lat="45.98772" lon="4.81832">
        <ele>240</ele>
        <time>2017-05-10T08:51:21Z</time>
      </trkpt>
      <trkpt lat="45.98775" lon="4.8184">
        <ele>239</ele>
        <time>2017-05-10T08:51:22Z</time>
      </trkpt>
      <trkpt lat="45.98779" lon="4.81848">
        <ele>239</ele>
        <time>2017-05-10T08:51:23Z</time>
      </trkpt>
      <trkpt lat="45.98782" lon="4.81856">
        <ele>239</ele>
        <time>2017-05-10T08:51:24Z</time>
      </trkpt>
      <trkpt lat="45.98786" lon="4.81864">
        <ele>239</ele>
        <time>2017-05-10T08:51:25Z</time>
      </trkpt>
      <trkpt lat="45.98789" lon="4.81873">
        <ele>239</ele>
        <time>2017-05-10T08:51:26Z</time>
      </trkpt>
      <trkpt lat="45.98792" lon="4.81882">
        <ele>239</ele>
        <time>2017-05-10T08:51:27Z</time>
      </trkpt>
      <trkpt lat="45.98794" lon="4.81891">
        <ele>239</ele>
        <time>2017-05-10T08:51:28Z</time>
      </trkpt>
      <trkpt lat="45.98796" lon="4.81901">
        <ele>239</ele>
        <time>2017-05-10T08:51:29Z</time>
      </trkpt>
      <trkpt lat="45.98798" lon="4.8191">
        <ele>239</ele>
        <time>2017-05-10T08:51:30Z</time>
      </trkpt>
      <trkpt lat="45.988" lon="4.81919">
        <ele>239</ele>
        <time>2017-05-10T08:51:31Z</time>
      </trkpt>
      <trkpt lat="45.98802" lon="4.81928">
        <ele>239</ele>
        <time>2017-05-10T08:51:32Z</time>
      </trkpt>
      <trkpt lat="45.98805" lon="4.81937">
        <ele>239</ele>
        <time>2017-05-10T08:51:33Z</time>
      </trkpt>
      <trkpt lat="45.98807" lon="4.81945">
        <ele>239</ele>
        <time>2017-05-10T08:51:34Z</time>
      </trkpt>
      <trkpt lat="45.98808" lon="4.81953">
        <ele>239</ele>
        <time>2017-05-10T08:51:35Z</time>
      </trkpt>
      <trkpt lat="45.98809" lon="4.81962">
        <ele>239</ele>
        <time>2017-05-10T08:51:36Z</time>
      </trkpt>
      <trkpt lat="45.98811" lon="4.8197">
        <ele>239</ele>
        <time>2017-05-10T08:51:37Z</time>
      </trkpt>
      <trkpt lat="45.98812" lon="4.81978">
        <ele>239</ele>
        <time>2017-05-10T08:51:38Z</time>
      </trkpt>
      <trkpt lat="45.98813" lon="4.81986">
        <ele>238</ele>
        <time>2017-05-10T08:51:39Z</time>
      </trkpt>
      <trkpt lat="45.98814" lon="4.81995">
        <ele>238</ele>
        <time>2017-05-10T08:51:40Z</time>
      </trkpt>
      <trkpt lat="45.98816" lon="4.82003">
        <ele>238</ele>
        <time>2017-05-10T08:51:41Z</time>
      </trkpt>
      <trkpt lat="45.98817" lon="4.82011">
        <ele>238</ele>
        <time>2017-05-10T08:51:42Z</time>
      </trkpt>
      <trkpt lat="45.98818" lon="4.82018">
        <ele>238</ele>
        <time>2017-05-10T08:51:43Z</time>
      </trkpt>
      <trkpt lat="45.98819" lon="4.82026">
        <ele>238</ele>
        <time>2017-05-10T08:51:44Z</time>
      </trkpt>
      <trkpt lat="45.9882" lon="4.82033">
        <ele>238</ele>
        <time>2017-05-10T08:51:45Z</time>
      </trkpt>
      <trkpt lat="45.98821" lon="4.82041">
        <ele>238</ele>
        <time>2017-05-10T08:51:46Z</time>
      </trkpt>
      <trkpt lat="45.98822" lon="4.82048">
        <ele>238</ele>
        <time>2017-05-10T08:51:47Z</time>
      </trkpt>
      <trkpt lat="45.98823" lon="4.82055">
        <ele>237</ele>
        <time>2017-05-10T08:51:48Z</time>
      </trkpt>
      <trkpt lat="45.98824" lon="4.82062">
        <ele>237</ele>
        <time>2017-05-10T08:51:49Z</time>
      </trkpt>
      <trkpt lat="45.98825" lon="4.82069">
        <ele>237</ele>
        <time>2017-05-10T08:51:50Z</time>
      </trkpt>
      <trkpt lat="45.98826" lon="4.82077">
        <ele>237</ele>
        <time>2017-05-10T08:51:51Z</time>
      </trkpt>
      <trkpt lat="45.98827" lon="4.82084">
        <ele>236</ele>
        <time>2017-05-10T08:51:52Z</time>
      </trkpt>
      <trkpt lat="45.98828" lon="4.82091">
        <ele>237</ele>
        <time>2017-05-10T08:51:53Z</time>
      </trkpt>
      <trkpt lat="45.98829" lon="4.82099">
        <ele>237</ele>
        <time>2017-05-10T08:51:54Z</time>
      </trkpt>
      <trkpt lat="45.9883" lon="4.82107">
        <ele>237</ele>
        <time>2017-05-10T08:51:55Z</time>
      </trkpt>
      <trkpt lat="45.98832" lon="4.82115">
        <ele>237</ele>
        <time>2017-05-10T08:51:56Z</time>
      </trkpt>
      <trkpt lat="45.98833" lon="4.82123">
        <ele>237</ele>
        <time>2017-05-10T08:51:57Z</time>
      </trkpt>
      <trkpt lat="45.98835" lon="4.8213">
        <ele>236</ele>
        <time>2017-05-10T08:51:58Z</time>
      </trkpt>
      <trkpt lat="45.98836" lon="4.82137">
        <ele>236</ele>
        <time>2017-05-10T08:51:59Z</time>
      </trkpt>
      <trkpt lat="45.98838" lon="4.82144">
        <ele>236</ele>
        <time>2017-05-10T08:52:00Z</time>
      </trkpt>
      <trkpt lat="45.98839" lon="4.82151">
        <ele>236</ele>
        <time>2017-05-10T08:52:01Z</time>
      </trkpt>
      <trkpt lat="45.98841" lon="4.82158">
        <ele>236</ele>
        <time>2017-05-10T08:52:02Z</time>
      </trkpt>
      <trkpt lat="45.98843" lon="4.82165">
        <ele>236</ele>
        <time>2017-05-10T08:52:03Z</time>
      </trkpt>
      <trkpt lat="45.98845" lon="4.82171">
        <ele>237</ele>
        <time>2017-05-10T08:52:04Z</time>
      </trkpt>
      <trkpt lat="45.98847" lon="4.82178">
        <ele>236</ele>
        <time>2017-05-10T08:52:05Z</time>
      </trkpt>
      <trkpt lat="45.98849" lon="4.82184">
        <ele>236</ele>
        <time>2017-05-10T08:52:06Z</time>
      </trkpt>
      <trkpt lat="45.98852" lon="4.82191">
        <ele>236</ele>
        <time>2017-05-10T08:52:07Z</time>
      </trkpt>
      <trkpt lat="45.98854" lon="4.82197">
        <ele>236</ele>
        <time>2017-05-10T08:52:08Z</time>
      </trkpt>
      <trkpt lat="45.98856" lon="4.82203">
        <ele>236</ele>
        <time>2017-05-10T08:52:09Z</time>
      </trkpt>
      <trkpt lat="45.98858" lon="4.82209">
        <ele>236</ele>
        <time>2017-05-10T08:52:10Z</time>
      </trkpt>
      <trkpt lat="45.98861" lon="4.82215">
        <ele>236</ele>
        <time>2017-05-10T08:52:11Z</time>
      </trkpt>
      <trkpt lat="45.98864" lon="4.82222">
        <ele>236</ele>
        <time>2017-05-10T08:52:12Z</time>
      </trkpt>
      <trkpt lat="45.98867" lon="4.82228">
        <ele>236</ele>
        <time>2017-05-10T08:52:13Z</time>
      </trkpt>
      <trkpt lat="45.9887" lon="4.82235">
        <ele>236</ele>
        <time>2017-05-10T08:52:14Z</time>
      </trkpt>
      <trkpt lat="45.98873" lon="4.82243">
        <ele>236</ele>
        <time>2017-05-10T08:52:15Z</time>
      </trkpt>
      <trkpt lat="45.98877" lon="4.8225">
        <ele>236</ele>
        <time>2017-05-10T08:52:16Z</time>
      </trkpt>
      <trkpt lat="45.98881" lon="4.82257">
        <ele>237</ele>
        <time>2017-05-10T08:52:17Z</time>
      </trkpt>
      <trkpt lat="45.98884" lon="4.82265">
        <ele>237</ele>
        <time>2017-05-10T08:52:18Z</time>
      </trkpt>
      <trkpt lat="45.98888" lon="4.82271">
        <ele>237</ele>
        <time>2017-05-10T08:52:19Z</time>
      </trkpt>
      <trkpt lat="45.98892" lon="4.82278">
        <ele>237</ele>
        <time>2017-05-10T08:52:20Z</time>
      </trkpt>
      <trkpt lat="45.98896" lon="4.82284">
        <ele>237</ele>
        <time>2017-05-10T08:52:21Z</time>
      </trkpt>
      <trkpt lat="45.98901" lon="4.82289">
        <ele>237</ele>
        <time>2017-05-10T08:52:22Z</time>
      </trkpt>
      <trkpt lat="45.98905" lon="4.82294">
        <ele>237</ele>
        <time>2017-05-10T08:52:23Z</time>
      </trkpt>
      <trkpt lat="45.9891" lon="4.82299">
        <ele>237</ele>
        <time>2017-05-10T08:52:24Z</time>
      </trkpt>
      <trkpt lat="45.98915" lon="4.82303">
        <ele>237</ele>
        <time>2017-05-10T08:52:25Z</time>
      </trkpt>
      <trkpt lat="45.9892" lon="4.82308">
        <ele>235</ele>
        <time>2017-05-10T08:52:26Z</time>
      </trkpt>
      <trkpt lat="45.98924" lon="4.82312">
        <ele>235</ele>
        <time>2017-05-10T08:52:27Z</time>
      </trkpt>
      <trkpt lat="45.98928" lon="4.82317">
        <ele>235</ele>
        <time>2017-05-10T08:52:28Z</time>
      </trkpt>
      <trkpt lat="45.98932" lon="4.82322">
        <ele>235</ele>
        <time>2017-05-10T08:52:29Z</time>
      </trkpt>
      <trkpt lat="45.98936" lon="4.82326">
        <ele>235</ele>
        <time>2017-05-10T08:52:30Z</time>
      </trkpt>
      <trkpt lat="45.9894" lon="4.82331">
        <ele>235</ele>
        <time>2017-05-10T08:52:31Z</time>
      </trkpt>
      <trkpt lat="45.98944" lon="4.82336">
        <ele>235</ele>
        <time>2017-05-10T08:52:32Z</time>
      </trkpt>
      <trkpt lat="45.98947" lon="4.82342">
        <ele>235</ele>
        <time>2017-05-10T08:52:33Z</time>
      </trkpt>
      <trkpt lat="45.98949" lon="4.82348">
        <ele>235</ele>
        <time>2017-05-10T08:52:34Z</time>
      </trkpt>
      <trkpt lat="45.98952" lon="4.82355">
        <ele>235</ele>
        <time>2017-05-10T08:52:35Z</time>
      </trkpt>
      <trkpt lat="45.98955" lon="4.82362">
        <ele>235</ele>
        <time>2017-05-10T08:52:36Z</time>
      </trkpt>
      <trkpt lat="45.98957" lon="4.82369">
        <ele>235</ele>
        <time>2017-05-10T08:52:37Z</time>
      </trkpt>
      <trkpt lat="45.9896" lon="4.82376">
        <ele>235</ele>
        <time>2017-05-10T08:52:38Z</time>
      </trkpt>
      <trkpt lat="45.98962" lon="4.82384">
        <ele>235</ele>
        <time>2017-05-10T08:52:39Z</time>
      </trkpt>
      <trkpt lat="45.98964" lon="4.82392">
        <ele>235</ele>
        <time>2017-05-10T08:52:40Z</time>
      </trkpt>
      <trkpt lat="45.98965" lon="4.824">
        <ele>235</ele>
        <time>2017-05-10T08:52:41Z</time>
      </trkpt>
      <trkpt lat="45.98967" lon="4.82408">
        <ele>235</ele>
        <time>2017-05-10T08:52:42Z</time>
      </trkpt>
      <trkpt lat="45.98969" lon="4.82416">
        <ele>235</ele>
        <time>2017-05-10T08:52:43Z</time>
      </trkpt>
      <trkpt lat="45.98971" lon="4.82423">
        <ele>236</ele>
        <time>2017-05-10T08:52:44Z</time>
      </trkpt>
      <trkpt lat="45.98973" lon="4.82431">
        <ele>236</ele>
        <time>2017-05-10T08:52:45Z</time>
      </trkpt>
      <trkpt lat="45.98975" lon="4.82438">
        <ele>236</ele>
        <time>2017-05-10T08:52:46Z</time>
      </trkpt>
      <trkpt lat="45.98976" lon="4.82445">
        <ele>236</ele>
        <time>2017-05-10T08:52:47Z</time>
      </trkpt>
      <trkpt lat="45.98978" lon="4.82452">
        <ele>236</ele>
        <time>2017-05-10T08:52:48Z</time>
      </trkpt>
      <trkpt lat="45.9898" lon="4.82459">
        <ele>236</ele>
        <time>2017-05-10T08:52:49Z</time>
      </trkpt>
      <trkpt lat="45.98982" lon="4.82466">
        <ele>236</ele>
        <time>2017-05-10T08:52:50Z</time>
      </trkpt>
      <trkpt lat="45.98983" lon="4.82472">
        <ele>236</ele>
        <time>2017-05-10T08:52:51Z</time>
      </trkpt>
      <trkpt lat="45.98985" lon="4.82479">
        <ele>236</ele>
        <time>2017-05-10T08:52:52Z</time>
      </trkpt>
      <trkpt lat="45.98987" lon="4.82486">
        <ele>236</ele>
        <time>2017-05-10T08:52:53Z</time>
      </trkpt>
      <trkpt lat="45.98989" lon="4.82493">
        <ele>236</ele>
        <time>2017-05-10T08:52:54Z</time>
      </trkpt>
      <trkpt lat="45.98992" lon="4.82501">
        <ele>236</ele>
        <time>2017-05-10T08:52:55Z</time>
      </trkpt>
      <trkpt lat="45.98994" lon="4.82508">
        <ele>236</ele>
        <time>2017-05-10T08:52:56Z</time>
      </trkpt>
      <trkpt lat="45.98998" lon="4.82515">
        <ele>236</ele>
        <time>2017-05-10T08:52:57Z</time>
      </trkpt>
      <trkpt lat="45.99001" lon="4.82522">
        <ele>235</ele>
        <time>2017-05-10T08:52:58Z</time>
      </trkpt>
      <trkpt lat="45.99005" lon="4.82529">
        <ele>235</ele>
        <time>2017-05-10T08:52:59Z</time>
      </trkpt>
      <trkpt lat="45.99009" lon="4.82536">
        <ele>235</ele>
        <time>2017-05-10T08:53:00Z</time>
      </trkpt>
      <trkpt lat="45.99013" lon="4.82542">
        <ele>235</ele>
        <time>2017-05-10T08:53:01Z</time>
      </trkpt>
      <trkpt lat="45.99018" lon="4.82547">
        <ele>235</ele>
        <time>2017-05-10T08:53:02Z</time>
      </trkpt>
      <trkpt lat="45.99022" lon="4.82552">
        <ele>235</ele>
        <time>2017-05-10T08:53:03Z</time>
      </trkpt>
      <trkpt lat="45.99027" lon="4.82557">
        <ele>235</ele>
        <time>2017-05-10T08:53:04Z</time>
      </trkpt>
      <trkpt lat="45.99032" lon="4.82562">
        <ele>235</ele>
        <time>2017-05-10T08:53:05Z</time>
      </trkpt>
      <trkpt lat="45.99037" lon="4.82565">
        <ele>235</ele>
        <time>2017-05-10T08:53:06Z</time>
      </trkpt>
      <trkpt lat="45.99043" lon="4.82567">
        <ele>235</ele>
        <time>2017-05-10T08:53:07Z</time>
      </trkpt>
      <trkpt lat="45.99049" lon="4.82569">
        <ele>235</ele>
        <time>2017-05-10T08:53:08Z</time>
      </trkpt>
      <trkpt lat="45.99054" lon="4.82571">
        <ele>235</ele>
        <time>2017-05-10T08:53:09Z</time>
      </trkpt>
      <trkpt lat="45.9906" lon="4.82573">
        <ele>235</ele>
        <time>2017-05-10T08:53:10Z</time>
      </trkpt>
      <trkpt lat="45.99065" lon="4.82575">
        <ele>235</ele>
        <time>2017-05-10T08:53:11Z</time>
      </trkpt>
      <trkpt lat="45.99072" lon="4.82583">
        <ele>235</ele>
        <time>2017-05-10T08:53:13Z</time>
      </trkpt>
      <trkpt lat="45.99073" lon="4.82588">
        <ele>235</ele>
        <time>2017-05-10T08:53:14Z</time>
      </trkpt>
      <trkpt lat="45.99071" lon="4.82597">
        <ele>235</ele>
        <time>2017-05-10T08:53:16Z</time>
      </trkpt>
      <trkpt lat="45.9907" lon="4.82601">
        <ele>235</ele>
        <time>2017-05-10T08:53:17Z</time>
      </trkpt>
      <trkpt lat="45.99065" lon="4.82609">
        <ele>236</ele>
        <time>2017-05-10T08:53:19Z</time>
      </trkpt>
      <trkpt lat="45.99063" lon="4.82613">
        <ele>236</ele>
        <time>2017-05-10T08:53:20Z</time>
      </trkpt>
      <trkpt lat="45.99059" lon="4.82623">
        <ele>236</ele>
        <time>2017-05-10T08:53:22Z</time>
      </trkpt>
      <trkpt lat="45.99057" lon="4.82628">
        <ele>236</ele>
        <time>2017-05-10T08:53:23Z</time>
      </trkpt>
      <trkpt lat="45.99052" lon="4.82637">
        <ele>236</ele>
        <time>2017-05-10T08:53:25Z</time>
      </trkpt>
      <trkpt lat="45.9905" lon="4.82641">
        <ele>236</ele>
        <time>2017-05-10T08:53:26Z</time>
      </trkpt>
      <trkpt lat="45.99046" lon="4.82652">
        <ele>236</ele>
        <time>2017-05-10T08:53:28Z</time>
      </trkpt>
      <trkpt lat="45.99043" lon="4.82657">
        <ele>236</ele>
        <time>2017-05-10T08:53:29Z</time>
      </trkpt>
      <trkpt lat="45.9904" lon="4.82666">
        <ele>236</ele>
        <time>2017-05-10T08:53:31Z</time>
      </trkpt>
      <trkpt lat="45.99038" lon="4.82671">
        <ele>238</ele>
        <time>2017-05-10T08:53:32Z</time>
      </trkpt>
      <trkpt lat="45.99036" lon="4.82678">
        <ele>238</ele>
        <time>2017-05-10T08:53:34Z</time>
      </trkpt>
      <trkpt lat="45.99034" lon="4.82682">
        <ele>238</ele>
        <time>2017-05-10T08:53:35Z</time>
      </trkpt>
      <trkpt lat="45.9903" lon="4.82693">
        <ele>238</ele>
        <time>2017-05-10T08:53:38Z</time>
      </trkpt>
      <trkpt lat="45.99028" lon="4.82696">
        <ele>238</ele>
        <time>2017-05-10T08:53:39Z</time>
      </trkpt>
      <trkpt lat="45.99023" lon="4.82707">
        <ele>238</ele>
        <time>2017-05-10T08:53:42Z</time>
      </trkpt>
      <trkpt lat="45.99021" lon="4.8271">
        <ele>238</ele>
        <time>2017-05-10T08:53:43Z</time>
      </trkpt>
      <trkpt lat="45.99016" lon="4.82721">
        <ele>239</ele>
        <time>2017-05-10T08:53:46Z</time>
      </trkpt>
      <trkpt lat="45.99014" lon="4.82724">
        <ele>239</ele>
        <time>2017-05-10T08:53:47Z</time>
      </trkpt>
      <trkpt lat="45.9901" lon="4.82734">
        <ele>239</ele>
        <time>2017-05-10T08:53:50Z</time>
      </trkpt>
      <trkpt lat="45.99008" lon="4.82738">
        <ele>240</ele>
        <time>2017-05-10T08:53:51Z</time>
      </trkpt>
      <trkpt lat="45.99003" lon="4.82747">
        <ele>241</ele>
        <time>2017-05-10T08:53:54Z</time>
      </trkpt>
      <trkpt lat="45.99002" lon="4.8275">
        <ele>241</ele>
        <time>2017-05-10T08:53:55Z</time>
      </trkpt>
      <trkpt lat="45.98998" lon="4.8276">
        <ele>243</ele>
        <time>2017-05-10T08:53:58Z</time>
      </trkpt>
      <trkpt lat="45.98997" lon="4.82763">
        <ele>244</ele>
        <time>2017-05-10T08:53:59Z</time>
      </trkpt>
      <trkpt lat="45.98993" lon="4.82773">
        <ele>246</ele>
        <time>2017-05-10T08:54:02Z</time>
      </trkpt>
      <trkpt lat="45.98992" lon="4.82776">
        <ele>246</ele>
        <time>2017-05-10T08:54:03Z</time>
      </trkpt>
      <trkpt lat="45.98988" lon="4.82786">
        <ele>247</ele>
        <time>2017-05-10T08:54:06Z</time>
      </trkpt>
      <trkpt lat="45.98986" lon="4.82789">
        <ele>247</ele>
        <time>2017-05-10T08:54:07Z</time>
      </trkpt>
      <trkpt lat="45.98982" lon="4.828">
        <ele>248</ele>
        <time>2017-05-10T08:54:10Z</time>
      </trkpt>
      <trkpt lat="45.9898" lon="4.82803">
        <ele>248</ele>
        <time>2017-05-10T08:54:11Z</time>
      </trkpt>
      <trkpt lat="45.98976" lon="4.82812">
        <ele>248</ele>
        <time>2017-05-10T08:54:14Z</time>
      </trkpt>
      <trkpt lat="45.98975" lon="4.82815">
        <ele>248</ele>
        <time>2017-05-10T08:54:15Z</time>
      </trkpt>
      <trkpt lat="45.98971" lon="4.82826">
        <ele>249</ele>
        <time>2017-05-10T08:54:18Z</time>
      </trkpt>
      <trkpt lat="45.9897" lon="4.82829">
        <ele>249</ele>
        <time>2017-05-10T08:54:19Z</time>
      </trkpt>
      <trkpt lat="45.98966" lon="4.82838">
        <ele>252</ele>
        <time>2017-05-10T08:54:22Z</time>
      </trkpt>
      <trkpt lat="45.98965" lon="4.82841">
        <ele>252</ele>
        <time>2017-05-10T08:54:23Z</time>
      </trkpt>
      <trkpt lat="45.9896" lon="4.82852">
        <ele>252</ele>
        <time>2017-05-10T08:54:27Z</time>
      </trkpt>
      <trkpt lat="45.98958" lon="4.82855">
        <ele>252</ele>
        <time>2017-05-10T08:54:28Z</time>
      </trkpt>
      <trkpt lat="45.98955" lon="4.82864">
        <ele>252</ele>
        <time>2017-05-10T08:54:31Z</time>
      </trkpt>
      <trkpt lat="45.98953" lon="4.82866">
        <ele>252</ele>
        <time>2017-05-10T08:54:32Z</time>
      </trkpt>
      <trkpt lat="45.9895" lon="4.82875">
        <ele>253</ele>
        <time>2017-05-10T08:54:35Z</time>
      </trkpt>
      <trkpt lat="45.98949" lon="4.82878">
        <ele>253</ele>
        <time>2017-05-10T08:54:36Z</time>
      </trkpt>
      <trkpt lat="45.98944" lon="4.82886">
        <ele>253</ele>
        <time>2017-05-10T08:54:39Z</time>
      </trkpt>
      <trkpt lat="45.98943" lon="4.82889">
        <ele>253</ele>
        <time>2017-05-10T08:54:40Z</time>
      </trkpt>
      <trkpt lat="45.9894" lon="4.82898">
        <ele>253</ele>
        <time>2017-05-10T08:54:43Z</time>
      </trkpt>
      <trkpt lat="45.98938" lon="4.82901">
        <ele>253</ele>
        <time>2017-05-10T08:54:44Z</time>
      </trkpt>
      <trkpt lat="45.98934" lon="4.8291">
        <ele>254</ele>
        <time>2017-05-10T08:54:47Z</time>
      </trkpt>
      <trkpt lat="45.98932" lon="4.82913">
        <ele>254</ele>
        <time>2017-05-10T08:54:48Z</time>
      </trkpt>
      <trkpt lat="45.9893" lon="4.82922">
        <ele>255</ele>
        <time>2017-05-10T08:54:51Z</time>
      </trkpt>
      <trkpt lat="45.98929" lon="4.82925">
        <ele>255</ele>
        <time>2017-05-10T08:54:52Z</time>
      </trkpt>
      <trkpt lat="45.98925" lon="4.82934">
        <ele>255</ele>
        <time>2017-05-10T08:54:55Z</time>
      </trkpt>
      <trkpt lat="45.98923" lon="4.82936">
        <ele>255</ele>
        <time>2017-05-10T08:54:56Z</time>
      </trkpt>
      <trkpt lat="45.9892" lon="4.82944">
        <ele>255</ele>
        <time>2017-05-10T08:54:59Z</time>
      </trkpt>
      <trkpt lat="45.98918" lon="4.82947">
        <ele>255</ele>
        <time>2017-05-10T08:55:00Z</time>
      </trkpt>
      <trkpt lat="45.98915" lon="4.82955">
        <ele>258</ele>
        <time>2017-05-10T08:55:03Z</time>
      </trkpt>
      <trkpt lat="45.98913" lon="4.82958">
        <ele>258</ele>
        <time>2017-05-10T08:55:04Z</time>
      </trkpt>
      <trkpt lat="45.98907" lon="4.82966">
        <ele>259</ele>
        <time>2017-05-10T08:55:08Z</time>
      </trkpt>
      <trkpt lat="45.98905" lon="4.82969">
        <ele>259</ele>
        <time>2017-05-10T08:55:09Z</time>
      </trkpt>
      <trkpt lat="45.98899" lon="4.82976">
        <ele>259</ele>
        <time>2017-05-10T08:55:12Z</time>
      </trkpt>
      <trkpt lat="45.98897" lon="4.82978">
        <ele>259</ele>
        <time>2017-05-10T08:55:13Z</time>
      </trkpt>
      <trkpt lat="45.98891" lon="4.82983">
        <ele>259</ele>
        <time>2017-05-10T08:55:16Z</time>
      </trkpt>
      <trkpt lat="45.98889" lon="4.82985">
        <ele>259</ele>
        <time>2017-05-10T08:55:17Z</time>
      </trkpt>
      <trkpt lat="45.98883" lon="4.82988">
        <ele>259</ele>
        <time>2017-05-10T08:55:20Z</time>
      </trkpt>
      <trkpt lat="45.9888" lon="4.8299">
        <ele>260</ele>
        <time>2017-05-10T08:55:21Z</time>
      </trkpt>
      <trkpt lat="45.98873" lon="4.82995">
        <ele>260</ele>
        <time>2017-05-10T08:55:25Z</time>
      </trkpt>
      <trkpt lat="45.9887" lon="4.82997">
        <ele>260</ele>
        <time>2017-05-10T08:55:26Z</time>
      </trkpt>
      <trkpt lat="45.98863" lon="4.83001">
        <ele>260</ele>
        <time>2017-05-10T08:55:29Z</time>
      </trkpt>
      <trkpt lat="45.9886" lon="4.83002">
        <ele>261</ele>
        <time>2017-05-10T08:55:30Z</time>
      </trkpt>
      <trkpt lat="45.98853" lon="4.83007">
        <ele>261</ele>
        <time>2017-05-10T08:55:34Z</time>
      </trkpt>
      <trkpt lat="45.98852" lon="4.83008">
        <ele>261</ele>
        <time>2017-05-10T08:55:35Z</time>
      </trkpt>
      <trkpt lat="45.98845" lon="4.83012">
        <ele>261</ele>
        <time>2017-05-10T08:55:39Z</time>
      </trkpt>
      <trkpt lat="45.98843" lon="4.83014">
        <ele>261</ele>
        <time>2017-05-10T08:55:40Z</time>
      </trkpt>
      <trkpt lat="45.98836" lon="4.83018">
        <ele>261</ele>
        <time>2017-05-10T08:55:43Z</time>
      </trkpt>
      <trkpt lat="45.98834" lon="4.8302">
        <ele>261</ele>
        <time>2017-05-10T08:55:44Z</time>
      </trkpt>
      <trkpt lat="45.98828" lon="4.83024">
        <ele>264</ele>
        <time>2017-05-10T08:55:47Z</time>
      </trkpt>
      <trkpt lat="45.98826" lon="4.83025">
        <ele>264</ele>
        <time>2017-05-10T08:55:48Z</time>
      </trkpt>
      <trkpt lat="45.98818" lon="4.83029">
        <ele>264</ele>
        <time>2017-05-10T08:55:51Z</time>
      </trkpt>
      <trkpt lat="45.98815" lon="4.8303">
        <ele>264</ele>
        <time>2017-05-10T08:55:52Z</time>
      </trkpt>
      <trkpt lat="45.98809" lon="4.83036">
        <ele>264</ele>
        <time>2017-05-10T08:55:55Z</time>
      </trkpt>
      <trkpt lat="45.98807" lon="4.83037">
        <ele>264</ele>
        <time>2017-05-10T08:55:56Z</time>
      </trkpt>
      <trkpt lat="45.988" lon="4.83042">
        <ele>264</ele>
        <time>2017-05-10T08:55:59Z</time>
      </trkpt>
      <trkpt lat="45.98798" lon="4.83043">
        <ele>265</ele>
        <time>2017-05-10T08:56:00Z</time>
      </trkpt>
      <trkpt lat="45.98793" lon="4.8305">
        <ele>265</ele>
        <time>2017-05-10T08:56:03Z</time>
      </trkpt>
      <trkpt lat="45.98791" lon="4.83052">
        <ele>265</ele>
        <time>2017-05-10T08:56:04Z</time>
      </trkpt>
      <trkpt lat="45.98785" lon="4.83058">
        <ele>265</ele>
        <time>2017-05-10T08:56:07Z</time>
      </trkpt>
      <trkpt lat="45.98783" lon="4.8306">
        <ele>265</ele>
        <time>2017-05-10T08:56:08Z</time>
      </trkpt>
      <trkpt lat="45.98775" lon="4.83067">
        <ele>265</ele>
        <time>2017-05-10T08:56:12Z</time>
      </trkpt>
      <trkpt lat="45.98774" lon="4.83069">
        <ele>265</ele>
        <time>2017-05-10T08:56:13Z</time>
      </trkpt>
      <trkpt lat="45.98768" lon="4.83074">
        <ele>266</ele>
        <time>2017-05-10T08:56:16Z</time>
      </trkpt>
      <trkpt lat="45.98766" lon="4.83076">
        <ele>266</ele>
        <time>2017-05-10T08:56:17Z</time>
      </trkpt>
      <trkpt lat="45.9876" lon="4.83082">
        <ele>266</ele>
        <time>2017-05-10T08:56:20Z</time>
      </trkpt>
      <trkpt lat="45.98758" lon="4.83084">
        <ele>266</ele>
        <time>2017-05-10T08:56:21Z</time>
      </trkpt>
      <trkpt lat="45.98752" lon="4.8309">
        <ele>266</ele>
        <time>2017-05-10T08:56:24Z</time>
      </trkpt>
      <trkpt lat="45.9875" lon="4.83092">
        <ele>267</ele>
        <time>2017-05-10T08:56:25Z</time>
      </trkpt>
      <trkpt lat="45.98743" lon="4.83098">
        <ele>267</ele>
        <time>2017-05-10T08:56:28Z</time>
      </trkpt>
      <trkpt lat="45.98741" lon="4.831">
        <ele>267</ele>
        <time>2017-05-10T08:56:29Z</time>
      </trkpt>
      <trkpt lat="45.98734" lon="4.83105">
        <ele>267</ele>
        <time>2017-05-10T08:56:32Z</time>
      </trkpt>
      <trkpt lat="45.98732" lon="4.83106">
        <ele>267</ele>
        <time>2017-05-10T08:56:33Z</time>
      </trkpt>
      <trkpt lat="45.98725" lon="4.83112">
        <ele>267</ele>
        <time>2017-05-10T08:56:36Z</time>
      </trkpt>
      <trkpt lat="45.98722" lon="4.83114">
        <ele>267</ele>
        <time>2017-05-10T08:56:37Z</time>
      </trkpt>
      <trkpt lat="45.98715" lon="4.83119">
        <ele>267</ele>
        <time>2017-05-10T08:56:40Z</time>
      </trkpt>
      <trkpt lat="45.98713" lon="4.83122">
        <ele>267</ele>
        <time>2017-05-10T08:56:41Z</time>
      </trkpt>
      <trkpt lat="45.98706" lon="4.83128">
        <ele>266</ele>
        <time>2017-05-10T08:56:44Z</time>
      </trkpt>
      <trkpt lat="45.98704" lon="4.8313">
        <ele>266</ele>
        <time>2017-05-10T08:56:45Z</time>
      </trkpt>
      <trkpt lat="45.98696" lon="4.83135">
        <ele>266</ele>
        <time>2017-05-10T08:56:48Z</time>
      </trkpt>
      <trkpt lat="45.98694" lon="4.83137">
        <ele>266</ele>
        <time>2017-05-10T08:56:49Z</time>
      </trkpt>
      <trkpt lat="45.98686" lon="4.83144">
        <ele>266</ele>
        <time>2017-05-10T08:56:52Z</time>
      </trkpt>
      <trkpt lat="45.98684" lon="4.83145">
        <ele>266</ele>
        <time>2017-05-10T08:56:53Z</time>
      </trkpt>
      <trkpt lat="45.98676" lon="4.83151">
        <ele>266</ele>
        <time>2017-05-10T08:56:56Z</time>
      </trkpt>
      <trkpt lat="45.98674" lon="4.83154">
        <ele>266</ele>
        <time>2017-05-10T08:56:57Z</time>
      </trkpt>
      <trkpt lat="45.98666" lon="4.8316">
        <ele>266</ele>
        <time>2017-05-10T08:57:00Z</time>
      </trkpt>
      <trkpt lat="45.98663" lon="4.83161">
        <ele>266</ele>
        <time>2017-05-10T08:57:01Z</time>
      </trkpt>
      <trkpt lat="45.98657" lon="4.83165">
        <ele>267</ele>
        <time>2017-05-10T08:57:03Z</time>
      </trkpt>
      <trkpt lat="45.98654" lon="4.83167">
        <ele>267</ele>
        <time>2017-05-10T08:57:04Z</time>
      </trkpt>
      <trkpt lat="45.98649" lon="4.83172">
        <ele>267</ele>
        <time>2017-05-10T08:57:06Z</time>
      </trkpt>
      <trkpt lat="45.98646" lon="4.83174">
        <ele>267</ele>
        <time>2017-05-10T08:57:07Z</time>
      </trkpt>
      <trkpt lat="45.9864" lon="4.8318">
        <ele>267</ele>
        <time>2017-05-10T08:57:09Z</time>
      </trkpt>
      <trkpt lat="45.98637" lon="4.83183">
        <ele>267</ele>
        <time>2017-05-10T08:57:10Z</time>
      </trkpt>
      <trkpt lat="45.98631" lon="4.83188">
        <ele>267</ele>
        <time>2017-05-10T08:57:12Z</time>
      </trkpt>
      <trkpt lat="45.98629" lon="4.83191">
        <ele>267</ele>
        <time>2017-05-10T08:57:13Z</time>
      </trkpt>
      <trkpt lat="45.98624" lon="4.83197">
        <ele>267</ele>
        <time>2017-05-10T08:57:15Z</time>
      </trkpt>
      <trkpt lat="45.98622" lon="4.83201">
        <ele>267</ele>
        <time>2017-05-10T08:57:16Z</time>
      </trkpt>
      <trkpt lat="45.98617" lon="4.83207">
        <ele>267</ele>
        <time>2017-05-10T08:57:18Z</time>
      </trkpt>
      <trkpt lat="45.98614" lon="4.83211">
        <ele>267</ele>
        <time>2017-05-10T08:57:19Z</time>
      </trkpt>
      <trkpt lat="45.98609" lon="4.83217">
        <ele>267</ele>
        <time>2017-05-10T08:57:21Z</time>
      </trkpt>
      <trkpt lat="45.98607" lon="4.8322">
        <ele>267</ele>
        <time>2017-05-10T08:57:22Z</time>
      </trkpt>
      <trkpt lat="45.98602" lon="4.83227">
        <ele>268</ele>
        <time>2017-05-10T08:57:24Z</time>
      </trkpt>
      <trkpt lat="45.986" lon="4.8323">
        <ele>268</ele>
        <time>2017-05-10T08:57:25Z</time>
      </trkpt>
      <trkpt lat="45.98595" lon="4.83237">
        <ele>268</ele>
        <time>2017-05-10T08:57:27Z</time>
      </trkpt>
      <trkpt lat="45.98592" lon="4.8324">
        <ele>268</ele>
        <time>2017-05-10T08:57:28Z</time>
      </trkpt>
      <trkpt lat="45.98587" lon="4.83247">
        <ele>268</ele>
        <time>2017-05-10T08:57:30Z</time>
      </trkpt>
      <trkpt lat="45.98585" lon="4.83251">
        <ele>268</ele>
        <time>2017-05-10T08:57:31Z</time>
      </trkpt>
      <trkpt lat="45.9858" lon="4.83257">
        <ele>268</ele>
        <time>2017-05-10T08:57:33Z</time>
      </trkpt>
      <trkpt lat="45.98577" lon="4.83261">
        <ele>268</ele>
        <time>2017-05-10T08:57:34Z</time>
      </trkpt>
      <trkpt lat="45.98572" lon="4.83269">
        <ele>269</ele>
        <time>2017-05-10T08:57:36Z</time>
      </trkpt>
      <trkpt lat="45.9857" lon="4.83272">
        <ele>269</ele>
        <time>2017-05-10T08:57:37Z</time>
      </trkpt>
      <trkpt lat="45.98565" lon="4.83279">
        <ele>269</ele>
        <time>2017-05-10T08:57:39Z</time>
      </trkpt>
      <trkpt lat="45.98562" lon="4.83282">
        <ele>269</ele>
        <time>2017-05-10T08:57:40Z</time>
      </trkpt>
      <trkpt lat="45.98558" lon="4.83288">
        <ele>269</ele>
        <time>2017-05-10T08:57:42Z</time>
      </trkpt>
      <trkpt lat="45.98555" lon="4.83291">
        <ele>269</ele>
        <time>2017-05-10T08:57:43Z</time>
      </trkpt>
      <trkpt lat="45.9855" lon="4.83298">
        <ele>269</ele>
        <time>2017-05-10T08:57:45Z</time>
      </trkpt>
      <trkpt lat="45.98548" lon="4.83302">
        <ele>269</ele>
        <time>2017-05-10T08:57:46Z</time>
      </trkpt>
      <trkpt lat="45.98543" lon="4.83309">
        <ele>269</ele>
        <time>2017-05-10T08:57:48Z</time>
      </trkpt>
      <trkpt lat="45.9854" lon="4.83312">
        <ele>269</ele>
        <time>2017-05-10T08:57:49Z</time>
      </trkpt>
      <trkpt lat="45.98535" lon="4.83319">
        <ele>269</ele>
        <time>2017-05-10T08:57:51Z</time>
      </trkpt>
      <trkpt lat="45.98533" lon="4.83322">
        <ele>269</ele>
        <time>2017-05-10T08:57:52Z</time>
      </trkpt>
      <trkpt lat="45.98528" lon="4.83329">
        <ele>269</ele>
        <time>2017-05-10T08:57:54Z</time>
      </trkpt>
      <trkpt lat="45.98525" lon="4.83332">
        <ele>270</ele>
        <time>2017-05-10T08:57:55Z</time>
      </trkpt>
      <trkpt lat="45.98521" lon="4.83339">
        <ele>270</ele>
        <time>2017-05-10T08:57:57Z</time>
      </trkpt>
      <trkpt lat="45.98518" lon="4.83343">
        <ele>270</ele>
        <time>2017-05-10T08:57:58Z</time>
      </trkpt>
      <trkpt lat="45.98513" lon="4.83349">
        <ele>270</ele>
        <time>2017-05-10T08:58:00Z</time>
      </trkpt>
      <trkpt lat="45.9851" lon="4.83353">
        <ele>270</ele>
        <time>2017-05-10T08:58:01Z</time>
      </trkpt>
      <trkpt lat="45.98505" lon="4.8336">
        <ele>269</ele>
        <time>2017-05-10T08:58:03Z</time>
      </trkpt>
      <trkpt lat="45.98502" lon="4.83363">
        <ele>269</ele>
        <time>2017-05-10T08:58:04Z</time>
      </trkpt>
      <trkpt lat="45.98495" lon="4.83371">
        <ele>270</ele>
        <time>2017-05-10T08:58:06Z</time>
      </trkpt>
      <trkpt lat="45.98492" lon="4.83374">
        <ele>270</ele>
        <time>2017-05-10T08:58:07Z</time>
      </trkpt>
      <trkpt lat="45.98487" lon="4.83383">
        <ele>269</ele>
        <time>2017-05-10T08:58:09Z</time>
      </trkpt>
      <trkpt lat="45.98484" lon="4.83386">
        <ele>269</ele>
        <time>2017-05-10T08:58:10Z</time>
      </trkpt>
      <trkpt lat="45.98479" lon="4.83393">
        <ele>269</ele>
        <time>2017-05-10T08:58:12Z</time>
      </trkpt>
      <trkpt lat="45.98476" lon="4.83397">
        <ele>269</ele>
        <time>2017-05-10T08:58:13Z</time>
      </trkpt>
      <trkpt lat="45.98471" lon="4.83405">
        <ele>269</ele>
        <time>2017-05-10T08:58:15Z</time>
      </trkpt>
      <trkpt lat="45.98468" lon="4.83409">
        <ele>269</ele>
        <time>2017-05-10T08:58:16Z</time>
      </trkpt>
      <trkpt lat="45.98463" lon="4.83416">
        <ele>269</ele>
        <time>2017-05-10T08:58:18Z</time>
      </trkpt>
      <trkpt lat="45.98461" lon="4.8342">
        <ele>269</ele>
        <time>2017-05-10T08:58:19Z</time>
      </trkpt>
      <trkpt lat="45.98455" lon="4.83427">
        <ele>268</ele>
        <time>2017-05-10T08:58:21Z</time>
      </trkpt>
      <trkpt lat="45.98453" lon="4.83431">
        <ele>268</ele>
        <time>2017-05-10T08:58:22Z</time>
      </trkpt>
      <trkpt lat="45.98447" lon="4.83439">
        <ele>268</ele>
        <time>2017-05-10T08:58:24Z</time>
      </trkpt>
      <trkpt lat="45.98444" lon="4.83443">
        <ele>268</ele>
        <time>2017-05-10T08:58:25Z</time>
      </trkpt>
      <trkpt lat="45.98439" lon="4.8345">
        <ele>268</ele>
        <time>2017-05-10T08:58:27Z</time>
      </trkpt>
      <trkpt lat="45.98436" lon="4.83454">
        <ele>268</ele>
        <time>2017-05-10T08:58:28Z</time>
      </trkpt>
      <trkpt lat="45.98431" lon="4.83461">
        <ele>268</ele>
        <time>2017-05-10T08:58:30Z</time>
      </trkpt>
      <trkpt lat="45.98428" lon="4.83465">
        <ele>268</ele>
        <time>2017-05-10T08:58:31Z</time>
      </trkpt>
      <trkpt lat="45.98422" lon="4.83472">
        <ele>268</ele>
        <time>2017-05-10T08:58:33Z</time>
      </trkpt>
      <trkpt lat="45.9842" lon="4.83476">
        <ele>268</ele>
        <time>2017-05-10T08:58:34Z</time>
      </trkpt>
      <trkpt lat="45.98414" lon="4.83483">
        <ele>269</ele>
        <time>2017-05-10T08:58:36Z</time>
      </trkpt>
      <trkpt lat="45.98411" lon="4.83486">
        <ele>269</ele>
        <time>2017-05-10T08:58:37Z</time>
      </trkpt>
      <trkpt lat="45.98406" lon="4.83494">
        <ele>269</ele>
        <time>2017-05-10T08:58:39Z</time>
      </trkpt>
      <trkpt lat="45.98403" lon="4.83498">
        <ele>269</ele>
        <time>2017-05-10T08:58:40Z</time>
      </trkpt>
      <trkpt lat="45.98397" lon="4.83506">
        <ele>269</ele>
        <time>2017-05-10T08:58:42Z</time>
      </trkpt>
      <trkpt lat="45.98393" lon="4.8351">
        <ele>269</ele>
        <time>2017-05-10T08:58:43Z</time>
      </trkpt>
      <trkpt lat="45.98387" lon="4.83518">
        <ele>269</ele>
        <time>2017-05-10T08:58:45Z</time>
      </trkpt>
      <trkpt lat="45.98384" lon="4.83522">
        <ele>269</ele>
        <time>2017-05-10T08:58:46Z</time>
      </trkpt>
      <trkpt lat="45.98378" lon="4.8353">
        <ele>269</ele>
        <time>2017-05-10T08:58:48Z</time>
      </trkpt>
      <trkpt lat="45.98376" lon="4.83534">
        <ele>269</ele>
        <time>2017-05-10T08:58:49Z</time>
      </trkpt>
      <trkpt lat="45.9837" lon="4.83541">
        <ele>269</ele>
        <time>2017-05-10T08:58:51Z</time>
      </trkpt>
      <trkpt lat="45.98368" lon="4.83545">
        <ele>269</ele>
        <time>2017-05-10T08:58:52Z</time>
      </trkpt>
      <trkpt lat="45.98362" lon="4.83552">
        <ele>269</ele>
        <time>2017-05-10T08:58:54Z</time>
      </trkpt>
      <trkpt lat="45.9836" lon="4.83556">
        <ele>269</ele>
        <time>2017-05-10T08:58:55Z</time>
      </trkpt>
      <trkpt lat="45.98354" lon="4.83563">
        <ele>269</ele>
        <time>2017-05-10T08:58:57Z</time>
      </trkpt>
      <trkpt lat="45.98351" lon="4.83567">
        <ele>269</ele>
        <time>2017-05-10T08:58:58Z</time>
      </trkpt>
      <trkpt lat="45.98345" lon="4.83573">
        <ele>270</ele>
        <time>2017-05-10T08:59:00Z</time>
      </trkpt>
      <trkpt lat="45.98343" lon="4.83576">
        <ele>270</ele>
        <time>2017-05-10T08:59:01Z</time>
      </trkpt>
      <trkpt lat="45.98337" lon="4.83584">
        <ele>270</ele>
        <time>2017-05-10T08:59:03Z</time>
      </trkpt>
      <trkpt lat="45.98335" lon="4.83587">
        <ele>270</ele>
        <time>2017-05-10T08:59:04Z</time>
      </trkpt>
      <trkpt lat="45.98329" lon="4.83595">
        <ele>270</ele>
        <time>2017-05-10T08:59:06Z</time>
      </trkpt>
      <trkpt lat="45.98326" lon="4.83599">
        <ele>271</ele>
        <time>2017-05-10T08:59:07Z</time>
      </trkpt>
      <trkpt lat="45.9832" lon="4.83608">
        <ele>271</ele>
        <time>2017-05-10T08:59:09Z</time>
      </trkpt>
      <trkpt lat="45.98317" lon="4.83612">
        <ele>271</ele>
        <time>2017-05-10T08:59:10Z</time>
      </trkpt>
      <trkpt lat="45.98312" lon="4.83621">
        <ele>271</ele>
        <time>2017-05-10T08:59:12Z</time>
      </trkpt>
      <trkpt lat="45.9831" lon="4.83625">
        <ele>271</ele>
        <time>2017-05-10T08:59:13Z</time>
      </trkpt>
      <trkpt lat="45.98305" lon="4.83634">
        <ele>271</ele>
        <time>2017-05-10T08:59:15Z</time>
      </trkpt>
      <trkpt lat="45.98303" lon="4.83638">
        <ele>271</ele>
        <time>2017-05-10T08:59:16Z</time>
      </trkpt>
      <trkpt lat="45.98299" lon="4.83647">
        <ele>271</ele>
        <time>2017-05-10T08:59:18Z</time>
      </trkpt>
      <trkpt lat="45.98297" lon="4.83652">
        <ele>271</ele>
        <time>2017-05-10T08:59:19Z</time>
      </trkpt>
      <trkpt lat="45.98293" lon="4.83662">
        <ele>271</ele>
        <time>2017-05-10T08:59:21Z</time>
      </trkpt>
      <trkpt lat="45.98291" lon="4.83667">
        <ele>272</ele>
        <time>2017-05-10T08:59:22Z</time>
      </trkpt>
      <trkpt lat="45.98288" lon="4.83677">
        <ele>272</ele>
        <time>2017-05-10T08:59:24Z</time>
      </trkpt>
      <trkpt lat="45.98286" lon="4.83681">
        <ele>272</ele>
        <time>2017-05-10T08:59:25Z</time>
      </trkpt>
      <trkpt lat="45.98282" lon="4.83691">
        <ele>272</ele>
        <time>2017-05-10T08:59:27Z</time>
      </trkpt>
      <trkpt lat="45.9828" lon="4.83696">
        <ele>272</ele>
        <time>2017-05-10T08:59:28Z</time>
      </trkpt>
      <trkpt lat="45.98277" lon="4.83707">
        <ele>272</ele>
        <time>2017-05-10T08:59:30Z</time>
      </trkpt>
      <trkpt lat="45.98276" lon="4.83712">
        <ele>272</ele>
        <time>2017-05-10T08:59:31Z</time>
      </trkpt>
      <trkpt lat="45.98272" lon="4.83722">
        <ele>272</ele>
        <time>2017-05-10T08:59:33Z</time>
      </trkpt>
      <trkpt lat="45.98271" lon="4.83727">
        <ele>272</ele>
        <time>2017-05-10T08:59:34Z</time>
      </trkpt>
      <trkpt lat="45.98267" lon="4.83737">
        <ele>272</ele>
        <time>2017-05-10T08:59:36Z</time>
      </trkpt>
      <trkpt lat="45.98265" lon="4.83742">
        <ele>272</ele>
        <time>2017-05-10T08:59:37Z</time>
      </trkpt>
      <trkpt lat="45.98262" lon="4.8375">
        <ele>272</ele>
        <time>2017-05-10T08:59:39Z</time>
      </trkpt>
      <trkpt lat="45.9826" lon="4.83754">
        <ele>272</ele>
        <time>2017-05-10T08:59:40Z</time>
      </trkpt>
      <trkpt lat="45.98257" lon="4.83763">
        <ele>272</ele>
        <time>2017-05-10T08:59:42Z</time>
      </trkpt>
      <trkpt lat="45.98255" lon="4.83768">
        <ele>272</ele>
        <time>2017-05-10T08:59:43Z</time>
      </trkpt>
      <trkpt lat="45.98252" lon="4.83778">
        <ele>272</ele>
        <time>2017-05-10T08:59:45Z</time>
      </trkpt>
      <trkpt lat="45.9825" lon="4.83783">
        <ele>272</ele>
        <time>2017-05-10T08:59:46Z</time>
      </trkpt>
      <trkpt lat="45.98246" lon="4.83793">
        <ele>272</ele>
        <time>2017-05-10T08:59:48Z</time>
      </trkpt>
      <trkpt lat="45.98245" lon="4.83798">
        <ele>272</ele>
        <time>2017-05-10T08:59:49Z</time>
      </trkpt>
      <trkpt lat="45.98243" lon="4.83807">
        <ele>272</ele>
        <time>2017-05-10T08:59:51Z</time>
      </trkpt>
      <trkpt lat="45.98241" lon="4.83812">
        <ele>272</ele>
        <time>2017-05-10T08:59:52Z</time>
      </trkpt>
      <trkpt lat="45.98237" lon="4.83823">
        <ele>272</ele>
        <time>2017-05-10T08:59:54Z</time>
      </trkpt>
      <trkpt lat="45.98235" lon="4.83829">
        <ele>272</ele>
        <time>2017-05-10T08:59:55Z</time>
      </trkpt>
      <trkpt lat="45.98233" lon="4.83835">
        <ele>272</ele>
        <time>2017-05-10T08:59:56Z</time>
      </trkpt>
      <trkpt lat="45.98231" lon="4.83841">
        <ele>272</ele>
        <time>2017-05-10T08:59:57Z</time>
      </trkpt>
      <trkpt lat="45.98227" lon="4.83852">
        <ele>272</ele>
        <time>2017-05-10T08:59:59Z</time>
      </trkpt>
      <trkpt lat="45.98225" lon="4.83857">
        <ele>272</ele>
        <time>2017-05-10T09:00:00Z</time>
      </trkpt>
      <trkpt lat="45.98222" lon="4.83868">
        <ele>272</ele>
        <time>2017-05-10T09:00:02Z</time>
      </trkpt>
      <trkpt lat="45.9822" lon="4.83873">
        <ele>272</ele>
        <time>2017-05-10T09:00:03Z</time>
      </trkpt>
      <trkpt lat="45.98217" lon="4.83882">
        <ele>272</ele>
        <time>2017-05-10T09:00:05Z</time>
      </trkpt>
      <trkpt lat="45.98215" lon="4.83887">
        <ele>273</ele>
        <time>2017-05-10T09:00:06Z</time>
      </trkpt>
      <trkpt lat="45.98211" lon="4.83896">
        <ele>273</ele>
        <time>2017-05-10T09:00:08Z</time>
      </trkpt>
      <trkpt lat="45.98209" lon="4.83901">
        <ele>273</ele>
        <time>2017-05-10T09:00:09Z</time>
      </trkpt>
      <trkpt lat="45.98206" lon="4.8391">
        <ele>273</ele>
        <time>2017-05-10T09:00:11Z</time>
      </trkpt>
      <trkpt lat="45.98204" lon="4.83915">
        <ele>273</ele>
        <time>2017-05-10T09:00:12Z</time>
      </trkpt>
      <trkpt lat="45.98201" lon="4.83925">
        <ele>273</ele>
        <time>2017-05-10T09:00:14Z</time>
      </trkpt>
      <trkpt lat="45.98199" lon="4.83929">
        <ele>273</ele>
        <time>2017-05-10T09:00:15Z</time>
      </trkpt>
      <trkpt lat="45.98196" lon="4.83939">
        <ele>273</ele>
        <time>2017-05-10T09:00:17Z</time>
      </trkpt>
      <trkpt lat="45.98194" lon="4.83944">
        <ele>273</ele>
        <time>2017-05-10T09:00:18Z</time>
      </trkpt>
      <trkpt lat="45.9819" lon="4.83954">
        <ele>273</ele>
        <time>2017-05-10T09:00:20Z</time>
      </trkpt>
      <trkpt lat="45.98189" lon="4.83959">
        <ele>273</ele>
        <time>2017-05-10T09:00:21Z</time>
      </trkpt>
      <trkpt lat="45.98185" lon="4.83969">
        <ele>273</ele>
        <time>2017-05-10T09:00:23Z</time>
      </trkpt>
      <trkpt lat="45.98183" lon="4.83975">
        <ele>273</ele>
        <time>2017-05-10T09:00:24Z</time>
      </trkpt>
      <trkpt lat="45.98181" lon="4.8398">
        <ele>273</ele>
        <time>2017-05-10T09:00:25Z</time>
      </trkpt>
      <trkpt lat="45.98178" lon="4.83986">
        <ele>273</ele>
        <time>2017-05-10T09:00:26Z</time>
      </trkpt>
      <trkpt lat="45.98176" lon="4.83992">
        <ele>273</ele>
        <time>2017-05-10T09:00:27Z</time>
      </trkpt>
      <trkpt lat="45.98173" lon="4.83998">
        <ele>273</ele>
        <time>2017-05-10T09:00:28Z</time>
      </trkpt>
      <trkpt lat="45.98171" lon="4.84004">
        <ele>273</ele>
        <time>2017-05-10T09:00:29Z</time>
      </trkpt>
      <trkpt lat="45.98169" lon="4.84009">
        <ele>273</ele>
        <time>2017-05-10T09:00:30Z</time>
      </trkpt>
      <trkpt lat="45.98164" lon="4.84019">
        <ele>273</ele>
        <time>2017-05-10T09:00:32Z</time>
      </trkpt>
      <trkpt lat="45.98161" lon="4.84023">
        <ele>273</ele>
        <time>2017-05-10T09:00:33Z</time>
      </trkpt>
      <trkpt lat="45.98157" lon="4.84032">
        <ele>273</ele>
        <time>2017-05-10T09:00:35Z</time>
      </trkpt>
      <trkpt lat="45.98154" lon="4.84036">
        <ele>273</ele>
        <time>2017-05-10T09:00:36Z</time>
      </trkpt>
      <trkpt lat="45.98149" lon="4.84043">
        <ele>273</ele>
        <time>2017-05-10T09:00:38Z</time>
      </trkpt>
      <trkpt lat="45.98147" lon="4.84047">
        <ele>273</ele>
        <time>2017-05-10T09:00:39Z</time>
      </trkpt>
      <trkpt lat="45.98142" lon="4.84054">
        <ele>273</ele>
        <time>2017-05-10T09:00:41Z</time>
      </trkpt>
      <trkpt lat="45.9814" lon="4.84057">
        <ele>273</ele>
        <time>2017-05-10T09:00:42Z</time>
      </trkpt>
      <trkpt lat="45.98134" lon="4.84064">
        <ele>273</ele>
        <time>2017-05-10T09:00:44Z</time>
      </trkpt>
      <trkpt lat="45.98132" lon="4.84067">
        <ele>273</ele>
        <time>2017-05-10T09:00:45Z</time>
      </trkpt>
      <trkpt lat="45.98125" lon="4.84074">
        <ele>273</ele>
        <time>2017-05-10T09:00:47Z</time>
      </trkpt>
      <trkpt lat="45.98122" lon="4.84076">
        <ele>273</ele>
        <time>2017-05-10T09:00:48Z</time>
      </trkpt>
      <trkpt lat="45.98116" lon="4.84083">
        <ele>273</ele>
        <time>2017-05-10T09:00:50Z</time>
      </trkpt>
      <trkpt lat="45.98113" lon="4.84086">
        <ele>273</ele>
        <time>2017-05-10T09:00:51Z</time>
      </trkpt>
      <trkpt lat="45.98107" lon="4.84091">
        <ele>273</ele>
        <time>2017-05-10T09:00:53Z</time>
      </trkpt>
      <trkpt lat="45.98104" lon="4.84094">
        <ele>273</ele>
        <time>2017-05-10T09:00:54Z</time>
      </trkpt>
      <trkpt lat="45.98098" lon="4.84101">
        <ele>273</ele>
        <time>2017-05-10T09:00:56Z</time>
      </trkpt>
      <trkpt lat="45.98095" lon="4.84104">
        <ele>273</ele>
        <time>2017-05-10T09:00:57Z</time>
      </trkpt>
      <trkpt lat="45.98089" lon="4.8411">
        <ele>273</ele>
        <time>2017-05-10T09:00:59Z</time>
      </trkpt>
      <trkpt lat="45.98086" lon="4.84112">
        <ele>273</ele>
        <time>2017-05-10T09:01:00Z</time>
      </trkpt>
      <trkpt lat="45.9808" lon="4.84118">
        <ele>273</ele>
        <time>2017-05-10T09:01:02Z</time>
      </trkpt>
      <trkpt lat="45.98077" lon="4.84121">
        <ele>273</ele>
        <time>2017-05-10T09:01:03Z</time>
      </trkpt>
      <trkpt lat="45.98071" lon="4.84127">
        <ele>273</ele>
        <time>2017-05-10T09:01:05Z</time>
      </trkpt>
      <trkpt lat="45.98068" lon="4.84129">
        <ele>273</ele>
        <time>2017-05-10T09:01:06Z</time>
      </trkpt>
      <trkpt lat="45.98062" lon="4.84135">
        <ele>273</ele>
        <time>2017-05-10T09:01:08Z</time>
      </trkpt>
      <trkpt lat="45.98059" lon="4.84138">
        <ele>273</ele>
        <time>2017-05-10T09:01:09Z</time>
      </trkpt>
      <trkpt lat="45.98052" lon="4.84144">
        <ele>273</ele>
        <time>2017-05-10T09:01:11Z</time>
      </trkpt>
      <trkpt lat="45.9805" lon="4.84147">
        <ele>273</ele>
        <time>2017-05-10T09:01:12Z</time>
      </trkpt>
      <trkpt lat="45.98044" lon="4.84153">
        <ele>273</ele>
        <time>2017-05-10T09:01:14Z</time>
      </trkpt>
      <trkpt lat="45.9804" lon="4.84156">
        <ele>273</ele>
        <time>2017-05-10T09:01:15Z</time>
      </trkpt>
      <trkpt lat="45.98034" lon="4.84162">
        <ele>273</ele>
        <time>2017-05-10T09:01:17Z</time>
      </trkpt>
      <trkpt lat="45.98031" lon="4.84165">
        <ele>273</ele>
        <time>2017-05-10T09:01:18Z</time>
      </trkpt>
      <trkpt lat="45.98025" lon="4.84171">
        <ele>274</ele>
        <time>2017-05-10T09:01:20Z</time>
      </trkpt>
      <trkpt lat="45.98022" lon="4.84174">
        <ele>274</ele>
        <time>2017-05-10T09:01:21Z</time>
      </trkpt>
      <trkpt lat="45.98015" lon="4.8418">
        <ele>274</ele>
        <time>2017-05-10T09:01:23Z</time>
      </trkpt>
      <trkpt lat="45.98012" lon="4.84184">
        <ele>274</ele>
        <time>2017-05-10T09:01:24Z</time>
      </trkpt>
      <trkpt lat="45.98005" lon="4.84191">
        <ele>274</ele>
        <time>2017-05-10T09:01:26Z</time>
      </trkpt>
      <trkpt lat="45.98001" lon="4.84195">
        <ele>274</ele>
        <time>2017-05-10T09:01:27Z</time>
      </trkpt>
      <trkpt lat="45.97994" lon="4.84201">
        <ele>274</ele>
        <time>2017-05-10T09:01:29Z</time>
      </trkpt>
      <trkpt lat="45.97991" lon="4.84204">
        <ele>274</ele>
        <time>2017-05-10T09:01:30Z</time>
      </trkpt>
      <trkpt lat="45.97984" lon="4.8421">
        <ele>274</ele>
        <time>2017-05-10T09:01:32Z</time>
      </trkpt>
      <trkpt lat="45.97981" lon="4.84213">
        <ele>274</ele>
        <time>2017-05-10T09:01:33Z</time>
      </trkpt>
      <trkpt lat="45.97974" lon="4.84219">
        <ele>274</ele>
        <time>2017-05-10T09:01:35Z</time>
      </trkpt>
      <trkpt lat="45.97971" lon="4.84222">
        <ele>274</ele>
        <time>2017-05-10T09:01:36Z</time>
      </trkpt>
      <trkpt lat="45.97965" lon="4.84228">
        <ele>274</ele>
        <time>2017-05-10T09:01:38Z</time>
      </trkpt>
      <trkpt lat="45.97961" lon="4.84231">
        <ele>274</ele>
        <time>2017-05-10T09:01:39Z</time>
      </trkpt>
      <trkpt lat="45.97955" lon="4.84238">
        <ele>275</ele>
        <time>2017-05-10T09:01:41Z</time>
      </trkpt>
      <trkpt lat="45.97951" lon="4.84241">
        <ele>275</ele>
        <time>2017-05-10T09:01:42Z</time>
      </trkpt>
      <trkpt lat="45.97944" lon="4.84248">
        <ele>275</ele>
        <time>2017-05-10T09:01:44Z</time>
      </trkpt>
      <trkpt lat="45.97941" lon="4.84251">
        <ele>275</ele>
        <time>2017-05-10T09:01:45Z</time>
      </trkpt>
      <trkpt lat="45.97934" lon="4.84258">
        <ele>275</ele>
        <time>2017-05-10T09:01:47Z</time>
      </trkpt>
      <trkpt lat="45.97931" lon="4.84261">
        <ele>275</ele>
        <time>2017-05-10T09:01:48Z</time>
      </trkpt>
      <trkpt lat="45.97925" lon="4.84268">
        <ele>275</ele>
        <time>2017-05-10T09:01:50Z</time>
      </trkpt>
      <trkpt lat="45.97922" lon="4.84271">
        <ele>275</ele>
        <time>2017-05-10T09:01:51Z</time>
      </trkpt>
      <trkpt lat="45.97916" lon="4.84278">
        <ele>275</ele>
        <time>2017-05-10T09:01:53Z</time>
      </trkpt>
      <trkpt lat="45.97914" lon="4.84281">
        <ele>275</ele>
        <time>2017-05-10T09:01:54Z</time>
      </trkpt>
      <trkpt lat="45.97908" lon="4.84289">
        <ele>275</ele>
        <time>2017-05-10T09:01:56Z</time>
      </trkpt>
      <trkpt lat="45.97905" lon="4.84293">
        <ele>275</ele>
        <time>2017-05-10T09:01:57Z</time>
      </trkpt>
      <trkpt lat="45.97901" lon="4.84301">
        <ele>275</ele>
        <time>2017-05-10T09:01:59Z</time>
      </trkpt>
      <trkpt lat="45.97898" lon="4.84305">
        <ele>275</ele>
        <time>2017-05-10T09:02:00Z</time>
      </trkpt>
      <trkpt lat="45.97893" lon="4.84312">
        <ele>275</ele>
        <time>2017-05-10T09:02:02Z</time>
      </trkpt>
      <trkpt lat="45.9789" lon="4.84316">
        <ele>275</ele>
        <time>2017-05-10T09:02:03Z</time>
      </trkpt>
      <trkpt lat="45.97885" lon="4.84323">
        <ele>275</ele>
        <time>2017-05-10T09:02:05Z</time>
      </trkpt>
      <trkpt lat="45.97883" lon="4.84327">
        <ele>275</ele>
        <time>2017-05-10T09:02:06Z</time>
      </trkpt>
      <trkpt lat="45.97878" lon="4.84334">
        <ele>275</ele>
        <time>2017-05-10T09:02:08Z</time>
      </trkpt>
      <trkpt lat="45.97875" lon="4.84337">
        <ele>275</ele>
        <time>2017-05-10T09:02:09Z</time>
      </trkpt>
      <trkpt lat="45.97871" lon="4.84346">
        <ele>276</ele>
        <time>2017-05-10T09:02:11Z</time>
      </trkpt>
      <trkpt lat="45.97868" lon="4.8435">
        <ele>276</ele>
        <time>2017-05-10T09:02:12Z</time>
      </trkpt>
      <trkpt lat="45.97863" lon="4.84358">
        <ele>276</ele>
        <time>2017-05-10T09:02:14Z</time>
      </trkpt>
      <trkpt lat="45.9786" lon="4.84362">
        <ele>276</ele>
        <time>2017-05-10T09:02:15Z</time>
      </trkpt>
      <trkpt lat="45.97855" lon="4.84369">
        <ele>276</ele>
        <time>2017-05-10T09:02:17Z</time>
      </trkpt>
      <trkpt lat="45.97852" lon="4.84373">
        <ele>276</ele>
        <time>2017-05-10T09:02:18Z</time>
      </trkpt>
      <trkpt lat="45.97847" lon="4.84379">
        <ele>276</ele>
        <time>2017-05-10T09:02:20Z</time>
      </trkpt>
      <trkpt lat="45.97844" lon="4.84382">
        <ele>276</ele>
        <time>2017-05-10T09:02:21Z</time>
      </trkpt>
      <trkpt lat="45.97838" lon="4.84388">
        <ele>276</ele>
        <time>2017-05-10T09:02:23Z</time>
      </trkpt>
      <trkpt lat="45.97835" lon="4.84391">
        <ele>276</ele>
        <time>2017-05-10T09:02:24Z</time>
      </trkpt>
      <trkpt lat="45.97829" lon="4.84398">
        <ele>276</ele>
        <time>2017-05-10T09:02:26Z</time>
      </trkpt>
      <trkpt lat="45.97825" lon="4.844">
        <ele>276</ele>
        <time>2017-05-10T09:02:27Z</time>
      </trkpt>
      <trkpt lat="45.97819" lon="4.84406">
        <ele>276</ele>
        <time>2017-05-10T09:02:29Z</time>
      </trkpt>
      <trkpt lat="45.97816" lon="4.84408">
        <ele>276</ele>
        <time>2017-05-10T09:02:30Z</time>
      </trkpt>
      <trkpt lat="45.97809" lon="4.84412">
        <ele>277</ele>
        <time>2017-05-10T09:02:32Z</time>
      </trkpt>
      <trkpt lat="45.97806" lon="4.84414">
        <ele>277</ele>
        <time>2017-05-10T09:02:33Z</time>
      </trkpt>
      <trkpt lat="45.97798" lon="4.84419">
        <ele>277</ele>
        <time>2017-05-10T09:02:35Z</time>
      </trkpt>
      <trkpt lat="45.97794" lon="4.84421">
        <ele>277</ele>
        <time>2017-05-10T09:02:36Z</time>
      </trkpt>
      <trkpt lat="45.97787" lon="4.84425">
        <ele>277</ele>
        <time>2017-05-10T09:02:38Z</time>
      </trkpt>
      <trkpt lat="45.97783" lon="4.84427">
        <ele>277</ele>
        <time>2017-05-10T09:02:39Z</time>
      </trkpt>
      <trkpt lat="45.97776" lon="4.8443">
        <ele>277</ele>
        <time>2017-05-10T09:02:41Z</time>
      </trkpt>
      <trkpt lat="45.97772" lon="4.84432">
        <ele>277</ele>
        <time>2017-05-10T09:02:42Z</time>
      </trkpt>
      <trkpt lat="45.97765" lon="4.84435">
        <ele>277</ele>
        <time>2017-05-10T09:02:44Z</time>
      </trkpt>
      <trkpt lat="45.97762" lon="4.84436">
        <ele>277</ele>
        <time>2017-05-10T09:02:45Z</time>
      </trkpt>
      <trkpt lat="45.97755" lon="4.84439">
        <ele>277</ele>
        <time>2017-05-10T09:02:47Z</time>
      </trkpt>
      <trkpt lat="45.97751" lon="4.8444">
        <ele>277</ele>
        <time>2017-05-10T09:02:48Z</time>
      </trkpt>
      <trkpt lat="45.97744" lon="4.84442">
        <ele>277</ele>
        <time>2017-05-10T09:02:50Z</time>
      </trkpt>
      <trkpt lat="45.9774" lon="4.84443">
        <ele>277</ele>
        <time>2017-05-10T09:02:51Z</time>
      </trkpt>
      <trkpt lat="45.97732" lon="4.84445">
        <ele>277</ele>
        <time>2017-05-10T09:02:53Z</time>
      </trkpt>
      <trkpt lat="45.97728" lon="4.84447">
        <ele>277</ele>
        <time>2017-05-10T09:02:54Z</time>
      </trkpt>
      <trkpt lat="45.97721" lon="4.84449">
        <ele>277</ele>
        <time>2017-05-10T09:02:56Z</time>
      </trkpt>
      <trkpt lat="45.97716" lon="4.8445">
        <ele>277</ele>
        <time>2017-05-10T09:02:57Z</time>
      </trkpt>
      <trkpt lat="45.97708" lon="4.84454">
        <ele>277</ele>
        <time>2017-05-10T09:02:59Z</time>
      </trkpt>
      <trkpt lat="45.97703" lon="4.84456">
        <ele>277</ele>
        <time>2017-05-10T09:03:00Z</time>
      </trkpt>
      <trkpt lat="45.97698" lon="4.84458">
        <ele>277</ele>
        <time>2017-05-10T09:03:01Z</time>
      </trkpt>
      <trkpt lat="45.97693" lon="4.8446">
        <ele>277</ele>
        <time>2017-05-10T09:03:02Z</time>
      </trkpt>
      <trkpt lat="45.97689" lon="4.84462">
        <ele>277</ele>
        <time>2017-05-10T09:03:03Z</time>
      </trkpt>
      <trkpt lat="45.97684" lon="4.84465">
        <ele>277</ele>
        <time>2017-05-10T09:03:04Z</time>
      </trkpt>
      <trkpt lat="45.9768" lon="4.84467">
        <ele>277</ele>
        <time>2017-05-10T09:03:05Z</time>
      </trkpt>
      <trkpt lat="45.97676" lon="4.84469">
        <ele>277</ele>
        <time>2017-05-10T09:03:06Z</time>
      </trkpt>
      <trkpt lat="45.97668" lon="4.84474">
        <ele>276</ele>
        <time>2017-05-10T09:03:08Z</time>
      </trkpt>
      <trkpt lat="45.97664" lon="4.84477">
        <ele>276</ele>
        <time>2017-05-10T09:03:09Z</time>
      </trkpt>
      <trkpt lat="45.97657" lon="4.84483">
        <ele>275</ele>
        <time>2017-05-10T09:03:11Z</time>
      </trkpt>
      <trkpt lat="45.97654" lon="4.84486">
        <ele>275</ele>
        <time>2017-05-10T09:03:12Z</time>
      </trkpt>
      <trkpt lat="45.97647" lon="4.84493">
        <ele>275</ele>
        <time>2017-05-10T09:03:14Z</time>
      </trkpt>
      <trkpt lat="45.97644" lon="4.84497">
        <ele>275</ele>
        <time>2017-05-10T09:03:15Z</time>
      </trkpt>
      <trkpt lat="45.97637" lon="4.84505">
        <ele>275</ele>
        <time>2017-05-10T09:03:17Z</time>
      </trkpt>
      <trkpt lat="45.97634" lon="4.84509">
        <ele>275</ele>
        <time>2017-05-10T09:03:18Z</time>
      </trkpt>
      <trkpt lat="45.97628" lon="4.84515">
        <ele>275</ele>
        <time>2017-05-10T09:03:20Z</time>
      </trkpt>
      <trkpt lat="45.97625" lon="4.84519">
        <ele>275</ele>
        <time>2017-05-10T09:03:21Z</time>
      </trkpt>
      <trkpt lat="45.97619" lon="4.84527">
        <ele>275</ele>
        <time>2017-05-10T09:03:23Z</time>
      </trkpt>
      <trkpt lat="45.97616" lon="4.84531">
        <ele>275</ele>
        <time>2017-05-10T09:03:24Z</time>
      </trkpt>
      <trkpt lat="45.97612" lon="4.84535">
        <ele>275</ele>
        <time>2017-05-10T09:03:25Z</time>
      </trkpt>
      <trkpt lat="45.97608" lon="4.8454">
        <ele>275</ele>
        <time>2017-05-10T09:03:26Z</time>
      </trkpt>
      <trkpt lat="45.97605" lon="4.84545">
        <ele>275</ele>
        <time>2017-05-10T09:03:27Z</time>
      </trkpt>
      <trkpt lat="45.97601" lon="4.84549">
        <ele>275</ele>
        <time>2017-05-10T09:03:28Z</time>
      </trkpt>
      <trkpt lat="45.97595" lon="4.84557">
        <ele>275</ele>
        <time>2017-05-10T09:03:30Z</time>
      </trkpt>
      <trkpt lat="45.97592" lon="4.84561">
        <ele>274</ele>
        <time>2017-05-10T09:03:31Z</time>
      </trkpt>
      <trkpt lat="45.97586" lon="4.84568">
        <ele>274</ele>
        <time>2017-05-10T09:03:33Z</time>
      </trkpt>
      <trkpt lat="45.97583" lon="4.84571">
        <ele>274</ele>
        <time>2017-05-10T09:03:34Z</time>
      </trkpt>
      <trkpt lat="45.97578" lon="4.84579">
        <ele>274</ele>
        <time>2017-05-10T09:03:36Z</time>
      </trkpt>
      <trkpt lat="45.97575" lon="4.84582">
        <ele>274</ele>
        <time>2017-05-10T09:03:37Z</time>
      </trkpt>
      <trkpt lat="45.9757" lon="4.84588">
        <ele>274</ele>
        <time>2017-05-10T09:03:39Z</time>
      </trkpt>
      <trkpt lat="45.97567" lon="4.84592">
        <ele>274</ele>
        <time>2017-05-10T09:03:40Z</time>
      </trkpt>
      <trkpt lat="45.97563" lon="4.84597">
        <ele>274</ele>
        <time>2017-05-10T09:03:42Z</time>
      </trkpt>
      <trkpt lat="45.97561" lon="4.846">
        <ele>274</ele>
        <time>2017-05-10T09:03:43Z</time>
      </trkpt>
      <trkpt lat="45.97555" lon="4.84605">
        <ele>274</ele>
        <time>2017-05-10T09:03:45Z</time>
      </trkpt>
      <trkpt lat="45.97553" lon="4.84608">
        <ele>274</ele>
        <time>2017-05-10T09:03:46Z</time>
      </trkpt>
      <trkpt lat="45.97548" lon="4.84614">
        <ele>274</ele>
        <time>2017-05-10T09:03:48Z</time>
      </trkpt>
      <trkpt lat="45.97545" lon="4.84617">
        <ele>274</ele>
        <time>2017-05-10T09:03:49Z</time>
      </trkpt>
      <trkpt lat="45.97538" lon="4.84621">
        <ele>275</ele>
        <time>2017-05-10T09:03:51Z</time>
      </trkpt>
      <trkpt lat="45.97535" lon="4.84624">
        <ele>275</ele>
        <time>2017-05-10T09:03:52Z</time>
      </trkpt>
      <trkpt lat="45.97529" lon="4.8463">
        <ele>275</ele>
        <time>2017-05-10T09:03:54Z</time>
      </trkpt>
      <trkpt lat="45.97525" lon="4.84632">
        <ele>275</ele>
        <time>2017-05-10T09:03:55Z</time>
      </trkpt>
      <trkpt lat="45.97518" lon="4.84638">
        <ele>275</ele>
        <time>2017-05-10T09:03:57Z</time>
      </trkpt>
      <trkpt lat="45.97515" lon="4.8464">
        <ele>275</ele>
        <time>2017-05-10T09:03:58Z</time>
      </trkpt>
      <trkpt lat="45.97508" lon="4.84645">
        <ele>275</ele>
        <time>2017-05-10T09:04:00Z</time>
      </trkpt>
      <trkpt lat="45.97504" lon="4.84648">
        <ele>275</ele>
        <time>2017-05-10T09:04:01Z</time>
      </trkpt>
      <trkpt lat="45.97497" lon="4.84654">
        <ele>275</ele>
        <time>2017-05-10T09:04:03Z</time>
      </trkpt>
      <trkpt lat="45.97494" lon="4.84656">
        <ele>275</ele>
        <time>2017-05-10T09:04:04Z</time>
      </trkpt>
      <trkpt lat="45.97487" lon="4.8466">
        <ele>275</ele>
        <time>2017-05-10T09:04:06Z</time>
      </trkpt>
      <trkpt lat="45.97484" lon="4.84663">
        <ele>276</ele>
        <time>2017-05-10T09:04:07Z</time>
      </trkpt>
      <trkpt lat="45.97476" lon="4.84667">
        <ele>276</ele>
        <time>2017-05-10T09:04:09Z</time>
      </trkpt>
      <trkpt lat="45.97472" lon="4.8467">
        <ele>276</ele>
        <time>2017-05-10T09:04:10Z</time>
      </trkpt>
      <trkpt lat="45.97465" lon="4.84675">
        <ele>276</ele>
        <time>2017-05-10T09:04:12Z</time>
      </trkpt>
      <trkpt lat="45.97461" lon="4.84677">
        <ele>276</ele>
        <time>2017-05-10T09:04:13Z</time>
      </trkpt>
      <trkpt lat="45.97454" lon="4.84682">
        <ele>276</ele>
        <time>2017-05-10T09:04:15Z</time>
      </trkpt>
      <trkpt lat="45.9745" lon="4.84684">
        <ele>276</ele>
        <time>2017-05-10T09:04:16Z</time>
      </trkpt>
      <trkpt lat="45.97443" lon="4.8469">
        <ele>276</ele>
        <time>2017-05-10T09:04:18Z</time>
      </trkpt>
      <trkpt lat="45.9744" lon="4.84693">
        <ele>276</ele>
        <time>2017-05-10T09:04:19Z</time>
      </trkpt>
      <trkpt lat="45.97433" lon="4.84698">
        <ele>276</ele>
        <time>2017-05-10T09:04:21Z</time>
      </trkpt>
      <trkpt lat="45.9743" lon="4.847">
        <ele>276</ele>
        <time>2017-05-10T09:04:22Z</time>
      </trkpt>
      <trkpt lat="45.97423" lon="4.84704">
        <ele>276</ele>
        <time>2017-05-10T09:04:24Z</time>
      </trkpt>
      <trkpt lat="45.97419" lon="4.84707">
        <ele>276</ele>
        <time>2017-05-10T09:04:25Z</time>
      </trkpt>
      <trkpt lat="45.97413" lon="4.84712">
        <ele>278</ele>
        <time>2017-05-10T09:04:27Z</time>
      </trkpt>
      <trkpt lat="45.9741" lon="4.84715">
        <ele>278</ele>
        <time>2017-05-10T09:04:28Z</time>
      </trkpt>
      <trkpt lat="45.97403" lon="4.84719">
        <ele>278</ele>
        <time>2017-05-10T09:04:30Z</time>
      </trkpt>
      <trkpt lat="45.974" lon="4.8472">
        <ele>278</ele>
        <time>2017-05-10T09:04:31Z</time>
      </trkpt>
      <trkpt lat="45.97393" lon="4.84724">
        <ele>278</ele>
        <time>2017-05-10T09:04:33Z</time>
      </trkpt>
      <trkpt lat="45.97389" lon="4.84727">
        <ele>278</ele>
        <time>2017-05-10T09:04:34Z</time>
      </trkpt>
      <trkpt lat="45.97384" lon="4.84736">
        <ele>278</ele>
        <time>2017-05-10T09:04:36Z</time>
      </trkpt>
      <trkpt lat="45.97381" lon="4.84742">
        <ele>278</ele>
        <time>2017-05-10T09:04:37Z</time>
      </trkpt>
      <trkpt lat="45.97377" lon="4.84753">
        <ele>278</ele>
        <time>2017-05-10T09:04:39Z</time>
      </trkpt>
      <trkpt lat="45.97375" lon="4.84759">
        <ele>278</ele>
        <time>2017-05-10T09:04:40Z</time>
      </trkpt>
      <trkpt lat="45.9737" lon="4.84769">
        <ele>278</ele>
        <time>2017-05-10T09:04:42Z</time>
      </trkpt>
      <trkpt lat="45.97368" lon="4.84775">
        <ele>278</ele>
        <time>2017-05-10T09:04:43Z</time>
      </trkpt>
      <trkpt lat="45.97364" lon="4.84785">
        <ele>278</ele>
        <time>2017-05-10T09:04:45Z</time>
      </trkpt>
      <trkpt lat="45.97362" lon="4.8479">
        <ele>278</ele>
        <time>2017-05-10T09:04:46Z</time>
      </trkpt>
      <trkpt lat="45.97358" lon="4.848">
        <ele>278</ele>
        <time>2017-05-10T09:04:48Z</time>
      </trkpt>
      <trkpt lat="45.97356" lon="4.84805">
        <ele>278</ele>
        <time>2017-05-10T09:04:49Z</time>
      </trkpt>
      <trkpt lat="45.97353" lon="4.84815">
        <ele>278</ele>
        <time>2017-05-10T09:04:51Z</time>
      </trkpt>
      <trkpt lat="45.97352" lon="4.84819">
        <ele>278</ele>
        <time>2017-05-10T09:04:52Z</time>
      </trkpt>
      <trkpt lat="45.97347" lon="4.84828">
        <ele>278</ele>
        <time>2017-05-10T09:04:54Z</time>
      </trkpt>
      <trkpt lat="45.97345" lon="4.84834">
        <ele>277</ele>
        <time>2017-05-10T09:04:55Z</time>
      </trkpt>
      <trkpt lat="45.97343" lon="4.84839">
        <ele>277</ele>
        <time>2017-05-10T09:04:56Z</time>
      </trkpt>
      <trkpt lat="45.9734" lon="4.84845">
        <ele>277</ele>
        <time>2017-05-10T09:04:57Z</time>
      </trkpt>
      <trkpt lat="45.97337" lon="4.84851">
        <ele>277</ele>
        <time>2017-05-10T09:04:58Z</time>
      </trkpt>
      <trkpt lat="45.97334" lon="4.84856">
        <ele>277</ele>
        <time>2017-05-10T09:04:59Z</time>
      </trkpt>
      <trkpt lat="45.97329" lon="4.84865">
        <ele>278</ele>
        <time>2017-05-10T09:05:01Z</time>
      </trkpt>
      <trkpt lat="45.97327" lon="4.84869">
        <ele>278</ele>
        <time>2017-05-10T09:05:02Z</time>
      </trkpt>
      <trkpt lat="45.97321" lon="4.84878">
        <ele>278</ele>
        <time>2017-05-10T09:05:04Z</time>
      </trkpt>
      <trkpt lat="45.97319" lon="4.84882">
        <ele>278</ele>
        <time>2017-05-10T09:05:05Z</time>
      </trkpt>
      <trkpt lat="45.97314" lon="4.8489">
        <ele>278</ele>
        <time>2017-05-10T09:05:07Z</time>
      </trkpt>
      <trkpt lat="45.97311" lon="4.84894">
        <ele>278</ele>
        <time>2017-05-10T09:05:08Z</time>
      </trkpt>
      <trkpt lat="45.97306" lon="4.84903">
        <ele>278</ele>
        <time>2017-05-10T09:05:10Z</time>
      </trkpt>
      <trkpt lat="45.97303" lon="4.84907">
        <ele>278</ele>
        <time>2017-05-10T09:05:11Z</time>
      </trkpt>
      <trkpt lat="45.97297" lon="4.84915">
        <ele>279</ele>
        <time>2017-05-10T09:05:13Z</time>
      </trkpt>
      <trkpt lat="45.97294" lon="4.8492">
        <ele>278</ele>
        <time>2017-05-10T09:05:14Z</time>
      </trkpt>
      <trkpt lat="45.97288" lon="4.84929">
        <ele>278</ele>
        <time>2017-05-10T09:05:16Z</time>
      </trkpt>
      <trkpt lat="45.97286" lon="4.84934">
        <ele>278</ele>
        <time>2017-05-10T09:05:17Z</time>
      </trkpt>
      <trkpt lat="45.97281" lon="4.84945">
        <ele>278</ele>
        <time>2017-05-10T09:05:19Z</time>
      </trkpt>
      <trkpt lat="45.97279" lon="4.8495">
        <ele>278</ele>
        <time>2017-05-10T09:05:20Z</time>
      </trkpt>
      <trkpt lat="45.97274" lon="4.84961">
        <ele>278</ele>
        <time>2017-05-10T09:05:22Z</time>
      </trkpt>
      <trkpt lat="45.97272" lon="4.84966">
        <ele>278</ele>
        <time>2017-05-10T09:05:23Z</time>
      </trkpt>
      <trkpt lat="45.97268" lon="4.84975">
        <ele>279</ele>
        <time>2017-05-10T09:05:25Z</time>
      </trkpt>
      <trkpt lat="45.97265" lon="4.84979">
        <ele>279</ele>
        <time>2017-05-10T09:05:26Z</time>
      </trkpt>
      <trkpt lat="45.97261" lon="4.84988">
        <ele>279</ele>
        <time>2017-05-10T09:05:28Z</time>
      </trkpt>
      <trkpt lat="45.97259" lon="4.84991">
        <ele>279</ele>
        <time>2017-05-10T09:05:29Z</time>
      </trkpt>
      <trkpt lat="45.97254" lon="4.85001">
        <ele>279</ele>
        <time>2017-05-10T09:05:31Z</time>
      </trkpt>
      <trkpt lat="45.97252" lon="4.85006">
        <ele>279</ele>
        <time>2017-05-10T09:05:32Z</time>
      </trkpt>
      <trkpt lat="45.97247" lon="4.85015">
        <ele>279</ele>
        <time>2017-05-10T09:05:34Z</time>
      </trkpt>
      <trkpt lat="45.97245" lon="4.8502">
        <ele>279</ele>
        <time>2017-05-10T09:05:35Z</time>
      </trkpt>
      <trkpt lat="45.9724" lon="4.8503">
        <ele>279</ele>
        <time>2017-05-10T09:05:37Z</time>
      </trkpt>
      <trkpt lat="45.97237" lon="4.85036">
        <ele>279</ele>
        <time>2017-05-10T09:05:38Z</time>
      </trkpt>
      <trkpt lat="45.97234" lon="4.85041">
        <ele>279</ele>
        <time>2017-05-10T09:05:39Z</time>
      </trkpt>
      <trkpt lat="45.97232" lon="4.85046">
        <ele>279</ele>
        <time>2017-05-10T09:05:40Z</time>
      </trkpt>
      <trkpt lat="45.97229" lon="4.85052">
        <ele>279</ele>
        <time>2017-05-10T09:05:41Z</time>
      </trkpt>
      <trkpt lat="45.97227" lon="4.85057">
        <ele>279</ele>
        <time>2017-05-10T09:05:42Z</time>
      </trkpt>
      <trkpt lat="45.97222" lon="4.85068">
        <ele>278</ele>
        <time>2017-05-10T09:05:44Z</time>
      </trkpt>
      <trkpt lat="45.9722" lon="4.85072">
        <ele>278</ele>
        <time>2017-05-10T09:05:45Z</time>
      </trkpt>
      <trkpt lat="45.97216" lon="4.85082">
        <ele>278</ele>
        <time>2017-05-10T09:05:47Z</time>
      </trkpt>
      <trkpt lat="45.97213" lon="4.85088">
        <ele>278</ele>
        <time>2017-05-10T09:05:48Z</time>
      </trkpt>
      <trkpt lat="45.97211" lon="4.85093">
        <ele>278</ele>
        <time>2017-05-10T09:05:49Z</time>
      </trkpt>
      <trkpt lat="45.97208" lon="4.85099">
        <ele>278</ele>
        <time>2017-05-10T09:05:50Z</time>
      </trkpt>
      <trkpt lat="45.97204" lon="4.85109">
        <ele>278</ele>
        <time>2017-05-10T09:05:52Z</time>
      </trkpt>
      <trkpt lat="45.97201" lon="4.85114">
        <ele>278</ele>
        <time>2017-05-10T09:05:53Z</time>
      </trkpt>
      <trkpt lat="45.97197" lon="4.85123">
        <ele>278</ele>
        <time>2017-05-10T09:05:55Z</time>
      </trkpt>
      <trkpt lat="45.97195" lon="4.85128">
        <ele>278</ele>
        <time>2017-05-10T09:05:56Z</time>
      </trkpt>
      <trkpt lat="45.97191" lon="4.85137">
        <ele>278</ele>
        <time>2017-05-10T09:05:58Z</time>
      </trkpt>
      <trkpt lat="45.97189" lon="4.85141">
        <ele>278</ele>
        <time>2017-05-10T09:05:59Z</time>
      </trkpt>
      <trkpt lat="45.97185" lon="4.85149">
        <ele>278</ele>
        <time>2017-05-10T09:06:01Z</time>
      </trkpt>
      <trkpt lat="45.97183" lon="4.85153">
        <ele>278</ele>
        <time>2017-05-10T09:06:02Z</time>
      </trkpt>
      <trkpt lat="45.9718" lon="4.85162">
        <ele>278</ele>
        <time>2017-05-10T09:06:04Z</time>
      </trkpt>
      <trkpt lat="45.97178" lon="4.85166">
        <ele>278</ele>
        <time>2017-05-10T09:06:05Z</time>
      </trkpt>
      <trkpt lat="45.97173" lon="4.85175">
        <ele>278</ele>
        <time>2017-05-10T09:06:07Z</time>
      </trkpt>
      <trkpt lat="45.97171" lon="4.8518">
        <ele>278</ele>
        <time>2017-05-10T09:06:08Z</time>
      </trkpt>
      <trkpt lat="45.97168" lon="4.85185">
        <ele>278</ele>
        <time>2017-05-10T09:06:09Z</time>
      </trkpt>
      <trkpt lat="45.97165" lon="4.8519">
        <ele>279</ele>
        <time>2017-05-10T09:06:10Z</time>
      </trkpt>
      <trkpt lat="45.97163" lon="4.85196">
        <ele>279</ele>
        <time>2017-05-10T09:06:11Z</time>
      </trkpt>
      <trkpt lat="45.9716" lon="4.85201">
        <ele>279</ele>
        <time>2017-05-10T09:06:12Z</time>
      </trkpt>
      <trkpt lat="45.97156" lon="4.85211">
        <ele>279</ele>
        <time>2017-05-10T09:06:14Z</time>
      </trkpt>
      <trkpt lat="45.97153" lon="4.85216">
        <ele>279</ele>
        <time>2017-05-10T09:06:15Z</time>
      </trkpt>
      <trkpt lat="45.97149" lon="4.85225">
        <ele>279</ele>
        <time>2017-05-10T09:06:17Z</time>
      </trkpt>
      <trkpt lat="45.97146" lon="4.8523">
        <ele>279</ele>
        <time>2017-05-10T09:06:18Z</time>
      </trkpt>
      <trkpt lat="45.97141" lon="4.85239">
        <ele>279</ele>
        <time>2017-05-10T09:06:20Z</time>
      </trkpt>
      <trkpt lat="45.97139" lon="4.85244">
        <ele>279</ele>
        <time>2017-05-10T09:06:21Z</time>
      </trkpt>
      <trkpt lat="45.97134" lon="4.85252">
        <ele>279</ele>
        <time>2017-05-10T09:06:23Z</time>
      </trkpt>
      <trkpt lat="45.97132" lon="4.85257">
        <ele>279</ele>
        <time>2017-05-10T09:06:24Z</time>
      </trkpt>
      <trkpt lat="45.97128" lon="4.85266">
        <ele>279</ele>
        <time>2017-05-10T09:06:26Z</time>
      </trkpt>
      <trkpt lat="45.97126" lon="4.85271">
        <ele>279</ele>
        <time>2017-05-10T09:06:27Z</time>
      </trkpt>
      <trkpt lat="45.97122" lon="4.85281">
        <ele>280</ele>
        <time>2017-05-10T09:06:29Z</time>
      </trkpt>
      <trkpt lat="45.9712" lon="4.85285">
        <ele>280</ele>
        <time>2017-05-10T09:06:30Z</time>
      </trkpt>
      <trkpt lat="45.97115" lon="4.85294">
        <ele>280</ele>
        <time>2017-05-10T09:06:32Z</time>
      </trkpt>
      <trkpt lat="45.97113" lon="4.85298">
        <ele>280</ele>
        <time>2017-05-10T09:06:33Z</time>
      </trkpt>
      <trkpt lat="45.97108" lon="4.85308">
        <ele>280</ele>
        <time>2017-05-10T09:06:35Z</time>
      </trkpt>
      <trkpt lat="45.97106" lon="4.85313">
        <ele>280</ele>
        <time>2017-05-10T09:06:36Z</time>
      </trkpt>
      <trkpt lat="45.97102" lon="4.85322">
        <ele>280</ele>
        <time>2017-05-10T09:06:38Z</time>
      </trkpt>
      <trkpt lat="45.97101" lon="4.85327">
        <ele>280</ele>
        <time>2017-05-10T09:06:39Z</time>
      </trkpt>
      <trkpt lat="45.97097" lon="4.85337">
        <ele>280</ele>
        <time>2017-05-10T09:06:41Z</time>
      </trkpt>
      <trkpt lat="45.97095" lon="4.85342">
        <ele>280</ele>
        <time>2017-05-10T09:06:42Z</time>
      </trkpt>
      <trkpt lat="45.97092" lon="4.85352">
        <ele>280</ele>
        <time>2017-05-10T09:06:44Z</time>
      </trkpt>
      <trkpt lat="45.9709" lon="4.85357">
        <ele>280</ele>
        <time>2017-05-10T09:06:45Z</time>
      </trkpt>
      <trkpt lat="45.97087" lon="4.85367">
        <ele>280</ele>
        <time>2017-05-10T09:06:47Z</time>
      </trkpt>
      <trkpt lat="45.97086" lon="4.85372">
        <ele>280</ele>
        <time>2017-05-10T09:06:48Z</time>
      </trkpt>
      <trkpt lat="45.97083" lon="4.85382">
        <ele>281</ele>
        <time>2017-05-10T09:06:50Z</time>
      </trkpt>
      <trkpt lat="45.97081" lon="4.85387">
        <ele>281</ele>
        <time>2017-05-10T09:06:51Z</time>
      </trkpt>
      <trkpt lat="45.97077" lon="4.85397">
        <ele>281</ele>
        <time>2017-05-10T09:06:53Z</time>
      </trkpt>
      <trkpt lat="45.97076" lon="4.85402">
        <ele>281</ele>
        <time>2017-05-10T09:06:54Z</time>
      </trkpt>
      <trkpt lat="45.97073" lon="4.85411">
        <ele>281</ele>
        <time>2017-05-10T09:06:56Z</time>
      </trkpt>
      <trkpt lat="45.97071" lon="4.85416">
        <ele>281</ele>
        <time>2017-05-10T09:06:57Z</time>
      </trkpt>
      <trkpt lat="45.97068" lon="4.85426">
        <ele>281</ele>
        <time>2017-05-10T09:06:59Z</time>
      </trkpt>
      <trkpt lat="45.97067" lon="4.85431">
        <ele>281</ele>
        <time>2017-05-10T09:07:00Z</time>
      </trkpt>
      <trkpt lat="45.97064" lon="4.85441">
        <ele>281</ele>
        <time>2017-05-10T09:07:02Z</time>
      </trkpt>
      <trkpt lat="45.97062" lon="4.85447">
        <ele>281</ele>
        <time>2017-05-10T09:07:03Z</time>
      </trkpt>
      <trkpt lat="45.9706" lon="4.85457">
        <ele>281</ele>
        <time>2017-05-10T09:07:05Z</time>
      </trkpt>
      <trkpt lat="45.97059" lon="4.85462">
        <ele>281</ele>
        <time>2017-05-10T09:07:06Z</time>
      </trkpt>
      <trkpt lat="45.97056" lon="4.85473">
        <ele>281</ele>
        <time>2017-05-10T09:07:08Z</time>
      </trkpt>
      <trkpt lat="45.97053" lon="4.85477">
        <ele>281</ele>
        <time>2017-05-10T09:07:09Z</time>
      </trkpt>
      <trkpt lat="45.97049" lon="4.85487">
        <ele>281</ele>
        <time>2017-05-10T09:07:11Z</time>
      </trkpt>
      <trkpt lat="45.97047" lon="4.85492">
        <ele>281</ele>
        <time>2017-05-10T09:07:12Z</time>
      </trkpt>
      <trkpt lat="45.97044" lon="4.85502">
        <ele>282</ele>
        <time>2017-05-10T09:07:14Z</time>
      </trkpt>
      <trkpt lat="45.97043" lon="4.85506">
        <ele>282</ele>
        <time>2017-05-10T09:07:15Z</time>
      </trkpt>
      <trkpt lat="45.9704" lon="4.85516">
        <ele>282</ele>
        <time>2017-05-10T09:07:17Z</time>
      </trkpt>
      <trkpt lat="45.97039" lon="4.85521">
        <ele>282</ele>
        <time>2017-05-10T09:07:18Z</time>
      </trkpt>
      <trkpt lat="45.97035" lon="4.8553">
        <ele>282</ele>
        <time>2017-05-10T09:07:20Z</time>
      </trkpt>
      <trkpt lat="45.97034" lon="4.85535">
        <ele>282</ele>
        <time>2017-05-10T09:07:21Z</time>
      </trkpt>
      <trkpt lat="45.97031" lon="4.85544">
        <ele>283</ele>
        <time>2017-05-10T09:07:23Z</time>
      </trkpt>
      <trkpt lat="45.9703" lon="4.85549">
        <ele>283</ele>
        <time>2017-05-10T09:07:24Z</time>
      </trkpt>
      <trkpt lat="45.97026" lon="4.8556">
        <ele>283</ele>
        <time>2017-05-10T09:07:26Z</time>
      </trkpt>
      <trkpt lat="45.97025" lon="4.85566">
        <ele>283</ele>
        <time>2017-05-10T09:07:27Z</time>
      </trkpt>
      <trkpt lat="45.97022" lon="4.85576">
        <ele>283</ele>
        <time>2017-05-10T09:07:29Z</time>
      </trkpt>
      <trkpt lat="45.97021" lon="4.85581">
        <ele>283</ele>
        <time>2017-05-10T09:07:30Z</time>
      </trkpt>
      <trkpt lat="45.97018" lon="4.8559">
        <ele>284</ele>
        <time>2017-05-10T09:07:32Z</time>
      </trkpt>
      <trkpt lat="45.97017" lon="4.85595">
        <ele>284</ele>
        <time>2017-05-10T09:07:33Z</time>
      </trkpt>
      <trkpt lat="45.97014" lon="4.85605">
        <ele>284</ele>
        <time>2017-05-10T09:07:35Z</time>
      </trkpt>
      <trkpt lat="45.97012" lon="4.8561">
        <ele>284</ele>
        <time>2017-05-10T09:07:36Z</time>
      </trkpt>
      <trkpt lat="45.97009" lon="4.85621">
        <ele>284</ele>
        <time>2017-05-10T09:07:38Z</time>
      </trkpt>
      <trkpt lat="45.97008" lon="4.85626">
        <ele>284</ele>
        <time>2017-05-10T09:07:39Z</time>
      </trkpt>
      <trkpt lat="45.97006" lon="4.85636">
        <ele>284</ele>
        <time>2017-05-10T09:07:41Z</time>
      </trkpt>
      <trkpt lat="45.97004" lon="4.85641">
        <ele>284</ele>
        <time>2017-05-10T09:07:42Z</time>
      </trkpt>
      <trkpt lat="45.97001" lon="4.8565">
        <ele>285</ele>
        <time>2017-05-10T09:07:44Z</time>
      </trkpt>
      <trkpt lat="45.97" lon="4.85655">
        <ele>286</ele>
        <time>2017-05-10T09:07:45Z</time>
      </trkpt>
      <trkpt lat="45.96997" lon="4.85666">
        <ele>286</ele>
        <time>2017-05-10T09:07:47Z</time>
      </trkpt>
      <trkpt lat="45.96996" lon="4.85671">
        <ele>286</ele>
        <time>2017-05-10T09:07:48Z</time>
      </trkpt>
      <trkpt lat="45.96993" lon="4.85681">
        <ele>286</ele>
        <time>2017-05-10T09:07:50Z</time>
      </trkpt>
      <trkpt lat="45.96992" lon="4.85686">
        <ele>285</ele>
        <time>2017-05-10T09:07:51Z</time>
      </trkpt>
      <trkpt lat="45.96989" lon="4.85696">
        <ele>285</ele>
        <time>2017-05-10T09:07:53Z</time>
      </trkpt>
      <trkpt lat="45.96988" lon="4.85701">
        <ele>285</ele>
        <time>2017-05-10T09:07:54Z</time>
      </trkpt>
      <trkpt lat="45.96985" lon="4.85711">
        <ele>285</ele>
        <time>2017-05-10T09:07:56Z</time>
      </trkpt>
      <trkpt lat="45.96983" lon="4.85716">
        <ele>285</ele>
        <time>2017-05-10T09:07:57Z</time>
      </trkpt>
      <trkpt lat="45.96981" lon="4.85726">
        <ele>285</ele>
        <time>2017-05-10T09:07:59Z</time>
      </trkpt>
      <trkpt lat="45.9698" lon="4.85731">
        <ele>285</ele>
        <time>2017-05-10T09:08:00Z</time>
      </trkpt>
      <trkpt lat="45.96977" lon="4.85742">
        <ele>285</ele>
        <time>2017-05-10T09:08:02Z</time>
      </trkpt>
      <trkpt lat="45.96975" lon="4.85747">
        <ele>285</ele>
        <time>2017-05-10T09:08:03Z</time>
      </trkpt>
      <trkpt lat="45.96973" lon="4.85757">
        <ele>285</ele>
        <time>2017-05-10T09:08:05Z</time>
      </trkpt>
      <trkpt lat="45.96971" lon="4.85762">
        <ele>285</ele>
        <time>2017-05-10T09:08:06Z</time>
      </trkpt>
      <trkpt lat="45.96968" lon="4.85773">
        <ele>285</ele>
        <time>2017-05-10T09:08:08Z</time>
      </trkpt>
      <trkpt lat="45.96967" lon="4.85778">
        <ele>285</ele>
        <time>2017-05-10T09:08:09Z</time>
      </trkpt>
      <trkpt lat="45.96964" lon="4.85788">
        <ele>285</ele>
        <time>2017-05-10T09:08:11Z</time>
      </trkpt>
      <trkpt lat="45.96963" lon="4.85793">
        <ele>285</ele>
        <time>2017-05-10T09:08:12Z</time>
      </trkpt>
      <trkpt lat="45.9696" lon="4.85803">
        <ele>285</ele>
        <time>2017-05-10T09:08:14Z</time>
      </trkpt>
      <trkpt lat="45.96959" lon="4.85808">
        <ele>285</ele>
        <time>2017-05-10T09:08:15Z</time>
      </trkpt>
      <trkpt lat="45.96956" lon="4.85818">
        <ele>285</ele>
        <time>2017-05-10T09:08:17Z</time>
      </trkpt>
      <trkpt lat="45.96955" lon="4.85823">
        <ele>285</ele>
        <time>2017-05-10T09:08:18Z</time>
      </trkpt>
      <trkpt lat="45.96952" lon="4.85833">
        <ele>285</ele>
        <time>2017-05-10T09:08:20Z</time>
      </trkpt>
      <trkpt lat="45.96951" lon="4.85838">
        <ele>285</ele>
        <time>2017-05-10T09:08:21Z</time>
      </trkpt>
      <trkpt lat="45.96948" lon="4.85847">
        <ele>285</ele>
        <time>2017-05-10T09:08:23Z</time>
      </trkpt>
      <trkpt lat="45.96947" lon="4.85852">
        <ele>285</ele>
        <time>2017-05-10T09:08:24Z</time>
      </trkpt>
      <trkpt lat="45.96944" lon="4.85862">
        <ele>285</ele>
        <time>2017-05-10T09:08:26Z</time>
      </trkpt>
      <trkpt lat="45.96942" lon="4.85868">
        <ele>285</ele>
        <time>2017-05-10T09:08:27Z</time>
      </trkpt>
      <trkpt lat="45.96941" lon="4.85879">
        <ele>285</ele>
        <time>2017-05-10T09:08:29Z</time>
      </trkpt>
      <trkpt lat="45.9694" lon="4.85884">
        <ele>285</ele>
        <time>2017-05-10T09:08:30Z</time>
      </trkpt>
      <trkpt lat="45.96936" lon="4.85895">
        <ele>285</ele>
        <time>2017-05-10T09:08:32Z</time>
      </trkpt>
      <trkpt lat="45.96935" lon="4.859">
        <ele>286</ele>
        <time>2017-05-10T09:08:33Z</time>
      </trkpt>
      <trkpt lat="45.96932" lon="4.85912">
        <ele>286</ele>
        <time>2017-05-10T09:08:35Z</time>
      </trkpt>
      <trkpt lat="45.9693" lon="4.85917">
        <ele>286</ele>
        <time>2017-05-10T09:08:36Z</time>
      </trkpt>
      <trkpt lat="45.96928" lon="4.85927">
        <ele>286</ele>
        <time>2017-05-10T09:08:38Z</time>
      </trkpt>
      <trkpt lat="45.96926" lon="4.85932">
        <ele>286</ele>
        <time>2017-05-10T09:08:39Z</time>
      </trkpt>
      <trkpt lat="45.96924" lon="4.85941">
        <ele>286</ele>
        <time>2017-05-10T09:08:41Z</time>
      </trkpt>
      <trkpt lat="45.96922" lon="4.85946">
        <ele>286</ele>
        <time>2017-05-10T09:08:42Z</time>
      </trkpt>
      <trkpt lat="45.9692" lon="4.85957">
        <ele>287</ele>
        <time>2017-05-10T09:08:44Z</time>
      </trkpt>
      <trkpt lat="45.96918" lon="4.85962">
        <ele>287</ele>
        <time>2017-05-10T09:08:45Z</time>
      </trkpt>
      <trkpt lat="45.96916" lon="4.85972">
        <ele>288</ele>
        <time>2017-05-10T09:08:47Z</time>
      </trkpt>
      <trkpt lat="45.96914" lon="4.85977">
        <ele>288</ele>
        <time>2017-05-10T09:08:48Z</time>
      </trkpt>
      <trkpt lat="45.96912" lon="4.85989">
        <ele>288</ele>
        <time>2017-05-10T09:08:50Z</time>
      </trkpt>
      <trkpt lat="45.9691" lon="4.85994">
        <ele>288</ele>
        <time>2017-05-10T09:08:51Z</time>
      </trkpt>
      <trkpt lat="45.96909" lon="4.86006">
        <ele>288</ele>
        <time>2017-05-10T09:08:53Z</time>
      </trkpt>
      <trkpt lat="45.96908" lon="4.86012">
        <ele>289</ele>
        <time>2017-05-10T09:08:54Z</time>
      </trkpt>
      <trkpt lat="45.96906" lon="4.86023">
        <ele>289</ele>
        <time>2017-05-10T09:08:56Z</time>
      </trkpt>
      <trkpt lat="45.96905" lon="4.86028">
        <ele>289</ele>
        <time>2017-05-10T09:08:57Z</time>
      </trkpt>
      <trkpt lat="45.96904" lon="4.86038">
        <ele>289</ele>
        <time>2017-05-10T09:08:59Z</time>
      </trkpt>
      <trkpt lat="45.96904" lon="4.86044">
        <ele>289</ele>
        <time>2017-05-10T09:09:00Z</time>
      </trkpt>
      <trkpt lat="45.96903" lon="4.86054">
        <ele>289</ele>
        <time>2017-05-10T09:09:02Z</time>
      </trkpt>
      <trkpt lat="45.96903" lon="4.8606">
        <ele>288</ele>
        <time>2017-05-10T09:09:03Z</time>
      </trkpt>
      <trkpt lat="45.96902" lon="4.86071">
        <ele>288</ele>
        <time>2017-05-10T09:09:05Z</time>
      </trkpt>
      <trkpt lat="45.96901" lon="4.86076">
        <ele>288</ele>
        <time>2017-05-10T09:09:06Z</time>
      </trkpt>
      <trkpt lat="45.969" lon="4.86086">
        <ele>288</ele>
        <time>2017-05-10T09:09:08Z</time>
      </trkpt>
      <trkpt lat="45.969" lon="4.8609">
        <ele>288</ele>
        <time>2017-05-10T09:09:09Z</time>
      </trkpt>
      <trkpt lat="45.96898" lon="4.86102">
        <ele>289</ele>
        <time>2017-05-10T09:09:11Z</time>
      </trkpt>
      <trkpt lat="45.96897" lon="4.86108">
        <ele>289</ele>
        <time>2017-05-10T09:09:12Z</time>
      </trkpt>
      <trkpt lat="45.96896" lon="4.86114">
        <ele>289</ele>
        <time>2017-05-10T09:09:13Z</time>
      </trkpt>
      <trkpt lat="45.96895" lon="4.86121">
        <ele>289</ele>
        <time>2017-05-10T09:09:14Z</time>
      </trkpt>
      <trkpt lat="45.96894" lon="4.86128">
        <ele>289</ele>
        <time>2017-05-10T09:09:15Z</time>
      </trkpt>
      <trkpt lat="45.96893" lon="4.86135">
        <ele>289</ele>
        <time>2017-05-10T09:09:16Z</time>
      </trkpt>
      <trkpt lat="45.96892" lon="4.86142">
        <ele>289</ele>
        <time>2017-05-10T09:09:17Z</time>
      </trkpt>
      <trkpt lat="45.96891" lon="4.86149">
        <ele>289</ele>
        <time>2017-05-10T09:09:18Z</time>
      </trkpt>
      <trkpt lat="45.9689" lon="4.86156">
        <ele>289</ele>
        <time>2017-05-10T09:09:19Z</time>
      </trkpt>
      <trkpt lat="45.96889" lon="4.86163">
        <ele>289</ele>
        <time>2017-05-10T09:09:20Z</time>
      </trkpt>
      <trkpt lat="45.96888" lon="4.86175">
        <ele>289</ele>
        <time>2017-05-10T09:09:22Z</time>
      </trkpt>
      <trkpt lat="45.96887" lon="4.86181">
        <ele>289</ele>
        <time>2017-05-10T09:09:23Z</time>
      </trkpt>
      <trkpt lat="45.96885" lon="4.86191">
        <ele>289</ele>
        <time>2017-05-10T09:09:25Z</time>
      </trkpt>
      <trkpt lat="45.96884" lon="4.86196">
        <ele>289</ele>
        <time>2017-05-10T09:09:26Z</time>
      </trkpt>
      <trkpt lat="45.96883" lon="4.86202">
        <ele>289</ele>
        <time>2017-05-10T09:09:27Z</time>
      </trkpt>
      <trkpt lat="45.96883" lon="4.86209">
        <ele>289</ele>
        <time>2017-05-10T09:09:28Z</time>
      </trkpt>
      <trkpt lat="45.96882" lon="4.86215">
        <ele>289</ele>
        <time>2017-05-10T09:09:29Z</time>
      </trkpt>
      <trkpt lat="45.96881" lon="4.86222">
        <ele>289</ele>
        <time>2017-05-10T09:09:30Z</time>
      </trkpt>
      <trkpt lat="45.9688" lon="4.86228">
        <ele>289</ele>
        <time>2017-05-10T09:09:31Z</time>
      </trkpt>
      <trkpt lat="45.9688" lon="4.86235">
        <ele>289</ele>
        <time>2017-05-10T09:09:32Z</time>
      </trkpt>
      <trkpt lat="45.96878" lon="4.86246">
        <ele>289</ele>
        <time>2017-05-10T09:09:34Z</time>
      </trkpt>
      <trkpt lat="45.96878" lon="4.86252">
        <ele>288</ele>
        <time>2017-05-10T09:09:35Z</time>
      </trkpt>
      <trkpt lat="45.96876" lon="4.86263">
        <ele>288</ele>
        <time>2017-05-10T09:09:37Z</time>
      </trkpt>
      <trkpt lat="45.96876" lon="4.86269">
        <ele>289</ele>
        <time>2017-05-10T09:09:38Z</time>
      </trkpt>
      <trkpt lat="45.96874" lon="4.8628">
        <ele>289</ele>
        <time>2017-05-10T09:09:40Z</time>
      </trkpt>
      <trkpt lat="45.96873" lon="4.86286">
        <ele>289</ele>
        <time>2017-05-10T09:09:41Z</time>
      </trkpt>
      <trkpt lat="45.96872" lon="4.86297">
        <ele>289</ele>
        <time>2017-05-10T09:09:43Z</time>
      </trkpt>
      <trkpt lat="45.96871" lon="4.86302">
        <ele>289</ele>
        <time>2017-05-10T09:09:44Z</time>
      </trkpt>
      <trkpt lat="45.9687" lon="4.86314">
        <ele>289</ele>
        <time>2017-05-10T09:09:46Z</time>
      </trkpt>
      <trkpt lat="45.96869" lon="4.8632">
        <ele>289</ele>
        <time>2017-05-10T09:09:47Z</time>
      </trkpt>
      <trkpt lat="45.96867" lon="4.86332">
        <ele>289</ele>
        <time>2017-05-10T09:09:49Z</time>
      </trkpt>
      <trkpt lat="45.96866" lon="4.86338">
        <ele>290</ele>
        <time>2017-05-10T09:09:50Z</time>
      </trkpt>
      <trkpt lat="45.96865" lon="4.8635">
        <ele>290</ele>
        <time>2017-05-10T09:09:52Z</time>
      </trkpt>
      <trkpt lat="45.96864" lon="4.86356">
        <ele>290</ele>
        <time>2017-05-10T09:09:53Z</time>
      </trkpt>
      <trkpt lat="45.96862" lon="4.86363">
        <ele>290</ele>
        <time>2017-05-10T09:09:54Z</time>
      </trkpt>
      <trkpt lat="45.96861" lon="4.86369">
        <ele>290</ele>
        <time>2017-05-10T09:09:55Z</time>
      </trkpt>
      <trkpt lat="45.9686" lon="4.86381">
        <ele>290</ele>
        <time>2017-05-10T09:09:57Z</time>
      </trkpt>
      <trkpt lat="45.96859" lon="4.86388">
        <ele>290</ele>
        <time>2017-05-10T09:09:58Z</time>
      </trkpt>
      <trkpt lat="45.96858" lon="4.86395">
        <ele>290</ele>
        <time>2017-05-10T09:09:59Z</time>
      </trkpt>
      <trkpt lat="45.96857" lon="4.86402">
        <ele>290</ele>
        <time>2017-05-10T09:10:00Z</time>
      </trkpt>
      <trkpt lat="45.96855" lon="4.86414">
        <ele>291</ele>
        <time>2017-05-10T09:10:02Z</time>
      </trkpt>
      <trkpt lat="45.96854" lon="4.86421">
        <ele>290</ele>
        <time>2017-05-10T09:10:03Z</time>
      </trkpt>
      <trkpt lat="45.96853" lon="4.86427">
        <ele>290</ele>
        <time>2017-05-10T09:10:04Z</time>
      </trkpt>
      <trkpt lat="45.96852" lon="4.86433">
        <ele>290</ele>
        <time>2017-05-10T09:10:05Z</time>
      </trkpt>
      <trkpt lat="45.96849" lon="4.86445">
        <ele>290</ele>
        <time>2017-05-10T09:10:07Z</time>
      </trkpt>
      <trkpt lat="45.96848" lon="4.86451">
        <ele>289</ele>
        <time>2017-05-10T09:10:08Z</time>
      </trkpt>
      <trkpt lat="45.96846" lon="4.86457">
        <ele>289</ele>
        <time>2017-05-10T09:10:09Z</time>
      </trkpt>
      <trkpt lat="45.96845" lon="4.86463">
        <ele>289</ele>
        <time>2017-05-10T09:10:10Z</time>
      </trkpt>
      <trkpt lat="45.96843" lon="4.8647">
        <ele>289</ele>
        <time>2017-05-10T09:10:11Z</time>
      </trkpt>
      <trkpt lat="45.96841" lon="4.86476">
        <ele>289</ele>
        <time>2017-05-10T09:10:12Z</time>
      </trkpt>
      <trkpt lat="45.96839" lon="4.86481">
        <ele>289</ele>
        <time>2017-05-10T09:10:13Z</time>
      </trkpt>
      <trkpt lat="45.96837" lon="4.86487">
        <ele>289</ele>
        <time>2017-05-10T09:10:14Z</time>
      </trkpt>
      <trkpt lat="45.96835" lon="4.86493">
        <ele>289</ele>
        <time>2017-05-10T09:10:15Z</time>
      </trkpt>
      <trkpt lat="45.96832" lon="4.86499">
        <ele>289</ele>
        <time>2017-05-10T09:10:16Z</time>
      </trkpt>
      <trkpt lat="45.96829" lon="4.86504">
        <ele>289</ele>
        <time>2017-05-10T09:10:17Z</time>
      </trkpt>
      <trkpt lat="45.96827" lon="4.86509">
        <ele>289</ele>
        <time>2017-05-10T09:10:18Z</time>
      </trkpt>
      <trkpt lat="45.96824" lon="4.86515">
        <ele>289</ele>
        <time>2017-05-10T09:10:19Z</time>
      </trkpt>
      <trkpt lat="45.96821" lon="4.86521">
        <ele>289</ele>
        <time>2017-05-10T09:10:20Z</time>
      </trkpt>
      <trkpt lat="45.96819" lon="4.86526">
        <ele>290</ele>
        <time>2017-05-10T09:10:21Z</time>
      </trkpt>
      <trkpt lat="45.96816" lon="4.86531">
        <ele>290</ele>
        <time>2017-05-10T09:10:22Z</time>
      </trkpt>
      <trkpt lat="45.96813" lon="4.86536">
        <ele>290</ele>
        <time>2017-05-10T09:10:23Z</time>
      </trkpt>
      <trkpt lat="45.9681" lon="4.86542">
        <ele>290</ele>
        <time>2017-05-10T09:10:24Z</time>
      </trkpt>
      <trkpt lat="45.96806" lon="4.86547">
        <ele>290</ele>
        <time>2017-05-10T09:10:25Z</time>
      </trkpt>
      <trkpt lat="45.96803" lon="4.86551">
        <ele>290</ele>
        <time>2017-05-10T09:10:26Z</time>
      </trkpt>
      <trkpt lat="45.96797" lon="4.8656">
        <ele>290</ele>
        <time>2017-05-10T09:10:28Z</time>
      </trkpt>
      <trkpt lat="45.96795" lon="4.86565">
        <ele>290</ele>
        <time>2017-05-10T09:10:29Z</time>
      </trkpt>
      <trkpt lat="45.96792" lon="4.8657">
        <ele>290</ele>
        <time>2017-05-10T09:10:30Z</time>
      </trkpt>
      <trkpt lat="45.96789" lon="4.86575">
        <ele>290</ele>
        <time>2017-05-10T09:10:31Z</time>
      </trkpt>
      <trkpt lat="45.96785" lon="4.8658">
        <ele>290</ele>
        <time>2017-05-10T09:10:32Z</time>
      </trkpt>
      <trkpt lat="45.96782" lon="4.86585">
        <ele>289</ele>
        <time>2017-05-10T09:10:33Z</time>
      </trkpt>
      <trkpt lat="45.96779" lon="4.86591">
        <ele>289</ele>
        <time>2017-05-10T09:10:34Z</time>
      </trkpt>
      <trkpt lat="45.96776" lon="4.86596">
        <ele>289</ele>
        <time>2017-05-10T09:10:35Z</time>
      </trkpt>
      <trkpt lat="45.96773" lon="4.86602">
        <ele>289</ele>
        <time>2017-05-10T09:10:36Z</time>
      </trkpt>
      <trkpt lat="45.9677" lon="4.86607">
        <ele>289</ele>
        <time>2017-05-10T09:10:37Z</time>
      </trkpt>
      <trkpt lat="45.96767" lon="4.86612">
        <ele>289</ele>
        <time>2017-05-10T09:10:38Z</time>
      </trkpt>
      <trkpt lat="45.96764" lon="4.86617">
        <ele>289</ele>
        <time>2017-05-10T09:10:39Z</time>
      </trkpt>
      <trkpt lat="45.96758" lon="4.86627">
        <ele>290</ele>
        <time>2017-05-10T09:10:41Z</time>
      </trkpt>
      <trkpt lat="45.96755" lon="4.86631">
        <ele>290</ele>
        <time>2017-05-10T09:10:42Z</time>
      </trkpt>
      <trkpt lat="45.96749" lon="4.8664">
        <ele>290</ele>
        <time>2017-05-10T09:10:44Z</time>
      </trkpt>
      <trkpt lat="45.96746" lon="4.86645">
        <ele>290</ele>
        <time>2017-05-10T09:10:45Z</time>
      </trkpt>
      <trkpt lat="45.96744" lon="4.8665">
        <ele>290</ele>
        <time>2017-05-10T09:10:46Z</time>
      </trkpt>
      <trkpt lat="45.9674" lon="4.86655">
        <ele>290</ele>
        <time>2017-05-10T09:10:47Z</time>
      </trkpt>
      <trkpt lat="45.96737" lon="4.8666">
        <ele>290</ele>
        <time>2017-05-10T09:10:48Z</time>
      </trkpt>
      <trkpt lat="45.96734" lon="4.86666">
        <ele>290</ele>
        <time>2017-05-10T09:10:49Z</time>
      </trkpt>
      <trkpt lat="45.96731" lon="4.86671">
        <ele>290</ele>
        <time>2017-05-10T09:10:50Z</time>
      </trkpt>
      <trkpt lat="45.96727" lon="4.86677">
        <ele>289</ele>
        <time>2017-05-10T09:10:51Z</time>
      </trkpt>
      <trkpt lat="45.96724" lon="4.86683">
        <ele>289</ele>
        <time>2017-05-10T09:10:52Z</time>
      </trkpt>
      <trkpt lat="45.96721" lon="4.86689">
        <ele>289</ele>
        <time>2017-05-10T09:10:53Z</time>
      </trkpt>
      <trkpt lat="45.96718" lon="4.86694">
        <ele>289</ele>
        <time>2017-05-10T09:10:54Z</time>
      </trkpt>
      <trkpt lat="45.96714" lon="4.86699">
        <ele>289</ele>
        <time>2017-05-10T09:10:55Z</time>
      </trkpt>
      <trkpt lat="45.96711" lon="4.86705">
        <ele>289</ele>
        <time>2017-05-10T09:10:56Z</time>
      </trkpt>
      <trkpt lat="45.96708" lon="4.86711">
        <ele>289</ele>
        <time>2017-05-10T09:10:57Z</time>
      </trkpt>
      <trkpt lat="45.96704" lon="4.86716">
        <ele>289</ele>
        <time>2017-05-10T09:10:58Z</time>
      </trkpt>
      <trkpt lat="45.96701" lon="4.86722">
        <ele>289</ele>
        <time>2017-05-10T09:10:59Z</time>
      </trkpt>
      <trkpt lat="45.96698" lon="4.86727">
        <ele>289</ele>
        <time>2017-05-10T09:11:00Z</time>
      </trkpt>
      <trkpt lat="45.96694" lon="4.86733">
        <ele>289</ele>
        <time>2017-05-10T09:11:01Z</time>
      </trkpt>
      <trkpt lat="45.96691" lon="4.86738">
        <ele>289</ele>
        <time>2017-05-10T09:11:02Z</time>
      </trkpt>
      <trkpt lat="45.96688" lon="4.86744">
        <ele>289</ele>
        <time>2017-05-10T09:11:03Z</time>
      </trkpt>
      <trkpt lat="45.96685" lon="4.86749">
        <ele>289</ele>
        <time>2017-05-10T09:11:04Z</time>
      </trkpt>
      <trkpt lat="45.96682" lon="4.86755">
        <ele>289</ele>
        <time>2017-05-10T09:11:05Z</time>
      </trkpt>
      <trkpt lat="45.96679" lon="4.8676">
        <ele>289</ele>
        <time>2017-05-10T09:11:06Z</time>
      </trkpt>
      <trkpt lat="45.96676" lon="4.86765">
        <ele>289</ele>
        <time>2017-05-10T09:11:07Z</time>
      </trkpt>
      <trkpt lat="45.96673" lon="4.8677">
        <ele>289</ele>
        <time>2017-05-10T09:11:08Z</time>
      </trkpt>
      <trkpt lat="45.9667" lon="4.86775">
        <ele>289</ele>
        <time>2017-05-10T09:11:09Z</time>
      </trkpt>
      <trkpt lat="45.96664" lon="4.86784">
        <ele>288</ele>
        <time>2017-05-10T09:11:11Z</time>
      </trkpt>
      <trkpt lat="45.96661" lon="4.86789">
        <ele>288</ele>
        <time>2017-05-10T09:11:12Z</time>
      </trkpt>
      <trkpt lat="45.96657" lon="4.86794">
        <ele>288</ele>
        <time>2017-05-10T09:11:13Z</time>
      </trkpt>
      <trkpt lat="45.96654" lon="4.86799">
        <ele>288</ele>
        <time>2017-05-10T09:11:14Z</time>
      </trkpt>
      <trkpt lat="45.96651" lon="4.86804">
        <ele>288</ele>
        <time>2017-05-10T09:11:15Z</time>
      </trkpt>
      <trkpt lat="45.96647" lon="4.8681">
        <ele>288</ele>
        <time>2017-05-10T09:11:16Z</time>
      </trkpt>
      <trkpt lat="45.96644" lon="4.86816">
        <ele>288</ele>
        <time>2017-05-10T09:11:17Z</time>
      </trkpt>
      <trkpt lat="45.96641" lon="4.86821">
        <ele>288</ele>
        <time>2017-05-10T09:11:18Z</time>
      </trkpt>
      <trkpt lat="45.96637" lon="4.86827">
        <ele>288</ele>
        <time>2017-05-10T09:11:19Z</time>
      </trkpt>
      <trkpt lat="45.96634" lon="4.86832">
        <ele>288</ele>
        <time>2017-05-10T09:11:20Z</time>
      </trkpt>
      <trkpt lat="45.96631" lon="4.86838">
        <ele>287</ele>
        <time>2017-05-10T09:11:21Z</time>
      </trkpt>
      <trkpt lat="45.96627" lon="4.86843">
        <ele>287</ele>
        <time>2017-05-10T09:11:22Z</time>
      </trkpt>
      <trkpt lat="45.96624" lon="4.86848">
        <ele>287</ele>
        <time>2017-05-10T09:11:23Z</time>
      </trkpt>
      <trkpt lat="45.96621" lon="4.86854">
        <ele>287</ele>
        <time>2017-05-10T09:11:24Z</time>
      </trkpt>
      <trkpt lat="45.96617" lon="4.86859">
        <ele>287</ele>
        <time>2017-05-10T09:11:25Z</time>
      </trkpt>
      <trkpt lat="45.96614" lon="4.86864">
        <ele>287</ele>
        <time>2017-05-10T09:11:26Z</time>
      </trkpt>
      <trkpt lat="45.9661" lon="4.86869">
        <ele>287</ele>
        <time>2017-05-10T09:11:27Z</time>
      </trkpt>
      <trkpt lat="45.96606" lon="4.86874">
        <ele>287</ele>
        <time>2017-05-10T09:11:28Z</time>
      </trkpt>
      <trkpt lat="45.96603" lon="4.86879">
        <ele>287</ele>
        <time>2017-05-10T09:11:29Z</time>
      </trkpt>
      <trkpt lat="45.96599" lon="4.86885">
        <ele>287</ele>
        <time>2017-05-10T09:11:30Z</time>
      </trkpt>
      <trkpt lat="45.96596" lon="4.8689">
        <ele>286</ele>
        <time>2017-05-10T09:11:31Z</time>
      </trkpt>
      <trkpt lat="45.96593" lon="4.86896">
        <ele>286</ele>
        <time>2017-05-10T09:11:32Z</time>
      </trkpt>
      <trkpt lat="45.96589" lon="4.86902">
        <ele>286</ele>
        <time>2017-05-10T09:11:33Z</time>
      </trkpt>
      <trkpt lat="45.96586" lon="4.86906">
        <ele>286</ele>
        <time>2017-05-10T09:11:34Z</time>
      </trkpt>
      <trkpt lat="45.96582" lon="4.86912">
        <ele>285</ele>
        <time>2017-05-10T09:11:35Z</time>
      </trkpt>
      <trkpt lat="45.96578" lon="4.86917">
        <ele>285</ele>
        <time>2017-05-10T09:11:36Z</time>
      </trkpt>
      <trkpt lat="45.96575" lon="4.86923">
        <ele>284</ele>
        <time>2017-05-10T09:11:37Z</time>
      </trkpt>
      <trkpt lat="45.96571" lon="4.86928">
        <ele>284</ele>
        <time>2017-05-10T09:11:38Z</time>
      </trkpt>
      <trkpt lat="45.96568" lon="4.86935">
        <ele>284</ele>
        <time>2017-05-10T09:11:39Z</time>
      </trkpt>
      <trkpt lat="45.96565" lon="4.86941">
        <ele>284</ele>
        <time>2017-05-10T09:11:40Z</time>
      </trkpt>
      <trkpt lat="45.96562" lon="4.86947">
        <ele>283</ele>
        <time>2017-05-10T09:11:41Z</time>
      </trkpt>
      <trkpt lat="45.96558" lon="4.86953">
        <ele>283</ele>
        <time>2017-05-10T09:11:42Z</time>
      </trkpt>
      <trkpt lat="45.96555" lon="4.86959">
        <ele>283</ele>
        <time>2017-05-10T09:11:43Z</time>
      </trkpt>
      <trkpt lat="45.96552" lon="4.86966">
        <ele>283</ele>
        <time>2017-05-10T09:11:44Z</time>
      </trkpt>
      <trkpt lat="45.96549" lon="4.86971">
        <ele>283</ele>
        <time>2017-05-10T09:11:45Z</time>
      </trkpt>
      <trkpt lat="45.96546" lon="4.86976">
        <ele>283</ele>
        <time>2017-05-10T09:11:46Z</time>
      </trkpt>
      <trkpt lat="45.96541" lon="4.86983">
        <ele>283</ele>
        <time>2017-05-10T09:11:48Z</time>
      </trkpt>
      <trkpt lat="45.96539" lon="4.86988">
        <ele>283</ele>
        <time>2017-05-10T09:11:49Z</time>
      </trkpt>
      <trkpt lat="45.96539" lon="4.87">
        <ele>283</ele>
        <time>2017-05-10T09:11:51Z</time>
      </trkpt>
      <trkpt lat="45.9654" lon="4.87006">
        <ele>283</ele>
        <time>2017-05-10T09:11:52Z</time>
      </trkpt>
      <trkpt lat="45.96543" lon="4.87013">
        <ele>283</ele>
        <time>2017-05-10T09:11:53Z</time>
      </trkpt>
      <trkpt lat="45.96545" lon="4.87019">
        <ele>283</ele>
        <time>2017-05-10T09:11:54Z</time>
      </trkpt>
      <trkpt lat="45.96548" lon="4.87024">
        <ele>283</ele>
        <time>2017-05-10T09:11:55Z</time>
      </trkpt>
      <trkpt lat="45.96551" lon="4.8703">
        <ele>283</ele>
        <time>2017-05-10T09:11:56Z</time>
      </trkpt>
      <trkpt lat="45.96552" lon="4.87036">
        <ele>283</ele>
        <time>2017-05-10T09:11:57Z</time>
      </trkpt>
      <trkpt lat="45.96554" lon="4.87043">
        <ele>283</ele>
        <time>2017-05-10T09:11:58Z</time>
      </trkpt>
      <trkpt lat="45.96554" lon="4.87055">
        <ele>283</ele>
        <time>2017-05-10T09:12:00Z</time>
      </trkpt>
      <trkpt lat="45.96555" lon="4.8706">
        <ele>283</ele>
        <time>2017-05-10T09:12:01Z</time>
      </trkpt>
      <trkpt lat="45.96554" lon="4.87071">
        <ele>283</ele>
        <time>2017-05-10T09:12:04Z</time>
      </trkpt>
      <trkpt lat="45.96552" lon="4.87073">
        <ele>283</ele>
        <time>2017-05-10T09:12:05Z</time>
      </trkpt>
      <trkpt lat="45.96544" lon="4.87075">
        <ele>283</ele>
        <time>2017-05-10T09:12:09Z</time>
      </trkpt>
      <trkpt lat="45.96542" lon="4.87076">
        <ele>283</ele>
        <time>2017-05-10T09:12:10Z</time>
      </trkpt>
      <trkpt lat="45.9654" lon="4.87066">
        <ele>283</ele>
        <time>2017-05-10T09:12:14Z</time>
      </trkpt>
      <trkpt lat="45.96538" lon="4.87064">
        <ele>283</ele>
        <time>2017-05-10T09:12:15Z</time>
      </trkpt>
      <trkpt lat="45.96533" lon="4.87058">
        <ele>283</ele>
        <time>2017-05-10T09:12:17Z</time>
      </trkpt>
      <trkpt lat="45.96531" lon="4.87055">
        <ele>283</ele>
        <time>2017-05-10T09:12:18Z</time>
      </trkpt>
      <trkpt lat="45.96526" lon="4.87047">
        <ele>283</ele>
        <time>2017-05-10T09:12:20Z</time>
      </trkpt>
      <trkpt lat="45.96524" lon="4.87043">
        <ele>283</ele>
        <time>2017-05-10T09:12:21Z</time>
      </trkpt>
      <trkpt lat="45.96518" lon="4.87039">
        <ele>283</ele>
        <time>2017-05-10T09:12:23Z</time>
      </trkpt>
      <trkpt lat="45.96513" lon="4.87039">
        <ele>283</ele>
        <time>2017-05-10T09:12:24Z</time>
      </trkpt>
      <trkpt lat="45.96505" lon="4.87045">
        <ele>282</ele>
        <time>2017-05-10T09:12:26Z</time>
      </trkpt>
      <trkpt lat="45.96501" lon="4.87049">
        <ele>282</ele>
        <time>2017-05-10T09:12:27Z</time>
      </trkpt>
      <trkpt lat="45.96497" lon="4.87053">
        <ele>281</ele>
        <time>2017-05-10T09:12:28Z</time>
      </trkpt>
      <trkpt lat="45.96493" lon="4.87057">
        <ele>281</ele>
        <time>2017-05-10T09:12:29Z</time>
      </trkpt>
      <trkpt lat="45.96489" lon="4.87061">
        <ele>282</ele>
        <time>2017-05-10T09:12:30Z</time>
      </trkpt>
      <trkpt lat="45.96485" lon="4.87066">
        <ele>282</ele>
        <time>2017-05-10T09:12:31Z</time>
      </trkpt>
      <trkpt lat="45.96481" lon="4.87071">
        <ele>282</ele>
        <time>2017-05-10T09:12:32Z</time>
      </trkpt>
      <trkpt lat="45.96478" lon="4.87075">
        <ele>282</ele>
        <time>2017-05-10T09:12:33Z</time>
      </trkpt>
      <trkpt lat="45.96474" lon="4.87079">
        <ele>281</ele>
        <time>2017-05-10T09:12:34Z</time>
      </trkpt>
      <trkpt lat="45.9647" lon="4.87084">
        <ele>282</ele>
        <time>2017-05-10T09:12:35Z</time>
      </trkpt>
      <trkpt lat="45.96466" lon="4.87087">
        <ele>282</ele>
        <time>2017-05-10T09:12:36Z</time>
      </trkpt>
      <trkpt lat="45.96462" lon="4.87091">
        <ele>282</ele>
        <time>2017-05-10T09:12:37Z</time>
      </trkpt>
      <trkpt lat="45.96455" lon="4.87099">
        <ele>281</ele>
        <time>2017-05-10T09:12:39Z</time>
      </trkpt>
      <trkpt lat="45.96452" lon="4.87103">
        <ele>281</ele>
        <time>2017-05-10T09:12:40Z</time>
      </trkpt>
      <trkpt lat="45.96446" lon="4.87111">
        <ele>281</ele>
        <time>2017-05-10T09:12:42Z</time>
      </trkpt>
      <trkpt lat="45.96443" lon="4.87115">
        <ele>281</ele>
        <time>2017-05-10T09:12:43Z</time>
      </trkpt>
      <trkpt lat="45.96437" lon="4.87123">
        <ele>281</ele>
        <time>2017-05-10T09:12:45Z</time>
      </trkpt>
      <trkpt lat="45.96434" lon="4.87127">
        <ele>281</ele>
        <time>2017-05-10T09:12:46Z</time>
      </trkpt>
      <trkpt lat="45.96427" lon="4.87134">
        <ele>281</ele>
        <time>2017-05-10T09:12:48Z</time>
      </trkpt>
      <trkpt lat="45.96424" lon="4.87138">
        <ele>281</ele>
        <time>2017-05-10T09:12:49Z</time>
      </trkpt>
      <trkpt lat="45.96419" lon="4.87147">
        <ele>281</ele>
        <time>2017-05-10T09:12:51Z</time>
      </trkpt>
      <trkpt lat="45.96416" lon="4.87151">
        <ele>281</ele>
        <time>2017-05-10T09:12:52Z</time>
      </trkpt>
      <trkpt lat="45.96409" lon="4.87159">
        <ele>281</ele>
        <time>2017-05-10T09:12:54Z</time>
      </trkpt>
      <trkpt lat="45.96406" lon="4.87163">
        <ele>281</ele>
        <time>2017-05-10T09:12:55Z</time>
      </trkpt>
      <trkpt lat="45.964" lon="4.87171">
        <ele>281</ele>
        <time>2017-05-10T09:12:57Z</time>
      </trkpt>
      <trkpt lat="45.96396" lon="4.87175">
        <ele>282</ele>
        <time>2017-05-10T09:12:58Z</time>
      </trkpt>
      <trkpt lat="45.9639" lon="4.87183">
        <ele>282</ele>
        <time>2017-05-10T09:13:00Z</time>
      </trkpt>
      <trkpt lat="45.96387" lon="4.87187">
        <ele>282</ele>
        <time>2017-05-10T09:13:01Z</time>
      </trkpt>
      <trkpt lat="45.96381" lon="4.87196">
        <ele>282</ele>
        <time>2017-05-10T09:13:03Z</time>
      </trkpt>
      <trkpt lat="45.96378" lon="4.872">
        <ele>282</ele>
        <time>2017-05-10T09:13:04Z</time>
      </trkpt>
      <trkpt lat="45.96372" lon="4.87209">
        <ele>282</ele>
        <time>2017-05-10T09:13:06Z</time>
      </trkpt>
      <trkpt lat="45.96369" lon="4.87213">
        <ele>282</ele>
        <time>2017-05-10T09:13:07Z</time>
      </trkpt>
      <trkpt lat="45.96366" lon="4.87218">
        <ele>282</ele>
        <time>2017-05-10T09:13:08Z</time>
      </trkpt>
      <trkpt lat="45.96363" lon="4.87222">
        <ele>282</ele>
        <time>2017-05-10T09:13:09Z</time>
      </trkpt>
      <trkpt lat="45.96359" lon="4.87227">
        <ele>282</ele>
        <time>2017-05-10T09:13:10Z</time>
      </trkpt>
      <trkpt lat="45.96356" lon="4.87231">
        <ele>282</ele>
        <time>2017-05-10T09:13:11Z</time>
      </trkpt>
      <trkpt lat="45.9635" lon="4.8724">
        <ele>282</ele>
        <time>2017-05-10T09:13:13Z</time>
      </trkpt>
      <trkpt lat="45.96347" lon="4.87244">
        <ele>283</ele>
        <time>2017-05-10T09:13:14Z</time>
      </trkpt>
      <trkpt lat="45.9634" lon="4.87252">
        <ele>283</ele>
        <time>2017-05-10T09:13:16Z</time>
      </trkpt>
      <trkpt lat="45.96337" lon="4.87256">
        <ele>283</ele>
        <time>2017-05-10T09:13:17Z</time>
      </trkpt>
      <trkpt lat="45.9633" lon="4.87265">
        <ele>283</ele>
        <time>2017-05-10T09:13:19Z</time>
      </trkpt>
      <trkpt lat="45.96327" lon="4.87269">
        <ele>283</ele>
        <time>2017-05-10T09:13:20Z</time>
      </trkpt>
      <trkpt lat="45.96321" lon="4.87278">
        <ele>283</ele>
        <time>2017-05-10T09:13:22Z</time>
      </trkpt>
      <trkpt lat="45.96318" lon="4.87283">
        <ele>283</ele>
        <time>2017-05-10T09:13:23Z</time>
      </trkpt>
      <trkpt lat="45.96312" lon="4.87291">
        <ele>283</ele>
        <time>2017-05-10T09:13:25Z</time>
      </trkpt>
      <trkpt lat="45.9631" lon="4.87296">
        <ele>283</ele>
        <time>2017-05-10T09:13:26Z</time>
      </trkpt>
      <trkpt lat="45.96303" lon="4.87305">
        <ele>283</ele>
        <time>2017-05-10T09:13:28Z</time>
      </trkpt>
      <trkpt lat="45.963" lon="4.87309">
        <ele>283</ele>
        <time>2017-05-10T09:13:29Z</time>
      </trkpt>
      <trkpt lat="45.96296" lon="4.87313">
        <ele>283</ele>
        <time>2017-05-10T09:13:30Z</time>
      </trkpt>
      <trkpt lat="45.96293" lon="4.87318">
        <ele>283</ele>
        <time>2017-05-10T09:13:31Z</time>
      </trkpt>
      <trkpt lat="45.96289" lon="4.87322">
        <ele>283</ele>
        <time>2017-05-10T09:13:32Z</time>
      </trkpt>
      <trkpt lat="45.96286" lon="4.87326">
        <ele>283</ele>
        <time>2017-05-10T09:13:33Z</time>
      </trkpt>
      <trkpt lat="45.96282" lon="4.87331">
        <ele>283</ele>
        <time>2017-05-10T09:13:34Z</time>
      </trkpt>
      <trkpt lat="45.96279" lon="4.87335">
        <ele>284</ele>
        <time>2017-05-10T09:13:35Z</time>
      </trkpt>
      <trkpt lat="45.96272" lon="4.87342">
        <ele>283</ele>
        <time>2017-05-10T09:13:37Z</time>
      </trkpt>
      <trkpt lat="45.96269" lon="4.87346">
        <ele>283</ele>
        <time>2017-05-10T09:13:38Z</time>
      </trkpt>
      <trkpt lat="45.96266" lon="4.87351">
        <ele>283</ele>
        <time>2017-05-10T09:13:39Z</time>
      </trkpt>
      <trkpt lat="45.96262" lon="4.87356">
        <ele>283</ele>
        <time>2017-05-10T09:13:40Z</time>
      </trkpt>
      <trkpt lat="45.96259" lon="4.8736">
        <ele>283</ele>
        <time>2017-05-10T09:13:41Z</time>
      </trkpt>
      <trkpt lat="45.96255" lon="4.87365">
        <ele>283</ele>
        <time>2017-05-10T09:13:42Z</time>
      </trkpt>
      <trkpt lat="45.96251" lon="4.87369">
        <ele>283</ele>
        <time>2017-05-10T09:13:43Z</time>
      </trkpt>
      <trkpt lat="45.96248" lon="4.87374">
        <ele>283</ele>
        <time>2017-05-10T09:13:44Z</time>
      </trkpt>
      <trkpt lat="45.96244" lon="4.87378">
        <ele>283</ele>
        <time>2017-05-10T09:13:45Z</time>
      </trkpt>
      <trkpt lat="45.96241" lon="4.87382">
        <ele>283</ele>
        <time>2017-05-10T09:13:46Z</time>
      </trkpt>
      <trkpt lat="45.96234" lon="4.8739">
        <ele>283</ele>
        <time>2017-05-10T09:13:48Z</time>
      </trkpt>
      <trkpt lat="45.96231" lon="4.87394">
        <ele>283</ele>
        <time>2017-05-10T09:13:49Z</time>
      </trkpt>
      <trkpt lat="45.96225" lon="4.87401">
        <ele>283</ele>
        <time>2017-05-10T09:13:51Z</time>
      </trkpt>
      <trkpt lat="45.96222" lon="4.87405">
        <ele>283</ele>
        <time>2017-05-10T09:13:52Z</time>
      </trkpt>
      <trkpt lat="45.96216" lon="4.87412">
        <ele>283</ele>
        <time>2017-05-10T09:13:54Z</time>
      </trkpt>
      <trkpt lat="45.96213" lon="4.87416">
        <ele>283</ele>
        <time>2017-05-10T09:13:55Z</time>
      </trkpt>
      <trkpt lat="45.96208" lon="4.87422">
        <ele>284</ele>
        <time>2017-05-10T09:13:57Z</time>
      </trkpt>
      <trkpt lat="45.96206" lon="4.87424">
        <ele>284</ele>
        <time>2017-05-10T09:13:58Z</time>
      </trkpt>
      <trkpt lat="45.96201" lon="4.87429">
        <ele>284</ele>
        <time>2017-05-10T09:14:00Z</time>
      </trkpt>
      <trkpt lat="45.96199" lon="4.87432">
        <ele>284</ele>
        <time>2017-05-10T09:14:01Z</time>
      </trkpt>
      <trkpt lat="45.96192" lon="4.87439">
        <ele>284</ele>
        <time>2017-05-10T09:14:03Z</time>
      </trkpt>
      <trkpt lat="45.96189" lon="4.87443">
        <ele>284</ele>
        <time>2017-05-10T09:14:04Z</time>
      </trkpt>
      <trkpt lat="45.96185" lon="4.87446">
        <ele>284</ele>
        <time>2017-05-10T09:14:05Z</time>
      </trkpt>
      <trkpt lat="45.96182" lon="4.8745">
        <ele>284</ele>
        <time>2017-05-10T09:14:06Z</time>
      </trkpt>
      <trkpt lat="45.96178" lon="4.87455">
        <ele>284</ele>
        <time>2017-05-10T09:14:07Z</time>
      </trkpt>
      <trkpt lat="45.96174" lon="4.87459">
        <ele>284</ele>
        <time>2017-05-10T09:14:08Z</time>
      </trkpt>
      <trkpt lat="45.96167" lon="4.87466">
        <ele>284</ele>
        <time>2017-05-10T09:14:10Z</time>
      </trkpt>
      <trkpt lat="45.96164" lon="4.8747">
        <ele>285</ele>
        <time>2017-05-10T09:14:11Z</time>
      </trkpt>
      <trkpt lat="45.96158" lon="4.87477">
        <ele>285</ele>
        <time>2017-05-10T09:14:13Z</time>
      </trkpt>
      <trkpt lat="45.96154" lon="4.87481">
        <ele>285</ele>
        <time>2017-05-10T09:14:14Z</time>
      </trkpt>
      <trkpt lat="45.96148" lon="4.87489">
        <ele>285</ele>
        <time>2017-05-10T09:14:16Z</time>
      </trkpt>
      <trkpt lat="45.96144" lon="4.87493">
        <ele>285</ele>
        <time>2017-05-10T09:14:17Z</time>
      </trkpt>
      <trkpt lat="45.96137" lon="4.875">
        <ele>286</ele>
        <time>2017-05-10T09:14:19Z</time>
      </trkpt>
      <trkpt lat="45.96134" lon="4.87504">
        <ele>286</ele>
        <time>2017-05-10T09:14:20Z</time>
      </trkpt>
      <trkpt lat="45.96128" lon="4.87512">
        <ele>286</ele>
        <time>2017-05-10T09:14:22Z</time>
      </trkpt>
      <trkpt lat="45.96125" lon="4.87515">
        <ele>286</ele>
        <time>2017-05-10T09:14:23Z</time>
      </trkpt>
      <trkpt lat="45.96119" lon="4.87522">
        <ele>286</ele>
        <time>2017-05-10T09:14:25Z</time>
      </trkpt>
      <trkpt lat="45.96115" lon="4.87526">
        <ele>287</ele>
        <time>2017-05-10T09:14:26Z</time>
      </trkpt>
      <trkpt lat="45.96108" lon="4.87533">
        <ele>287</ele>
        <time>2017-05-10T09:14:28Z</time>
      </trkpt>
      <trkpt lat="45.96105" lon="4.87537">
        <ele>287</ele>
        <time>2017-05-10T09:14:29Z</time>
      </trkpt>
      <trkpt lat="45.96098" lon="4.87545">
        <ele>287</ele>
        <time>2017-05-10T09:14:31Z</time>
      </trkpt>
      <trkpt lat="45.96094" lon="4.87548">
        <ele>287</ele>
        <time>2017-05-10T09:14:32Z</time>
      </trkpt>
      <trkpt lat="45.96088" lon="4.87555">
        <ele>287</ele>
        <time>2017-05-10T09:14:34Z</time>
      </trkpt>
      <trkpt lat="45.96085" lon="4.87558">
        <ele>287</ele>
        <time>2017-05-10T09:14:35Z</time>
      </trkpt>
      <trkpt lat="45.96079" lon="4.87565">
        <ele>288</ele>
        <time>2017-05-10T09:14:37Z</time>
      </trkpt>
      <trkpt lat="45.96076" lon="4.87569">
        <ele>288</ele>
        <time>2017-05-10T09:14:38Z</time>
      </trkpt>
      <trkpt lat="45.96069" lon="4.87575">
        <ele>288</ele>
        <time>2017-05-10T09:14:40Z</time>
      </trkpt>
      <trkpt lat="45.96066" lon="4.87579">
        <ele>288</ele>
        <time>2017-05-10T09:14:41Z</time>
      </trkpt>
      <trkpt lat="45.9606" lon="4.87587">
        <ele>288</ele>
        <time>2017-05-10T09:14:43Z</time>
      </trkpt>
      <trkpt lat="45.96056" lon="4.87591">
        <ele>288</ele>
        <time>2017-05-10T09:14:44Z</time>
      </trkpt>
      <trkpt lat="45.9605" lon="4.87599">
        <ele>289</ele>
        <time>2017-05-10T09:14:46Z</time>
      </trkpt>
      <trkpt lat="45.96047" lon="4.87602">
        <ele>289</ele>
        <time>2017-05-10T09:14:47Z</time>
      </trkpt>
      <trkpt lat="45.96043" lon="4.87606">
        <ele>289</ele>
        <time>2017-05-10T09:14:48Z</time>
      </trkpt>
      <trkpt lat="45.96039" lon="4.8761">
        <ele>289</ele>
        <time>2017-05-10T09:14:49Z</time>
      </trkpt>
      <trkpt lat="45.96036" lon="4.87615">
        <ele>289</ele>
        <time>2017-05-10T09:14:50Z</time>
      </trkpt>
      <trkpt lat="45.96032" lon="4.87619">
        <ele>289</ele>
        <time>2017-05-10T09:14:51Z</time>
      </trkpt>
      <trkpt lat="45.96028" lon="4.87624">
        <ele>289</ele>
        <time>2017-05-10T09:14:52Z</time>
      </trkpt>
      <trkpt lat="45.96024" lon="4.87628">
        <ele>289</ele>
        <time>2017-05-10T09:14:53Z</time>
      </trkpt>
      <trkpt lat="45.96021" lon="4.87632">
        <ele>289</ele>
        <time>2017-05-10T09:14:54Z</time>
      </trkpt>
      <trkpt lat="45.96017" lon="4.87637">
        <ele>289</ele>
        <time>2017-05-10T09:14:55Z</time>
      </trkpt>
      <trkpt lat="45.96013" lon="4.87641">
        <ele>289</ele>
        <time>2017-05-10T09:14:56Z</time>
      </trkpt>
      <trkpt lat="45.96009" lon="4.87644">
        <ele>289</ele>
        <time>2017-05-10T09:14:57Z</time>
      </trkpt>
      <trkpt lat="45.96002" lon="4.87652">
        <ele>289</ele>
        <time>2017-05-10T09:14:59Z</time>
      </trkpt>
      <trkpt lat="45.95999" lon="4.87656">
        <ele>289</ele>
        <time>2017-05-10T09:15:00Z</time>
      </trkpt>
      <trkpt lat="45.95992" lon="4.87663">
        <ele>289</ele>
        <time>2017-05-10T09:15:02Z</time>
      </trkpt>
      <trkpt lat="45.95989" lon="4.87667">
        <ele>289</ele>
        <time>2017-05-10T09:15:03Z</time>
      </trkpt>
      <trkpt lat="45.95983" lon="4.87673">
        <ele>289</ele>
        <time>2017-05-10T09:15:05Z</time>
      </trkpt>
      <trkpt lat="45.9598" lon="4.87677">
        <ele>289</ele>
        <time>2017-05-10T09:15:06Z</time>
      </trkpt>
      <trkpt lat="45.95974" lon="4.87684">
        <ele>289</ele>
        <time>2017-05-10T09:15:08Z</time>
      </trkpt>
      <trkpt lat="45.95971" lon="4.87688">
        <ele>289</ele>
        <time>2017-05-10T09:15:09Z</time>
      </trkpt>
      <trkpt lat="45.95965" lon="4.87697">
        <ele>289</ele>
        <time>2017-05-10T09:15:11Z</time>
      </trkpt>
      <trkpt lat="45.95961" lon="4.87701">
        <ele>289</ele>
        <time>2017-05-10T09:15:12Z</time>
      </trkpt>
      <trkpt lat="45.95955" lon="4.8771">
        <ele>289</ele>
        <time>2017-05-10T09:15:14Z</time>
      </trkpt>
      <trkpt lat="45.95951" lon="4.87714">
        <ele>289</ele>
        <time>2017-05-10T09:15:15Z</time>
      </trkpt>
      <trkpt lat="45.95946" lon="4.87723">
        <ele>289</ele>
        <time>2017-05-10T09:15:17Z</time>
      </trkpt>
      <trkpt lat="45.95943" lon="4.87727">
        <ele>289</ele>
        <time>2017-05-10T09:15:18Z</time>
      </trkpt>
      <trkpt lat="45.95938" lon="4.87735">
        <ele>288</ele>
        <time>2017-05-10T09:15:20Z</time>
      </trkpt>
      <trkpt lat="45.95935" lon="4.87739">
        <ele>288</ele>
        <time>2017-05-10T09:15:21Z</time>
      </trkpt>
      <trkpt lat="45.9593" lon="4.87747">
        <ele>288</ele>
        <time>2017-05-10T09:15:23Z</time>
      </trkpt>
      <trkpt lat="45.95928" lon="4.8775">
        <ele>288</ele>
        <time>2017-05-10T09:15:24Z</time>
      </trkpt>
      <trkpt lat="45.95923" lon="4.87757">
        <ele>288</ele>
        <time>2017-05-10T09:15:26Z</time>
      </trkpt>
      <trkpt lat="45.9592" lon="4.8776">
        <ele>288</ele>
        <time>2017-05-10T09:15:27Z</time>
      </trkpt>
      <trkpt lat="45.95916" lon="4.87767">
        <ele>288</ele>
        <time>2017-05-10T09:15:29Z</time>
      </trkpt>
      <trkpt lat="45.95914" lon="4.87771">
        <ele>288</ele>
        <time>2017-05-10T09:15:30Z</time>
      </trkpt>
      <trkpt lat="45.95909" lon="4.87779">
        <ele>288</ele>
        <time>2017-05-10T09:15:32Z</time>
      </trkpt>
      <trkpt lat="45.95906" lon="4.87784">
        <ele>288</ele>
        <time>2017-05-10T09:15:33Z</time>
      </trkpt>
      <trkpt lat="45.95901" lon="4.87792">
        <ele>288</ele>
        <time>2017-05-10T09:15:35Z</time>
      </trkpt>
      <trkpt lat="45.95899" lon="4.87797">
        <ele>288</ele>
        <time>2017-05-10T09:15:36Z</time>
      </trkpt>
      <trkpt lat="45.95893" lon="4.87805">
        <ele>288</ele>
        <time>2017-05-10T09:15:38Z</time>
      </trkpt>
      <trkpt lat="45.9589" lon="4.87809">
        <ele>288</ele>
        <time>2017-05-10T09:15:39Z</time>
      </trkpt>
      <trkpt lat="45.95883" lon="4.87817">
        <ele>288</ele>
        <time>2017-05-10T09:15:41Z</time>
      </trkpt>
      <trkpt lat="45.9588" lon="4.8782">
        <ele>288</ele>
        <time>2017-05-10T09:15:42Z</time>
      </trkpt>
      <trkpt lat="45.95873" lon="4.87826">
        <ele>288</ele>
        <time>2017-05-10T09:15:44Z</time>
      </trkpt>
      <trkpt lat="45.9587" lon="4.87828">
        <ele>288</ele>
        <time>2017-05-10T09:15:45Z</time>
      </trkpt>
      <trkpt lat="45.95863" lon="4.87834">
        <ele>289</ele>
        <time>2017-05-10T09:15:47Z</time>
      </trkpt>
      <trkpt lat="45.95859" lon="4.87835">
        <ele>289</ele>
        <time>2017-05-10T09:15:48Z</time>
      </trkpt>
      <trkpt lat="45.95851" lon="4.87839">
        <ele>289</ele>
        <time>2017-05-10T09:15:50Z</time>
      </trkpt>
      <trkpt lat="45.95847" lon="4.87841">
        <ele>288</ele>
        <time>2017-05-10T09:15:51Z</time>
      </trkpt>
      <trkpt lat="45.95839" lon="4.87843">
        <ele>288</ele>
        <time>2017-05-10T09:15:54Z</time>
      </trkpt>
      <trkpt lat="45.95838" lon="4.87843">
        <ele>288</ele>
        <time>2017-05-10T09:15:55Z</time>
      </trkpt>
      <trkpt lat="45.95837" lon="4.87844">
        <ele>288</ele>
        <time>2017-05-10T09:15:56Z</time>
      </trkpt>
      <trkpt lat="45.95832" lon="4.87844">
        <ele>287</ele>
        <time>2017-05-10T09:16:02Z</time>
      </trkpt>
      <trkpt lat="45.95831" lon="4.87845">
        <ele>287</ele>
        <time>2017-05-10T09:16:03Z</time>
      </trkpt>
      <trkpt lat="45.95824" lon="4.87851">
        <ele>287</ele>
        <time>2017-05-10T09:16:06Z</time>
      </trkpt>
      <trkpt lat="45.95822" lon="4.87856">
        <ele>287</ele>
        <time>2017-05-10T09:16:07Z</time>
      </trkpt>
      <trkpt lat="45.95817" lon="4.87864">
        <ele>287</ele>
        <time>2017-05-10T09:16:09Z</time>
      </trkpt>
      <trkpt lat="45.95813" lon="4.87868">
        <ele>287</ele>
        <time>2017-05-10T09:16:10Z</time>
      </trkpt>
      <trkpt lat="45.95809" lon="4.87871">
        <ele>287</ele>
        <time>2017-05-10T09:16:11Z</time>
      </trkpt>
      <trkpt lat="45.95805" lon="4.87875">
        <ele>287</ele>
        <time>2017-05-10T09:16:12Z</time>
      </trkpt>
      <trkpt lat="45.958" lon="4.87879">
        <ele>287</ele>
        <time>2017-05-10T09:16:13Z</time>
      </trkpt>
      <trkpt lat="45.95796" lon="4.87884">
        <ele>286</ele>
        <time>2017-05-10T09:16:14Z</time>
      </trkpt>
      <trkpt lat="45.95792" lon="4.87888">
        <ele>286</ele>
        <time>2017-05-10T09:16:15Z</time>
      </trkpt>
      <trkpt lat="45.95788" lon="4.87892">
        <ele>286</ele>
        <time>2017-05-10T09:16:16Z</time>
      </trkpt>
      <trkpt lat="45.95783" lon="4.87895">
        <ele>286</ele>
        <time>2017-05-10T09:16:17Z</time>
      </trkpt>
      <trkpt lat="45.95778" lon="4.87898">
        <ele>286</ele>
        <time>2017-05-10T09:16:18Z</time>
      </trkpt>
      <trkpt lat="45.95773" lon="4.87902">
        <ele>286</ele>
        <time>2017-05-10T09:16:19Z</time>
      </trkpt>
      <trkpt lat="45.95768" lon="4.87905">
        <ele>286</ele>
        <time>2017-05-10T09:16:20Z</time>
      </trkpt>
      <trkpt lat="45.95763" lon="4.87908">
        <ele>286</ele>
        <time>2017-05-10T09:16:21Z</time>
      </trkpt>
      <trkpt lat="45.95758" lon="4.87912">
        <ele>285</ele>
        <time>2017-05-10T09:16:22Z</time>
      </trkpt>
      <trkpt lat="45.95752" lon="4.87916">
        <ele>285</ele>
        <time>2017-05-10T09:16:23Z</time>
      </trkpt>
      <trkpt lat="45.95747" lon="4.87921">
        <ele>285</ele>
        <time>2017-05-10T09:16:24Z</time>
      </trkpt>
      <trkpt lat="45.95741" lon="4.87925">
        <ele>284</ele>
        <time>2017-05-10T09:16:25Z</time>
      </trkpt>
      <trkpt lat="45.95736" lon="4.8793">
        <ele>284</ele>
        <time>2017-05-10T09:16:26Z</time>
      </trkpt>
      <trkpt lat="45.9573" lon="4.87934">
        <ele>283</ele>
        <time>2017-05-10T09:16:27Z</time>
      </trkpt>
      <trkpt lat="45.95724" lon="4.87938">
        <ele>283</ele>
        <time>2017-05-10T09:16:28Z</time>
      </trkpt>
      <trkpt lat="45.95718" lon="4.87943">
        <ele>283</ele>
        <time>2017-05-10T09:16:29Z</time>
      </trkpt>
      <trkpt lat="45.95712" lon="4.87949">
        <ele>283</ele>
        <time>2017-05-10T09:16:30Z</time>
      </trkpt>
      <trkpt lat="45.95706" lon="4.87954">
        <ele>283</ele>
        <time>2017-05-10T09:16:31Z</time>
      </trkpt>
      <trkpt lat="45.957" lon="4.87959">
        <ele>282</ele>
        <time>2017-05-10T09:16:32Z</time>
      </trkpt>
      <trkpt lat="45.95693" lon="4.87965">
        <ele>282</ele>
        <time>2017-05-10T09:16:33Z</time>
      </trkpt>
      <trkpt lat="45.95687" lon="4.87971">
        <ele>282</ele>
        <time>2017-05-10T09:16:34Z</time>
      </trkpt>
      <trkpt lat="45.95681" lon="4.87976">
        <ele>282</ele>
        <time>2017-05-10T09:16:35Z</time>
      </trkpt>
      <trkpt lat="45.95674" lon="4.87982">
        <ele>282</ele>
        <time>2017-05-10T09:16:36Z</time>
      </trkpt>
      <trkpt lat="45.95668" lon="4.87988">
        <ele>282</ele>
        <time>2017-05-10T09:16:37Z</time>
      </trkpt>
      <trkpt lat="45.95662" lon="4.87994">
        <ele>280</ele>
        <time>2017-05-10T09:16:38Z</time>
      </trkpt>
      <trkpt lat="45.95655" lon="4.88">
        <ele>280</ele>
        <time>2017-05-10T09:16:39Z</time>
      </trkpt>
      <trkpt lat="45.95649" lon="4.88006">
        <ele>280</ele>
        <time>2017-05-10T09:16:40Z</time>
      </trkpt>
      <trkpt lat="45.95642" lon="4.88012">
        <ele>279</ele>
        <time>2017-05-10T09:16:41Z</time>
      </trkpt>
      <trkpt lat="45.95636" lon="4.88018">
        <ele>279</ele>
        <time>2017-05-10T09:16:42Z</time>
      </trkpt>
      <trkpt lat="45.9563" lon="4.88024">
        <ele>279</ele>
        <time>2017-05-10T09:16:43Z</time>
      </trkpt>
      <trkpt lat="45.95624" lon="4.8803">
        <ele>278</ele>
        <time>2017-05-10T09:16:44Z</time>
      </trkpt>
      <trkpt lat="45.95617" lon="4.88036">
        <ele>278</ele>
        <time>2017-05-10T09:16:45Z</time>
      </trkpt>
      <trkpt lat="45.95611" lon="4.88042">
        <ele>278</ele>
        <time>2017-05-10T09:16:46Z</time>
      </trkpt>
      <trkpt lat="45.95606" lon="4.88048">
        <ele>278</ele>
        <time>2017-05-10T09:16:47Z</time>
      </trkpt>
      <trkpt lat="45.956" lon="4.88053">
        <ele>278</ele>
        <time>2017-05-10T09:16:48Z</time>
      </trkpt>
      <trkpt lat="45.95594" lon="4.88058">
        <ele>278</ele>
        <time>2017-05-10T09:16:49Z</time>
      </trkpt>
      <trkpt lat="45.95589" lon="4.88063">
        <ele>278</ele>
        <time>2017-05-10T09:16:50Z</time>
      </trkpt>
      <trkpt lat="45.95583" lon="4.88067">
        <ele>276</ele>
        <time>2017-05-10T09:16:51Z</time>
      </trkpt>
      <trkpt lat="45.95578" lon="4.88071">
        <ele>276</ele>
        <time>2017-05-10T09:16:52Z</time>
      </trkpt>
      <trkpt lat="45.95572" lon="4.88075">
        <ele>276</ele>
        <time>2017-05-10T09:16:53Z</time>
      </trkpt>
      <trkpt lat="45.95567" lon="4.88079">
        <ele>276</ele>
        <time>2017-05-10T09:16:54Z</time>
      </trkpt>
      <trkpt lat="45.95561" lon="4.88082">
        <ele>276</ele>
        <time>2017-05-10T09:16:55Z</time>
      </trkpt>
      <trkpt lat="45.95556" lon="4.88084">
        <ele>277</ele>
        <time>2017-05-10T09:16:56Z</time>
      </trkpt>
      <trkpt lat="45.9555" lon="4.88087">
        <ele>277</ele>
        <time>2017-05-10T09:16:57Z</time>
      </trkpt>
      <trkpt lat="45.95544" lon="4.8809">
        <ele>277</ele>
        <time>2017-05-10T09:16:58Z</time>
      </trkpt>
      <trkpt lat="45.95539" lon="4.88092">
        <ele>277</ele>
        <time>2017-05-10T09:16:59Z</time>
      </trkpt>
      <trkpt lat="45.95533" lon="4.88095">
        <ele>277</ele>
        <time>2017-05-10T09:17:00Z</time>
      </trkpt>
      <trkpt lat="45.95527" lon="4.88098">
        <ele>277</ele>
        <time>2017-05-10T09:17:01Z</time>
      </trkpt>
      <trkpt lat="45.95522" lon="4.88101">
        <ele>276</ele>
        <time>2017-05-10T09:17:02Z</time>
      </trkpt>
      <trkpt lat="45.95516" lon="4.88103">
        <ele>276</ele>
        <time>2017-05-10T09:17:03Z</time>
      </trkpt>
      <trkpt lat="45.95511" lon="4.88106">
        <ele>276</ele>
        <time>2017-05-10T09:17:04Z</time>
      </trkpt>
      <trkpt lat="45.95505" lon="4.88108">
        <ele>276</ele>
        <time>2017-05-10T09:17:05Z</time>
      </trkpt>
      <trkpt lat="45.95499" lon="4.88111">
        <ele>276</ele>
        <time>2017-05-10T09:17:06Z</time>
      </trkpt>
      <trkpt lat="45.95494" lon="4.88113">
        <ele>276</ele>
        <time>2017-05-10T09:17:07Z</time>
      </trkpt>
      <trkpt lat="45.95489" lon="4.88116">
        <ele>276</ele>
        <time>2017-05-10T09:17:08Z</time>
      </trkpt>
      <trkpt lat="45.95483" lon="4.88118">
        <ele>276</ele>
        <time>2017-05-10T09:17:09Z</time>
      </trkpt>
      <trkpt lat="45.95478" lon="4.8812">
        <ele>276</ele>
        <time>2017-05-10T09:17:10Z</time>
      </trkpt>
      <trkpt lat="45.95473" lon="4.88123">
        <ele>276</ele>
        <time>2017-05-10T09:17:11Z</time>
      </trkpt>
      <trkpt lat="45.95468" lon="4.88125">
        <ele>276</ele>
        <time>2017-05-10T09:17:12Z</time>
      </trkpt>
      <trkpt lat="45.95463" lon="4.88127">
        <ele>276</ele>
        <time>2017-05-10T09:17:13Z</time>
      </trkpt>
      <trkpt lat="45.95458" lon="4.8813">
        <ele>276</ele>
        <time>2017-05-10T09:17:14Z</time>
      </trkpt>
      <trkpt lat="45.95453" lon="4.88132">
        <ele>276</ele>
        <time>2017-05-10T09:17:15Z</time>
      </trkpt>
      <trkpt lat="45.95448" lon="4.88134">
        <ele>276</ele>
        <time>2017-05-10T09:17:16Z</time>
      </trkpt>
      <trkpt lat="45.95442" lon="4.88136">
        <ele>276</ele>
        <time>2017-05-10T09:17:17Z</time>
      </trkpt>
      <trkpt lat="45.95437" lon="4.88139">
        <ele>276</ele>
        <time>2017-05-10T09:17:18Z</time>
      </trkpt>
      <trkpt lat="45.95432" lon="4.88142">
        <ele>276</ele>
        <time>2017-05-10T09:17:19Z</time>
      </trkpt>
      <trkpt lat="45.95426" lon="4.88145">
        <ele>276</ele>
        <time>2017-05-10T09:17:20Z</time>
      </trkpt>
      <trkpt lat="45.9542" lon="4.88148">
        <ele>276</ele>
        <time>2017-05-10T09:17:21Z</time>
      </trkpt>
      <trkpt lat="45.95415" lon="4.88151">
        <ele>276</ele>
        <time>2017-05-10T09:17:22Z</time>
      </trkpt>
      <trkpt lat="45.95409" lon="4.88153">
        <ele>276</ele>
        <time>2017-05-10T09:17:23Z</time>
      </trkpt>
      <trkpt lat="45.95403" lon="4.88156">
        <ele>276</ele>
        <time>2017-05-10T09:17:24Z</time>
      </trkpt>
      <trkpt lat="45.95397" lon="4.88158">
        <ele>276</ele>
        <time>2017-05-10T09:17:25Z</time>
      </trkpt>
      <trkpt lat="45.95392" lon="4.88159">
        <ele>276</ele>
        <time>2017-05-10T09:17:26Z</time>
      </trkpt>
      <trkpt lat="45.95386" lon="4.8816">
        <ele>276</ele>
        <time>2017-05-10T09:17:27Z</time>
      </trkpt>
      <trkpt lat="45.95381" lon="4.88162">
        <ele>276</ele>
        <time>2017-05-10T09:17:28Z</time>
      </trkpt>
      <trkpt lat="45.95376" lon="4.88162">
        <ele>276</ele>
        <time>2017-05-10T09:17:29Z</time>
      </trkpt>
      <trkpt lat="45.95371" lon="4.88162">
        <ele>276</ele>
        <time>2017-05-10T09:17:30Z</time>
      </trkpt>
      <trkpt lat="45.95366" lon="4.88163">
        <ele>276</ele>
        <time>2017-05-10T09:17:31Z</time>
      </trkpt>
      <trkpt lat="45.95361" lon="4.88163">
        <ele>277</ele>
        <time>2017-05-10T09:17:32Z</time>
      </trkpt>
      <trkpt lat="45.95355" lon="4.88164">
        <ele>277</ele>
        <time>2017-05-10T09:17:33Z</time>
      </trkpt>
      <trkpt lat="45.9535" lon="4.88165">
        <ele>277</ele>
        <time>2017-05-10T09:17:34Z</time>
      </trkpt>
      <trkpt lat="45.95345" lon="4.88166">
        <ele>277</ele>
        <time>2017-05-10T09:17:35Z</time>
      </trkpt>
      <trkpt lat="45.9534" lon="4.88166">
        <ele>277</ele>
        <time>2017-05-10T09:17:36Z</time>
      </trkpt>
      <trkpt lat="45.95335" lon="4.88166">
        <ele>278</ele>
        <time>2017-05-10T09:17:37Z</time>
      </trkpt>
      <trkpt lat="45.9533" lon="4.88167">
        <ele>278</ele>
        <time>2017-05-10T09:17:38Z</time>
      </trkpt>
      <trkpt lat="45.95324" lon="4.88167">
        <ele>278</ele>
        <time>2017-05-10T09:17:39Z</time>
      </trkpt>
      <trkpt lat="45.95319" lon="4.88167">
        <ele>280</ele>
        <time>2017-05-10T09:17:40Z</time>
      </trkpt>
      <trkpt lat="45.95314" lon="4.88167">
        <ele>280</ele>
        <time>2017-05-10T09:17:41Z</time>
      </trkpt>
      <trkpt lat="45.95309" lon="4.88167">
        <ele>280</ele>
        <time>2017-05-10T09:17:42Z</time>
      </trkpt>
      <trkpt lat="45.95304" lon="4.88166">
        <ele>278</ele>
        <time>2017-05-10T09:17:43Z</time>
      </trkpt>
      <trkpt lat="45.95299" lon="4.88165">
        <ele>279</ele>
        <time>2017-05-10T09:17:44Z</time>
      </trkpt>
      <trkpt lat="45.95295" lon="4.88165">
        <ele>279</ele>
        <time>2017-05-10T09:17:45Z</time>
      </trkpt>
      <trkpt lat="45.9529" lon="4.88164">
        <ele>279</ele>
        <time>2017-05-10T09:17:46Z</time>
      </trkpt>
      <trkpt lat="45.95285" lon="4.88164">
        <ele>279</ele>
        <time>2017-05-10T09:17:47Z</time>
      </trkpt>
      <trkpt lat="45.9528" lon="4.88163">
        <ele>279</ele>
        <time>2017-05-10T09:17:48Z</time>
      </trkpt>
      <trkpt lat="45.95275" lon="4.88162">
        <ele>279</ele>
        <time>2017-05-10T09:17:49Z</time>
      </trkpt>
      <trkpt lat="45.9527" lon="4.88162">
        <ele>279</ele>
        <time>2017-05-10T09:17:50Z</time>
      </trkpt>
      <trkpt lat="45.95265" lon="4.88162">
        <ele>280</ele>
        <time>2017-05-10T09:17:51Z</time>
      </trkpt>
      <trkpt lat="45.95261" lon="4.88162">
        <ele>280</ele>
        <time>2017-05-10T09:17:52Z</time>
      </trkpt>
      <trkpt lat="45.95252" lon="4.88162">
        <ele>280</ele>
        <time>2017-05-10T09:17:54Z</time>
      </trkpt>
      <trkpt lat="45.95247" lon="4.88161">
        <ele>281</ele>
        <time>2017-05-10T09:17:55Z</time>
      </trkpt>
      <trkpt lat="45.9524" lon="4.88161">
        <ele>281</ele>
        <time>2017-05-10T09:17:57Z</time>
      </trkpt>
      <trkpt lat="45.95236" lon="4.88162">
        <ele>281</ele>
        <time>2017-05-10T09:17:58Z</time>
      </trkpt>
      <trkpt lat="45.95228" lon="4.88162">
        <ele>282</ele>
        <time>2017-05-10T09:18:00Z</time>
      </trkpt>
      <trkpt lat="45.95224" lon="4.88162">
        <ele>282</ele>
        <time>2017-05-10T09:18:01Z</time>
      </trkpt>
      <trkpt lat="45.95215" lon="4.88163">
        <ele>282</ele>
        <time>2017-05-10T09:18:03Z</time>
      </trkpt>
      <trkpt lat="45.95211" lon="4.88163">
        <ele>282</ele>
        <time>2017-05-10T09:18:04Z</time>
      </trkpt>
      <trkpt lat="45.95203" lon="4.88163">
        <ele>282</ele>
        <time>2017-05-10T09:18:06Z</time>
      </trkpt>
      <trkpt lat="45.95199" lon="4.88163">
        <ele>283</ele>
        <time>2017-05-10T09:18:07Z</time>
      </trkpt>
      <trkpt lat="45.95192" lon="4.88164">
        <ele>283</ele>
        <time>2017-05-10T09:18:09Z</time>
      </trkpt>
      <trkpt lat="45.95188" lon="4.88164">
        <ele>283</ele>
        <time>2017-05-10T09:18:10Z</time>
      </trkpt>
      <trkpt lat="45.95182" lon="4.88164">
        <ele>284</ele>
        <time>2017-05-10T09:18:12Z</time>
      </trkpt>
      <trkpt lat="45.95179" lon="4.88165">
        <ele>284</ele>
        <time>2017-05-10T09:18:13Z</time>
      </trkpt>
      <trkpt lat="45.9517" lon="4.88164">
        <ele>285</ele>
        <time>2017-05-10T09:18:17Z</time>
      </trkpt>
      <trkpt lat="45.9517" lon="4.8816">
        <ele>284</ele>
        <time>2017-05-10T09:18:18Z</time>
      </trkpt>
      <trkpt lat="45.95174" lon="4.8815">
        <ele>283</ele>
        <time>2017-05-10T09:18:20Z</time>
      </trkpt>
      <trkpt lat="45.95176" lon="4.88145">
        <ele>283</ele>
        <time>2017-05-10T09:18:21Z</time>
      </trkpt>
      <trkpt lat="45.95179" lon="4.88134">
        <ele>283</ele>
        <time>2017-05-10T09:18:23Z</time>
      </trkpt>
      <trkpt lat="45.9518" lon="4.88129">
        <ele>282</ele>
        <time>2017-05-10T09:18:24Z</time>
      </trkpt>
      <trkpt lat="45.95183" lon="4.88117">
        <ele>282</ele>
        <time>2017-05-10T09:18:26Z</time>
      </trkpt>
      <trkpt lat="45.95185" lon="4.8811">
        <ele>282</ele>
        <time>2017-05-10T09:18:27Z</time>
      </trkpt>
      <trkpt lat="45.95186" lon="4.88104">
        <ele>282</ele>
        <time>2017-05-10T09:18:28Z</time>
      </trkpt>
      <trkpt lat="45.95187" lon="4.88097">
        <ele>282</ele>
        <time>2017-05-10T09:18:29Z</time>
      </trkpt>
      <trkpt lat="45.95188" lon="4.8809">
        <ele>282</ele>
        <time>2017-05-10T09:18:30Z</time>
      </trkpt>
      <trkpt lat="45.9519" lon="4.88083">
        <ele>281</ele>
        <time>2017-05-10T09:18:31Z</time>
      </trkpt>
      <trkpt lat="45.95192" lon="4.88076">
        <ele>281</ele>
        <time>2017-05-10T09:18:32Z</time>
      </trkpt>
      <trkpt lat="45.95194" lon="4.8807">
        <ele>281</ele>
        <time>2017-05-10T09:18:33Z</time>
      </trkpt>
      <trkpt lat="45.95196" lon="4.88063">
        <ele>281</ele>
        <time>2017-05-10T09:18:34Z</time>
      </trkpt>
      <trkpt lat="45.95199" lon="4.88056">
        <ele>281</ele>
        <time>2017-05-10T09:18:35Z</time>
      </trkpt>
      <trkpt lat="45.95202" lon="4.8805">
        <ele>281</ele>
        <time>2017-05-10T09:18:36Z</time>
      </trkpt>
      <trkpt lat="45.95205" lon="4.88043">
        <ele>281</ele>
        <time>2017-05-10T09:18:37Z</time>
      </trkpt>
      <trkpt lat="45.95208" lon="4.88038">
        <ele>281</ele>
        <time>2017-05-10T09:18:38Z</time>
      </trkpt>
      <trkpt lat="45.95211" lon="4.88032">
        <ele>281</ele>
        <time>2017-05-10T09:18:39Z</time>
      </trkpt>
      <trkpt lat="45.95215" lon="4.88027">
        <ele>281</ele>
        <time>2017-05-10T09:18:40Z</time>
      </trkpt>
      <trkpt lat="45.95219" lon="4.88022">
        <ele>281</ele>
        <time>2017-05-10T09:18:41Z</time>
      </trkpt>
      <trkpt lat="45.95222" lon="4.88017">
        <ele>281</ele>
        <time>2017-05-10T09:18:42Z</time>
      </trkpt>
      <trkpt lat="45.95226" lon="4.88012">
        <ele>281</ele>
        <time>2017-05-10T09:18:43Z</time>
      </trkpt>
      <trkpt lat="45.95229" lon="4.88007">
        <ele>280</ele>
        <time>2017-05-10T09:18:44Z</time>
      </trkpt>
      <trkpt lat="45.95233" lon="4.88002">
        <ele>280</ele>
        <time>2017-05-10T09:18:45Z</time>
      </trkpt>
      <trkpt lat="45.95236" lon="4.87996">
        <ele>281</ele>
        <time>2017-05-10T09:18:46Z</time>
      </trkpt>
      <trkpt lat="45.9524" lon="4.87991">
        <ele>281</ele>
        <time>2017-05-10T09:18:47Z</time>
      </trkpt>
      <trkpt lat="45.95244" lon="4.87986">
        <ele>281</ele>
        <time>2017-05-10T09:18:48Z</time>
      </trkpt>
      <trkpt lat="45.95248" lon="4.8798">
        <ele>281</ele>
        <time>2017-05-10T09:18:49Z</time>
      </trkpt>
      <trkpt lat="45.95252" lon="4.87975">
        <ele>280</ele>
        <time>2017-05-10T09:18:50Z</time>
      </trkpt>
      <trkpt lat="45.95255" lon="4.87969">
        <ele>280</ele>
        <time>2017-05-10T09:18:51Z</time>
      </trkpt>
      <trkpt lat="45.95258" lon="4.87963">
        <ele>280</ele>
        <time>2017-05-10T09:18:52Z</time>
      </trkpt>
      <trkpt lat="45.95261" lon="4.87957">
        <ele>280</ele>
        <time>2017-05-10T09:18:53Z</time>
      </trkpt>
      <trkpt lat="45.95263" lon="4.8795">
        <ele>280</ele>
        <time>2017-05-10T09:18:54Z</time>
      </trkpt>
      <trkpt lat="45.95264" lon="4.87942">
        <ele>280</ele>
        <time>2017-05-10T09:18:55Z</time>
      </trkpt>
      <trkpt lat="45.95265" lon="4.87934">
        <ele>280</ele>
        <time>2017-05-10T09:18:56Z</time>
      </trkpt>
      <trkpt lat="45.95265" lon="4.87926">
        <ele>281</ele>
        <time>2017-05-10T09:18:57Z</time>
      </trkpt>
      <trkpt lat="45.95265" lon="4.87918">
        <ele>281</ele>
        <time>2017-05-10T09:18:58Z</time>
      </trkpt>
      <trkpt lat="45.95265" lon="4.8791">
        <ele>281</ele>
        <time>2017-05-10T09:18:59Z</time>
      </trkpt>
      <trkpt lat="45.95264" lon="4.87902">
        <ele>281</ele>
        <time>2017-05-10T09:19:00Z</time>
      </trkpt>
      <trkpt lat="45.95262" lon="4.87895">
        <ele>281</ele>
        <time>2017-05-10T09:19:01Z</time>
      </trkpt>
      <trkpt lat="45.9526" lon="4.87888">
        <ele>281</ele>
        <time>2017-05-10T09:19:02Z</time>
      </trkpt>
      <trkpt lat="45.95258" lon="4.87881">
        <ele>281</ele>
        <time>2017-05-10T09:19:03Z</time>
      </trkpt>
      <trkpt lat="45.95257" lon="4.87874">
        <ele>281</ele>
        <time>2017-05-10T09:19:04Z</time>
      </trkpt>
      <trkpt lat="45.95255" lon="4.87867">
        <ele>281</ele>
        <time>2017-05-10T09:19:05Z</time>
      </trkpt>
      <trkpt lat="45.95254" lon="4.8786">
        <ele>281</ele>
        <time>2017-05-10T09:19:06Z</time>
      </trkpt>
      <trkpt lat="45.95253" lon="4.87853">
        <ele>281</ele>
        <time>2017-05-10T09:19:07Z</time>
      </trkpt>
      <trkpt lat="45.95251" lon="4.87846">
        <ele>281</ele>
        <time>2017-05-10T09:19:08Z</time>
      </trkpt>
      <trkpt lat="45.95249" lon="4.87838">
        <ele>282</ele>
        <time>2017-05-10T09:19:09Z</time>
      </trkpt>
      <trkpt lat="45.95248" lon="4.8783">
        <ele>282</ele>
        <time>2017-05-10T09:19:10Z</time>
      </trkpt>
      <trkpt lat="45.95247" lon="4.87822">
        <ele>282</ele>
        <time>2017-05-10T09:19:11Z</time>
      </trkpt>
      <trkpt lat="45.95246" lon="4.87815">
        <ele>282</ele>
        <time>2017-05-10T09:19:12Z</time>
      </trkpt>
      <trkpt lat="45.95245" lon="4.87807">
        <ele>282</ele>
        <time>2017-05-10T09:19:13Z</time>
      </trkpt>
      <trkpt lat="45.95244" lon="4.87799">
        <ele>282</ele>
        <time>2017-05-10T09:19:14Z</time>
      </trkpt>
      <trkpt lat="45.95243" lon="4.87791">
        <ele>282</ele>
        <time>2017-05-10T09:19:15Z</time>
      </trkpt>
      <trkpt lat="45.95242" lon="4.87783">
        <ele>282</ele>
        <time>2017-05-10T09:19:16Z</time>
      </trkpt>
      <trkpt lat="45.95242" lon="4.87774">
        <ele>282</ele>
        <time>2017-05-10T09:19:17Z</time>
      </trkpt>
      <trkpt lat="45.9524" lon="4.87767">
        <ele>281</ele>
        <time>2017-05-10T09:19:18Z</time>
      </trkpt>
      <trkpt lat="45.95238" lon="4.87759">
        <ele>281</ele>
        <time>2017-05-10T09:19:19Z</time>
      </trkpt>
      <trkpt lat="45.95237" lon="4.87751">
        <ele>281</ele>
        <time>2017-05-10T09:19:20Z</time>
      </trkpt>
      <trkpt lat="45.95235" lon="4.87743">
        <ele>280</ele>
        <time>2017-05-10T09:19:21Z</time>
      </trkpt>
      <trkpt lat="45.95232" lon="4.87735">
        <ele>280</ele>
        <time>2017-05-10T09:19:22Z</time>
      </trkpt>
      <trkpt lat="45.95231" lon="4.87727">
        <ele>280</ele>
        <time>2017-05-10T09:19:23Z</time>
      </trkpt>
      <trkpt lat="45.95229" lon="4.8772">
        <ele>279</ele>
        <time>2017-05-10T09:19:24Z</time>
      </trkpt>
      <trkpt lat="45.95228" lon="4.87712">
        <ele>279</ele>
        <time>2017-05-10T09:19:25Z</time>
      </trkpt>
      <trkpt lat="45.95227" lon="4.87703">
        <ele>279</ele>
        <time>2017-05-10T09:19:26Z</time>
      </trkpt>
      <trkpt lat="45.95226" lon="4.87695">
        <ele>279</ele>
        <time>2017-05-10T09:19:27Z</time>
      </trkpt>
      <trkpt lat="45.95225" lon="4.87685">
        <ele>279</ele>
        <time>2017-05-10T09:19:28Z</time>
      </trkpt>
      <trkpt lat="45.95224" lon="4.87676">
        <ele>278</ele>
        <time>2017-05-10T09:19:29Z</time>
      </trkpt>
      <trkpt lat="45.95222" lon="4.87666">
        <ele>276</ele>
        <time>2017-05-10T09:19:30Z</time>
      </trkpt>
      <trkpt lat="45.95221" lon="4.87656">
        <ele>276</ele>
        <time>2017-05-10T09:19:31Z</time>
      </trkpt>
      <trkpt lat="45.95219" lon="4.87645">
        <ele>276</ele>
        <time>2017-05-10T09:19:32Z</time>
      </trkpt>
      <trkpt lat="45.95218" lon="4.87634">
        <ele>276</ele>
        <time>2017-05-10T09:19:33Z</time>
      </trkpt>
      <trkpt lat="45.95216" lon="4.87623">
        <ele>276</ele>
        <time>2017-05-10T09:19:34Z</time>
      </trkpt>
      <trkpt lat="45.95215" lon="4.87612">
        <ele>276</ele>
        <time>2017-05-10T09:19:35Z</time>
      </trkpt>
      <trkpt lat="45.95214" lon="4.87601">
        <ele>276</ele>
        <time>2017-05-10T09:19:36Z</time>
      </trkpt>
      <trkpt lat="45.95213" lon="4.87589">
        <ele>276</ele>
        <time>2017-05-10T09:19:37Z</time>
      </trkpt>
      <trkpt lat="45.95212" lon="4.87577">
        <ele>274</ele>
        <time>2017-05-10T09:19:38Z</time>
      </trkpt>
      <trkpt lat="45.95212" lon="4.87564">
        <ele>274</ele>
        <time>2017-05-10T09:19:39Z</time>
      </trkpt>
      <trkpt lat="45.95211" lon="4.87552">
        <ele>274</ele>
        <time>2017-05-10T09:19:40Z</time>
      </trkpt>
      <trkpt lat="45.95209" lon="4.8754">
        <ele>274</ele>
        <time>2017-05-10T09:19:41Z</time>
      </trkpt>
      <trkpt lat="45.95206" lon="4.87528">
        <ele>274</ele>
        <time>2017-05-10T09:19:42Z</time>
      </trkpt>
      <trkpt lat="45.95203" lon="4.87516">
        <ele>273</ele>
        <time>2017-05-10T09:19:43Z</time>
      </trkpt>
      <trkpt lat="45.952" lon="4.87504">
        <ele>273</ele>
        <time>2017-05-10T09:19:44Z</time>
      </trkpt>
      <trkpt lat="45.95197" lon="4.87493">
        <ele>272</ele>
        <time>2017-05-10T09:19:45Z</time>
      </trkpt>
      <trkpt lat="45.95194" lon="4.87482">
        <ele>272</ele>
        <time>2017-05-10T09:19:46Z</time>
      </trkpt>
      <trkpt lat="45.95191" lon="4.87471">
        <ele>272</ele>
        <time>2017-05-10T09:19:47Z</time>
      </trkpt>
      <trkpt lat="45.95189" lon="4.8746">
        <ele>272</ele>
        <time>2017-05-10T09:19:48Z</time>
      </trkpt>
      <trkpt lat="45.95186" lon="4.8745">
        <ele>272</ele>
        <time>2017-05-10T09:19:49Z</time>
      </trkpt>
      <trkpt lat="45.95183" lon="4.87439">
        <ele>272</ele>
        <time>2017-05-10T09:19:50Z</time>
      </trkpt>
      <trkpt lat="45.95181" lon="4.87429">
        <ele>271</ele>
        <time>2017-05-10T09:19:51Z</time>
      </trkpt>
      <trkpt lat="45.95179" lon="4.8742">
        <ele>271</ele>
        <time>2017-05-10T09:19:52Z</time>
      </trkpt>
      <trkpt lat="45.95177" lon="4.87411">
        <ele>271</ele>
        <time>2017-05-10T09:19:53Z</time>
      </trkpt>
      <trkpt lat="45.95175" lon="4.87403">
        <ele>271</ele>
        <time>2017-05-10T09:19:54Z</time>
      </trkpt>
      <trkpt lat="45.95173" lon="4.87396">
        <ele>271</ele>
        <time>2017-05-10T09:19:55Z</time>
      </trkpt>
      <trkpt lat="45.95172" lon="4.87388">
        <ele>271</ele>
        <time>2017-05-10T09:19:56Z</time>
      </trkpt>
      <trkpt lat="45.9517" lon="4.87381">
        <ele>271</ele>
        <time>2017-05-10T09:19:57Z</time>
      </trkpt>
      <trkpt lat="45.95168" lon="4.87373">
        <ele>271</ele>
        <time>2017-05-10T09:19:58Z</time>
      </trkpt>
      <trkpt lat="45.95167" lon="4.87365">
        <ele>272</ele>
        <time>2017-05-10T09:19:59Z</time>
      </trkpt>
      <trkpt lat="45.95165" lon="4.87358">
        <ele>272</ele>
        <time>2017-05-10T09:20:00Z</time>
      </trkpt>
      <trkpt lat="45.95164" lon="4.87351">
        <ele>272</ele>
        <time>2017-05-10T09:20:01Z</time>
      </trkpt>
      <trkpt lat="45.95163" lon="4.87344">
        <ele>272</ele>
        <time>2017-05-10T09:20:02Z</time>
      </trkpt>
      <trkpt lat="45.95161" lon="4.87337">
        <ele>272</ele>
        <time>2017-05-10T09:20:03Z</time>
      </trkpt>
      <trkpt lat="45.9516" lon="4.87329">
        <ele>272</ele>
        <time>2017-05-10T09:20:04Z</time>
      </trkpt>
      <trkpt lat="45.95158" lon="4.87322">
        <ele>273</ele>
        <time>2017-05-10T09:20:05Z</time>
      </trkpt>
      <trkpt lat="45.95156" lon="4.87314">
        <ele>273</ele>
        <time>2017-05-10T09:20:06Z</time>
      </trkpt>
      <trkpt lat="45.95154" lon="4.87307">
        <ele>274</ele>
        <time>2017-05-10T09:20:07Z</time>
      </trkpt>
      <trkpt lat="45.95153" lon="4.87299">
        <ele>274</ele>
        <time>2017-05-10T09:20:08Z</time>
      </trkpt>
      <trkpt lat="45.95151" lon="4.87291">
        <ele>274</ele>
        <time>2017-05-10T09:20:09Z</time>
      </trkpt>
      <trkpt lat="45.95149" lon="4.87283">
        <ele>274</ele>
        <time>2017-05-10T09:20:10Z</time>
      </trkpt>
      <trkpt lat="45.95147" lon="4.87275">
        <ele>274</ele>
        <time>2017-05-10T09:20:11Z</time>
      </trkpt>
      <trkpt lat="45.95146" lon="4.87268">
        <ele>274</ele>
        <time>2017-05-10T09:20:12Z</time>
      </trkpt>
      <trkpt lat="45.95144" lon="4.87261">
        <ele>274</ele>
        <time>2017-05-10T09:20:13Z</time>
      </trkpt>
      <trkpt lat="45.95142" lon="4.87254">
        <ele>274</ele>
        <time>2017-05-10T09:20:14Z</time>
      </trkpt>
      <trkpt lat="45.9514" lon="4.87246">
        <ele>275</ele>
        <time>2017-05-10T09:20:15Z</time>
      </trkpt>
      <trkpt lat="45.95138" lon="4.87239">
        <ele>276</ele>
        <time>2017-05-10T09:20:16Z</time>
      </trkpt>
      <trkpt lat="45.95136" lon="4.87232">
        <ele>276</ele>
        <time>2017-05-10T09:20:17Z</time>
      </trkpt>
      <trkpt lat="45.95134" lon="4.87224">
        <ele>276</ele>
        <time>2017-05-10T09:20:18Z</time>
      </trkpt>
      <trkpt lat="45.95132" lon="4.87217">
        <ele>276</ele>
        <time>2017-05-10T09:20:19Z</time>
      </trkpt>
      <trkpt lat="45.9513" lon="4.8721">
        <ele>276</ele>
        <time>2017-05-10T09:20:20Z</time>
      </trkpt>
      <trkpt lat="45.95129" lon="4.87202">
        <ele>276</ele>
        <time>2017-05-10T09:20:21Z</time>
      </trkpt>
      <trkpt lat="45.95127" lon="4.87195">
        <ele>276</ele>
        <time>2017-05-10T09:20:22Z</time>
      </trkpt>
      <trkpt lat="45.95125" lon="4.87187">
        <ele>276</ele>
        <time>2017-05-10T09:20:23Z</time>
      </trkpt>
      <trkpt lat="45.95124" lon="4.8718">
        <ele>276</ele>
        <time>2017-05-10T09:20:24Z</time>
      </trkpt>
      <trkpt lat="45.95122" lon="4.87173">
        <ele>276</ele>
        <time>2017-05-10T09:20:25Z</time>
      </trkpt>
      <trkpt lat="45.9512" lon="4.87166">
        <ele>277</ele>
        <time>2017-05-10T09:20:26Z</time>
      </trkpt>
      <trkpt lat="45.95119" lon="4.87159">
        <ele>277</ele>
        <time>2017-05-10T09:20:27Z</time>
      </trkpt>
      <trkpt lat="45.95117" lon="4.87152">
        <ele>277</ele>
        <time>2017-05-10T09:20:28Z</time>
      </trkpt>
      <trkpt lat="45.95114" lon="4.87144">
        <ele>277</ele>
        <time>2017-05-10T09:20:29Z</time>
      </trkpt>
      <trkpt lat="45.95113" lon="4.87137">
        <ele>277</ele>
        <time>2017-05-10T09:20:30Z</time>
      </trkpt>
      <trkpt lat="45.95112" lon="4.87129">
        <ele>277</ele>
        <time>2017-05-10T09:20:31Z</time>
      </trkpt>
      <trkpt lat="45.9511" lon="4.87121">
        <ele>277</ele>
        <time>2017-05-10T09:20:32Z</time>
      </trkpt>
      <trkpt lat="45.95108" lon="4.87115">
        <ele>277</ele>
        <time>2017-05-10T09:20:33Z</time>
      </trkpt>
      <trkpt lat="45.95106" lon="4.87108">
        <ele>277</ele>
        <time>2017-05-10T09:20:34Z</time>
      </trkpt>
      <trkpt lat="45.95104" lon="4.87102">
        <ele>277</ele>
        <time>2017-05-10T09:20:35Z</time>
      </trkpt>
      <trkpt lat="45.95101" lon="4.8709">
        <ele>277</ele>
        <time>2017-05-10T09:20:37Z</time>
      </trkpt>
      <trkpt lat="45.95099" lon="4.87085">
        <ele>277</ele>
        <time>2017-05-10T09:20:38Z</time>
      </trkpt>
      <trkpt lat="45.95094" lon="4.87074">
        <ele>277</ele>
        <time>2017-05-10T09:20:40Z</time>
      </trkpt>
      <trkpt lat="45.95092" lon="4.87068">
        <ele>277</ele>
        <time>2017-05-10T09:20:41Z</time>
      </trkpt>
      <trkpt lat="45.95089" lon="4.87062">
        <ele>277</ele>
        <time>2017-05-10T09:20:42Z</time>
      </trkpt>
      <trkpt lat="45.95086" lon="4.87057">
        <ele>277</ele>
        <time>2017-05-10T09:20:43Z</time>
      </trkpt>
      <trkpt lat="45.95083" lon="4.87051">
        <ele>277</ele>
        <time>2017-05-10T09:20:44Z</time>
      </trkpt>
      <trkpt lat="45.9508" lon="4.87045">
        <ele>277</ele>
        <time>2017-05-10T09:20:45Z</time>
      </trkpt>
      <trkpt lat="45.95077" lon="4.87039">
        <ele>277</ele>
        <time>2017-05-10T09:20:46Z</time>
      </trkpt>
      <trkpt lat="45.95074" lon="4.87033">
        <ele>277</ele>
        <time>2017-05-10T09:20:47Z</time>
      </trkpt>
      <trkpt lat="45.95071" lon="4.87027">
        <ele>277</ele>
        <time>2017-05-10T09:20:48Z</time>
      </trkpt>
      <trkpt lat="45.95068" lon="4.87022">
        <ele>277</ele>
        <time>2017-05-10T09:20:49Z</time>
      </trkpt>
      <trkpt lat="45.95064" lon="4.87016">
        <ele>277</ele>
        <time>2017-05-10T09:20:50Z</time>
      </trkpt>
      <trkpt lat="45.95061" lon="4.8701">
        <ele>277</ele>
        <time>2017-05-10T09:20:51Z</time>
      </trkpt>
      <trkpt lat="45.95058" lon="4.87003">
        <ele>277</ele>
        <time>2017-05-10T09:20:52Z</time>
      </trkpt>
      <trkpt lat="45.95055" lon="4.86997">
        <ele>276</ele>
        <time>2017-05-10T09:20:53Z</time>
      </trkpt>
      <trkpt lat="45.95053" lon="4.8699">
        <ele>276</ele>
        <time>2017-05-10T09:20:54Z</time>
      </trkpt>
      <trkpt lat="45.9505" lon="4.86983">
        <ele>276</ele>
        <time>2017-05-10T09:20:55Z</time>
      </trkpt>
      <trkpt lat="45.95047" lon="4.86976">
        <ele>276</ele>
        <time>2017-05-10T09:20:56Z</time>
      </trkpt>
      <trkpt lat="45.95045" lon="4.86969">
        <ele>276</ele>
        <time>2017-05-10T09:20:57Z</time>
      </trkpt>
      <trkpt lat="45.95043" lon="4.86961">
        <ele>276</ele>
        <time>2017-05-10T09:20:58Z</time>
      </trkpt>
      <trkpt lat="45.95041" lon="4.86954">
        <ele>276</ele>
        <time>2017-05-10T09:20:59Z</time>
      </trkpt>
      <trkpt lat="45.95038" lon="4.86947">
        <ele>276</ele>
        <time>2017-05-10T09:21:00Z</time>
      </trkpt>
      <trkpt lat="45.95036" lon="4.8694">
        <ele>276</ele>
        <time>2017-05-10T09:21:01Z</time>
      </trkpt>
      <trkpt lat="45.95034" lon="4.86932">
        <ele>276</ele>
        <time>2017-05-10T09:21:02Z</time>
      </trkpt>
      <trkpt lat="45.95032" lon="4.86925">
        <ele>276</ele>
        <time>2017-05-10T09:21:03Z</time>
      </trkpt>
      <trkpt lat="45.9503" lon="4.86917">
        <ele>276</ele>
        <time>2017-05-10T09:21:04Z</time>
      </trkpt>
      <trkpt lat="45.95028" lon="4.86909">
        <ele>275</ele>
        <time>2017-05-10T09:21:05Z</time>
      </trkpt>
      <trkpt lat="45.95026" lon="4.86902">
        <ele>275</ele>
        <time>2017-05-10T09:21:06Z</time>
      </trkpt>
      <trkpt lat="45.95023" lon="4.86894">
        <ele>275</ele>
        <time>2017-05-10T09:21:07Z</time>
      </trkpt>
      <trkpt lat="45.95021" lon="4.86887">
        <ele>275</ele>
        <time>2017-05-10T09:21:08Z</time>
      </trkpt>
      <trkpt lat="45.95019" lon="4.86879">
        <ele>275</ele>
        <time>2017-05-10T09:21:09Z</time>
      </trkpt>
      <trkpt lat="45.95016" lon="4.86872">
        <ele>275</ele>
        <time>2017-05-10T09:21:10Z</time>
      </trkpt>
      <trkpt lat="45.95014" lon="4.86865">
        <ele>275</ele>
        <time>2017-05-10T09:21:11Z</time>
      </trkpt>
      <trkpt lat="45.95012" lon="4.86859">
        <ele>275</ele>
        <time>2017-05-10T09:21:12Z</time>
      </trkpt>
      <trkpt lat="45.95009" lon="4.86852">
        <ele>275</ele>
        <time>2017-05-10T09:21:13Z</time>
      </trkpt>
      <trkpt lat="45.95007" lon="4.86846">
        <ele>276</ele>
        <time>2017-05-10T09:21:14Z</time>
      </trkpt>
      <trkpt lat="45.95005" lon="4.8684">
        <ele>276</ele>
        <time>2017-05-10T09:21:15Z</time>
      </trkpt>
      <trkpt lat="45.95002" lon="4.86833">
        <ele>276</ele>
        <time>2017-05-10T09:21:16Z</time>
      </trkpt>
      <trkpt lat="45.95" lon="4.86826">
        <ele>276</ele>
        <time>2017-05-10T09:21:17Z</time>
      </trkpt>
      <trkpt lat="45.94996" lon="4.8682">
        <ele>276</ele>
        <time>2017-05-10T09:21:18Z</time>
      </trkpt>
      <trkpt lat="45.94993" lon="4.86813">
        <ele>276</ele>
        <time>2017-05-10T09:21:19Z</time>
      </trkpt>
      <trkpt lat="45.9499" lon="4.86806">
        <ele>276</ele>
        <time>2017-05-10T09:21:20Z</time>
      </trkpt>
      <trkpt lat="45.94986" lon="4.86799">
        <ele>276</ele>
        <time>2017-05-10T09:21:21Z</time>
      </trkpt>
      <trkpt lat="45.94982" lon="4.86792">
        <ele>276</ele>
        <time>2017-05-10T09:21:22Z</time>
      </trkpt>
      <trkpt lat="45.94979" lon="4.86785">
        <ele>275</ele>
        <time>2017-05-10T09:21:23Z</time>
      </trkpt>
      <trkpt lat="45.94975" lon="4.86778">
        <ele>275</ele>
        <time>2017-05-10T09:21:24Z</time>
      </trkpt>
      <trkpt lat="45.94971" lon="4.86772">
        <ele>275</ele>
        <time>2017-05-10T09:21:25Z</time>
      </trkpt>
      <trkpt lat="45.94967" lon="4.86765">
        <ele>275</ele>
        <time>2017-05-10T09:21:26Z</time>
      </trkpt>
      <trkpt lat="45.94964" lon="4.86758">
        <ele>275</ele>
        <time>2017-05-10T09:21:27Z</time>
      </trkpt>
      <trkpt lat="45.9496" lon="4.86752">
        <ele>275</ele>
        <time>2017-05-10T09:21:28Z</time>
      </trkpt>
      <trkpt lat="45.94957" lon="4.86745">
        <ele>275</ele>
        <time>2017-05-10T09:21:29Z</time>
      </trkpt>
      <trkpt lat="45.94954" lon="4.86738">
        <ele>275</ele>
        <time>2017-05-10T09:21:30Z</time>
      </trkpt>
      <trkpt lat="45.94951" lon="4.86731">
        <ele>275</ele>
        <time>2017-05-10T09:21:31Z</time>
      </trkpt>
      <trkpt lat="45.94949" lon="4.86724">
        <ele>275</ele>
        <time>2017-05-10T09:21:32Z</time>
      </trkpt>
      <trkpt lat="45.94947" lon="4.86717">
        <ele>275</ele>
        <time>2017-05-10T09:21:33Z</time>
      </trkpt>
      <trkpt lat="45.94945" lon="4.8671">
        <ele>275</ele>
        <time>2017-05-10T09:21:34Z</time>
      </trkpt>
      <trkpt lat="45.94944" lon="4.86703">
        <ele>275</ele>
        <time>2017-05-10T09:21:35Z</time>
      </trkpt>
      <trkpt lat="45.94942" lon="4.86696">
        <ele>276</ele>
        <time>2017-05-10T09:21:36Z</time>
      </trkpt>
      <trkpt lat="45.94942" lon="4.86689">
        <ele>276</ele>
        <time>2017-05-10T09:21:37Z</time>
      </trkpt>
      <trkpt lat="45.94941" lon="4.86683">
        <ele>276</ele>
        <time>2017-05-10T09:21:38Z</time>
      </trkpt>
      <trkpt lat="45.94941" lon="4.86676">
        <ele>276</ele>
        <time>2017-05-10T09:21:39Z</time>
      </trkpt>
      <trkpt lat="45.94941" lon="4.86669">
        <ele>276</ele>
        <time>2017-05-10T09:21:40Z</time>
      </trkpt>
      <trkpt lat="45.94942" lon="4.86662">
        <ele>276</ele>
        <time>2017-05-10T09:21:41Z</time>
      </trkpt>
      <trkpt lat="45.94944" lon="4.86655">
        <ele>276</ele>
        <time>2017-05-10T09:21:42Z</time>
      </trkpt>
      <trkpt lat="45.94946" lon="4.86649">
        <ele>276</ele>
        <time>2017-05-10T09:21:43Z</time>
      </trkpt>
      <trkpt lat="45.94948" lon="4.86643">
        <ele>276</ele>
        <time>2017-05-10T09:21:44Z</time>
      </trkpt>
      <trkpt lat="45.94952" lon="4.86638">
        <ele>276</ele>
        <time>2017-05-10T09:21:45Z</time>
      </trkpt>
      <trkpt lat="45.94956" lon="4.86634">
        <ele>276</ele>
        <time>2017-05-10T09:21:46Z</time>
      </trkpt>
      <trkpt lat="45.94959" lon="4.86629">
        <ele>275</ele>
        <time>2017-05-10T09:21:47Z</time>
      </trkpt>
      <trkpt lat="45.94963" lon="4.86625">
        <ele>275</ele>
        <time>2017-05-10T09:21:48Z</time>
      </trkpt>
      <trkpt lat="45.94967" lon="4.86622">
        <ele>275</ele>
        <time>2017-05-10T09:21:49Z</time>
      </trkpt>
      <trkpt lat="45.94972" lon="4.8662">
        <ele>275</ele>
        <time>2017-05-10T09:21:50Z</time>
      </trkpt>
      <trkpt lat="45.94977" lon="4.86619">
        <ele>275</ele>
        <time>2017-05-10T09:21:51Z</time>
      </trkpt>
      <trkpt lat="45.94982" lon="4.86619">
        <ele>275</ele>
        <time>2017-05-10T09:21:52Z</time>
      </trkpt>
      <trkpt lat="45.94987" lon="4.86618">
        <ele>275</ele>
        <time>2017-05-10T09:21:53Z</time>
      </trkpt>
      <trkpt lat="45.94993" lon="4.86618">
        <ele>275</ele>
        <time>2017-05-10T09:21:54Z</time>
      </trkpt>
      <trkpt lat="45.94998" lon="4.86617">
        <ele>275</ele>
        <time>2017-05-10T09:21:55Z</time>
      </trkpt>
      <trkpt lat="45.95004" lon="4.86616">
        <ele>273</ele>
        <time>2017-05-10T09:21:56Z</time>
      </trkpt>
      <trkpt lat="45.9501" lon="4.86616">
        <ele>273</ele>
        <time>2017-05-10T09:21:57Z</time>
      </trkpt>
      <trkpt lat="45.95016" lon="4.86614">
        <ele>273</ele>
        <time>2017-05-10T09:21:58Z</time>
      </trkpt>
      <trkpt lat="45.95022" lon="4.86613">
        <ele>273</ele>
        <time>2017-05-10T09:21:59Z</time>
      </trkpt>
      <trkpt lat="45.95028" lon="4.86612">
        <ele>273</ele>
        <time>2017-05-10T09:22:00Z</time>
      </trkpt>
      <trkpt lat="45.95034" lon="4.8661">
        <ele>273</ele>
        <time>2017-05-10T09:22:01Z</time>
      </trkpt>
      <trkpt lat="45.95041" lon="4.86608">
        <ele>273</ele>
        <time>2017-05-10T09:22:02Z</time>
      </trkpt>
      <trkpt lat="45.95047" lon="4.86605">
        <ele>272</ele>
        <time>2017-05-10T09:22:03Z</time>
      </trkpt>
      <trkpt lat="45.95054" lon="4.86603">
        <ele>272</ele>
        <time>2017-05-10T09:22:04Z</time>
      </trkpt>
      <trkpt lat="45.95061" lon="4.866">
        <ele>272</ele>
        <time>2017-05-10T09:22:05Z</time>
      </trkpt>
      <trkpt lat="45.95068" lon="4.86598">
        <ele>272</ele>
        <time>2017-05-10T09:22:06Z</time>
      </trkpt>
      <trkpt lat="45.95075" lon="4.86596">
        <ele>272</ele>
        <time>2017-05-10T09:22:07Z</time>
      </trkpt>
      <trkpt lat="45.95082" lon="4.86594">
        <ele>271</ele>
        <time>2017-05-10T09:22:08Z</time>
      </trkpt>
      <trkpt lat="45.95089" lon="4.86592">
        <ele>271</ele>
        <time>2017-05-10T09:22:09Z</time>
      </trkpt>
      <trkpt lat="45.95096" lon="4.86591">
        <ele>271</ele>
        <time>2017-05-10T09:22:10Z</time>
      </trkpt>
      <trkpt lat="45.95103" lon="4.8659">
        <ele>271</ele>
        <time>2017-05-10T09:22:11Z</time>
      </trkpt>
      <trkpt lat="45.9511" lon="4.86589">
        <ele>271</ele>
        <time>2017-05-10T09:22:12Z</time>
      </trkpt>
      <trkpt lat="45.95118" lon="4.86589">
        <ele>270</ele>
        <time>2017-05-10T09:22:13Z</time>
      </trkpt>
      <trkpt lat="45.95125" lon="4.86588">
        <ele>270</ele>
        <time>2017-05-10T09:22:14Z</time>
      </trkpt>
      <trkpt lat="45.95132" lon="4.86587">
        <ele>270</ele>
        <time>2017-05-10T09:22:15Z</time>
      </trkpt>
      <trkpt lat="45.9514" lon="4.86586">
        <ele>270</ele>
        <time>2017-05-10T09:22:16Z</time>
      </trkpt>
      <trkpt lat="45.95148" lon="4.86585">
        <ele>270</ele>
        <time>2017-05-10T09:22:17Z</time>
      </trkpt>
      <trkpt lat="45.95156" lon="4.86584">
        <ele>270</ele>
        <time>2017-05-10T09:22:18Z</time>
      </trkpt>
      <trkpt lat="45.95164" lon="4.86583">
        <ele>269</ele>
        <time>2017-05-10T09:22:19Z</time>
      </trkpt>
      <trkpt lat="45.95172" lon="4.86582">
        <ele>269</ele>
        <time>2017-05-10T09:22:20Z</time>
      </trkpt>
      <trkpt lat="45.9518" lon="4.86581">
        <ele>269</ele>
        <time>2017-05-10T09:22:21Z</time>
      </trkpt>
      <trkpt lat="45.95188" lon="4.8658">
        <ele>269</ele>
        <time>2017-05-10T09:22:22Z</time>
      </trkpt>
      <trkpt lat="45.95195" lon="4.8658">
        <ele>268</ele>
        <time>2017-05-10T09:22:23Z</time>
      </trkpt>
      <trkpt lat="45.95203" lon="4.86581">
        <ele>268</ele>
        <time>2017-05-10T09:22:24Z</time>
      </trkpt>
      <trkpt lat="45.95211" lon="4.86582">
        <ele>268</ele>
        <time>2017-05-10T09:22:25Z</time>
      </trkpt>
      <trkpt lat="45.95219" lon="4.86584">
        <ele>269</ele>
        <time>2017-05-10T09:22:26Z</time>
      </trkpt>
      <trkpt lat="45.95226" lon="4.86585">
        <ele>269</ele>
        <time>2017-05-10T09:22:27Z</time>
      </trkpt>
      <trkpt lat="45.95233" lon="4.86585">
        <ele>269</ele>
        <time>2017-05-10T09:22:28Z</time>
      </trkpt>
      <trkpt lat="45.9524" lon="4.86586">
        <ele>268</ele>
        <time>2017-05-10T09:22:29Z</time>
      </trkpt>
      <trkpt lat="45.95245" lon="4.86587">
        <ele>268</ele>
        <time>2017-05-10T09:22:30Z</time>
      </trkpt>
      <trkpt lat="45.95251" lon="4.86587">
        <ele>268</ele>
        <time>2017-05-10T09:22:31Z</time>
      </trkpt>
      <trkpt lat="45.95258" lon="4.86585">
        <ele>268</ele>
        <time>2017-05-10T09:22:33Z</time>
      </trkpt>
      <trkpt lat="45.95261" lon="4.86583">
        <ele>268</ele>
        <time>2017-05-10T09:22:34Z</time>
      </trkpt>
      <trkpt lat="45.95265" lon="4.86574">
        <ele>267</ele>
        <time>2017-05-10T09:22:37Z</time>
      </trkpt>
      <trkpt lat="45.95265" lon="4.86569">
        <ele>267</ele>
        <time>2017-05-10T09:22:38Z</time>
      </trkpt>
      <trkpt lat="45.95261" lon="4.86561">
        <ele>267</ele>
        <time>2017-05-10T09:22:40Z</time>
      </trkpt>
      <trkpt lat="45.95258" lon="4.86558">
        <ele>267</ele>
        <time>2017-05-10T09:22:41Z</time>
      </trkpt>
      <trkpt lat="45.95251" lon="4.8655">
        <ele>267</ele>
        <time>2017-05-10T09:22:43Z</time>
      </trkpt>
      <trkpt lat="45.95247" lon="4.86547">
        <ele>268</ele>
        <time>2017-05-10T09:22:44Z</time>
      </trkpt>
      <trkpt lat="45.95241" lon="4.86537">
        <ele>268</ele>
        <time>2017-05-10T09:22:46Z</time>
      </trkpt>
      <trkpt lat="45.95237" lon="4.86533">
        <ele>268</ele>
        <time>2017-05-10T09:22:47Z</time>
      </trkpt>
      <trkpt lat="45.95234" lon="4.86528">
        <ele>268</ele>
        <time>2017-05-10T09:22:48Z</time>
      </trkpt>
      <trkpt lat="45.9523" lon="4.86522">
        <ele>268</ele>
        <time>2017-05-10T09:22:49Z</time>
      </trkpt>
      <trkpt lat="45.95226" lon="4.86517">
        <ele>268</ele>
        <time>2017-05-10T09:22:50Z</time>
      </trkpt>
      <trkpt lat="45.95222" lon="4.86511">
        <ele>268</ele>
        <time>2017-05-10T09:22:51Z</time>
      </trkpt>
      <trkpt lat="45.95218" lon="4.86506">
        <ele>268</ele>
        <time>2017-05-10T09:22:52Z</time>
      </trkpt>
      <trkpt lat="45.95214" lon="4.86501">
        <ele>268</ele>
        <time>2017-05-10T09:22:53Z</time>
      </trkpt>
      <trkpt lat="45.9521" lon="4.86496">
        <ele>268</ele>
        <time>2017-05-10T09:22:54Z</time>
      </trkpt>
      <trkpt lat="45.95206" lon="4.86491">
        <ele>268</ele>
        <time>2017-05-10T09:22:55Z</time>
      </trkpt>
      <trkpt lat="45.95202" lon="4.86486">
        <ele>268</ele>
        <time>2017-05-10T09:22:56Z</time>
      </trkpt>
      <trkpt lat="45.95198" lon="4.86482">
        <ele>268</ele>
        <time>2017-05-10T09:22:57Z</time>
      </trkpt>
      <trkpt lat="45.95194" lon="4.86477">
        <ele>268</ele>
        <time>2017-05-10T09:22:58Z</time>
      </trkpt>
      <trkpt lat="45.9519" lon="4.86472">
        <ele>268</ele>
        <time>2017-05-10T09:22:59Z</time>
      </trkpt>
      <trkpt lat="45.95186" lon="4.86468">
        <ele>268</ele>
        <time>2017-05-10T09:23:00Z</time>
      </trkpt>
      <trkpt lat="45.95182" lon="4.86463">
        <ele>268</ele>
        <time>2017-05-10T09:23:01Z</time>
      </trkpt>
      <trkpt lat="45.95178" lon="4.86458">
        <ele>268</ele>
        <time>2017-05-10T09:23:02Z</time>
      </trkpt>
      <trkpt lat="45.95175" lon="4.86453">
        <ele>268</ele>
        <time>2017-05-10T09:23:03Z</time>
      </trkpt>
      <trkpt lat="45.95171" lon="4.86449">
        <ele>268</ele>
        <time>2017-05-10T09:23:04Z</time>
      </trkpt>
      <trkpt lat="45.95167" lon="4.86445">
        <ele>267</ele>
        <time>2017-05-10T09:23:05Z</time>
      </trkpt>
      <trkpt lat="45.95163" lon="4.86441">
        <ele>268</ele>
        <time>2017-05-10T09:23:06Z</time>
      </trkpt>
      <trkpt lat="45.9516" lon="4.86437">
        <ele>268</ele>
        <time>2017-05-10T09:23:07Z</time>
      </trkpt>
      <trkpt lat="45.95153" lon="4.86429">
        <ele>268</ele>
        <time>2017-05-10T09:23:09Z</time>
      </trkpt>
      <trkpt lat="45.95149" lon="4.86425">
        <ele>268</ele>
        <time>2017-05-10T09:23:10Z</time>
      </trkpt>
      <trkpt lat="45.95145" lon="4.8642">
        <ele>268</ele>
        <time>2017-05-10T09:23:11Z</time>
      </trkpt>
      <trkpt lat="45.95141" lon="4.86415">
        <ele>268</ele>
        <time>2017-05-10T09:23:12Z</time>
      </trkpt>
      <trkpt lat="45.95137" lon="4.86411">
        <ele>268</ele>
        <time>2017-05-10T09:23:13Z</time>
      </trkpt>
      <trkpt lat="45.95133" lon="4.86407">
        <ele>268</ele>
        <time>2017-05-10T09:23:14Z</time>
      </trkpt>
      <trkpt lat="45.9513" lon="4.86402">
        <ele>268</ele>
        <time>2017-05-10T09:23:15Z</time>
      </trkpt>
      <trkpt lat="45.95126" lon="4.86397">
        <ele>268</ele>
        <time>2017-05-10T09:23:16Z</time>
      </trkpt>
      <trkpt lat="45.95123" lon="4.86393">
        <ele>269</ele>
        <time>2017-05-10T09:23:17Z</time>
      </trkpt>
      <trkpt lat="45.95119" lon="4.86389">
        <ele>269</ele>
        <time>2017-05-10T09:23:18Z</time>
      </trkpt>
      <trkpt lat="45.95112" lon="4.86381">
        <ele>269</ele>
        <time>2017-05-10T09:23:20Z</time>
      </trkpt>
      <trkpt lat="45.95109" lon="4.86377">
        <ele>269</ele>
        <time>2017-05-10T09:23:21Z</time>
      </trkpt>
      <trkpt lat="45.95102" lon="4.86369">
        <ele>269</ele>
        <time>2017-05-10T09:23:23Z</time>
      </trkpt>
      <trkpt lat="45.95099" lon="4.86365">
        <ele>269</ele>
        <time>2017-05-10T09:23:24Z</time>
      </trkpt>
      <trkpt lat="45.95095" lon="4.86361">
        <ele>269</ele>
        <time>2017-05-10T09:23:25Z</time>
      </trkpt>
      <trkpt lat="45.95091" lon="4.86357">
        <ele>269</ele>
        <time>2017-05-10T09:23:26Z</time>
      </trkpt>
      <trkpt lat="45.95087" lon="4.86352">
        <ele>269</ele>
        <time>2017-05-10T09:23:27Z</time>
      </trkpt>
      <trkpt lat="45.95084" lon="4.86348">
        <ele>269</ele>
        <time>2017-05-10T09:23:28Z</time>
      </trkpt>
      <trkpt lat="45.9508" lon="4.86344">
        <ele>270</ele>
        <time>2017-05-10T09:23:29Z</time>
      </trkpt>
      <trkpt lat="45.95076" lon="4.8634">
        <ele>270</ele>
        <time>2017-05-10T09:23:30Z</time>
      </trkpt>
      <trkpt lat="45.95069" lon="4.86332">
        <ele>270</ele>
        <time>2017-05-10T09:23:32Z</time>
      </trkpt>
      <trkpt lat="45.95066" lon="4.86327">
        <ele>270</ele>
        <time>2017-05-10T09:23:33Z</time>
      </trkpt>
      <trkpt lat="45.95063" lon="4.86323">
        <ele>270</ele>
        <time>2017-05-10T09:23:34Z</time>
      </trkpt>
      <trkpt lat="45.95059" lon="4.86319">
        <ele>270</ele>
        <time>2017-05-10T09:23:35Z</time>
      </trkpt>
      <trkpt lat="45.95055" lon="4.86315">
        <ele>271</ele>
        <time>2017-05-10T09:23:36Z</time>
      </trkpt>
      <trkpt lat="45.95052" lon="4.86311">
        <ele>271</ele>
        <time>2017-05-10T09:23:37Z</time>
      </trkpt>
      <trkpt lat="45.95046" lon="4.86303">
        <ele>271</ele>
        <time>2017-05-10T09:23:39Z</time>
      </trkpt>
      <trkpt lat="45.95042" lon="4.86299">
        <ele>271</ele>
        <time>2017-05-10T09:23:40Z</time>
      </trkpt>
      <trkpt lat="45.95035" lon="4.86291">
        <ele>271</ele>
        <time>2017-05-10T09:23:42Z</time>
      </trkpt>
      <trkpt lat="45.95032" lon="4.86286">
        <ele>271</ele>
        <time>2017-05-10T09:23:43Z</time>
      </trkpt>
      <trkpt lat="45.95029" lon="4.86282">
        <ele>271</ele>
        <time>2017-05-10T09:23:44Z</time>
      </trkpt>
      <trkpt lat="45.95025" lon="4.86277">
        <ele>271</ele>
        <time>2017-05-10T09:23:45Z</time>
      </trkpt>
      <trkpt lat="45.95021" lon="4.86273">
        <ele>271</ele>
        <time>2017-05-10T09:23:46Z</time>
      </trkpt>
      <trkpt lat="45.95018" lon="4.86268">
        <ele>271</ele>
        <time>2017-05-10T09:23:47Z</time>
      </trkpt>
      <trkpt lat="45.95014" lon="4.86263">
        <ele>272</ele>
        <time>2017-05-10T09:23:48Z</time>
      </trkpt>
      <trkpt lat="45.9501" lon="4.86259">
        <ele>272</ele>
        <time>2017-05-10T09:23:49Z</time>
      </trkpt>
      <trkpt lat="45.95006" lon="4.86254">
        <ele>272</ele>
        <time>2017-05-10T09:23:50Z</time>
      </trkpt>
      <trkpt lat="45.95003" lon="4.86249">
        <ele>272</ele>
        <time>2017-05-10T09:23:51Z</time>
      </trkpt>
      <trkpt lat="45.94999" lon="4.86245">
        <ele>272</ele>
        <time>2017-05-10T09:23:52Z</time>
      </trkpt>
      <trkpt lat="45.94996" lon="4.86241">
        <ele>272</ele>
        <time>2017-05-10T09:23:53Z</time>
      </trkpt>
      <trkpt lat="45.94989" lon="4.86233">
        <ele>272</ele>
        <time>2017-05-10T09:23:55Z</time>
      </trkpt>
      <trkpt lat="45.94986" lon="4.86229">
        <ele>272</ele>
        <time>2017-05-10T09:23:56Z</time>
      </trkpt>
      <trkpt lat="45.9498" lon="4.86221">
        <ele>272</ele>
        <time>2017-05-10T09:23:58Z</time>
      </trkpt>
      <trkpt lat="45.94977" lon="4.86218">
        <ele>272</ele>
        <time>2017-05-10T09:23:59Z</time>
      </trkpt>
      <trkpt lat="45.9497" lon="4.86211">
        <ele>272</ele>
        <time>2017-05-10T09:24:01Z</time>
      </trkpt>
      <trkpt lat="45.94967" lon="4.86207">
        <ele>272</ele>
        <time>2017-05-10T09:24:02Z</time>
      </trkpt>
      <trkpt lat="45.94962" lon="4.862">
        <ele>272</ele>
        <time>2017-05-10T09:24:04Z</time>
      </trkpt>
      <trkpt lat="45.94959" lon="4.86197">
        <ele>272</ele>
        <time>2017-05-10T09:24:05Z</time>
      </trkpt>
      <trkpt lat="45.94952" lon="4.8619">
        <ele>273</ele>
        <time>2017-05-10T09:24:07Z</time>
      </trkpt>
      <trkpt lat="45.94949" lon="4.86186">
        <ele>273</ele>
        <time>2017-05-10T09:24:08Z</time>
      </trkpt>
      <trkpt lat="45.94943" lon="4.86177">
        <ele>273</ele>
        <time>2017-05-10T09:24:10Z</time>
      </trkpt>
      <trkpt lat="45.9494" lon="4.86172">
        <ele>273</ele>
        <time>2017-05-10T09:24:11Z</time>
      </trkpt>
      <trkpt lat="45.94936" lon="4.86167">
        <ele>273</ele>
        <time>2017-05-10T09:24:12Z</time>
      </trkpt>
      <trkpt lat="45.94933" lon="4.86163">
        <ele>273</ele>
        <time>2017-05-10T09:24:13Z</time>
      </trkpt>
      <trkpt lat="45.94927" lon="4.86153">
        <ele>273</ele>
        <time>2017-05-10T09:24:15Z</time>
      </trkpt>
      <trkpt lat="45.94924" lon="4.86148">
        <ele>273</ele>
        <time>2017-05-10T09:24:16Z</time>
      </trkpt>
      <trkpt lat="45.94918" lon="4.86139">
        <ele>273</ele>
        <time>2017-05-10T09:24:18Z</time>
      </trkpt>
      <trkpt lat="45.94915" lon="4.86134">
        <ele>274</ele>
        <time>2017-05-10T09:24:19Z</time>
      </trkpt>
      <trkpt lat="45.94912" lon="4.86129">
        <ele>274</ele>
        <time>2017-05-10T09:24:20Z</time>
      </trkpt>
      <trkpt lat="45.94909" lon="4.86124">
        <ele>274</ele>
        <time>2017-05-10T09:24:21Z</time>
      </trkpt>
      <trkpt lat="45.94905" lon="4.86113">
        <ele>274</ele>
        <time>2017-05-10T09:24:23Z</time>
      </trkpt>
      <trkpt lat="45.94903" lon="4.86108">
        <ele>274</ele>
        <time>2017-05-10T09:24:24Z</time>
      </trkpt>
      <trkpt lat="45.94899" lon="4.86099">
        <ele>274</ele>
        <time>2017-05-10T09:24:26Z</time>
      </trkpt>
      <trkpt lat="45.94897" lon="4.86094">
        <ele>274</ele>
        <time>2017-05-10T09:24:27Z</time>
      </trkpt>
      <trkpt lat="45.94895" lon="4.86088">
        <ele>274</ele>
        <time>2017-05-10T09:24:28Z</time>
      </trkpt>
      <trkpt lat="45.94893" lon="4.86081">
        <ele>274</ele>
        <time>2017-05-10T09:24:29Z</time>
      </trkpt>
      <trkpt lat="45.94891" lon="4.86075">
        <ele>274</ele>
        <time>2017-05-10T09:24:30Z</time>
      </trkpt>
      <trkpt lat="45.94889" lon="4.86068">
        <ele>274</ele>
        <time>2017-05-10T09:24:31Z</time>
      </trkpt>
      <trkpt lat="45.94887" lon="4.86061">
        <ele>274</ele>
        <time>2017-05-10T09:24:32Z</time>
      </trkpt>
      <trkpt lat="45.94886" lon="4.86054">
        <ele>274</ele>
        <time>2017-05-10T09:24:33Z</time>
      </trkpt>
      <trkpt lat="45.94884" lon="4.86047">
        <ele>274</ele>
        <time>2017-05-10T09:24:34Z</time>
      </trkpt>
      <trkpt lat="45.94882" lon="4.8604">
        <ele>274</ele>
        <time>2017-05-10T09:24:35Z</time>
      </trkpt>
      <trkpt lat="45.9488" lon="4.86033">
        <ele>274</ele>
        <time>2017-05-10T09:24:36Z</time>
      </trkpt>
      <trkpt lat="45.94879" lon="4.86026">
        <ele>274</ele>
        <time>2017-05-10T09:24:37Z</time>
      </trkpt>
      <trkpt lat="45.94877" lon="4.8602">
        <ele>274</ele>
        <time>2017-05-10T09:24:38Z</time>
      </trkpt>
      <trkpt lat="45.94876" lon="4.86013">
        <ele>274</ele>
        <time>2017-05-10T09:24:39Z</time>
      </trkpt>
      <trkpt lat="45.94874" lon="4.86007">
        <ele>274</ele>
        <time>2017-05-10T09:24:40Z</time>
      </trkpt>
      <trkpt lat="45.94872" lon="4.86001">
        <ele>274</ele>
        <time>2017-05-10T09:24:41Z</time>
      </trkpt>
      <trkpt lat="45.94869" lon="4.8599">
        <ele>275</ele>
        <time>2017-05-10T09:24:43Z</time>
      </trkpt>
      <trkpt lat="45.94868" lon="4.85985">
        <ele>275</ele>
        <time>2017-05-10T09:24:44Z</time>
      </trkpt>
      <trkpt lat="45.94865" lon="4.85973">
        <ele>275</ele>
        <time>2017-05-10T09:24:46Z</time>
      </trkpt>
      <trkpt lat="45.94863" lon="4.85968">
        <ele>275</ele>
        <time>2017-05-10T09:24:47Z</time>
      </trkpt>
      <trkpt lat="45.9486" lon="4.85957">
        <ele>275</ele>
        <time>2017-05-10T09:24:49Z</time>
      </trkpt>
      <trkpt lat="45.94858" lon="4.85951">
        <ele>275</ele>
        <time>2017-05-10T09:24:50Z</time>
      </trkpt>
      <trkpt lat="45.94855" lon="4.85939">
        <ele>275</ele>
        <time>2017-05-10T09:24:52Z</time>
      </trkpt>
      <trkpt lat="45.94853" lon="4.85933">
        <ele>275</ele>
        <time>2017-05-10T09:24:53Z</time>
      </trkpt>
      <trkpt lat="45.9485" lon="4.85921">
        <ele>275</ele>
        <time>2017-05-10T09:24:55Z</time>
      </trkpt>
      <trkpt lat="45.94848" lon="4.85915">
        <ele>275</ele>
        <time>2017-05-10T09:24:56Z</time>
      </trkpt>
      <trkpt lat="45.94847" lon="4.85908">
        <ele>275</ele>
        <time>2017-05-10T09:24:57Z</time>
      </trkpt>
      <trkpt lat="45.94845" lon="4.85901">
        <ele>276</ele>
        <time>2017-05-10T09:24:58Z</time>
      </trkpt>
      <trkpt lat="45.94843" lon="4.85893">
        <ele>276</ele>
        <time>2017-05-10T09:24:59Z</time>
      </trkpt>
      <trkpt lat="45.94841" lon="4.85886">
        <ele>276</ele>
        <time>2017-05-10T09:25:00Z</time>
      </trkpt>
      <trkpt lat="45.94839" lon="4.85878">
        <ele>276</ele>
        <time>2017-05-10T09:25:01Z</time>
      </trkpt>
      <trkpt lat="45.94836" lon="4.8587">
        <ele>276</ele>
        <time>2017-05-10T09:25:02Z</time>
      </trkpt>
      <trkpt lat="45.94834" lon="4.85862">
        <ele>276</ele>
        <time>2017-05-10T09:25:03Z</time>
      </trkpt>
      <trkpt lat="45.94832" lon="4.85854">
        <ele>277</ele>
        <time>2017-05-10T09:25:04Z</time>
      </trkpt>
      <trkpt lat="45.9483" lon="4.85847">
        <ele>277</ele>
        <time>2017-05-10T09:25:05Z</time>
      </trkpt>
      <trkpt lat="45.94828" lon="4.85839">
        <ele>277</ele>
        <time>2017-05-10T09:25:06Z</time>
      </trkpt>
      <trkpt lat="45.94826" lon="4.85831">
        <ele>277</ele>
        <time>2017-05-10T09:25:07Z</time>
      </trkpt>
      <trkpt lat="45.94823" lon="4.85823">
        <ele>278</ele>
        <time>2017-05-10T09:25:08Z</time>
      </trkpt>
      <trkpt lat="45.94822" lon="4.85816">
        <ele>278</ele>
        <time>2017-05-10T09:25:09Z</time>
      </trkpt>
      <trkpt lat="45.9482" lon="4.85809">
        <ele>278</ele>
        <time>2017-05-10T09:25:10Z</time>
      </trkpt>
      <trkpt lat="45.94818" lon="4.85802">
        <ele>278</ele>
        <time>2017-05-10T09:25:11Z</time>
      </trkpt>
      <trkpt lat="45.94816" lon="4.85796">
        <ele>278</ele>
        <time>2017-05-10T09:25:12Z</time>
      </trkpt>
      <trkpt lat="45.94815" lon="4.8579">
        <ele>278</ele>
        <time>2017-05-10T09:25:13Z</time>
      </trkpt>
      <trkpt lat="45.94813" lon="4.85784">
        <ele>278</ele>
        <time>2017-05-10T09:25:14Z</time>
      </trkpt>
      <trkpt lat="45.94812" lon="4.85777">
        <ele>278</ele>
        <time>2017-05-10T09:25:15Z</time>
      </trkpt>
      <trkpt lat="45.9481" lon="4.85771">
        <ele>278</ele>
        <time>2017-05-10T09:25:16Z</time>
      </trkpt>
      <trkpt lat="45.94809" lon="4.85764">
        <ele>278</ele>
        <time>2017-05-10T09:25:17Z</time>
      </trkpt>
      <trkpt lat="45.94807" lon="4.85758">
        <ele>278</ele>
        <time>2017-05-10T09:25:18Z</time>
      </trkpt>
      <trkpt lat="45.94806" lon="4.85751">
        <ele>278</ele>
        <time>2017-05-10T09:25:19Z</time>
      </trkpt>
      <trkpt lat="45.94804" lon="4.85745">
        <ele>279</ele>
        <time>2017-05-10T09:25:20Z</time>
      </trkpt>
      <trkpt lat="45.94802" lon="4.85738">
        <ele>280</ele>
        <time>2017-05-10T09:25:21Z</time>
      </trkpt>
      <trkpt lat="45.94801" lon="4.85732">
        <ele>280</ele>
        <time>2017-05-10T09:25:22Z</time>
      </trkpt>
      <trkpt lat="45.94799" lon="4.85725">
        <ele>280</ele>
        <time>2017-05-10T09:25:23Z</time>
      </trkpt>
      <trkpt lat="45.94797" lon="4.85719">
        <ele>280</ele>
        <time>2017-05-10T09:25:24Z</time>
      </trkpt>
      <trkpt lat="45.94794" lon="4.85707">
        <ele>280</ele>
        <time>2017-05-10T09:25:26Z</time>
      </trkpt>
      <trkpt lat="45.94793" lon="4.85701">
        <ele>280</ele>
        <time>2017-05-10T09:25:27Z</time>
      </trkpt>
      <trkpt lat="45.94791" lon="4.85694">
        <ele>280</ele>
        <time>2017-05-10T09:25:28Z</time>
      </trkpt>
      <trkpt lat="45.94789" lon="4.85688">
        <ele>280</ele>
        <time>2017-05-10T09:25:29Z</time>
      </trkpt>
      <trkpt lat="45.94787" lon="4.85681">
        <ele>280</ele>
        <time>2017-05-10T09:25:30Z</time>
      </trkpt>
      <trkpt lat="45.94786" lon="4.85674">
        <ele>280</ele>
        <time>2017-05-10T09:25:31Z</time>
      </trkpt>
      <trkpt lat="45.94784" lon="4.85667">
        <ele>281</ele>
        <time>2017-05-10T09:25:32Z</time>
      </trkpt>
      <trkpt lat="45.94783" lon="4.85659">
        <ele>281</ele>
        <time>2017-05-10T09:25:33Z</time>
      </trkpt>
      <trkpt lat="45.94781" lon="4.85652">
        <ele>281</ele>
        <time>2017-05-10T09:25:34Z</time>
      </trkpt>
      <trkpt lat="45.94779" lon="4.85644">
        <ele>281</ele>
        <time>2017-05-10T09:25:35Z</time>
      </trkpt>
      <trkpt lat="45.94778" lon="4.85636">
        <ele>281</ele>
        <time>2017-05-10T09:25:36Z</time>
      </trkpt>
      <trkpt lat="45.94776" lon="4.85628">
        <ele>280</ele>
        <time>2017-05-10T09:25:37Z</time>
      </trkpt>
      <trkpt lat="45.94774" lon="4.8562">
        <ele>280</ele>
        <time>2017-05-10T09:25:38Z</time>
      </trkpt>
      <trkpt lat="45.94772" lon="4.85612">
        <ele>280</ele>
        <time>2017-05-10T09:25:39Z</time>
      </trkpt>
      <trkpt lat="45.94771" lon="4.85603">
        <ele>280</ele>
        <time>2017-05-10T09:25:40Z</time>
      </trkpt>
      <trkpt lat="45.94769" lon="4.85594">
        <ele>280</ele>
        <time>2017-05-10T09:25:41Z</time>
      </trkpt>
      <trkpt lat="45.94767" lon="4.85585">
        <ele>280</ele>
        <time>2017-05-10T09:25:42Z</time>
      </trkpt>
      <trkpt lat="45.94765" lon="4.85576">
        <ele>279</ele>
        <time>2017-05-10T09:25:43Z</time>
      </trkpt>
      <trkpt lat="45.94762" lon="4.85566">
        <ele>279</ele>
        <time>2017-05-10T09:25:44Z</time>
      </trkpt>
      <trkpt lat="45.94761" lon="4.85556">
        <ele>278</ele>
        <time>2017-05-10T09:25:45Z</time>
      </trkpt>
      <trkpt lat="45.94759" lon="4.85545">
        <ele>278</ele>
        <time>2017-05-10T09:25:46Z</time>
      </trkpt>
      <trkpt lat="45.94757" lon="4.85534">
        <ele>278</ele>
        <time>2017-05-10T09:25:47Z</time>
      </trkpt>
      <trkpt lat="45.94756" lon="4.85523">
        <ele>277</ele>
        <time>2017-05-10T09:25:48Z</time>
      </trkpt>
      <trkpt lat="45.94754" lon="4.85511">
        <ele>277</ele>
        <time>2017-05-10T09:25:49Z</time>
      </trkpt>
      <trkpt lat="45.94752" lon="4.85499">
        <ele>276</ele>
        <time>2017-05-10T09:25:50Z</time>
      </trkpt>
      <trkpt lat="45.94751" lon="4.85486">
        <ele>276</ele>
        <time>2017-05-10T09:25:51Z</time>
      </trkpt>
      <trkpt lat="45.94749" lon="4.85474">
        <ele>274</ele>
        <time>2017-05-10T09:25:52Z</time>
      </trkpt>
      <trkpt lat="45.94748" lon="4.85461">
        <ele>274</ele>
        <time>2017-05-10T09:25:53Z</time>
      </trkpt>
      <trkpt lat="45.94746" lon="4.85449">
        <ele>274</ele>
        <time>2017-05-10T09:25:54Z</time>
      </trkpt>
      <trkpt lat="45.94745" lon="4.85436">
        <ele>273</ele>
        <time>2017-05-10T09:25:55Z</time>
      </trkpt>
      <trkpt lat="45.94743" lon="4.85423">
        <ele>273</ele>
        <time>2017-05-10T09:25:56Z</time>
      </trkpt>
      <trkpt lat="45.94742" lon="4.85411">
        <ele>272</ele>
        <time>2017-05-10T09:25:57Z</time>
      </trkpt>
      <trkpt lat="45.9474" lon="4.85398">
        <ele>272</ele>
        <time>2017-05-10T09:25:58Z</time>
      </trkpt>
      <trkpt lat="45.94739" lon="4.85386">
        <ele>272</ele>
        <time>2017-05-10T09:25:59Z</time>
      </trkpt>
      <trkpt lat="45.94738" lon="4.85374">
        <ele>271</ele>
        <time>2017-05-10T09:26:00Z</time>
      </trkpt>
      <trkpt lat="45.94736" lon="4.85362">
        <ele>271</ele>
        <time>2017-05-10T09:26:01Z</time>
      </trkpt>
      <trkpt lat="45.94734" lon="4.8535">
        <ele>271</ele>
        <time>2017-05-10T09:26:02Z</time>
      </trkpt>
      <trkpt lat="45.94733" lon="4.85339">
        <ele>271</ele>
        <time>2017-05-10T09:26:03Z</time>
      </trkpt>
      <trkpt lat="45.94731" lon="4.85328">
        <ele>270</ele>
        <time>2017-05-10T09:26:04Z</time>
      </trkpt>
      <trkpt lat="45.9473" lon="4.85317">
        <ele>270</ele>
        <time>2017-05-10T09:26:05Z</time>
      </trkpt>
      <trkpt lat="45.94729" lon="4.85306">
        <ele>270</ele>
        <time>2017-05-10T09:26:06Z</time>
      </trkpt>
      <trkpt lat="45.94728" lon="4.85295">
        <ele>270</ele>
        <time>2017-05-10T09:26:07Z</time>
      </trkpt>
      <trkpt lat="45.94726" lon="4.85285">
        <ele>269</ele>
        <time>2017-05-10T09:26:08Z</time>
      </trkpt>
      <trkpt lat="45.94725" lon="4.85275">
        <ele>269</ele>
        <time>2017-05-10T09:26:09Z</time>
      </trkpt>
      <trkpt lat="45.94724" lon="4.85266">
        <ele>269</ele>
        <time>2017-05-10T09:26:10Z</time>
      </trkpt>
      <trkpt lat="45.94723" lon="4.85256">
        <ele>269</ele>
        <time>2017-05-10T09:26:11Z</time>
      </trkpt>
      <trkpt lat="45.94722" lon="4.85247">
        <ele>269</ele>
        <time>2017-05-10T09:26:12Z</time>
      </trkpt>
      <trkpt lat="45.94721" lon="4.85238">
        <ele>269</ele>
        <time>2017-05-10T09:26:13Z</time>
      </trkpt>
      <trkpt lat="45.9472" lon="4.85229">
        <ele>269</ele>
        <time>2017-05-10T09:26:14Z</time>
      </trkpt>
      <trkpt lat="45.94719" lon="4.8522">
        <ele>269</ele>
        <time>2017-05-10T09:26:15Z</time>
      </trkpt>
      <trkpt lat="45.94718" lon="4.85212">
        <ele>269</ele>
        <time>2017-05-10T09:26:16Z</time>
      </trkpt>
      <trkpt lat="45.94717" lon="4.85203">
        <ele>269</ele>
        <time>2017-05-10T09:26:17Z</time>
      </trkpt>
      <trkpt lat="45.94716" lon="4.85195">
        <ele>269</ele>
        <time>2017-05-10T09:26:18Z</time>
      </trkpt>
      <trkpt lat="45.94716" lon="4.85187">
        <ele>269</ele>
        <time>2017-05-10T09:26:19Z</time>
      </trkpt>
      <trkpt lat="45.94715" lon="4.85178">
        <ele>269</ele>
        <time>2017-05-10T09:26:20Z</time>
      </trkpt>
      <trkpt lat="45.94714" lon="4.8517">
        <ele>269</ele>
        <time>2017-05-10T09:26:21Z</time>
      </trkpt>
      <trkpt lat="45.94713" lon="4.85162">
        <ele>269</ele>
        <time>2017-05-10T09:26:22Z</time>
      </trkpt>
      <trkpt lat="45.94712" lon="4.85153">
        <ele>269</ele>
        <time>2017-05-10T09:26:23Z</time>
      </trkpt>
      <trkpt lat="45.94711" lon="4.85145">
        <ele>269</ele>
        <time>2017-05-10T09:26:24Z</time>
      </trkpt>
      <trkpt lat="45.9471" lon="4.85136">
        <ele>269</ele>
        <time>2017-05-10T09:26:25Z</time>
      </trkpt>
      <trkpt lat="45.94709" lon="4.85127">
        <ele>269</ele>
        <time>2017-05-10T09:26:26Z</time>
      </trkpt>
      <trkpt lat="45.94708" lon="4.85118">
        <ele>269</ele>
        <time>2017-05-10T09:26:27Z</time>
      </trkpt>
      <trkpt lat="45.94707" lon="4.85109">
        <ele>269</ele>
        <time>2017-05-10T09:26:28Z</time>
      </trkpt>
      <trkpt lat="45.94705" lon="4.85099">
        <ele>269</ele>
        <time>2017-05-10T09:26:29Z</time>
      </trkpt>
      <trkpt lat="45.94704" lon="4.85091">
        <ele>269</ele>
        <time>2017-05-10T09:26:30Z</time>
      </trkpt>
      <trkpt lat="45.94704" lon="4.85082">
        <ele>269</ele>
        <time>2017-05-10T09:26:31Z</time>
      </trkpt>
      <trkpt lat="45.94703" lon="4.85073">
        <ele>269</ele>
        <time>2017-05-10T09:26:32Z</time>
      </trkpt>
      <trkpt lat="45.94703" lon="4.85065">
        <ele>269</ele>
        <time>2017-05-10T09:26:33Z</time>
      </trkpt>
      <trkpt lat="45.94702" lon="4.85056">
        <ele>269</ele>
        <time>2017-05-10T09:26:34Z</time>
      </trkpt>
      <trkpt lat="45.94701" lon="4.85048">
        <ele>269</ele>
        <time>2017-05-10T09:26:35Z</time>
      </trkpt>
      <trkpt lat="45.94701" lon="4.85039">
        <ele>269</ele>
        <time>2017-05-10T09:26:36Z</time>
      </trkpt>
      <trkpt lat="45.947" lon="4.8503">
        <ele>269</ele>
        <time>2017-05-10T09:26:37Z</time>
      </trkpt>
      <trkpt lat="45.94699" lon="4.85021">
        <ele>269</ele>
        <time>2017-05-10T09:26:38Z</time>
      </trkpt>
      <trkpt lat="45.94698" lon="4.85011">
        <ele>269</ele>
        <time>2017-05-10T09:26:39Z</time>
      </trkpt>
      <trkpt lat="45.94697" lon="4.85002">
        <ele>269</ele>
        <time>2017-05-10T09:26:40Z</time>
      </trkpt>
      <trkpt lat="45.94697" lon="4.84992">
        <ele>269</ele>
        <time>2017-05-10T09:26:41Z</time>
      </trkpt>
      <trkpt lat="45.94696" lon="4.84983">
        <ele>269</ele>
        <time>2017-05-10T09:26:42Z</time>
      </trkpt>
      <trkpt lat="45.94695" lon="4.84973">
        <ele>269</ele>
        <time>2017-05-10T09:26:43Z</time>
      </trkpt>
      <trkpt lat="45.94693" lon="4.84963">
        <ele>269</ele>
        <time>2017-05-10T09:26:44Z</time>
      </trkpt>
      <trkpt lat="45.94692" lon="4.84952">
        <ele>269</ele>
        <time>2017-05-10T09:26:45Z</time>
      </trkpt>
      <trkpt lat="45.94691" lon="4.84943">
        <ele>269</ele>
        <time>2017-05-10T09:26:46Z</time>
      </trkpt>
      <trkpt lat="45.9469" lon="4.84933">
        <ele>269</ele>
        <time>2017-05-10T09:26:47Z</time>
      </trkpt>
      <trkpt lat="45.94689" lon="4.84924">
        <ele>269</ele>
        <time>2017-05-10T09:26:48Z</time>
      </trkpt>
      <trkpt lat="45.94688" lon="4.84914">
        <ele>269</ele>
        <time>2017-05-10T09:26:49Z</time>
      </trkpt>
      <trkpt lat="45.94687" lon="4.84905">
        <ele>269</ele>
        <time>2017-05-10T09:26:50Z</time>
      </trkpt>
      <trkpt lat="45.94686" lon="4.84897">
        <ele>268</ele>
        <time>2017-05-10T09:26:51Z</time>
      </trkpt>
      <trkpt lat="45.94685" lon="4.84888">
        <ele>268</ele>
        <time>2017-05-10T09:26:52Z</time>
      </trkpt>
      <trkpt lat="45.94685" lon="4.84879">
        <ele>268</ele>
        <time>2017-05-10T09:26:53Z</time>
      </trkpt>
      <trkpt lat="45.94684" lon="4.84871">
        <ele>268</ele>
        <time>2017-05-10T09:26:54Z</time>
      </trkpt>
      <trkpt lat="45.94683" lon="4.84862">
        <ele>268</ele>
        <time>2017-05-10T09:26:55Z</time>
      </trkpt>
      <trkpt lat="45.94682" lon="4.84854">
        <ele>268</ele>
        <time>2017-05-10T09:26:56Z</time>
      </trkpt>
      <trkpt lat="45.94681" lon="4.84845">
        <ele>268</ele>
        <time>2017-05-10T09:26:57Z</time>
      </trkpt>
      <trkpt lat="45.94681" lon="4.84837">
        <ele>268</ele>
        <time>2017-05-10T09:26:58Z</time>
      </trkpt>
      <trkpt lat="45.9468" lon="4.84828">
        <ele>268</ele>
        <time>2017-05-10T09:26:59Z</time>
      </trkpt>
      <trkpt lat="45.94679" lon="4.84819">
        <ele>268</ele>
        <time>2017-05-10T09:27:00Z</time>
      </trkpt>
      <trkpt lat="45.94678" lon="4.84811">
        <ele>268</ele>
        <time>2017-05-10T09:27:01Z</time>
      </trkpt>
      <trkpt lat="45.94678" lon="4.84802">
        <ele>268</ele>
        <time>2017-05-10T09:27:02Z</time>
      </trkpt>
      <trkpt lat="45.94677" lon="4.84794">
        <ele>268</ele>
        <time>2017-05-10T09:27:03Z</time>
      </trkpt>
      <trkpt lat="45.94676" lon="4.84786">
        <ele>269</ele>
        <time>2017-05-10T09:27:04Z</time>
      </trkpt>
      <trkpt lat="45.94676" lon="4.84778">
        <ele>269</ele>
        <time>2017-05-10T09:27:05Z</time>
      </trkpt>
      <trkpt lat="45.94675" lon="4.8477">
        <ele>269</ele>
        <time>2017-05-10T09:27:06Z</time>
      </trkpt>
      <trkpt lat="45.94674" lon="4.84763">
        <ele>269</ele>
        <time>2017-05-10T09:27:07Z</time>
      </trkpt>
      <trkpt lat="45.94674" lon="4.84756">
        <ele>269</ele>
        <time>2017-05-10T09:27:08Z</time>
      </trkpt>
      <trkpt lat="45.94674" lon="4.84749">
        <ele>269</ele>
        <time>2017-05-10T09:27:09Z</time>
      </trkpt>
      <trkpt lat="45.94674" lon="4.84742">
        <ele>269</ele>
        <time>2017-05-10T09:27:10Z</time>
      </trkpt>
      <trkpt lat="45.94673" lon="4.84735">
        <ele>269</ele>
        <time>2017-05-10T09:27:11Z</time>
      </trkpt>
      <trkpt lat="45.94673" lon="4.84727">
        <ele>269</ele>
        <time>2017-05-10T09:27:12Z</time>
      </trkpt>
      <trkpt lat="45.94673" lon="4.84719">
        <ele>269</ele>
        <time>2017-05-10T09:27:13Z</time>
      </trkpt>
      <trkpt lat="45.94673" lon="4.84711">
        <ele>269</ele>
        <time>2017-05-10T09:27:14Z</time>
      </trkpt>
      <trkpt lat="45.94672" lon="4.84702">
        <ele>269</ele>
        <time>2017-05-10T09:27:15Z</time>
      </trkpt>
      <trkpt lat="45.94672" lon="4.84693">
        <ele>269</ele>
        <time>2017-05-10T09:27:16Z</time>
      </trkpt>
      <trkpt lat="45.94672" lon="4.84684">
        <ele>269</ele>
        <time>2017-05-10T09:27:17Z</time>
      </trkpt>
      <trkpt lat="45.94672" lon="4.84675">
        <ele>269</ele>
        <time>2017-05-10T09:27:18Z</time>
      </trkpt>
      <trkpt lat="45.94672" lon="4.84666">
        <ele>269</ele>
        <time>2017-05-10T09:27:19Z</time>
      </trkpt>
      <trkpt lat="45.94671" lon="4.84657">
        <ele>268</ele>
        <time>2017-05-10T09:27:20Z</time>
      </trkpt>
      <trkpt lat="45.94671" lon="4.84648">
        <ele>268</ele>
        <time>2017-05-10T09:27:21Z</time>
      </trkpt>
      <trkpt lat="45.94671" lon="4.84639">
        <ele>268</ele>
        <time>2017-05-10T09:27:22Z</time>
      </trkpt>
      <trkpt lat="45.9467" lon="4.84631">
        <ele>268</ele>
        <time>2017-05-10T09:27:23Z</time>
      </trkpt>
      <trkpt lat="45.9467" lon="4.84622">
        <ele>268</ele>
        <time>2017-05-10T09:27:24Z</time>
      </trkpt>
      <trkpt lat="45.9467" lon="4.84614">
        <ele>268</ele>
        <time>2017-05-10T09:27:25Z</time>
      </trkpt>
      <trkpt lat="45.94669" lon="4.84607">
        <ele>268</ele>
        <time>2017-05-10T09:27:26Z</time>
      </trkpt>
      <trkpt lat="45.94668" lon="4.84599">
        <ele>268</ele>
        <time>2017-05-10T09:27:27Z</time>
      </trkpt>
      <trkpt lat="45.94668" lon="4.84592">
        <ele>268</ele>
        <time>2017-05-10T09:27:28Z</time>
      </trkpt>
      <trkpt lat="45.94667" lon="4.84584">
        <ele>268</ele>
        <time>2017-05-10T09:27:29Z</time>
      </trkpt>
      <trkpt lat="45.94667" lon="4.84577">
        <ele>268</ele>
        <time>2017-05-10T09:27:30Z</time>
      </trkpt>
      <trkpt lat="45.94667" lon="4.84569">
        <ele>268</ele>
        <time>2017-05-10T09:27:31Z</time>
      </trkpt>
      <trkpt lat="45.94667" lon="4.84561">
        <ele>268</ele>
        <time>2017-05-10T09:27:32Z</time>
      </trkpt>
      <trkpt lat="45.94666" lon="4.84553">
        <ele>268</ele>
        <time>2017-05-10T09:27:33Z</time>
      </trkpt>
      <trkpt lat="45.94665" lon="4.84545">
        <ele>268</ele>
        <time>2017-05-10T09:27:34Z</time>
      </trkpt>
      <trkpt lat="45.94665" lon="4.84537">
        <ele>268</ele>
        <time>2017-05-10T09:27:35Z</time>
      </trkpt>
      <trkpt lat="45.94664" lon="4.84528">
        <ele>268</ele>
        <time>2017-05-10T09:27:36Z</time>
      </trkpt>
      <trkpt lat="45.94663" lon="4.8452">
        <ele>268</ele>
        <time>2017-05-10T09:27:37Z</time>
      </trkpt>
      <trkpt lat="45.94662" lon="4.84511">
        <ele>268</ele>
        <time>2017-05-10T09:27:38Z</time>
      </trkpt>
      <trkpt lat="45.9466" lon="4.84503">
        <ele>268</ele>
        <time>2017-05-10T09:27:39Z</time>
      </trkpt>
      <trkpt lat="45.94659" lon="4.84494">
        <ele>268</ele>
        <time>2017-05-10T09:27:40Z</time>
      </trkpt>
      <trkpt lat="45.94658" lon="4.84485">
        <ele>268</ele>
        <time>2017-05-10T09:27:41Z</time>
      </trkpt>
      <trkpt lat="45.94657" lon="4.84478">
        <ele>268</ele>
        <time>2017-05-10T09:27:42Z</time>
      </trkpt>
      <trkpt lat="45.94657" lon="4.8447">
        <ele>268</ele>
        <time>2017-05-10T09:27:43Z</time>
      </trkpt>
      <trkpt lat="45.94656" lon="4.84463">
        <ele>268</ele>
        <time>2017-05-10T09:27:44Z</time>
      </trkpt>
      <trkpt lat="45.94655" lon="4.84456">
        <ele>268</ele>
        <time>2017-05-10T09:27:45Z</time>
      </trkpt>
      <trkpt lat="45.94654" lon="4.84449">
        <ele>268</ele>
        <time>2017-05-10T09:27:46Z</time>
      </trkpt>
      <trkpt lat="45.94653" lon="4.84443">
        <ele>268</ele>
        <time>2017-05-10T09:27:47Z</time>
      </trkpt>
      <trkpt lat="45.94653" lon="4.84436">
        <ele>268</ele>
        <time>2017-05-10T09:27:48Z</time>
      </trkpt>
      <trkpt lat="45.94652" lon="4.8443">
        <ele>268</ele>
        <time>2017-05-10T09:27:49Z</time>
      </trkpt>
      <trkpt lat="45.94651" lon="4.84423">
        <ele>268</ele>
        <time>2017-05-10T09:27:50Z</time>
      </trkpt>
      <trkpt lat="45.9465" lon="4.84416">
        <ele>268</ele>
        <time>2017-05-10T09:27:51Z</time>
      </trkpt>
      <trkpt lat="45.94649" lon="4.84409">
        <ele>268</ele>
        <time>2017-05-10T09:27:52Z</time>
      </trkpt>
      <trkpt lat="45.94648" lon="4.84402">
        <ele>268</ele>
        <time>2017-05-10T09:27:53Z</time>
      </trkpt>
      <trkpt lat="45.94648" lon="4.84395">
        <ele>268</ele>
        <time>2017-05-10T09:27:54Z</time>
      </trkpt>
      <trkpt lat="45.94647" lon="4.84388">
        <ele>268</ele>
        <time>2017-05-10T09:27:55Z</time>
      </trkpt>
      <trkpt lat="45.94646" lon="4.84381">
        <ele>268</ele>
        <time>2017-05-10T09:27:56Z</time>
      </trkpt>
      <trkpt lat="45.94646" lon="4.84374">
        <ele>268</ele>
        <time>2017-05-10T09:27:57Z</time>
      </trkpt>
      <trkpt lat="45.94645" lon="4.84366">
        <ele>268</ele>
        <time>2017-05-10T09:27:58Z</time>
      </trkpt>
      <trkpt lat="45.94644" lon="4.84358">
        <ele>268</ele>
        <time>2017-05-10T09:27:59Z</time>
      </trkpt>
      <trkpt lat="45.94643" lon="4.8435">
        <ele>268</ele>
        <time>2017-05-10T09:28:00Z</time>
      </trkpt>
      <trkpt lat="45.94642" lon="4.84341">
        <ele>268</ele>
        <time>2017-05-10T09:28:01Z</time>
      </trkpt>
      <trkpt lat="45.94641" lon="4.84332">
        <ele>268</ele>
        <time>2017-05-10T09:28:02Z</time>
      </trkpt>
      <trkpt lat="45.94639" lon="4.84324">
        <ele>269</ele>
        <time>2017-05-10T09:28:03Z</time>
      </trkpt>
      <trkpt lat="45.94639" lon="4.84316">
        <ele>269</ele>
        <time>2017-05-10T09:28:04Z</time>
      </trkpt>
      <trkpt lat="45.94638" lon="4.84308">
        <ele>269</ele>
        <time>2017-05-10T09:28:05Z</time>
      </trkpt>
      <trkpt lat="45.94637" lon="4.84299">
        <ele>269</ele>
        <time>2017-05-10T09:28:06Z</time>
      </trkpt>
      <trkpt lat="45.94636" lon="4.84291">
        <ele>269</ele>
        <time>2017-05-10T09:28:07Z</time>
      </trkpt>
      <trkpt lat="45.94635" lon="4.84283">
        <ele>269</ele>
        <time>2017-05-10T09:28:08Z</time>
      </trkpt>
      <trkpt lat="45.94635" lon="4.84275">
        <ele>269</ele>
        <time>2017-05-10T09:28:09Z</time>
      </trkpt>
      <trkpt lat="45.94634" lon="4.84267">
        <ele>269</ele>
        <time>2017-05-10T09:28:10Z</time>
      </trkpt>
      <trkpt lat="45.94633" lon="4.84259">
        <ele>269</ele>
        <time>2017-05-10T09:28:11Z</time>
      </trkpt>
      <trkpt lat="45.94632" lon="4.84251">
        <ele>269</ele>
        <time>2017-05-10T09:28:12Z</time>
      </trkpt>
      <trkpt lat="45.94631" lon="4.84243">
        <ele>269</ele>
        <time>2017-05-10T09:28:13Z</time>
      </trkpt>
      <trkpt lat="45.9463" lon="4.84236">
        <ele>269</ele>
        <time>2017-05-10T09:28:14Z</time>
      </trkpt>
      <trkpt lat="45.94629" lon="4.84228">
        <ele>269</ele>
        <time>2017-05-10T09:28:15Z</time>
      </trkpt>
      <trkpt lat="45.94628" lon="4.84221">
        <ele>269</ele>
        <time>2017-05-10T09:28:16Z</time>
      </trkpt>
      <trkpt lat="45.94626" lon="4.84214">
        <ele>269</ele>
        <time>2017-05-10T09:28:17Z</time>
      </trkpt>
      <trkpt lat="45.94625" lon="4.84206">
        <ele>269</ele>
        <time>2017-05-10T09:28:18Z</time>
      </trkpt>
      <trkpt lat="45.94624" lon="4.84199">
        <ele>269</ele>
        <time>2017-05-10T09:28:19Z</time>
      </trkpt>
      <trkpt lat="45.94623" lon="4.84191">
        <ele>269</ele>
        <time>2017-05-10T09:28:20Z</time>
      </trkpt>
      <trkpt lat="45.94621" lon="4.84183">
        <ele>269</ele>
        <time>2017-05-10T09:28:21Z</time>
      </trkpt>
      <trkpt lat="45.9462" lon="4.84174">
        <ele>269</ele>
        <time>2017-05-10T09:28:22Z</time>
      </trkpt>
      <trkpt lat="45.94619" lon="4.84166">
        <ele>269</ele>
        <time>2017-05-10T09:28:23Z</time>
      </trkpt>
      <trkpt lat="45.94618" lon="4.84157">
        <ele>269</ele>
        <time>2017-05-10T09:28:24Z</time>
      </trkpt>
      <trkpt lat="45.94616" lon="4.84149">
        <ele>269</ele>
        <time>2017-05-10T09:28:25Z</time>
      </trkpt>
      <trkpt lat="45.94615" lon="4.8414">
        <ele>269</ele>
        <time>2017-05-10T09:28:26Z</time>
      </trkpt>
      <trkpt lat="45.94613" lon="4.84132">
        <ele>269</ele>
        <time>2017-05-10T09:28:27Z</time>
      </trkpt>
      <trkpt lat="45.94612" lon="4.84124">
        <ele>269</ele>
        <time>2017-05-10T09:28:28Z</time>
      </trkpt>
      <trkpt lat="45.94611" lon="4.84117">
        <ele>269</ele>
        <time>2017-05-10T09:28:29Z</time>
      </trkpt>
      <trkpt lat="45.9461" lon="4.84109">
        <ele>269</ele>
        <time>2017-05-10T09:28:30Z</time>
      </trkpt>
      <trkpt lat="45.94609" lon="4.84102">
        <ele>269</ele>
        <time>2017-05-10T09:28:31Z</time>
      </trkpt>
      <trkpt lat="45.94607" lon="4.84095">
        <ele>269</ele>
        <time>2017-05-10T09:28:32Z</time>
      </trkpt>
      <trkpt lat="45.94606" lon="4.84088">
        <ele>269</ele>
        <time>2017-05-10T09:28:33Z</time>
      </trkpt>
      <trkpt lat="45.94605" lon="4.84081">
        <ele>269</ele>
        <time>2017-05-10T09:28:34Z</time>
      </trkpt>
      <trkpt lat="45.94603" lon="4.84074">
        <ele>269</ele>
        <time>2017-05-10T09:28:35Z</time>
      </trkpt>
      <trkpt lat="45.94602" lon="4.84068">
        <ele>269</ele>
        <time>2017-05-10T09:28:36Z</time>
      </trkpt>
      <trkpt lat="45.94601" lon="4.84061">
        <ele>269</ele>
        <time>2017-05-10T09:28:37Z</time>
      </trkpt>
      <trkpt lat="45.946" lon="4.84055">
        <ele>269</ele>
        <time>2017-05-10T09:28:38Z</time>
      </trkpt>
      <trkpt lat="45.94599" lon="4.84048">
        <ele>269</ele>
        <time>2017-05-10T09:28:39Z</time>
      </trkpt>
      <trkpt lat="45.94598" lon="4.84042">
        <ele>269</ele>
        <time>2017-05-10T09:28:40Z</time>
      </trkpt>
      <trkpt lat="45.94597" lon="4.84035">
        <ele>269</ele>
        <time>2017-05-10T09:28:41Z</time>
      </trkpt>
      <trkpt lat="45.94596" lon="4.84028">
        <ele>269</ele>
        <time>2017-05-10T09:28:42Z</time>
      </trkpt>
      <trkpt lat="45.94595" lon="4.84021">
        <ele>269</ele>
        <time>2017-05-10T09:28:43Z</time>
      </trkpt>
      <trkpt lat="45.94594" lon="4.84014">
        <ele>269</ele>
        <time>2017-05-10T09:28:44Z</time>
      </trkpt>
      <trkpt lat="45.94593" lon="4.84006">
        <ele>269</ele>
        <time>2017-05-10T09:28:45Z</time>
      </trkpt>
      <trkpt lat="45.94592" lon="4.83998">
        <ele>269</ele>
        <time>2017-05-10T09:28:46Z</time>
      </trkpt>
      <trkpt lat="45.94591" lon="4.8399">
        <ele>269</ele>
        <time>2017-05-10T09:28:47Z</time>
      </trkpt>
      <trkpt lat="45.9459" lon="4.83981">
        <ele>268</ele>
        <time>2017-05-10T09:28:48Z</time>
      </trkpt>
      <trkpt lat="45.94589" lon="4.83973">
        <ele>268</ele>
        <time>2017-05-10T09:28:49Z</time>
      </trkpt>
      <trkpt lat="45.94587" lon="4.83964">
        <ele>268</ele>
        <time>2017-05-10T09:28:50Z</time>
      </trkpt>
      <trkpt lat="45.94586" lon="4.83956">
        <ele>268</ele>
        <time>2017-05-10T09:28:51Z</time>
      </trkpt>
      <trkpt lat="45.94585" lon="4.83947">
        <ele>268</ele>
        <time>2017-05-10T09:28:52Z</time>
      </trkpt>
      <trkpt lat="45.94584" lon="4.83937">
        <ele>268</ele>
        <time>2017-05-10T09:28:53Z</time>
      </trkpt>
      <trkpt lat="45.94583" lon="4.83927">
        <ele>268</ele>
        <time>2017-05-10T09:28:54Z</time>
      </trkpt>
      <trkpt lat="45.94581" lon="4.83918">
        <ele>268</ele>
        <time>2017-05-10T09:28:55Z</time>
      </trkpt>
      <trkpt lat="45.94579" lon="4.83908">
        <ele>268</ele>
        <time>2017-05-10T09:28:56Z</time>
      </trkpt>
      <trkpt lat="45.94577" lon="4.83897">
        <ele>268</ele>
        <time>2017-05-10T09:28:57Z</time>
      </trkpt>
      <trkpt lat="45.94575" lon="4.83887">
        <ele>267</ele>
        <time>2017-05-10T09:28:58Z</time>
      </trkpt>
      <trkpt lat="45.94574" lon="4.83876">
        <ele>267</ele>
        <time>2017-05-10T09:28:59Z</time>
      </trkpt>
      <trkpt lat="45.94572" lon="4.83864">
        <ele>267</ele>
        <time>2017-05-10T09:29:00Z</time>
      </trkpt>
      <trkpt lat="45.9457" lon="4.83853">
        <ele>266</ele>
        <time>2017-05-10T09:29:01Z</time>
      </trkpt>
      <trkpt lat="45.94569" lon="4.83841">
        <ele>266</ele>
        <time>2017-05-10T09:29:02Z</time>
      </trkpt>
      <trkpt lat="45.94567" lon="4.8383">
        <ele>265</ele>
        <time>2017-05-10T09:29:03Z</time>
      </trkpt>
      <trkpt lat="45.94565" lon="4.83818">
        <ele>264</ele>
        <time>2017-05-10T09:29:04Z</time>
      </trkpt>
      <trkpt lat="45.94563" lon="4.83806">
        <ele>264</ele>
        <time>2017-05-10T09:29:05Z</time>
      </trkpt>
      <trkpt lat="45.94561" lon="4.83794">
        <ele>264</ele>
        <time>2017-05-10T09:29:06Z</time>
      </trkpt>
      <trkpt lat="45.94559" lon="4.83782">
        <ele>264</ele>
        <time>2017-05-10T09:29:07Z</time>
      </trkpt>
      <trkpt lat="45.94557" lon="4.83771">
        <ele>263</ele>
        <time>2017-05-10T09:29:08Z</time>
      </trkpt>
      <trkpt lat="45.94556" lon="4.83759">
        <ele>263</ele>
        <time>2017-05-10T09:29:09Z</time>
      </trkpt>
      <trkpt lat="45.94554" lon="4.83748">
        <ele>262</ele>
        <time>2017-05-10T09:29:10Z</time>
      </trkpt>
      <trkpt lat="45.94552" lon="4.83736">
        <ele>262</ele>
        <time>2017-05-10T09:29:11Z</time>
      </trkpt>
      <trkpt lat="45.9455" lon="4.83725">
        <ele>262</ele>
        <time>2017-05-10T09:29:12Z</time>
      </trkpt>
      <trkpt lat="45.94547" lon="4.83713">
        <ele>262</ele>
        <time>2017-05-10T09:29:13Z</time>
      </trkpt>
      <trkpt lat="45.94546" lon="4.83702">
        <ele>262</ele>
        <time>2017-05-10T09:29:14Z</time>
      </trkpt>
      <trkpt lat="45.94544" lon="4.83692">
        <ele>262</ele>
        <time>2017-05-10T09:29:15Z</time>
      </trkpt>
      <trkpt lat="45.94543" lon="4.83681">
        <ele>262</ele>
        <time>2017-05-10T09:29:16Z</time>
      </trkpt>
      <trkpt lat="45.94541" lon="4.83671">
        <ele>262</ele>
        <time>2017-05-10T09:29:17Z</time>
      </trkpt>
      <trkpt lat="45.9454" lon="4.83661">
        <ele>261</ele>
        <time>2017-05-10T09:29:18Z</time>
      </trkpt>
      <trkpt lat="45.94538" lon="4.83651">
        <ele>261</ele>
        <time>2017-05-10T09:29:19Z</time>
      </trkpt>
      <trkpt lat="45.94537" lon="4.83642">
        <ele>261</ele>
        <time>2017-05-10T09:29:20Z</time>
      </trkpt>
      <trkpt lat="45.94535" lon="4.83633">
        <ele>261</ele>
        <time>2017-05-10T09:29:21Z</time>
      </trkpt>
      <trkpt lat="45.94534" lon="4.83625">
        <ele>261</ele>
        <time>2017-05-10T09:29:22Z</time>
      </trkpt>
      <trkpt lat="45.94532" lon="4.83617">
        <ele>261</ele>
        <time>2017-05-10T09:29:23Z</time>
      </trkpt>
      <trkpt lat="45.9453" lon="4.83609">
        <ele>261</ele>
        <time>2017-05-10T09:29:24Z</time>
      </trkpt>
      <trkpt lat="45.94528" lon="4.83601">
        <ele>261</ele>
        <time>2017-05-10T09:29:25Z</time>
      </trkpt>
      <trkpt lat="45.94527" lon="4.83594">
        <ele>261</ele>
        <time>2017-05-10T09:29:26Z</time>
      </trkpt>
      <trkpt lat="45.94525" lon="4.83587">
        <ele>261</ele>
        <time>2017-05-10T09:29:27Z</time>
      </trkpt>
      <trkpt lat="45.94523" lon="4.83579">
        <ele>261</ele>
        <time>2017-05-10T09:29:28Z</time>
      </trkpt>
      <trkpt lat="45.94521" lon="4.83572">
        <ele>261</ele>
        <time>2017-05-10T09:29:29Z</time>
      </trkpt>
      <trkpt lat="45.94518" lon="4.83565">
        <ele>261</ele>
        <time>2017-05-10T09:29:30Z</time>
      </trkpt>
      <trkpt lat="45.94514" lon="4.83558">
        <ele>261</ele>
        <time>2017-05-10T09:29:31Z</time>
      </trkpt>
      <trkpt lat="45.9451" lon="4.83551">
        <ele>261</ele>
        <time>2017-05-10T09:29:32Z</time>
      </trkpt>
      <trkpt lat="45.94506" lon="4.83544">
        <ele>261</ele>
        <time>2017-05-10T09:29:33Z</time>
      </trkpt>
      <trkpt lat="45.94502" lon="4.83536">
        <ele>262</ele>
        <time>2017-05-10T09:29:34Z</time>
      </trkpt>
      <trkpt lat="45.94497" lon="4.83529">
        <ele>262</ele>
        <time>2017-05-10T09:29:35Z</time>
      </trkpt>
      <trkpt lat="45.94493" lon="4.83522">
        <ele>262</ele>
        <time>2017-05-10T09:29:36Z</time>
      </trkpt>
      <trkpt lat="45.94489" lon="4.83515">
        <ele>262</ele>
        <time>2017-05-10T09:29:37Z</time>
      </trkpt>
      <trkpt lat="45.94484" lon="4.83508">
        <ele>262</ele>
        <time>2017-05-10T09:29:38Z</time>
      </trkpt>
      <trkpt lat="45.9448" lon="4.83501">
        <ele>262</ele>
        <time>2017-05-10T09:29:39Z</time>
      </trkpt>
      <trkpt lat="45.94476" lon="4.83495">
        <ele>263</ele>
        <time>2017-05-10T09:29:40Z</time>
      </trkpt>
      <trkpt lat="45.94472" lon="4.83489">
        <ele>263</ele>
        <time>2017-05-10T09:29:41Z</time>
      </trkpt>
      <trkpt lat="45.94468" lon="4.83483">
        <ele>263</ele>
        <time>2017-05-10T09:29:42Z</time>
      </trkpt>
      <trkpt lat="45.94463" lon="4.83477">
        <ele>263</ele>
        <time>2017-05-10T09:29:43Z</time>
      </trkpt>
      <trkpt lat="45.9446" lon="4.83471">
        <ele>263</ele>
        <time>2017-05-10T09:29:44Z</time>
      </trkpt>
      <trkpt lat="45.94457" lon="4.83465">
        <ele>263</ele>
        <time>2017-05-10T09:29:45Z</time>
      </trkpt>
      <trkpt lat="45.94453" lon="4.8346">
        <ele>263</ele>
        <time>2017-05-10T09:29:46Z</time>
      </trkpt>
      <trkpt lat="45.9445" lon="4.83454">
        <ele>263</ele>
        <time>2017-05-10T09:29:47Z</time>
      </trkpt>
      <trkpt lat="45.94447" lon="4.83448">
        <ele>263</ele>
        <time>2017-05-10T09:29:48Z</time>
      </trkpt>
      <trkpt lat="45.94444" lon="4.83441">
        <ele>263</ele>
        <time>2017-05-10T09:29:49Z</time>
      </trkpt>
      <trkpt lat="45.9444" lon="4.83435">
        <ele>263</ele>
        <time>2017-05-10T09:29:50Z</time>
      </trkpt>
      <trkpt lat="45.94437" lon="4.83428">
        <ele>264</ele>
        <time>2017-05-10T09:29:51Z</time>
      </trkpt>
      <trkpt lat="45.94434" lon="4.83421">
        <ele>264</ele>
        <time>2017-05-10T09:29:52Z</time>
      </trkpt>
      <trkpt lat="45.9443" lon="4.83414">
        <ele>264</ele>
        <time>2017-05-10T09:29:53Z</time>
      </trkpt>
      <trkpt lat="45.94427" lon="4.83407">
        <ele>264</ele>
        <time>2017-05-10T09:29:54Z</time>
      </trkpt>
      <trkpt lat="45.94424" lon="4.83399">
        <ele>264</ele>
        <time>2017-05-10T09:29:55Z</time>
      </trkpt>
      <trkpt lat="45.9442" lon="4.83392">
        <ele>264</ele>
        <time>2017-05-10T09:29:56Z</time>
      </trkpt>
      <trkpt lat="45.94417" lon="4.83385">
        <ele>264</ele>
        <time>2017-05-10T09:29:57Z</time>
      </trkpt>
      <trkpt lat="45.94414" lon="4.83378">
        <ele>264</ele>
        <time>2017-05-10T09:29:58Z</time>
      </trkpt>
      <trkpt lat="45.94411" lon="4.83371">
        <ele>264</ele>
        <time>2017-05-10T09:29:59Z</time>
      </trkpt>
      <trkpt lat="45.94409" lon="4.83365">
        <ele>264</ele>
        <time>2017-05-10T09:30:00Z</time>
      </trkpt>
      <trkpt lat="45.94406" lon="4.83359">
        <ele>264</ele>
        <time>2017-05-10T09:30:01Z</time>
      </trkpt>
      <trkpt lat="45.94403" lon="4.83352">
        <ele>263</ele>
        <time>2017-05-10T09:30:02Z</time>
      </trkpt>
      <trkpt lat="45.944" lon="4.83346">
        <ele>263</ele>
        <time>2017-05-10T09:30:03Z</time>
      </trkpt>
      <trkpt lat="45.94398" lon="4.83339">
        <ele>263</ele>
        <time>2017-05-10T09:30:04Z</time>
      </trkpt>
      <trkpt lat="45.94396" lon="4.83333">
        <ele>264</ele>
        <time>2017-05-10T09:30:05Z</time>
      </trkpt>
      <trkpt lat="45.94393" lon="4.83326">
        <ele>264</ele>
        <time>2017-05-10T09:30:06Z</time>
      </trkpt>
      <trkpt lat="45.94391" lon="4.83319">
        <ele>264</ele>
        <time>2017-05-10T09:30:07Z</time>
      </trkpt>
      <trkpt lat="45.94389" lon="4.83312">
        <ele>264</ele>
        <time>2017-05-10T09:30:08Z</time>
      </trkpt>
      <trkpt lat="45.94386" lon="4.83305">
        <ele>264</ele>
        <time>2017-05-10T09:30:09Z</time>
      </trkpt>
      <trkpt lat="45.94384" lon="4.83298">
        <ele>264</ele>
        <time>2017-05-10T09:30:10Z</time>
      </trkpt>
      <trkpt lat="45.94382" lon="4.83291">
        <ele>264</ele>
        <time>2017-05-10T09:30:11Z</time>
      </trkpt>
      <trkpt lat="45.94379" lon="4.83284">
        <ele>264</ele>
        <time>2017-05-10T09:30:12Z</time>
      </trkpt>
      <trkpt lat="45.94377" lon="4.83278">
        <ele>264</ele>
        <time>2017-05-10T09:30:13Z</time>
      </trkpt>
      <trkpt lat="45.94374" lon="4.83271">
        <ele>264</ele>
        <time>2017-05-10T09:30:14Z</time>
      </trkpt>
      <trkpt lat="45.94372" lon="4.83265">
        <ele>264</ele>
        <time>2017-05-10T09:30:15Z</time>
      </trkpt>
      <trkpt lat="45.94368" lon="4.83254">
        <ele>265</ele>
        <time>2017-05-10T09:30:17Z</time>
      </trkpt>
      <trkpt lat="45.94366" lon="4.83248">
        <ele>265</ele>
        <time>2017-05-10T09:30:18Z</time>
      </trkpt>
      <trkpt lat="45.94364" lon="4.83243">
        <ele>265</ele>
        <time>2017-05-10T09:30:19Z</time>
      </trkpt>
      <trkpt lat="45.94362" lon="4.83236">
        <ele>265</ele>
        <time>2017-05-10T09:30:20Z</time>
      </trkpt>
      <trkpt lat="45.9436" lon="4.8323">
        <ele>266</ele>
        <time>2017-05-10T09:30:21Z</time>
      </trkpt>
      <trkpt lat="45.94357" lon="4.83224">
        <ele>266</ele>
        <time>2017-05-10T09:30:22Z</time>
      </trkpt>
      <trkpt lat="45.94355" lon="4.83218">
        <ele>266</ele>
        <time>2017-05-10T09:30:23Z</time>
      </trkpt>
      <trkpt lat="45.94353" lon="4.83211">
        <ele>266</ele>
        <time>2017-05-10T09:30:24Z</time>
      </trkpt>
      <trkpt lat="45.94351" lon="4.83205">
        <ele>266</ele>
        <time>2017-05-10T09:30:25Z</time>
      </trkpt>
      <trkpt lat="45.94349" lon="4.83198">
        <ele>266</ele>
        <time>2017-05-10T09:30:26Z</time>
      </trkpt>
      <trkpt lat="45.94347" lon="4.83192">
        <ele>266</ele>
        <time>2017-05-10T09:30:27Z</time>
      </trkpt>
      <trkpt lat="45.94345" lon="4.83186">
        <ele>266</ele>
        <time>2017-05-10T09:30:28Z</time>
      </trkpt>
      <trkpt lat="45.94343" lon="4.8318">
        <ele>266</ele>
        <time>2017-05-10T09:30:29Z</time>
      </trkpt>
      <trkpt lat="45.9434" lon="4.83174">
        <ele>266</ele>
        <time>2017-05-10T09:30:30Z</time>
      </trkpt>
      <trkpt lat="45.94338" lon="4.83168">
        <ele>266</ele>
        <time>2017-05-10T09:30:31Z</time>
      </trkpt>
      <trkpt lat="45.94336" lon="4.83162">
        <ele>266</ele>
        <time>2017-05-10T09:30:32Z</time>
      </trkpt>
      <trkpt lat="45.94334" lon="4.83156">
        <ele>266</ele>
        <time>2017-05-10T09:30:33Z</time>
      </trkpt>
      <trkpt lat="45.94332" lon="4.83149">
        <ele>266</ele>
        <time>2017-05-10T09:30:34Z</time>
      </trkpt>
      <trkpt lat="45.9433" lon="4.83143">
        <ele>266</ele>
        <time>2017-05-10T09:30:35Z</time>
      </trkpt>
      <trkpt lat="45.94328" lon="4.83136">
        <ele>266</ele>
        <time>2017-05-10T09:30:36Z</time>
      </trkpt>
      <trkpt lat="45.94325" lon="4.83129">
        <ele>266</ele>
        <time>2017-05-10T09:30:37Z</time>
      </trkpt>
      <trkpt lat="45.94323" lon="4.83122">
        <ele>266</ele>
        <time>2017-05-10T09:30:38Z</time>
      </trkpt>
      <trkpt lat="45.94321" lon="4.83114">
        <ele>266</ele>
        <time>2017-05-10T09:30:39Z</time>
      </trkpt>
      <trkpt lat="45.94319" lon="4.83107">
        <ele>266</ele>
        <time>2017-05-10T09:30:40Z</time>
      </trkpt>
      <trkpt lat="45.94317" lon="4.831">
        <ele>266</ele>
        <time>2017-05-10T09:30:41Z</time>
      </trkpt>
      <trkpt lat="45.94314" lon="4.83093">
        <ele>266</ele>
        <time>2017-05-10T09:30:42Z</time>
      </trkpt>
      <trkpt lat="45.94312" lon="4.83086">
        <ele>266</ele>
        <time>2017-05-10T09:30:43Z</time>
      </trkpt>
      <trkpt lat="45.9431" lon="4.8308">
        <ele>266</ele>
        <time>2017-05-10T09:30:44Z</time>
      </trkpt>
      <trkpt lat="45.94309" lon="4.83074">
        <ele>266</ele>
        <time>2017-05-10T09:30:45Z</time>
      </trkpt>
      <trkpt lat="45.94307" lon="4.83067">
        <ele>266</ele>
        <time>2017-05-10T09:30:46Z</time>
      </trkpt>
      <trkpt lat="45.94304" lon="4.83055">
        <ele>266</ele>
        <time>2017-05-10T09:30:48Z</time>
      </trkpt>
      <trkpt lat="45.94303" lon="4.8305">
        <ele>266</ele>
        <time>2017-05-10T09:30:49Z</time>
      </trkpt>
      <trkpt lat="45.943" lon="4.83038">
        <ele>266</ele>
        <time>2017-05-10T09:30:51Z</time>
      </trkpt>
      <trkpt lat="45.943" lon="4.83031">
        <ele>266</ele>
        <time>2017-05-10T09:30:52Z</time>
      </trkpt>
      <trkpt lat="45.94299" lon="4.83024">
        <ele>266</ele>
        <time>2017-05-10T09:30:53Z</time>
      </trkpt>
      <trkpt lat="45.94298" lon="4.83017">
        <ele>266</ele>
        <time>2017-05-10T09:30:54Z</time>
      </trkpt>
      <trkpt lat="45.94297" lon="4.83011">
        <ele>266</ele>
        <time>2017-05-10T09:30:55Z</time>
      </trkpt>
      <trkpt lat="45.94295" lon="4.83004">
        <ele>266</ele>
        <time>2017-05-10T09:30:56Z</time>
      </trkpt>
      <trkpt lat="45.94294" lon="4.82997">
        <ele>265</ele>
        <time>2017-05-10T09:30:57Z</time>
      </trkpt>
      <trkpt lat="45.94292" lon="4.8299">
        <ele>265</ele>
        <time>2017-05-10T09:30:58Z</time>
      </trkpt>
      <trkpt lat="45.9429" lon="4.82984">
        <ele>265</ele>
        <time>2017-05-10T09:30:59Z</time>
      </trkpt>
      <trkpt lat="45.94289" lon="4.82978">
        <ele>265</ele>
        <time>2017-05-10T09:31:00Z</time>
      </trkpt>
      <trkpt lat="45.94287" lon="4.82971">
        <ele>265</ele>
        <time>2017-05-10T09:31:01Z</time>
      </trkpt>
      <trkpt lat="45.94284" lon="4.82965">
        <ele>265</ele>
        <time>2017-05-10T09:31:02Z</time>
      </trkpt>
      <trkpt lat="45.94282" lon="4.82958">
        <ele>265</ele>
        <time>2017-05-10T09:31:03Z</time>
      </trkpt>
      <trkpt lat="45.94281" lon="4.82951">
        <ele>265</ele>
        <time>2017-05-10T09:31:04Z</time>
      </trkpt>
      <trkpt lat="45.94282" lon="4.82944">
        <ele>265</ele>
        <time>2017-05-10T09:31:05Z</time>
      </trkpt>
      <trkpt lat="45.94283" lon="4.82937">
        <ele>265</ele>
        <time>2017-05-10T09:31:06Z</time>
      </trkpt>
      <trkpt lat="45.94285" lon="4.8293">
        <ele>265</ele>
        <time>2017-05-10T09:31:07Z</time>
      </trkpt>
      <trkpt lat="45.94286" lon="4.82924">
        <ele>265</ele>
        <time>2017-05-10T09:31:08Z</time>
      </trkpt>
      <trkpt lat="45.94288" lon="4.82917">
        <ele>265</ele>
        <time>2017-05-10T09:31:09Z</time>
      </trkpt>
      <trkpt lat="45.94289" lon="4.82911">
        <ele>265</ele>
        <time>2017-05-10T09:31:10Z</time>
      </trkpt>
      <trkpt lat="45.9429" lon="4.82905">
        <ele>265</ele>
        <time>2017-05-10T09:31:11Z</time>
      </trkpt>
      <trkpt lat="45.94291" lon="4.82898">
        <ele>265</ele>
        <time>2017-05-10T09:31:12Z</time>
      </trkpt>
      <trkpt lat="45.94291" lon="4.82891">
        <ele>265</ele>
        <time>2017-05-10T09:31:13Z</time>
      </trkpt>
      <trkpt lat="45.94291" lon="4.82884">
        <ele>265</ele>
        <time>2017-05-10T09:31:14Z</time>
      </trkpt>
      <trkpt lat="45.94292" lon="4.82877">
        <ele>265</ele>
        <time>2017-05-10T09:31:15Z</time>
      </trkpt>
      <trkpt lat="45.94292" lon="4.82869">
        <ele>265</ele>
        <time>2017-05-10T09:31:16Z</time>
      </trkpt>
      <trkpt lat="45.94293" lon="4.82861">
        <ele>265</ele>
        <time>2017-05-10T09:31:17Z</time>
      </trkpt>
      <trkpt lat="45.94293" lon="4.82854">
        <ele>265</ele>
        <time>2017-05-10T09:31:18Z</time>
      </trkpt>
      <trkpt lat="45.94293" lon="4.82847">
        <ele>265</ele>
        <time>2017-05-10T09:31:19Z</time>
      </trkpt>
      <trkpt lat="45.94293" lon="4.82839">
        <ele>265</ele>
        <time>2017-05-10T09:31:20Z</time>
      </trkpt>
      <trkpt lat="45.94294" lon="4.82832">
        <ele>265</ele>
        <time>2017-05-10T09:31:21Z</time>
      </trkpt>
      <trkpt lat="45.94294" lon="4.82825">
        <ele>265</ele>
        <time>2017-05-10T09:31:22Z</time>
      </trkpt>
      <trkpt lat="45.94294" lon="4.82818">
        <ele>265</ele>
        <time>2017-05-10T09:31:23Z</time>
      </trkpt>
      <trkpt lat="45.94294" lon="4.8281">
        <ele>265</ele>
        <time>2017-05-10T09:31:24Z</time>
      </trkpt>
      <trkpt lat="45.94294" lon="4.82803">
        <ele>265</ele>
        <time>2017-05-10T09:31:25Z</time>
      </trkpt>
      <trkpt lat="45.94294" lon="4.82796">
        <ele>265</ele>
        <time>2017-05-10T09:31:26Z</time>
      </trkpt>
      <trkpt lat="45.94294" lon="4.82789">
        <ele>265</ele>
        <time>2017-05-10T09:31:27Z</time>
      </trkpt>
      <trkpt lat="45.94294" lon="4.82782">
        <ele>265</ele>
        <time>2017-05-10T09:31:28Z</time>
      </trkpt>
      <trkpt lat="45.94294" lon="4.82774">
        <ele>265</ele>
        <time>2017-05-10T09:31:29Z</time>
      </trkpt>
      <trkpt lat="45.94294" lon="4.82766">
        <ele>265</ele>
        <time>2017-05-10T09:31:30Z</time>
      </trkpt>
      <trkpt lat="45.94294" lon="4.82758">
        <ele>265</ele>
        <time>2017-05-10T09:31:31Z</time>
      </trkpt>
      <trkpt lat="45.94295" lon="4.82749">
        <ele>265</ele>
        <time>2017-05-10T09:31:32Z</time>
      </trkpt>
      <trkpt lat="45.94295" lon="4.82741">
        <ele>265</ele>
        <time>2017-05-10T09:31:33Z</time>
      </trkpt>
      <trkpt lat="45.94295" lon="4.82732">
        <ele>265</ele>
        <time>2017-05-10T09:31:34Z</time>
      </trkpt>
      <trkpt lat="45.94295" lon="4.82724">
        <ele>265</ele>
        <time>2017-05-10T09:31:35Z</time>
      </trkpt>
      <trkpt lat="45.94295" lon="4.82715">
        <ele>265</ele>
        <time>2017-05-10T09:31:36Z</time>
      </trkpt>
      <trkpt lat="45.94295" lon="4.82706">
        <ele>265</ele>
        <time>2017-05-10T09:31:37Z</time>
      </trkpt>
      <trkpt lat="45.94295" lon="4.82698">
        <ele>265</ele>
        <time>2017-05-10T09:31:38Z</time>
      </trkpt>
      <trkpt lat="45.94296" lon="4.82689">
        <ele>265</ele>
        <time>2017-05-10T09:31:39Z</time>
      </trkpt>
      <trkpt lat="45.94296" lon="4.8268">
        <ele>265</ele>
        <time>2017-05-10T09:31:40Z</time>
      </trkpt>
      <trkpt lat="45.94296" lon="4.82672">
        <ele>265</ele>
        <time>2017-05-10T09:31:41Z</time>
      </trkpt>
      <trkpt lat="45.94296" lon="4.82663">
        <ele>265</ele>
        <time>2017-05-10T09:31:42Z</time>
      </trkpt>
      <trkpt lat="45.94296" lon="4.82655">
        <ele>265</ele>
        <time>2017-05-10T09:31:43Z</time>
      </trkpt>
      <trkpt lat="45.94295" lon="4.82646">
        <ele>265</ele>
        <time>2017-05-10T09:31:44Z</time>
      </trkpt>
      <trkpt lat="45.94296" lon="4.82637">
        <ele>265</ele>
        <time>2017-05-10T09:31:45Z</time>
      </trkpt>
      <trkpt lat="45.94296" lon="4.82628">
        <ele>265</ele>
        <time>2017-05-10T09:31:46Z</time>
      </trkpt>
      <trkpt lat="45.94296" lon="4.8262">
        <ele>265</ele>
        <time>2017-05-10T09:31:47Z</time>
      </trkpt>
      <trkpt lat="45.94296" lon="4.82611">
        <ele>265</ele>
        <time>2017-05-10T09:31:48Z</time>
      </trkpt>
      <trkpt lat="45.94296" lon="4.82601">
        <ele>265</ele>
        <time>2017-05-10T09:31:49Z</time>
      </trkpt>
      <trkpt lat="45.94296" lon="4.82592">
        <ele>265</ele>
        <time>2017-05-10T09:31:50Z</time>
      </trkpt>
      <trkpt lat="45.94296" lon="4.82583">
        <ele>264</ele>
        <time>2017-05-10T09:31:51Z</time>
      </trkpt>
      <trkpt lat="45.94297" lon="4.82573">
        <ele>264</ele>
        <time>2017-05-10T09:31:52Z</time>
      </trkpt>
      <trkpt lat="45.94297" lon="4.82564">
        <ele>264</ele>
        <time>2017-05-10T09:31:53Z</time>
      </trkpt>
      <trkpt lat="45.94297" lon="4.82555">
        <ele>264</ele>
        <time>2017-05-10T09:31:54Z</time>
      </trkpt>
      <trkpt lat="45.94297" lon="4.82545">
        <ele>264</ele>
        <time>2017-05-10T09:31:55Z</time>
      </trkpt>
      <trkpt lat="45.94297" lon="4.82536">
        <ele>264</ele>
        <time>2017-05-10T09:31:56Z</time>
      </trkpt>
      <trkpt lat="45.94298" lon="4.82526">
        <ele>264</ele>
        <time>2017-05-10T09:31:57Z</time>
      </trkpt>
      <trkpt lat="45.94298" lon="4.82516">
        <ele>264</ele>
        <time>2017-05-10T09:31:58Z</time>
      </trkpt>
      <trkpt lat="45.94298" lon="4.82506">
        <ele>264</ele>
        <time>2017-05-10T09:31:59Z</time>
      </trkpt>
      <trkpt lat="45.94298" lon="4.82496">
        <ele>264</ele>
        <time>2017-05-10T09:32:00Z</time>
      </trkpt>
      <trkpt lat="45.94297" lon="4.82485">
        <ele>264</ele>
        <time>2017-05-10T09:32:01Z</time>
      </trkpt>
      <trkpt lat="45.94297" lon="4.82475">
        <ele>264</ele>
        <time>2017-05-10T09:32:02Z</time>
      </trkpt>
      <trkpt lat="45.94297" lon="4.82464">
        <ele>264</ele>
        <time>2017-05-10T09:32:03Z</time>
      </trkpt>
      <trkpt lat="45.94296" lon="4.82453">
        <ele>264</ele>
        <time>2017-05-10T09:32:04Z</time>
      </trkpt>
      <trkpt lat="45.94296" lon="4.82442">
        <ele>264</ele>
        <time>2017-05-10T09:32:05Z</time>
      </trkpt>
      <trkpt lat="45.94295" lon="4.82432">
        <ele>264</ele>
        <time>2017-05-10T09:32:06Z</time>
      </trkpt>
      <trkpt lat="45.94295" lon="4.82422">
        <ele>264</ele>
        <time>2017-05-10T09:32:07Z</time>
      </trkpt>
      <trkpt lat="45.94294" lon="4.82411">
        <ele>264</ele>
        <time>2017-05-10T09:32:08Z</time>
      </trkpt>
      <trkpt lat="45.94294" lon="4.82401">
        <ele>264</ele>
        <time>2017-05-10T09:32:09Z</time>
      </trkpt>
      <trkpt lat="45.94293" lon="4.8239">
        <ele>264</ele>
        <time>2017-05-10T09:32:10Z</time>
      </trkpt>
      <trkpt lat="45.94292" lon="4.82379">
        <ele>264</ele>
        <time>2017-05-10T09:32:11Z</time>
      </trkpt>
      <trkpt lat="45.94291" lon="4.82369">
        <ele>264</ele>
        <time>2017-05-10T09:32:12Z</time>
      </trkpt>
      <trkpt lat="45.9429" lon="4.82357">
        <ele>264</ele>
        <time>2017-05-10T09:32:13Z</time>
      </trkpt>
      <trkpt lat="45.9429" lon="4.82346">
        <ele>264</ele>
        <time>2017-05-10T09:32:14Z</time>
      </trkpt>
      <trkpt lat="45.94289" lon="4.82335">
        <ele>264</ele>
        <time>2017-05-10T09:32:15Z</time>
      </trkpt>
      <trkpt lat="45.94288" lon="4.82325">
        <ele>265</ele>
        <time>2017-05-10T09:32:16Z</time>
      </trkpt>
      <trkpt lat="45.94288" lon="4.82314">
        <ele>265</ele>
        <time>2017-05-10T09:32:17Z</time>
      </trkpt>
      <trkpt lat="45.94286" lon="4.82303">
        <ele>265</ele>
        <time>2017-05-10T09:32:18Z</time>
      </trkpt>
      <trkpt lat="45.94286" lon="4.82292">
        <ele>265</ele>
        <time>2017-05-10T09:32:19Z</time>
      </trkpt>
      <trkpt lat="45.94286" lon="4.82281">
        <ele>265</ele>
        <time>2017-05-10T09:32:20Z</time>
      </trkpt>
      <trkpt lat="45.94285" lon="4.8227">
        <ele>265</ele>
        <time>2017-05-10T09:32:21Z</time>
      </trkpt>
      <trkpt lat="45.94285" lon="4.8226">
        <ele>265</ele>
        <time>2017-05-10T09:32:22Z</time>
      </trkpt>
      <trkpt lat="45.94284" lon="4.82249">
        <ele>264</ele>
        <time>2017-05-10T09:32:23Z</time>
      </trkpt>
      <trkpt lat="45.94283" lon="4.82239">
        <ele>264</ele>
        <time>2017-05-10T09:32:24Z</time>
      </trkpt>
      <trkpt lat="45.94283" lon="4.82229">
        <ele>264</ele>
        <time>2017-05-10T09:32:25Z</time>
      </trkpt>
      <trkpt lat="45.94282" lon="4.82219">
        <ele>264</ele>
        <time>2017-05-10T09:32:26Z</time>
      </trkpt>
      <trkpt lat="45.9428" lon="4.82209">
        <ele>264</ele>
        <time>2017-05-10T09:32:27Z</time>
      </trkpt>
      <trkpt lat="45.94279" lon="4.82199">
        <ele>264</ele>
        <time>2017-05-10T09:32:28Z</time>
      </trkpt>
      <trkpt lat="45.94277" lon="4.82189">
        <ele>264</ele>
        <time>2017-05-10T09:32:29Z</time>
      </trkpt>
      <trkpt lat="45.94275" lon="4.8218">
        <ele>264</ele>
        <time>2017-05-10T09:32:30Z</time>
      </trkpt>
      <trkpt lat="45.94274" lon="4.8217">
        <ele>264</ele>
        <time>2017-05-10T09:32:31Z</time>
      </trkpt>
      <trkpt lat="45.94272" lon="4.8216">
        <ele>263</ele>
        <time>2017-05-10T09:32:32Z</time>
      </trkpt>
      <trkpt lat="45.94271" lon="4.8215">
        <ele>263</ele>
        <time>2017-05-10T09:32:33Z</time>
      </trkpt>
      <trkpt lat="45.94269" lon="4.82139">
        <ele>263</ele>
        <time>2017-05-10T09:32:34Z</time>
      </trkpt>
      <trkpt lat="45.94267" lon="4.82129">
        <ele>263</ele>
        <time>2017-05-10T09:32:35Z</time>
      </trkpt>
      <trkpt lat="45.94265" lon="4.82118">
        <ele>263</ele>
        <time>2017-05-10T09:32:36Z</time>
      </trkpt>
      <trkpt lat="45.94263" lon="4.82108">
        <ele>263</ele>
        <time>2017-05-10T09:32:37Z</time>
      </trkpt>
      <trkpt lat="45.94261" lon="4.82097">
        <ele>262</ele>
        <time>2017-05-10T09:32:38Z</time>
      </trkpt>
      <trkpt lat="45.94258" lon="4.82087">
        <ele>262</ele>
        <time>2017-05-10T09:32:39Z</time>
      </trkpt>
      <trkpt lat="45.94256" lon="4.82077">
        <ele>262</ele>
        <time>2017-05-10T09:32:40Z</time>
      </trkpt>
      <trkpt lat="45.94254" lon="4.82067">
        <ele>262</ele>
        <time>2017-05-10T09:32:41Z</time>
      </trkpt>
      <trkpt lat="45.94252" lon="4.82058">
        <ele>262</ele>
        <time>2017-05-10T09:32:42Z</time>
      </trkpt>
      <trkpt lat="45.9425" lon="4.82049">
        <ele>262</ele>
        <time>2017-05-10T09:32:43Z</time>
      </trkpt>
      <trkpt lat="45.94248" lon="4.8204">
        <ele>263</ele>
        <time>2017-05-10T09:32:44Z</time>
      </trkpt>
      <trkpt lat="45.94246" lon="4.82031">
        <ele>263</ele>
        <time>2017-05-10T09:32:45Z</time>
      </trkpt>
      <trkpt lat="45.94245" lon="4.82022">
        <ele>263</ele>
        <time>2017-05-10T09:32:46Z</time>
      </trkpt>
      <trkpt lat="45.94243" lon="4.82013">
        <ele>263</ele>
        <time>2017-05-10T09:32:47Z</time>
      </trkpt>
      <trkpt lat="45.94241" lon="4.82004">
        <ele>263</ele>
        <time>2017-05-10T09:32:48Z</time>
      </trkpt>
      <trkpt lat="45.9424" lon="4.81994">
        <ele>263</ele>
        <time>2017-05-10T09:32:49Z</time>
      </trkpt>
      <trkpt lat="45.94238" lon="4.81985">
        <ele>263</ele>
        <time>2017-05-10T09:32:50Z</time>
      </trkpt>
      <trkpt lat="45.94236" lon="4.81976">
        <ele>263</ele>
        <time>2017-05-10T09:32:51Z</time>
      </trkpt>
      <trkpt lat="45.94235" lon="4.81966">
        <ele>264</ele>
        <time>2017-05-10T09:32:52Z</time>
      </trkpt>
      <trkpt lat="45.94233" lon="4.81958">
        <ele>264</ele>
        <time>2017-05-10T09:32:53Z</time>
      </trkpt>
      <trkpt lat="45.94231" lon="4.81949">
        <ele>264</ele>
        <time>2017-05-10T09:32:54Z</time>
      </trkpt>
      <trkpt lat="45.94229" lon="4.81941">
        <ele>264</ele>
        <time>2017-05-10T09:32:55Z</time>
      </trkpt>
      <trkpt lat="45.94228" lon="4.81933">
        <ele>264</ele>
        <time>2017-05-10T09:32:56Z</time>
      </trkpt>
      <trkpt lat="45.94226" lon="4.81924">
        <ele>264</ele>
        <time>2017-05-10T09:32:57Z</time>
      </trkpt>
      <trkpt lat="45.94225" lon="4.81917">
        <ele>264</ele>
        <time>2017-05-10T09:32:58Z</time>
      </trkpt>
      <trkpt lat="45.94223" lon="4.8191">
        <ele>264</ele>
        <time>2017-05-10T09:32:59Z</time>
      </trkpt>
      <trkpt lat="45.94222" lon="4.81903">
        <ele>264</ele>
        <time>2017-05-10T09:33:00Z</time>
      </trkpt>
      <trkpt lat="45.9422" lon="4.81895">
        <ele>265</ele>
        <time>2017-05-10T09:33:01Z</time>
      </trkpt>
      <trkpt lat="45.94219" lon="4.81888">
        <ele>265</ele>
        <time>2017-05-10T09:33:02Z</time>
      </trkpt>
      <trkpt lat="45.94218" lon="4.81881">
        <ele>265</ele>
        <time>2017-05-10T09:33:03Z</time>
      </trkpt>
      <trkpt lat="45.94216" lon="4.81873">
        <ele>265</ele>
        <time>2017-05-10T09:33:04Z</time>
      </trkpt>
      <trkpt lat="45.94214" lon="4.81865">
        <ele>265</ele>
        <time>2017-05-10T09:33:05Z</time>
      </trkpt>
      <trkpt lat="45.94213" lon="4.81857">
        <ele>265</ele>
        <time>2017-05-10T09:33:06Z</time>
      </trkpt>
      <trkpt lat="45.94211" lon="4.81849">
        <ele>265</ele>
        <time>2017-05-10T09:33:07Z</time>
      </trkpt>
      <trkpt lat="45.9421" lon="4.81841">
        <ele>265</ele>
        <time>2017-05-10T09:33:08Z</time>
      </trkpt>
      <trkpt lat="45.94208" lon="4.81834">
        <ele>266</ele>
        <time>2017-05-10T09:33:09Z</time>
      </trkpt>
      <trkpt lat="45.94207" lon="4.81826">
        <ele>266</ele>
        <time>2017-05-10T09:33:10Z</time>
      </trkpt>
      <trkpt lat="45.94206" lon="4.81818">
        <ele>266</ele>
        <time>2017-05-10T09:33:11Z</time>
      </trkpt>
      <trkpt lat="45.94205" lon="4.8181">
        <ele>266</ele>
        <time>2017-05-10T09:33:12Z</time>
      </trkpt>
      <trkpt lat="45.94206" lon="4.81801">
        <ele>266</ele>
        <time>2017-05-10T09:33:13Z</time>
      </trkpt>
      <trkpt lat="45.94207" lon="4.81793">
        <ele>266</ele>
        <time>2017-05-10T09:33:14Z</time>
      </trkpt>
      <trkpt lat="45.94208" lon="4.81785">
        <ele>265</ele>
        <time>2017-05-10T09:33:15Z</time>
      </trkpt>
      <trkpt lat="45.9421" lon="4.81778">
        <ele>265</ele>
        <time>2017-05-10T09:33:16Z</time>
      </trkpt>
      <trkpt lat="45.94212" lon="4.81771">
        <ele>265</ele>
        <time>2017-05-10T09:33:17Z</time>
      </trkpt>
      <trkpt lat="45.94215" lon="4.81764">
        <ele>265</ele>
        <time>2017-05-10T09:33:18Z</time>
      </trkpt>
      <trkpt lat="45.94218" lon="4.81758">
        <ele>265</ele>
        <time>2017-05-10T09:33:19Z</time>
      </trkpt>
      <trkpt lat="45.9422" lon="4.81752">
        <ele>265</ele>
        <time>2017-05-10T09:33:20Z</time>
      </trkpt>
      <trkpt lat="45.94221" lon="4.81746">
        <ele>265</ele>
        <time>2017-05-10T09:33:21Z</time>
      </trkpt>
      <trkpt lat="45.94222" lon="4.81739">
        <ele>265</ele>
        <time>2017-05-10T09:33:22Z</time>
      </trkpt>
      <trkpt lat="45.94222" lon="4.81732">
        <ele>265</ele>
        <time>2017-05-10T09:33:23Z</time>
      </trkpt>
      <trkpt lat="45.94221" lon="4.81725">
        <ele>266</ele>
        <time>2017-05-10T09:33:24Z</time>
      </trkpt>
      <trkpt lat="45.94218" lon="4.81719">
        <ele>266</ele>
        <time>2017-05-10T09:33:25Z</time>
      </trkpt>
      <trkpt lat="45.94215" lon="4.81715">
        <ele>266</ele>
        <time>2017-05-10T09:33:26Z</time>
      </trkpt>
      <trkpt lat="45.94211" lon="4.8171">
        <ele>266</ele>
        <time>2017-05-10T09:33:27Z</time>
      </trkpt>
      <trkpt lat="45.94205" lon="4.81706">
        <ele>266</ele>
        <time>2017-05-10T09:33:28Z</time>
      </trkpt>
      <trkpt lat="45.942" lon="4.81703">
        <ele>267</ele>
        <time>2017-05-10T09:33:29Z</time>
      </trkpt>
      <trkpt lat="45.94195" lon="4.817">
        <ele>267</ele>
        <time>2017-05-10T09:33:30Z</time>
      </trkpt>
      <trkpt lat="45.9419" lon="4.81695">
        <ele>267</ele>
        <time>2017-05-10T09:33:31Z</time>
      </trkpt>
      <trkpt lat="45.94186" lon="4.81689">
        <ele>267</ele>
        <time>2017-05-10T09:33:32Z</time>
      </trkpt>
      <trkpt lat="45.94182" lon="4.81682">
        <ele>268</ele>
        <time>2017-05-10T09:33:33Z</time>
      </trkpt>
      <trkpt lat="45.94178" lon="4.81673">
        <ele>268</ele>
        <time>2017-05-10T09:33:34Z</time>
      </trkpt>
      <trkpt lat="45.94176" lon="4.81663">
        <ele>268</ele>
        <time>2017-05-10T09:33:35Z</time>
      </trkpt>
      <trkpt lat="45.94174" lon="4.81653">
        <ele>268</ele>
        <time>2017-05-10T09:33:36Z</time>
      </trkpt>
      <trkpt lat="45.94171" lon="4.81642">
        <ele>268</ele>
        <time>2017-05-10T09:33:37Z</time>
      </trkpt>
      <trkpt lat="45.94169" lon="4.81631">
        <ele>267</ele>
        <time>2017-05-10T09:33:38Z</time>
      </trkpt>
      <trkpt lat="45.94166" lon="4.8162">
        <ele>268</ele>
        <time>2017-05-10T09:33:39Z</time>
      </trkpt>
      <trkpt lat="45.94163" lon="4.81608">
        <ele>267</ele>
        <time>2017-05-10T09:33:40Z</time>
      </trkpt>
      <trkpt lat="45.94161" lon="4.81597">
        <ele>267</ele>
        <time>2017-05-10T09:33:41Z</time>
      </trkpt>
      <trkpt lat="45.94159" lon="4.81586">
        <ele>267</ele>
        <time>2017-05-10T09:33:42Z</time>
      </trkpt>
      <trkpt lat="45.94157" lon="4.81575">
        <ele>266</ele>
        <time>2017-05-10T09:33:43Z</time>
      </trkpt>
      <trkpt lat="45.94156" lon="4.81563">
        <ele>265</ele>
        <time>2017-05-10T09:33:44Z</time>
      </trkpt>
      <trkpt lat="45.94155" lon="4.81552">
        <ele>264</ele>
        <time>2017-05-10T09:33:45Z</time>
      </trkpt>
      <trkpt lat="45.94155" lon="4.81541">
        <ele>264</ele>
        <time>2017-05-10T09:33:46Z</time>
      </trkpt>
      <trkpt lat="45.94155" lon="4.8153">
        <ele>264</ele>
        <time>2017-05-10T09:33:47Z</time>
      </trkpt>
      <trkpt lat="45.94155" lon="4.81519">
        <ele>263</ele>
        <time>2017-05-10T09:33:48Z</time>
      </trkpt>
      <trkpt lat="45.94155" lon="4.81507">
        <ele>263</ele>
        <time>2017-05-10T09:33:49Z</time>
      </trkpt>
      <trkpt lat="45.94157" lon="4.81496">
        <ele>261</ele>
        <time>2017-05-10T09:33:50Z</time>
      </trkpt>
      <trkpt lat="45.94161" lon="4.81481">
        <ele>259</ele>
        <time>2017-05-10T09:33:51Z</time>
      </trkpt>
      <trkpt lat="45.94162" lon="4.81469">
        <ele>258</ele>
        <time>2017-05-10T09:33:52Z</time>
      </trkpt>
      <trkpt lat="45.94164" lon="4.81456">
        <ele>257</ele>
        <time>2017-05-10T09:33:53Z</time>
      </trkpt>
      <trkpt lat="45.94166" lon="4.81443">
        <ele>256</ele>
        <time>2017-05-10T09:33:54Z</time>
      </trkpt>
      <trkpt lat="45.94167" lon="4.81429">
        <ele>259</ele>
        <time>2017-05-10T09:33:55Z</time>
      </trkpt>
      <trkpt lat="45.94168" lon="4.81416">
        <ele>256</ele>
        <time>2017-05-10T09:33:56Z</time>
      </trkpt>
      <trkpt lat="45.94169" lon="4.81402">
        <ele>257</ele>
        <time>2017-05-10T09:33:57Z</time>
      </trkpt>
      <trkpt lat="45.94171" lon="4.81388">
        <ele>258</ele>
        <time>2017-05-10T09:33:58Z</time>
      </trkpt>
      <trkpt lat="45.94172" lon="4.81374">
        <ele>258</ele>
        <time>2017-05-10T09:33:59Z</time>
      </trkpt>
      <trkpt lat="45.94173" lon="4.8136">
        <ele>257</ele>
        <time>2017-05-10T09:34:00Z</time>
      </trkpt>
      <trkpt lat="45.94174" lon="4.81346">
        <ele>255</ele>
        <time>2017-05-10T09:34:01Z</time>
      </trkpt>
      <trkpt lat="45.94175" lon="4.81332">
        <ele>254</ele>
        <time>2017-05-10T09:34:02Z</time>
      </trkpt>
      <trkpt lat="45.94176" lon="4.81318">
        <ele>255</ele>
        <time>2017-05-10T09:34:03Z</time>
      </trkpt>
      <trkpt lat="45.94174" lon="4.81303">
        <ele>256</ele>
        <time>2017-05-10T09:34:04Z</time>
      </trkpt>
      <trkpt lat="45.94173" lon="4.81288">
        <ele>255</ele>
        <time>2017-05-10T09:34:05Z</time>
      </trkpt>
      <trkpt lat="45.94172" lon="4.81273">
        <ele>254</ele>
        <time>2017-05-10T09:34:06Z</time>
      </trkpt>
      <trkpt lat="45.94169" lon="4.81258">
        <ele>252</ele>
        <time>2017-05-10T09:34:07Z</time>
      </trkpt>
      <trkpt lat="45.94167" lon="4.81242">
        <ele>248</ele>
        <time>2017-05-10T09:34:08Z</time>
      </trkpt>
      <trkpt lat="45.94164" lon="4.81226">
        <ele>246</ele>
        <time>2017-05-10T09:34:09Z</time>
      </trkpt>
      <trkpt lat="45.9416" lon="4.8121">
        <ele>245</ele>
        <time>2017-05-10T09:34:10Z</time>
      </trkpt>
      <trkpt lat="45.94155" lon="4.81195">
        <ele>245</ele>
        <time>2017-05-10T09:34:11Z</time>
      </trkpt>
      <trkpt lat="45.94148" lon="4.8118">
        <ele>245</ele>
        <time>2017-05-10T09:34:12Z</time>
      </trkpt>
      <trkpt lat="45.94143" lon="4.81165">
        <ele>245</ele>
        <time>2017-05-10T09:34:13Z</time>
      </trkpt>
      <trkpt lat="45.94136" lon="4.81151">
        <ele>244</ele>
        <time>2017-05-10T09:34:14Z</time>
      </trkpt>
      <trkpt lat="45.94128" lon="4.81138">
        <ele>243</ele>
        <time>2017-05-10T09:34:15Z</time>
      </trkpt>
      <trkpt lat="45.94121" lon="4.81125">
        <ele>243</ele>
        <time>2017-05-10T09:34:16Z</time>
      </trkpt>
      <trkpt lat="45.94113" lon="4.81112">
        <ele>242</ele>
        <time>2017-05-10T09:34:17Z</time>
      </trkpt>
      <trkpt lat="45.94106" lon="4.81099">
        <ele>242</ele>
        <time>2017-05-10T09:34:18Z</time>
      </trkpt>
      <trkpt lat="45.941" lon="4.81086">
        <ele>240</ele>
        <time>2017-05-10T09:34:19Z</time>
      </trkpt>
      <trkpt lat="45.94093" lon="4.81071">
        <ele>241</ele>
        <time>2017-05-10T09:34:20Z</time>
      </trkpt>
      <trkpt lat="45.94087" lon="4.81055">
        <ele>243</ele>
        <time>2017-05-10T09:34:21Z</time>
      </trkpt>
      <trkpt lat="45.94082" lon="4.8104">
        <ele>234</ele>
        <time>2017-05-10T09:34:22Z</time>
      </trkpt>
      <trkpt lat="45.94077" lon="4.81024">
        <ele>234</ele>
        <time>2017-05-10T09:34:23Z</time>
      </trkpt>
      <trkpt lat="45.94073" lon="4.81008">
        <ele>236</ele>
        <time>2017-05-10T09:34:24Z</time>
      </trkpt>
      <trkpt lat="45.9407" lon="4.80992">
        <ele>235</ele>
        <time>2017-05-10T09:34:25Z</time>
      </trkpt>
      <trkpt lat="45.94069" lon="4.80976">
        <ele>233</ele>
        <time>2017-05-10T09:34:26Z</time>
      </trkpt>
      <trkpt lat="45.94067" lon="4.8096">
        <ele>232</ele>
        <time>2017-05-10T09:34:27Z</time>
      </trkpt>
      <trkpt lat="45.94066" lon="4.80944">
        <ele>232</ele>
        <time>2017-05-10T09:34:28Z</time>
      </trkpt>
      <trkpt lat="45.94063" lon="4.80928">
        <ele>233</ele>
        <time>2017-05-10T09:34:29Z</time>
      </trkpt>
      <trkpt lat="45.94062" lon="4.80912">
        <ele>233</ele>
        <time>2017-05-10T09:34:30Z</time>
      </trkpt>
      <trkpt lat="45.9406" lon="4.80896">
        <ele>231</ele>
        <time>2017-05-10T09:34:31Z</time>
      </trkpt>
      <trkpt lat="45.94058" lon="4.8088">
        <ele>231</ele>
        <time>2017-05-10T09:34:32Z</time>
      </trkpt>
      <trkpt lat="45.94057" lon="4.80865">
        <ele>231</ele>
        <time>2017-05-10T09:34:33Z</time>
      </trkpt>
      <trkpt lat="45.94054" lon="4.80849">
        <ele>231</ele>
        <time>2017-05-10T09:34:34Z</time>
      </trkpt>
      <trkpt lat="45.94052" lon="4.80834">
        <ele>231</ele>
        <time>2017-05-10T09:34:35Z</time>
      </trkpt>
      <trkpt lat="45.9405" lon="4.80817">
        <ele>230</ele>
        <time>2017-05-10T09:34:36Z</time>
      </trkpt>
      <trkpt lat="45.94048" lon="4.80802">
        <ele>229</ele>
        <time>2017-05-10T09:34:37Z</time>
      </trkpt>
      <trkpt lat="45.94046" lon="4.80786">
        <ele>228</ele>
        <time>2017-05-10T09:34:38Z</time>
      </trkpt>
      <trkpt lat="45.94044" lon="4.8077">
        <ele>228</ele>
        <time>2017-05-10T09:34:39Z</time>
      </trkpt>
      <trkpt lat="45.94041" lon="4.80755">
        <ele>228</ele>
        <time>2017-05-10T09:34:40Z</time>
      </trkpt>
      <trkpt lat="45.94038" lon="4.80739">
        <ele>226</ele>
        <time>2017-05-10T09:34:41Z</time>
      </trkpt>
      <trkpt lat="45.94036" lon="4.80723">
        <ele>226</ele>
        <time>2017-05-10T09:34:42Z</time>
      </trkpt>
      <trkpt lat="45.94034" lon="4.80708">
        <ele>226</ele>
        <time>2017-05-10T09:34:43Z</time>
      </trkpt>
      <trkpt lat="45.94033" lon="4.80691">
        <ele>225</ele>
        <time>2017-05-10T09:34:44Z</time>
      </trkpt>
      <trkpt lat="45.94032" lon="4.80674">
        <ele>225</ele>
        <time>2017-05-10T09:34:45Z</time>
      </trkpt>
      <trkpt lat="45.94031" lon="4.80657">
        <ele>225</ele>
        <time>2017-05-10T09:34:46Z</time>
      </trkpt>
      <trkpt lat="45.9403" lon="4.80641">
        <ele>225</ele>
        <time>2017-05-10T09:34:47Z</time>
      </trkpt>
      <trkpt lat="45.94028" lon="4.80625">
        <ele>225</ele>
        <time>2017-05-10T09:34:48Z</time>
      </trkpt>
      <trkpt lat="45.94025" lon="4.8061">
        <ele>225</ele>
        <time>2017-05-10T09:34:49Z</time>
      </trkpt>
      <trkpt lat="45.94024" lon="4.80594">
        <ele>224</ele>
        <time>2017-05-10T09:34:50Z</time>
      </trkpt>
      <trkpt lat="45.94023" lon="4.80579">
        <ele>224</ele>
        <time>2017-05-10T09:34:51Z</time>
      </trkpt>
      <trkpt lat="45.94022" lon="4.80565">
        <ele>224</ele>
        <time>2017-05-10T09:34:52Z</time>
      </trkpt>
      <trkpt lat="45.94022" lon="4.8055">
        <ele>225</ele>
        <time>2017-05-10T09:34:53Z</time>
      </trkpt>
      <trkpt lat="45.94022" lon="4.80537">
        <ele>225</ele>
        <time>2017-05-10T09:34:54Z</time>
      </trkpt>
      <trkpt lat="45.94023" lon="4.80523">
        <ele>225</ele>
        <time>2017-05-10T09:34:55Z</time>
      </trkpt>
      <trkpt lat="45.94022" lon="4.8051">
        <ele>224</ele>
        <time>2017-05-10T09:34:56Z</time>
      </trkpt>
      <trkpt lat="45.94023" lon="4.80496">
        <ele>223</ele>
        <time>2017-05-10T09:34:57Z</time>
      </trkpt>
      <trkpt lat="45.94023" lon="4.80481">
        <ele>223</ele>
        <time>2017-05-10T09:34:58Z</time>
      </trkpt>
      <trkpt lat="45.94022" lon="4.80467">
        <ele>223</ele>
        <time>2017-05-10T09:34:59Z</time>
      </trkpt>
      <trkpt lat="45.94021" lon="4.80453">
        <ele>223</ele>
        <time>2017-05-10T09:35:00Z</time>
      </trkpt>
      <trkpt lat="45.94019" lon="4.80438">
        <ele>222</ele>
        <time>2017-05-10T09:35:01Z</time>
      </trkpt>
      <trkpt lat="45.94016" lon="4.80423">
        <ele>221</ele>
        <time>2017-05-10T09:35:02Z</time>
      </trkpt>
      <trkpt lat="45.94013" lon="4.80409">
        <ele>217</ele>
        <time>2017-05-10T09:35:03Z</time>
      </trkpt>
      <trkpt lat="45.94009" lon="4.80395">
        <ele>217</ele>
        <time>2017-05-10T09:35:04Z</time>
      </trkpt>
      <trkpt lat="45.94006" lon="4.8038">
        <ele>216</ele>
        <time>2017-05-10T09:35:05Z</time>
      </trkpt>
      <trkpt lat="45.94003" lon="4.80365">
        <ele>215</ele>
        <time>2017-05-10T09:35:06Z</time>
      </trkpt>
      <trkpt lat="45.94" lon="4.80349">
        <ele>206</ele>
        <time>2017-05-10T09:35:07Z</time>
      </trkpt>
      <trkpt lat="45.93997" lon="4.80333">
        <ele>206</ele>
        <time>2017-05-10T09:35:08Z</time>
      </trkpt>
      <trkpt lat="45.93993" lon="4.80318">
        <ele>204</ele>
        <time>2017-05-10T09:35:09Z</time>
      </trkpt>
      <trkpt lat="45.93989" lon="4.80303">
        <ele>203</ele>
        <time>2017-05-10T09:35:10Z</time>
      </trkpt>
      <trkpt lat="45.93985" lon="4.80288">
        <ele>203</ele>
        <time>2017-05-10T09:35:11Z</time>
      </trkpt>
      <trkpt lat="45.93981" lon="4.80273">
        <ele>203</ele>
        <time>2017-05-10T09:35:12Z</time>
      </trkpt>
      <trkpt lat="45.93977" lon="4.80259">
        <ele>203</ele>
        <time>2017-05-10T09:35:13Z</time>
      </trkpt>
      <trkpt lat="45.93973" lon="4.80246">
        <ele>204</ele>
        <time>2017-05-10T09:35:14Z</time>
      </trkpt>
      <trkpt lat="45.93969" lon="4.80233">
        <ele>205</ele>
        <time>2017-05-10T09:35:15Z</time>
      </trkpt>
      <trkpt lat="45.93966" lon="4.8022">
        <ele>205</ele>
        <time>2017-05-10T09:35:16Z</time>
      </trkpt>
      <trkpt lat="45.93962" lon="4.80207">
        <ele>205</ele>
        <time>2017-05-10T09:35:17Z</time>
      </trkpt>
      <trkpt lat="45.93959" lon="4.80195">
        <ele>206</ele>
        <time>2017-05-10T09:35:18Z</time>
      </trkpt>
      <trkpt lat="45.93956" lon="4.80184">
        <ele>206</ele>
        <time>2017-05-10T09:35:19Z</time>
      </trkpt>
      <trkpt lat="45.93953" lon="4.80172">
        <ele>206</ele>
        <time>2017-05-10T09:35:20Z</time>
      </trkpt>
      <trkpt lat="45.9395" lon="4.8016">
        <ele>208</ele>
        <time>2017-05-10T09:35:21Z</time>
      </trkpt>
      <trkpt lat="45.93948" lon="4.80149">
        <ele>208</ele>
        <time>2017-05-10T09:35:22Z</time>
      </trkpt>
      <trkpt lat="45.93947" lon="4.80139">
        <ele>209</ele>
        <time>2017-05-10T09:35:23Z</time>
      </trkpt>
      <trkpt lat="45.93945" lon="4.80128">
        <ele>209</ele>
        <time>2017-05-10T09:35:24Z</time>
      </trkpt>
      <trkpt lat="45.93943" lon="4.80117">
        <ele>209</ele>
        <time>2017-05-10T09:35:25Z</time>
      </trkpt>
      <trkpt lat="45.93942" lon="4.80106">
        <ele>209</ele>
        <time>2017-05-10T09:35:26Z</time>
      </trkpt>
      <trkpt lat="45.93941" lon="4.80096">
        <ele>208</ele>
        <time>2017-05-10T09:35:27Z</time>
      </trkpt>
      <trkpt lat="45.93942" lon="4.80086">
        <ele>208</ele>
        <time>2017-05-10T09:35:28Z</time>
      </trkpt>
      <trkpt lat="45.93942" lon="4.80075">
        <ele>208</ele>
        <time>2017-05-10T09:35:29Z</time>
      </trkpt>
      <trkpt lat="45.93943" lon="4.80064">
        <ele>208</ele>
        <time>2017-05-10T09:35:30Z</time>
      </trkpt>
      <trkpt lat="45.93943" lon="4.80053">
        <ele>208</ele>
        <time>2017-05-10T09:35:31Z</time>
      </trkpt>
      <trkpt lat="45.93944" lon="4.80043">
        <ele>207</ele>
        <time>2017-05-10T09:35:32Z</time>
      </trkpt>
      <trkpt lat="45.93944" lon="4.80032">
        <ele>207</ele>
        <time>2017-05-10T09:35:33Z</time>
      </trkpt>
      <trkpt lat="45.93946" lon="4.80021">
        <ele>207</ele>
        <time>2017-05-10T09:35:34Z</time>
      </trkpt>
      <trkpt lat="45.93948" lon="4.80011">
        <ele>207</ele>
        <time>2017-05-10T09:35:35Z</time>
      </trkpt>
      <trkpt lat="45.93949" lon="4.80001">
        <ele>207</ele>
        <time>2017-05-10T09:35:36Z</time>
      </trkpt>
      <trkpt lat="45.9395" lon="4.79991">
        <ele>205</ele>
        <time>2017-05-10T09:35:37Z</time>
      </trkpt>
      <trkpt lat="45.93951" lon="4.79981">
        <ele>205</ele>
        <time>2017-05-10T09:35:38Z</time>
      </trkpt>
      <trkpt lat="45.93952" lon="4.79971">
        <ele>205</ele>
        <time>2017-05-10T09:35:39Z</time>
      </trkpt>
      <trkpt lat="45.93953" lon="4.79961">
        <ele>205</ele>
        <time>2017-05-10T09:35:40Z</time>
      </trkpt>
      <trkpt lat="45.93955" lon="4.79951">
        <ele>205</ele>
        <time>2017-05-10T09:35:41Z</time>
      </trkpt>
      <trkpt lat="45.93957" lon="4.79941">
        <ele>205</ele>
        <time>2017-05-10T09:35:42Z</time>
      </trkpt>
      <trkpt lat="45.93958" lon="4.79931">
        <ele>205</ele>
        <time>2017-05-10T09:35:43Z</time>
      </trkpt>
      <trkpt lat="45.93959" lon="4.79921">
        <ele>205</ele>
        <time>2017-05-10T09:35:44Z</time>
      </trkpt>
      <trkpt lat="45.9396" lon="4.79911">
        <ele>206</ele>
        <time>2017-05-10T09:35:45Z</time>
      </trkpt>
      <trkpt lat="45.93962" lon="4.79901">
        <ele>206</ele>
        <time>2017-05-10T09:35:46Z</time>
      </trkpt>
      <trkpt lat="45.93964" lon="4.79892">
        <ele>206</ele>
        <time>2017-05-10T09:35:47Z</time>
      </trkpt>
      <trkpt lat="45.93965" lon="4.79883">
        <ele>206</ele>
        <time>2017-05-10T09:35:48Z</time>
      </trkpt>
      <trkpt lat="45.93966" lon="4.79873">
        <ele>206</ele>
        <time>2017-05-10T09:35:49Z</time>
      </trkpt>
      <trkpt lat="45.93967" lon="4.79864">
        <ele>206</ele>
        <time>2017-05-10T09:35:50Z</time>
      </trkpt>
      <trkpt lat="45.93969" lon="4.79855">
        <ele>206</ele>
        <time>2017-05-10T09:35:51Z</time>
      </trkpt>
      <trkpt lat="45.93971" lon="4.79845">
        <ele>207</ele>
        <time>2017-05-10T09:35:52Z</time>
      </trkpt>
      <trkpt lat="45.93973" lon="4.79836">
        <ele>207</ele>
        <time>2017-05-10T09:35:53Z</time>
      </trkpt>
      <trkpt lat="45.93975" lon="4.79827">
        <ele>207</ele>
        <time>2017-05-10T09:35:54Z</time>
      </trkpt>
      <trkpt lat="45.93975" lon="4.79817">
        <ele>207</ele>
        <time>2017-05-10T09:35:55Z</time>
      </trkpt>
      <trkpt lat="45.93976" lon="4.79808">
        <ele>207</ele>
        <time>2017-05-10T09:35:56Z</time>
      </trkpt>
      <trkpt lat="45.93977" lon="4.79797">
        <ele>207</ele>
        <time>2017-05-10T09:35:57Z</time>
      </trkpt>
      <trkpt lat="45.93977" lon="4.79787">
        <ele>207</ele>
        <time>2017-05-10T09:35:58Z</time>
      </trkpt>
      <trkpt lat="45.93978" lon="4.79778">
        <ele>207</ele>
        <time>2017-05-10T09:35:59Z</time>
      </trkpt>
      <trkpt lat="45.93977" lon="4.79769">
        <ele>207</ele>
        <time>2017-05-10T09:36:00Z</time>
      </trkpt>
      <trkpt lat="45.93977" lon="4.7976">
        <ele>207</ele>
        <time>2017-05-10T09:36:01Z</time>
      </trkpt>
      <trkpt lat="45.93976" lon="4.79751">
        <ele>207</ele>
        <time>2017-05-10T09:36:02Z</time>
      </trkpt>
      <trkpt lat="45.93975" lon="4.79743">
        <ele>207</ele>
        <time>2017-05-10T09:36:03Z</time>
      </trkpt>
      <trkpt lat="45.93974" lon="4.79734">
        <ele>207</ele>
        <time>2017-05-10T09:36:04Z</time>
      </trkpt>
      <trkpt lat="45.93974" lon="4.79726">
        <ele>207</ele>
        <time>2017-05-10T09:36:05Z</time>
      </trkpt>
      <trkpt lat="45.93973" lon="4.79718">
        <ele>207</ele>
        <time>2017-05-10T09:36:06Z</time>
      </trkpt>
      <trkpt lat="45.93972" lon="4.79709">
        <ele>207</ele>
        <time>2017-05-10T09:36:07Z</time>
      </trkpt>
      <trkpt lat="45.93972" lon="4.79701">
        <ele>207</ele>
        <time>2017-05-10T09:36:08Z</time>
      </trkpt>
      <trkpt lat="45.93971" lon="4.79693">
        <ele>207</ele>
        <time>2017-05-10T09:36:09Z</time>
      </trkpt>
      <trkpt lat="45.93971" lon="4.79685">
        <ele>207</ele>
        <time>2017-05-10T09:36:10Z</time>
      </trkpt>
      <trkpt lat="45.9397" lon="4.79677">
        <ele>207</ele>
        <time>2017-05-10T09:36:11Z</time>
      </trkpt>
      <trkpt lat="45.93969" lon="4.79668">
        <ele>207</ele>
        <time>2017-05-10T09:36:12Z</time>
      </trkpt>
      <trkpt lat="45.93969" lon="4.7966">
        <ele>208</ele>
        <time>2017-05-10T09:36:13Z</time>
      </trkpt>
      <trkpt lat="45.93968" lon="4.79651">
        <ele>208</ele>
        <time>2017-05-10T09:36:14Z</time>
      </trkpt>
      <trkpt lat="45.93967" lon="4.79642">
        <ele>207</ele>
        <time>2017-05-10T09:36:15Z</time>
      </trkpt>
      <trkpt lat="45.93966" lon="4.79633">
        <ele>207</ele>
        <time>2017-05-10T09:36:16Z</time>
      </trkpt>
      <trkpt lat="45.93965" lon="4.79624">
        <ele>207</ele>
        <time>2017-05-10T09:36:17Z</time>
      </trkpt>
      <trkpt lat="45.93964" lon="4.79614">
        <ele>207</ele>
        <time>2017-05-10T09:36:18Z</time>
      </trkpt>
      <trkpt lat="45.93963" lon="4.79604">
        <ele>207</ele>
        <time>2017-05-10T09:36:19Z</time>
      </trkpt>
      <trkpt lat="45.93963" lon="4.79595">
        <ele>207</ele>
        <time>2017-05-10T09:36:20Z</time>
      </trkpt>
      <trkpt lat="45.93962" lon="4.79585">
        <ele>207</ele>
        <time>2017-05-10T09:36:21Z</time>
      </trkpt>
      <trkpt lat="45.9396" lon="4.79575">
        <ele>206</ele>
        <time>2017-05-10T09:36:22Z</time>
      </trkpt>
      <trkpt lat="45.93959" lon="4.79565">
        <ele>205</ele>
        <time>2017-05-10T09:36:23Z</time>
      </trkpt>
      <trkpt lat="45.93958" lon="4.79554">
        <ele>205</ele>
        <time>2017-05-10T09:36:24Z</time>
      </trkpt>
      <trkpt lat="45.93957" lon="4.79544">
        <ele>205</ele>
        <time>2017-05-10T09:36:25Z</time>
      </trkpt>
      <trkpt lat="45.93957" lon="4.79533">
        <ele>205</ele>
        <time>2017-05-10T09:36:26Z</time>
      </trkpt>
      <trkpt lat="45.93956" lon="4.79521">
        <ele>204</ele>
        <time>2017-05-10T09:36:27Z</time>
      </trkpt>
      <trkpt lat="45.93956" lon="4.7951">
        <ele>204</ele>
        <time>2017-05-10T09:36:28Z</time>
      </trkpt>
      <trkpt lat="45.93956" lon="4.79499">
        <ele>203</ele>
        <time>2017-05-10T09:36:29Z</time>
      </trkpt>
      <trkpt lat="45.93956" lon="4.79487">
        <ele>203</ele>
        <time>2017-05-10T09:36:30Z</time>
      </trkpt>
      <trkpt lat="45.93957" lon="4.79476">
        <ele>203</ele>
        <time>2017-05-10T09:36:31Z</time>
      </trkpt>
      <trkpt lat="45.93957" lon="4.79465">
        <ele>203</ele>
        <time>2017-05-10T09:36:32Z</time>
      </trkpt>
      <trkpt lat="45.93957" lon="4.79454">
        <ele>203</ele>
        <time>2017-05-10T09:36:33Z</time>
      </trkpt>
      <trkpt lat="45.93957" lon="4.79443">
        <ele>203</ele>
        <time>2017-05-10T09:36:34Z</time>
      </trkpt>
      <trkpt lat="45.93956" lon="4.79432">
        <ele>203</ele>
        <time>2017-05-10T09:36:35Z</time>
      </trkpt>
      <trkpt lat="45.93955" lon="4.7942">
        <ele>202</ele>
        <time>2017-05-10T09:36:36Z</time>
      </trkpt>
      <trkpt lat="45.93955" lon="4.79409">
        <ele>201</ele>
        <time>2017-05-10T09:36:37Z</time>
      </trkpt>
      <trkpt lat="45.93955" lon="4.79397">
        <ele>201</ele>
        <time>2017-05-10T09:36:38Z</time>
      </trkpt>
      <trkpt lat="45.93955" lon="4.79384">
        <ele>201</ele>
        <time>2017-05-10T09:36:39Z</time>
      </trkpt>
      <trkpt lat="45.93955" lon="4.79372">
        <ele>201</ele>
        <time>2017-05-10T09:36:40Z</time>
      </trkpt>
      <trkpt lat="45.93955" lon="4.7936">
        <ele>201</ele>
        <time>2017-05-10T09:36:41Z</time>
      </trkpt>
      <trkpt lat="45.93955" lon="4.79348">
        <ele>201</ele>
        <time>2017-05-10T09:36:42Z</time>
      </trkpt>
      <trkpt lat="45.93955" lon="4.79336">
        <ele>200</ele>
        <time>2017-05-10T09:36:43Z</time>
      </trkpt>
      <trkpt lat="45.93955" lon="4.79324">
        <ele>199</ele>
        <time>2017-05-10T09:36:44Z</time>
      </trkpt>
      <trkpt lat="45.93955" lon="4.79312">
        <ele>199</ele>
        <time>2017-05-10T09:36:45Z</time>
      </trkpt>
      <trkpt lat="45.93955" lon="4.793">
        <ele>199</ele>
        <time>2017-05-10T09:36:46Z</time>
      </trkpt>
      <trkpt lat="45.93954" lon="4.79288">
        <ele>198</ele>
        <time>2017-05-10T09:36:47Z</time>
      </trkpt>
      <trkpt lat="45.93954" lon="4.79276">
        <ele>198</ele>
        <time>2017-05-10T09:36:48Z</time>
      </trkpt>
      <trkpt lat="45.93954" lon="4.79264">
        <ele>198</ele>
        <time>2017-05-10T09:36:49Z</time>
      </trkpt>
      <trkpt lat="45.93954" lon="4.79252">
        <ele>198</ele>
        <time>2017-05-10T09:36:50Z</time>
      </trkpt>
      <trkpt lat="45.93953" lon="4.7924">
        <ele>197</ele>
        <time>2017-05-10T09:36:51Z</time>
      </trkpt>
      <trkpt lat="45.93953" lon="4.79228">
        <ele>197</ele>
        <time>2017-05-10T09:36:52Z</time>
      </trkpt>
      <trkpt lat="45.93953" lon="4.79217">
        <ele>197</ele>
        <time>2017-05-10T09:36:53Z</time>
      </trkpt>
      <trkpt lat="45.93953" lon="4.79206">
        <ele>197</ele>
        <time>2017-05-10T09:36:54Z</time>
      </trkpt>
      <trkpt lat="45.93952" lon="4.79195">
        <ele>197</ele>
        <time>2017-05-10T09:36:55Z</time>
      </trkpt>
      <trkpt lat="45.93952" lon="4.79184">
        <ele>197</ele>
        <time>2017-05-10T09:36:56Z</time>
      </trkpt>
      <trkpt lat="45.93953" lon="4.79172">
        <ele>197</ele>
        <time>2017-05-10T09:36:57Z</time>
      </trkpt>
      <trkpt lat="45.93952" lon="4.79161">
        <ele>197</ele>
        <time>2017-05-10T09:36:58Z</time>
      </trkpt>
      <trkpt lat="45.93952" lon="4.79149">
        <ele>197</ele>
        <time>2017-05-10T09:36:59Z</time>
      </trkpt>
      <trkpt lat="45.93952" lon="4.79137">
        <ele>197</ele>
        <time>2017-05-10T09:37:00Z</time>
      </trkpt>
      <trkpt lat="45.93952" lon="4.79125">
        <ele>197</ele>
        <time>2017-05-10T09:37:01Z</time>
      </trkpt>
      <trkpt lat="45.93951" lon="4.79112">
        <ele>197</ele>
        <time>2017-05-10T09:37:02Z</time>
      </trkpt>
      <trkpt lat="45.93951" lon="4.791">
        <ele>197</ele>
        <time>2017-05-10T09:37:03Z</time>
      </trkpt>
      <trkpt lat="45.9395" lon="4.79088">
        <ele>196</ele>
        <time>2017-05-10T09:37:04Z</time>
      </trkpt>
      <trkpt lat="45.9395" lon="4.79076">
        <ele>196</ele>
        <time>2017-05-10T09:37:05Z</time>
      </trkpt>
      <trkpt lat="45.93948" lon="4.79064">
        <ele>196</ele>
        <time>2017-05-10T09:37:06Z</time>
      </trkpt>
      <trkpt lat="45.93947" lon="4.79052">
        <ele>196</ele>
        <time>2017-05-10T09:37:07Z</time>
      </trkpt>
      <trkpt lat="45.93947" lon="4.7904">
        <ele>196</ele>
        <time>2017-05-10T09:37:08Z</time>
      </trkpt>
      <trkpt lat="45.93947" lon="4.79029">
        <ele>195</ele>
        <time>2017-05-10T09:37:09Z</time>
      </trkpt>
      <trkpt lat="45.93947" lon="4.79018">
        <ele>195</ele>
        <time>2017-05-10T09:37:10Z</time>
      </trkpt>
      <trkpt lat="45.93947" lon="4.79007">
        <ele>195</ele>
        <time>2017-05-10T09:37:11Z</time>
      </trkpt>
      <trkpt lat="45.93947" lon="4.78995">
        <ele>194</ele>
        <time>2017-05-10T09:37:12Z</time>
      </trkpt>
      <trkpt lat="45.93947" lon="4.78985">
        <ele>194</ele>
        <time>2017-05-10T09:37:13Z</time>
      </trkpt>
      <trkpt lat="45.93948" lon="4.78974">
        <ele>194</ele>
        <time>2017-05-10T09:37:14Z</time>
      </trkpt>
      <trkpt lat="45.93947" lon="4.78963">
        <ele>194</ele>
        <time>2017-05-10T09:37:15Z</time>
      </trkpt>
      <trkpt lat="45.93947" lon="4.78952">
        <ele>194</ele>
        <time>2017-05-10T09:37:16Z</time>
      </trkpt>
      <trkpt lat="45.93947" lon="4.78941">
        <ele>194</ele>
        <time>2017-05-10T09:37:17Z</time>
      </trkpt>
      <trkpt lat="45.93947" lon="4.78931">
        <ele>194</ele>
        <time>2017-05-10T09:37:18Z</time>
      </trkpt>
      <trkpt lat="45.93947" lon="4.78921">
        <ele>194</ele>
        <time>2017-05-10T09:37:19Z</time>
      </trkpt>
      <trkpt lat="45.93946" lon="4.78911">
        <ele>193</ele>
        <time>2017-05-10T09:37:20Z</time>
      </trkpt>
      <trkpt lat="45.93945" lon="4.789">
        <ele>193</ele>
        <time>2017-05-10T09:37:21Z</time>
      </trkpt>
      <trkpt lat="45.93944" lon="4.7889">
        <ele>194</ele>
        <time>2017-05-10T09:37:22Z</time>
      </trkpt>
      <trkpt lat="45.93943" lon="4.7888">
        <ele>194</ele>
        <time>2017-05-10T09:37:23Z</time>
      </trkpt>
      <trkpt lat="45.93942" lon="4.78869">
        <ele>194</ele>
        <time>2017-05-10T09:37:24Z</time>
      </trkpt>
      <trkpt lat="45.93942" lon="4.78859">
        <ele>194</ele>
        <time>2017-05-10T09:37:25Z</time>
      </trkpt>
      <trkpt lat="45.93941" lon="4.78849">
        <ele>194</ele>
        <time>2017-05-10T09:37:26Z</time>
      </trkpt>
      <trkpt lat="45.9394" lon="4.78839">
        <ele>193</ele>
        <time>2017-05-10T09:37:27Z</time>
      </trkpt>
      <trkpt lat="45.93939" lon="4.78829">
        <ele>194</ele>
        <time>2017-05-10T09:37:28Z</time>
      </trkpt>
      <trkpt lat="45.93939" lon="4.78819">
        <ele>194</ele>
        <time>2017-05-10T09:37:29Z</time>
      </trkpt>
      <trkpt lat="45.93938" lon="4.78809">
        <ele>194</ele>
        <time>2017-05-10T09:37:30Z</time>
      </trkpt>
      <trkpt lat="45.93938" lon="4.788">
        <ele>194</ele>
        <time>2017-05-10T09:37:31Z</time>
      </trkpt>
      <trkpt lat="45.93938" lon="4.7879">
        <ele>194</ele>
        <time>2017-05-10T09:37:32Z</time>
      </trkpt>
      <trkpt lat="45.93937" lon="4.78781">
        <ele>194</ele>
        <time>2017-05-10T09:37:33Z</time>
      </trkpt>
      <trkpt lat="45.93937" lon="4.78772">
        <ele>194</ele>
        <time>2017-05-10T09:37:34Z</time>
      </trkpt>
      <trkpt lat="45.93937" lon="4.78763">
        <ele>193</ele>
        <time>2017-05-10T09:37:35Z</time>
      </trkpt>
      <trkpt lat="45.93937" lon="4.78755">
        <ele>193</ele>
        <time>2017-05-10T09:37:36Z</time>
      </trkpt>
      <trkpt lat="45.93937" lon="4.78747">
        <ele>193</ele>
        <time>2017-05-10T09:37:37Z</time>
      </trkpt>
      <trkpt lat="45.93937" lon="4.78738">
        <ele>193</ele>
        <time>2017-05-10T09:37:38Z</time>
      </trkpt>
      <trkpt lat="45.93937" lon="4.7873">
        <ele>194</ele>
        <time>2017-05-10T09:37:39Z</time>
      </trkpt>
      <trkpt lat="45.93937" lon="4.78722">
        <ele>194</ele>
        <time>2017-05-10T09:37:40Z</time>
      </trkpt>
      <trkpt lat="45.93937" lon="4.78713">
        <ele>194</ele>
        <time>2017-05-10T09:37:41Z</time>
      </trkpt>
      <trkpt lat="45.93937" lon="4.78705">
        <ele>194</ele>
        <time>2017-05-10T09:37:42Z</time>
      </trkpt>
      <trkpt lat="45.93938" lon="4.78697">
        <ele>194</ele>
        <time>2017-05-10T09:37:43Z</time>
      </trkpt>
      <trkpt lat="45.93938" lon="4.78688">
        <ele>194</ele>
        <time>2017-05-10T09:37:44Z</time>
      </trkpt>
      <trkpt lat="45.93939" lon="4.7868">
        <ele>194</ele>
        <time>2017-05-10T09:37:45Z</time>
      </trkpt>
      <trkpt lat="45.93939" lon="4.78671">
        <ele>193</ele>
        <time>2017-05-10T09:37:46Z</time>
      </trkpt>
      <trkpt lat="45.93938" lon="4.78662">
        <ele>194</ele>
        <time>2017-05-10T09:37:47Z</time>
      </trkpt>
      <trkpt lat="45.93938" lon="4.78654">
        <ele>194</ele>
        <time>2017-05-10T09:37:48Z</time>
      </trkpt>
      <trkpt lat="45.93938" lon="4.78646">
        <ele>195</ele>
        <time>2017-05-10T09:37:49Z</time>
      </trkpt>
      <trkpt lat="45.93939" lon="4.78638">
        <ele>195</ele>
        <time>2017-05-10T09:37:50Z</time>
      </trkpt>
      <trkpt lat="45.93938" lon="4.7863">
        <ele>195</ele>
        <time>2017-05-10T09:37:51Z</time>
      </trkpt>
      <trkpt lat="45.93938" lon="4.78622">
        <ele>196</ele>
        <time>2017-05-10T09:37:52Z</time>
      </trkpt>
      <trkpt lat="45.93938" lon="4.78615">
        <ele>196</ele>
        <time>2017-05-10T09:37:53Z</time>
      </trkpt>
      <trkpt lat="45.93937" lon="4.78607">
        <ele>196</ele>
        <time>2017-05-10T09:37:54Z</time>
      </trkpt>
      <trkpt lat="45.93937" lon="4.786">
        <ele>196</ele>
        <time>2017-05-10T09:37:55Z</time>
      </trkpt>
      <trkpt lat="45.93937" lon="4.78594">
        <ele>195</ele>
        <time>2017-05-10T09:37:56Z</time>
      </trkpt>
      <trkpt lat="45.93937" lon="4.78582">
        <ele>196</ele>
        <time>2017-05-10T09:37:58Z</time>
      </trkpt>
      <trkpt lat="45.93937" lon="4.78576">
        <ele>196</ele>
        <time>2017-05-10T09:37:59Z</time>
      </trkpt>
      <trkpt lat="45.93934" lon="4.78565">
        <ele>196</ele>
        <time>2017-05-10T09:38:02Z</time>
      </trkpt>
      <trkpt lat="45.93934" lon="4.78563">
        <ele>197</ele>
        <time>2017-05-10T09:38:03Z</time>
      </trkpt>
      <trkpt lat="45.93933" lon="4.78551">
        <ele>197</ele>
        <time>2017-05-10T09:38:06Z</time>
      </trkpt>
      <trkpt lat="45.93932" lon="4.78547">
        <ele>197</ele>
        <time>2017-05-10T09:38:07Z</time>
      </trkpt>
      <trkpt lat="45.93934" lon="4.78536">
        <ele>197</ele>
        <time>2017-05-10T09:38:09Z</time>
      </trkpt>
      <trkpt lat="45.93934" lon="4.7853">
        <ele>197</ele>
        <time>2017-05-10T09:38:10Z</time>
      </trkpt>
      <trkpt lat="45.93936" lon="4.78517">
        <ele>197</ele>
        <time>2017-05-10T09:38:12Z</time>
      </trkpt>
      <trkpt lat="45.93937" lon="4.78511">
        <ele>197</ele>
        <time>2017-05-10T09:38:13Z</time>
      </trkpt>
      <trkpt lat="45.93938" lon="4.78504">
        <ele>197</ele>
        <time>2017-05-10T09:38:14Z</time>
      </trkpt>
      <trkpt lat="45.93939" lon="4.78497">
        <ele>197</ele>
        <time>2017-05-10T09:38:15Z</time>
      </trkpt>
      <trkpt lat="45.93941" lon="4.7849">
        <ele>197</ele>
        <time>2017-05-10T09:38:16Z</time>
      </trkpt>
      <trkpt lat="45.93942" lon="4.78483">
        <ele>197</ele>
        <time>2017-05-10T09:38:17Z</time>
      </trkpt>
      <trkpt lat="45.93942" lon="4.78476">
        <ele>197</ele>
        <time>2017-05-10T09:38:18Z</time>
      </trkpt>
      <trkpt lat="45.93943" lon="4.78469">
        <ele>197</ele>
        <time>2017-05-10T09:38:19Z</time>
      </trkpt>
      <trkpt lat="45.93944" lon="4.78462">
        <ele>197</ele>
        <time>2017-05-10T09:38:20Z</time>
      </trkpt>
      <trkpt lat="45.93945" lon="4.78455">
        <ele>197</ele>
        <time>2017-05-10T09:38:21Z</time>
      </trkpt>
      <trkpt lat="45.93947" lon="4.78448">
        <ele>197</ele>
        <time>2017-05-10T09:38:22Z</time>
      </trkpt>
      <trkpt lat="45.93948" lon="4.7844">
        <ele>197</ele>
        <time>2017-05-10T09:38:23Z</time>
      </trkpt>
      <trkpt lat="45.93949" lon="4.78433">
        <ele>197</ele>
        <time>2017-05-10T09:38:24Z</time>
      </trkpt>
      <trkpt lat="45.9395" lon="4.78425">
        <ele>197</ele>
        <time>2017-05-10T09:38:25Z</time>
      </trkpt>
      <trkpt lat="45.93951" lon="4.78418">
        <ele>197</ele>
        <time>2017-05-10T09:38:26Z</time>
      </trkpt>
      <trkpt lat="45.93952" lon="4.78411">
        <ele>196</ele>
        <time>2017-05-10T09:38:27Z</time>
      </trkpt>
      <trkpt lat="45.93953" lon="4.78404">
        <ele>196</ele>
        <time>2017-05-10T09:38:28Z</time>
      </trkpt>
      <trkpt lat="45.93955" lon="4.78398">
        <ele>196</ele>
        <time>2017-05-10T09:38:29Z</time>
      </trkpt>
      <trkpt lat="45.93954" lon="4.78391">
        <ele>196</ele>
        <time>2017-05-10T09:38:30Z</time>
      </trkpt>
      <trkpt lat="45.93954" lon="4.78383">
        <ele>196</ele>
        <time>2017-05-10T09:38:31Z</time>
      </trkpt>
      <trkpt lat="45.93954" lon="4.78377">
        <ele>196</ele>
        <time>2017-05-10T09:38:32Z</time>
      </trkpt>
      <trkpt lat="45.93955" lon="4.7837">
        <ele>196</ele>
        <time>2017-05-10T09:38:33Z</time>
      </trkpt>
      <trkpt lat="45.93957" lon="4.78363">
        <ele>196</ele>
        <time>2017-05-10T09:38:34Z</time>
      </trkpt>
      <trkpt lat="45.93958" lon="4.78356">
        <ele>196</ele>
        <time>2017-05-10T09:38:35Z</time>
      </trkpt>
      <trkpt lat="45.93959" lon="4.78349">
        <ele>196</ele>
        <time>2017-05-10T09:38:36Z</time>
      </trkpt>
      <trkpt lat="45.93961" lon="4.78341">
        <ele>196</ele>
        <time>2017-05-10T09:38:37Z</time>
      </trkpt>
      <trkpt lat="45.93963" lon="4.78334">
        <ele>197</ele>
        <time>2017-05-10T09:38:38Z</time>
      </trkpt>
      <trkpt lat="45.93963" lon="4.78327">
        <ele>196</ele>
        <time>2017-05-10T09:38:39Z</time>
      </trkpt>
      <trkpt lat="45.93965" lon="4.7832">
        <ele>196</ele>
        <time>2017-05-10T09:38:40Z</time>
      </trkpt>
      <trkpt lat="45.93966" lon="4.78314">
        <ele>196</ele>
        <time>2017-05-10T09:38:41Z</time>
      </trkpt>
      <trkpt lat="45.93967" lon="4.78301">
        <ele>196</ele>
        <time>2017-05-10T09:38:43Z</time>
      </trkpt>
      <trkpt lat="45.93968" lon="4.78294">
        <ele>196</ele>
        <time>2017-05-10T09:38:44Z</time>
      </trkpt>
      <trkpt lat="45.93969" lon="4.78287">
        <ele>196</ele>
        <time>2017-05-10T09:38:45Z</time>
      </trkpt>
      <trkpt lat="45.9397" lon="4.7828">
        <ele>196</ele>
        <time>2017-05-10T09:38:46Z</time>
      </trkpt>
      <trkpt lat="45.93972" lon="4.78272">
        <ele>196</ele>
        <time>2017-05-10T09:38:47Z</time>
      </trkpt>
      <trkpt lat="45.93973" lon="4.78264">
        <ele>196</ele>
        <time>2017-05-10T09:38:48Z</time>
      </trkpt>
      <trkpt lat="45.93974" lon="4.78257">
        <ele>196</ele>
        <time>2017-05-10T09:38:49Z</time>
      </trkpt>
      <trkpt lat="45.93975" lon="4.78249">
        <ele>197</ele>
        <time>2017-05-10T09:38:50Z</time>
      </trkpt>
      <trkpt lat="45.93977" lon="4.78242">
        <ele>197</ele>
        <time>2017-05-10T09:38:51Z</time>
      </trkpt>
      <trkpt lat="45.93978" lon="4.78234">
        <ele>197</ele>
        <time>2017-05-10T09:38:52Z</time>
      </trkpt>
      <trkpt lat="45.93979" lon="4.78226">
        <ele>197</ele>
        <time>2017-05-10T09:38:53Z</time>
      </trkpt>
      <trkpt lat="45.9398" lon="4.78219">
        <ele>197</ele>
        <time>2017-05-10T09:38:54Z</time>
      </trkpt>
      <trkpt lat="45.9398" lon="4.78212">
        <ele>197</ele>
        <time>2017-05-10T09:38:55Z</time>
      </trkpt>
      <trkpt lat="45.93981" lon="4.78204">
        <ele>197</ele>
        <time>2017-05-10T09:38:56Z</time>
      </trkpt>
      <trkpt lat="45.93983" lon="4.78197">
        <ele>197</ele>
        <time>2017-05-10T09:38:57Z</time>
      </trkpt>
      <trkpt lat="45.93984" lon="4.78191">
        <ele>197</ele>
        <time>2017-05-10T09:38:58Z</time>
      </trkpt>
      <trkpt lat="45.93988" lon="4.7818">
        <ele>198</ele>
        <time>2017-05-10T09:39:00Z</time>
      </trkpt>
      <trkpt lat="45.9399" lon="4.78174">
        <ele>199</ele>
        <time>2017-05-10T09:39:01Z</time>
      </trkpt>
      <trkpt lat="45.93993" lon="4.78163">
        <ele>200</ele>
        <time>2017-05-10T09:39:03Z</time>
      </trkpt>
      <trkpt lat="45.93994" lon="4.78156">
        <ele>199</ele>
        <time>2017-05-10T09:39:04Z</time>
      </trkpt>
      <trkpt lat="45.93995" lon="4.78149">
        <ele>198</ele>
        <time>2017-05-10T09:39:05Z</time>
      </trkpt>
      <trkpt lat="45.93995" lon="4.78142">
        <ele>198</ele>
        <time>2017-05-10T09:39:06Z</time>
      </trkpt>
      <trkpt lat="45.93995" lon="4.78136">
        <ele>198</ele>
        <time>2017-05-10T09:39:07Z</time>
      </trkpt>
      <trkpt lat="45.93996" lon="4.7813">
        <ele>197</ele>
        <time>2017-05-10T09:39:08Z</time>
      </trkpt>
      <trkpt lat="45.93997" lon="4.78123">
        <ele>197</ele>
        <time>2017-05-10T09:39:09Z</time>
      </trkpt>
      <trkpt lat="45.93999" lon="4.78116">
        <ele>197</ele>
        <time>2017-05-10T09:39:10Z</time>
      </trkpt>
      <trkpt lat="45.94" lon="4.78109">
        <ele>202</ele>
        <time>2017-05-10T09:39:11Z</time>
      </trkpt>
      <trkpt lat="45.94002" lon="4.78102">
        <ele>202</ele>
        <time>2017-05-10T09:39:12Z</time>
      </trkpt>
      <trkpt lat="45.94002" lon="4.78094">
        <ele>201</ele>
        <time>2017-05-10T09:39:13Z</time>
      </trkpt>
      <trkpt lat="45.94003" lon="4.78087">
        <ele>200</ele>
        <time>2017-05-10T09:39:14Z</time>
      </trkpt>
      <trkpt lat="45.94005" lon="4.78079">
        <ele>200</ele>
        <time>2017-05-10T09:39:15Z</time>
      </trkpt>
      <trkpt lat="45.94006" lon="4.78072">
        <ele>201</ele>
        <time>2017-05-10T09:39:16Z</time>
      </trkpt>
      <trkpt lat="45.94008" lon="4.78064">
        <ele>201</ele>
        <time>2017-05-10T09:39:17Z</time>
      </trkpt>
      <trkpt lat="45.9401" lon="4.78057">
        <ele>201</ele>
        <time>2017-05-10T09:39:18Z</time>
      </trkpt>
      <trkpt lat="45.94011" lon="4.7805">
        <ele>201</ele>
        <time>2017-05-10T09:39:19Z</time>
      </trkpt>
      <trkpt lat="45.94013" lon="4.78043">
        <ele>201</ele>
        <time>2017-05-10T09:39:20Z</time>
      </trkpt>
      <trkpt lat="45.94015" lon="4.78036">
        <ele>201</ele>
        <time>2017-05-10T09:39:21Z</time>
      </trkpt>
      <trkpt lat="45.94016" lon="4.78029">
        <ele>201</ele>
        <time>2017-05-10T09:39:22Z</time>
      </trkpt>
      <trkpt lat="45.94018" lon="4.78022">
        <ele>201</ele>
        <time>2017-05-10T09:39:23Z</time>
      </trkpt>
      <trkpt lat="45.94019" lon="4.78014">
        <ele>200</ele>
        <time>2017-05-10T09:39:24Z</time>
      </trkpt>
      <trkpt lat="45.9402" lon="4.78006">
        <ele>200</ele>
        <time>2017-05-10T09:39:25Z</time>
      </trkpt>
      <trkpt lat="45.94021" lon="4.77998">
        <ele>199</ele>
        <time>2017-05-10T09:39:26Z</time>
      </trkpt>
      <trkpt lat="45.94023" lon="4.7799">
        <ele>200</ele>
        <time>2017-05-10T09:39:27Z</time>
      </trkpt>
      <trkpt lat="45.94024" lon="4.77982">
        <ele>200</ele>
        <time>2017-05-10T09:39:28Z</time>
      </trkpt>
      <trkpt lat="45.94025" lon="4.77973">
        <ele>200</ele>
        <time>2017-05-10T09:39:29Z</time>
      </trkpt>
      <trkpt lat="45.94026" lon="4.77965">
        <ele>200</ele>
        <time>2017-05-10T09:39:30Z</time>
      </trkpt>
      <trkpt lat="45.94027" lon="4.77958">
        <ele>200</ele>
        <time>2017-05-10T09:39:31Z</time>
      </trkpt>
      <trkpt lat="45.94029" lon="4.77952">
        <ele>200</ele>
        <time>2017-05-10T09:39:32Z</time>
      </trkpt>
      <trkpt lat="45.94032" lon="4.77942">
        <ele>200</ele>
        <time>2017-05-10T09:39:34Z</time>
      </trkpt>
      <trkpt lat="45.94032" lon="4.77937">
        <ele>200</ele>
        <time>2017-05-10T09:39:35Z</time>
      </trkpt>
      <trkpt lat="45.94029" lon="4.77928">
        <ele>200</ele>
        <time>2017-05-10T09:39:37Z</time>
      </trkpt>
      <trkpt lat="45.94025" lon="4.77925">
        <ele>199</ele>
        <time>2017-05-10T09:39:38Z</time>
      </trkpt>
      <trkpt lat="45.94021" lon="4.77924">
        <ele>199</ele>
        <time>2017-05-10T09:39:39Z</time>
      </trkpt>
      <trkpt lat="45.94015" lon="4.77924">
        <ele>198</ele>
        <time>2017-05-10T09:39:40Z</time>
      </trkpt>
      <trkpt lat="45.94009" lon="4.77924">
        <ele>197</ele>
        <time>2017-05-10T09:39:41Z</time>
      </trkpt>
      <trkpt lat="45.94004" lon="4.77926">
        <ele>197</ele>
        <time>2017-05-10T09:39:42Z</time>
      </trkpt>
      <trkpt lat="45.93998" lon="4.7793">
        <ele>193</ele>
        <time>2017-05-10T09:39:43Z</time>
      </trkpt>
      <trkpt lat="45.93992" lon="4.77933">
        <ele>192</ele>
        <time>2017-05-10T09:39:44Z</time>
      </trkpt>
      <trkpt lat="45.93985" lon="4.77937">
        <ele>192</ele>
        <time>2017-05-10T09:39:45Z</time>
      </trkpt>
      <trkpt lat="45.93978" lon="4.77941">
        <ele>191</ele>
        <time>2017-05-10T09:39:46Z</time>
      </trkpt>
      <trkpt lat="45.93969" lon="4.77947">
        <ele>191</ele>
        <time>2017-05-10T09:39:47Z</time>
      </trkpt>
      <trkpt lat="45.93961" lon="4.77953">
        <ele>190</ele>
        <time>2017-05-10T09:39:48Z</time>
      </trkpt>
      <trkpt lat="45.93952" lon="4.77959">
        <ele>190</ele>
        <time>2017-05-10T09:39:49Z</time>
      </trkpt>
      <trkpt lat="45.93944" lon="4.77964">
        <ele>189</ele>
        <time>2017-05-10T09:39:50Z</time>
      </trkpt>
      <trkpt lat="45.93936" lon="4.77969">
        <ele>189</ele>
        <time>2017-05-10T09:39:51Z</time>
      </trkpt>
      <trkpt lat="45.93929" lon="4.77974">
        <ele>188</ele>
        <time>2017-05-10T09:39:52Z</time>
      </trkpt>
      <trkpt lat="45.93924" lon="4.77979">
        <ele>188</ele>
        <time>2017-05-10T09:39:53Z</time>
      </trkpt>
      <trkpt lat="45.93918" lon="4.77984">
        <ele>188</ele>
        <time>2017-05-10T09:39:54Z</time>
      </trkpt>
      <trkpt lat="45.93911" lon="4.77989">
        <ele>183</ele>
        <time>2017-05-10T09:39:55Z</time>
      </trkpt>
      <trkpt lat="45.93905" lon="4.77994">
        <ele>183</ele>
        <time>2017-05-10T09:39:56Z</time>
      </trkpt>
      <trkpt lat="45.939" lon="4.77997">
        <ele>183</ele>
        <time>2017-05-10T09:39:57Z</time>
      </trkpt>
      <trkpt lat="45.93895" lon="4.78001">
        <ele>184</ele>
        <time>2017-05-10T09:39:58Z</time>
      </trkpt>
      <trkpt lat="45.93887" lon="4.78007">
        <ele>184</ele>
        <time>2017-05-10T09:40:00Z</time>
      </trkpt>
      <trkpt lat="45.93884" lon="4.78008">
        <ele>184</ele>
        <time>2017-05-10T09:40:01Z</time>
      </trkpt>
      <trkpt lat="45.93876" lon="4.7801">
        <ele>183</ele>
        <time>2017-05-10T09:40:06Z</time>
      </trkpt>
      <trkpt lat="45.93874" lon="4.78009">
        <ele>183</ele>
        <time>2017-05-10T09:40:07Z</time>
      </trkpt>
      <trkpt lat="45.93869" lon="4.78004">
        <ele>183</ele>
        <time>2017-05-10T09:40:09Z</time>
      </trkpt>
      <trkpt lat="45.93867" lon="4.78001">
        <ele>183</ele>
        <time>2017-05-10T09:40:10Z</time>
      </trkpt>
      <trkpt lat="45.93861" lon="4.77994">
        <ele>179</ele>
        <time>2017-05-10T09:40:12Z</time>
      </trkpt>
      <trkpt lat="45.93857" lon="4.77991">
        <ele>179</ele>
        <time>2017-05-10T09:40:13Z</time>
      </trkpt>
      <trkpt lat="45.93852" lon="4.7799">
        <ele>179</ele>
        <time>2017-05-10T09:40:14Z</time>
      </trkpt>
      <trkpt lat="45.93848" lon="4.77989">
        <ele>179</ele>
        <time>2017-05-10T09:40:15Z</time>
      </trkpt>
      <trkpt lat="45.9384" lon="4.77983">
        <ele>178</ele>
        <time>2017-05-10T09:40:17Z</time>
      </trkpt>
      <trkpt lat="45.93837" lon="4.77979">
        <ele>178</ele>
        <time>2017-05-10T09:40:18Z</time>
      </trkpt>
      <trkpt lat="45.93833" lon="4.77975">
        <ele>173</ele>
        <time>2017-05-10T09:40:19Z</time>
      </trkpt>
      <trkpt lat="45.9383" lon="4.7797">
        <ele>172</ele>
        <time>2017-05-10T09:40:20Z</time>
      </trkpt>
      <trkpt lat="45.93826" lon="4.77966">
        <ele>171</ele>
        <time>2017-05-10T09:40:21Z</time>
      </trkpt>
      <trkpt lat="45.93821" lon="4.7796">
        <ele>170</ele>
        <time>2017-05-10T09:40:22Z</time>
      </trkpt>
      <trkpt lat="45.93817" lon="4.77955">
        <ele>170</ele>
        <time>2017-05-10T09:40:23Z</time>
      </trkpt>
      <trkpt lat="45.93813" lon="4.7795">
        <ele>169</ele>
        <time>2017-05-10T09:40:24Z</time>
      </trkpt>
      <trkpt lat="45.93809" lon="4.77945">
        <ele>169</ele>
        <time>2017-05-10T09:40:25Z</time>
      </trkpt>
      <trkpt lat="45.93805" lon="4.7794">
        <ele>169</ele>
        <time>2017-05-10T09:40:26Z</time>
      </trkpt>
      <trkpt lat="45.93801" lon="4.77935">
        <ele>168</ele>
        <time>2017-05-10T09:40:27Z</time>
      </trkpt>
      <trkpt lat="45.93797" lon="4.7793">
        <ele>168</ele>
        <time>2017-05-10T09:40:28Z</time>
      </trkpt>
      <trkpt lat="45.93793" lon="4.77925">
        <ele>168</ele>
        <time>2017-05-10T09:40:29Z</time>
      </trkpt>
      <trkpt lat="45.93789" lon="4.7792">
        <ele>168</ele>
        <time>2017-05-10T09:40:30Z</time>
      </trkpt>
      <trkpt lat="45.93785" lon="4.77915">
        <ele>166</ele>
        <time>2017-05-10T09:40:31Z</time>
      </trkpt>
      <trkpt lat="45.93781" lon="4.7791">
        <ele>166</ele>
        <time>2017-05-10T09:40:32Z</time>
      </trkpt>
      <trkpt lat="45.93777" lon="4.77905">
        <ele>166</ele>
        <time>2017-05-10T09:40:33Z</time>
      </trkpt>
      <trkpt lat="45.93774" lon="4.77901">
        <ele>166</ele>
        <time>2017-05-10T09:40:34Z</time>
      </trkpt>
      <trkpt lat="45.9377" lon="4.77896">
        <ele>166</ele>
        <time>2017-05-10T09:40:35Z</time>
      </trkpt>
      <trkpt lat="45.93766" lon="4.77892">
        <ele>166</ele>
        <time>2017-05-10T09:40:36Z</time>
      </trkpt>
      <trkpt lat="45.93762" lon="4.77887">
        <ele>166</ele>
        <time>2017-05-10T09:40:37Z</time>
      </trkpt>
      <trkpt lat="45.93758" lon="4.77882">
        <ele>166</ele>
        <time>2017-05-10T09:40:38Z</time>
      </trkpt>
      <trkpt lat="45.93754" lon="4.77876">
        <ele>166</ele>
        <time>2017-05-10T09:40:39Z</time>
      </trkpt>
      <trkpt lat="45.93749" lon="4.77871">
        <ele>167</ele>
        <time>2017-05-10T09:40:40Z</time>
      </trkpt>
      <trkpt lat="45.93744" lon="4.77864">
        <ele>167</ele>
        <time>2017-05-10T09:40:41Z</time>
      </trkpt>
      <trkpt lat="45.9374" lon="4.77859">
        <ele>167</ele>
        <time>2017-05-10T09:40:42Z</time>
      </trkpt>
      <trkpt lat="45.93736" lon="4.77853">
        <ele>167</ele>
        <time>2017-05-10T09:40:43Z</time>
      </trkpt>
      <trkpt lat="45.93731" lon="4.77847">
        <ele>167</ele>
        <time>2017-05-10T09:40:44Z</time>
      </trkpt>
      <trkpt lat="45.93727" lon="4.77841">
        <ele>167</ele>
        <time>2017-05-10T09:40:45Z</time>
      </trkpt>
      <trkpt lat="45.93722" lon="4.77835">
        <ele>167</ele>
        <time>2017-05-10T09:40:46Z</time>
      </trkpt>
      <trkpt lat="45.93717" lon="4.77828">
        <ele>168</ele>
        <time>2017-05-10T09:40:47Z</time>
      </trkpt>
      <trkpt lat="45.93713" lon="4.77822">
        <ele>169</ele>
        <time>2017-05-10T09:40:48Z</time>
      </trkpt>
      <trkpt lat="45.93708" lon="4.77816">
        <ele>169</ele>
        <time>2017-05-10T09:40:49Z</time>
      </trkpt>
      <trkpt lat="45.93703" lon="4.7781">
        <ele>169</ele>
        <time>2017-05-10T09:40:50Z</time>
      </trkpt>
      <trkpt lat="45.93698" lon="4.77803">
        <ele>169</ele>
        <time>2017-05-10T09:40:51Z</time>
      </trkpt>
      <trkpt lat="45.93693" lon="4.77797">
        <ele>169</ele>
        <time>2017-05-10T09:40:52Z</time>
      </trkpt>
      <trkpt lat="45.93688" lon="4.7779">
        <ele>170</ele>
        <time>2017-05-10T09:40:53Z</time>
      </trkpt>
      <trkpt lat="45.93684" lon="4.77783">
        <ele>170</ele>
        <time>2017-05-10T09:40:54Z</time>
      </trkpt>
      <trkpt lat="45.93679" lon="4.77776">
        <ele>170</ele>
        <time>2017-05-10T09:40:55Z</time>
      </trkpt>
      <trkpt lat="45.93673" lon="4.77769">
        <ele>170</ele>
        <time>2017-05-10T09:40:56Z</time>
      </trkpt>
      <trkpt lat="45.93669" lon="4.77761">
        <ele>170</ele>
        <time>2017-05-10T09:40:57Z</time>
      </trkpt>
      <trkpt lat="45.93664" lon="4.77753">
        <ele>171</ele>
        <time>2017-05-10T09:40:58Z</time>
      </trkpt>
      <trkpt lat="45.93659" lon="4.77745">
        <ele>170</ele>
        <time>2017-05-10T09:40:59Z</time>
      </trkpt>
      <trkpt lat="45.93654" lon="4.77736">
        <ele>170</ele>
        <time>2017-05-10T09:41:00Z</time>
      </trkpt>
      <trkpt lat="45.93649" lon="4.77727">
        <ele>170</ele>
        <time>2017-05-10T09:41:01Z</time>
      </trkpt>
      <trkpt lat="45.93643" lon="4.77717">
        <ele>170</ele>
        <time>2017-05-10T09:41:02Z</time>
      </trkpt>
      <trkpt lat="45.93638" lon="4.77708">
        <ele>170</ele>
        <time>2017-05-10T09:41:03Z</time>
      </trkpt>
      <trkpt lat="45.93633" lon="4.77698">
        <ele>169</ele>
        <time>2017-05-10T09:41:04Z</time>
      </trkpt>
      <trkpt lat="45.93628" lon="4.77687">
        <ele>169</ele>
        <time>2017-05-10T09:41:05Z</time>
      </trkpt>
      <trkpt lat="45.93623" lon="4.77677">
        <ele>169</ele>
        <time>2017-05-10T09:41:06Z</time>
      </trkpt>
      <trkpt lat="45.93618" lon="4.77667">
        <ele>169</ele>
        <time>2017-05-10T09:41:07Z</time>
      </trkpt>
      <trkpt lat="45.93614" lon="4.77656">
        <ele>169</ele>
        <time>2017-05-10T09:41:08Z</time>
      </trkpt>
      <trkpt lat="45.93609" lon="4.77646">
        <ele>169</ele>
        <time>2017-05-10T09:41:09Z</time>
      </trkpt>
      <trkpt lat="45.93605" lon="4.77636">
        <ele>169</ele>
        <time>2017-05-10T09:41:10Z</time>
      </trkpt>
      <trkpt lat="45.93601" lon="4.77626">
        <ele>169</ele>
        <time>2017-05-10T09:41:11Z</time>
      </trkpt>
      <trkpt lat="45.93597" lon="4.77616">
        <ele>170</ele>
        <time>2017-05-10T09:41:12Z</time>
      </trkpt>
      <trkpt lat="45.93594" lon="4.77606">
        <ele>170</ele>
        <time>2017-05-10T09:41:13Z</time>
      </trkpt>
      <trkpt lat="45.93591" lon="4.77597">
        <ele>170</ele>
        <time>2017-05-10T09:41:14Z</time>
      </trkpt>
      <trkpt lat="45.93588" lon="4.77588">
        <ele>170</ele>
        <time>2017-05-10T09:41:15Z</time>
      </trkpt>
      <trkpt lat="45.93584" lon="4.77578">
        <ele>170</ele>
        <time>2017-05-10T09:41:16Z</time>
      </trkpt>
      <trkpt lat="45.93582" lon="4.77569">
        <ele>170</ele>
        <time>2017-05-10T09:41:17Z</time>
      </trkpt>
      <trkpt lat="45.93579" lon="4.7756">
        <ele>169</ele>
        <time>2017-05-10T09:41:18Z</time>
      </trkpt>
      <trkpt lat="45.93577" lon="4.77551">
        <ele>169</ele>
        <time>2017-05-10T09:41:19Z</time>
      </trkpt>
      <trkpt lat="45.93574" lon="4.77542">
        <ele>169</ele>
        <time>2017-05-10T09:41:20Z</time>
      </trkpt>
      <trkpt lat="45.93572" lon="4.77533">
        <ele>169</ele>
        <time>2017-05-10T09:41:21Z</time>
      </trkpt>
      <trkpt lat="45.9357" lon="4.77524">
        <ele>169</ele>
        <time>2017-05-10T09:41:22Z</time>
      </trkpt>
      <trkpt lat="45.93568" lon="4.77516">
        <ele>169</ele>
        <time>2017-05-10T09:41:23Z</time>
      </trkpt>
      <trkpt lat="45.93567" lon="4.77507">
        <ele>169</ele>
        <time>2017-05-10T09:41:24Z</time>
      </trkpt>
      <trkpt lat="45.93565" lon="4.77499">
        <ele>169</ele>
        <time>2017-05-10T09:41:25Z</time>
      </trkpt>
      <trkpt lat="45.93563" lon="4.77491">
        <ele>169</ele>
        <time>2017-05-10T09:41:26Z</time>
      </trkpt>
      <trkpt lat="45.93561" lon="4.77482">
        <ele>169</ele>
        <time>2017-05-10T09:41:27Z</time>
      </trkpt>
      <trkpt lat="45.9356" lon="4.77474">
        <ele>169</ele>
        <time>2017-05-10T09:41:28Z</time>
      </trkpt>
      <trkpt lat="45.93558" lon="4.77466">
        <ele>169</ele>
        <time>2017-05-10T09:41:29Z</time>
      </trkpt>
      <trkpt lat="45.93556" lon="4.77459">
        <ele>169</ele>
        <time>2017-05-10T09:41:30Z</time>
      </trkpt>
      <trkpt lat="45.93555" lon="4.77451">
        <ele>169</ele>
        <time>2017-05-10T09:41:31Z</time>
      </trkpt>
      <trkpt lat="45.93553" lon="4.77443">
        <ele>169</ele>
        <time>2017-05-10T09:41:32Z</time>
      </trkpt>
      <trkpt lat="45.93551" lon="4.77435">
        <ele>169</ele>
        <time>2017-05-10T09:41:33Z</time>
      </trkpt>
      <trkpt lat="45.9355" lon="4.77426">
        <ele>170</ele>
        <time>2017-05-10T09:41:34Z</time>
      </trkpt>
      <trkpt lat="45.93548" lon="4.77417">
        <ele>170</ele>
        <time>2017-05-10T09:41:35Z</time>
      </trkpt>
      <trkpt lat="45.93546" lon="4.77408">
        <ele>170</ele>
        <time>2017-05-10T09:41:36Z</time>
      </trkpt>
      <trkpt lat="45.93544" lon="4.77399">
        <ele>170</ele>
        <time>2017-05-10T09:41:37Z</time>
      </trkpt>
      <trkpt lat="45.93542" lon="4.7739">
        <ele>170</ele>
        <time>2017-05-10T09:41:38Z</time>
      </trkpt>
      <trkpt lat="45.9354" lon="4.77381">
        <ele>170</ele>
        <time>2017-05-10T09:41:39Z</time>
      </trkpt>
      <trkpt lat="45.93538" lon="4.77372">
        <ele>170</ele>
        <time>2017-05-10T09:41:40Z</time>
      </trkpt>
      <trkpt lat="45.93536" lon="4.77363">
        <ele>170</ele>
        <time>2017-05-10T09:41:41Z</time>
      </trkpt>
      <trkpt lat="45.93534" lon="4.77355">
        <ele>170</ele>
        <time>2017-05-10T09:41:42Z</time>
      </trkpt>
      <trkpt lat="45.93533" lon="4.77346">
        <ele>170</ele>
        <time>2017-05-10T09:41:43Z</time>
      </trkpt>
      <trkpt lat="45.93531" lon="4.77338">
        <ele>170</ele>
        <time>2017-05-10T09:41:44Z</time>
      </trkpt>
      <trkpt lat="45.93529" lon="4.77329">
        <ele>170</ele>
        <time>2017-05-10T09:41:45Z</time>
      </trkpt>
      <trkpt lat="45.93527" lon="4.77321">
        <ele>170</ele>
        <time>2017-05-10T09:41:46Z</time>
      </trkpt>
      <trkpt lat="45.93525" lon="4.77314">
        <ele>170</ele>
        <time>2017-05-10T09:41:47Z</time>
      </trkpt>
      <trkpt lat="45.93523" lon="4.77306">
        <ele>170</ele>
        <time>2017-05-10T09:41:48Z</time>
      </trkpt>
      <trkpt lat="45.93521" lon="4.77298">
        <ele>170</ele>
        <time>2017-05-10T09:41:49Z</time>
      </trkpt>
      <trkpt lat="45.93519" lon="4.77291">
        <ele>170</ele>
        <time>2017-05-10T09:41:50Z</time>
      </trkpt>
      <trkpt lat="45.93518" lon="4.77283">
        <ele>170</ele>
        <time>2017-05-10T09:41:51Z</time>
      </trkpt>
      <trkpt lat="45.93516" lon="4.77275">
        <ele>170</ele>
        <time>2017-05-10T09:41:52Z</time>
      </trkpt>
      <trkpt lat="45.93514" lon="4.77266">
        <ele>170</ele>
        <time>2017-05-10T09:41:53Z</time>
      </trkpt>
      <trkpt lat="45.93512" lon="4.77258">
        <ele>170</ele>
        <time>2017-05-10T09:41:54Z</time>
      </trkpt>
      <trkpt lat="45.9351" lon="4.77249">
        <ele>169</ele>
        <time>2017-05-10T09:41:55Z</time>
      </trkpt>
      <trkpt lat="45.93509" lon="4.77241">
        <ele>169</ele>
        <time>2017-05-10T09:41:56Z</time>
      </trkpt>
      <trkpt lat="45.93507" lon="4.77232">
        <ele>169</ele>
        <time>2017-05-10T09:41:57Z</time>
      </trkpt>
      <trkpt lat="45.93504" lon="4.77223">
        <ele>169</ele>
        <time>2017-05-10T09:41:58Z</time>
      </trkpt>
      <trkpt lat="45.93503" lon="4.77214">
        <ele>169</ele>
        <time>2017-05-10T09:41:59Z</time>
      </trkpt>
      <trkpt lat="45.93501" lon="4.77205">
        <ele>169</ele>
        <time>2017-05-10T09:42:00Z</time>
      </trkpt>
      <trkpt lat="45.93499" lon="4.77197">
        <ele>169</ele>
        <time>2017-05-10T09:42:01Z</time>
      </trkpt>
      <trkpt lat="45.93497" lon="4.77189">
        <ele>169</ele>
        <time>2017-05-10T09:42:02Z</time>
      </trkpt>
      <trkpt lat="45.93496" lon="4.7718">
        <ele>169</ele>
        <time>2017-05-10T09:42:03Z</time>
      </trkpt>
      <trkpt lat="45.93494" lon="4.77172">
        <ele>169</ele>
        <time>2017-05-10T09:42:04Z</time>
      </trkpt>
      <trkpt lat="45.93493" lon="4.77165">
        <ele>169</ele>
        <time>2017-05-10T09:42:05Z</time>
      </trkpt>
      <trkpt lat="45.93491" lon="4.77157">
        <ele>169</ele>
        <time>2017-05-10T09:42:06Z</time>
      </trkpt>
      <trkpt lat="45.9349" lon="4.7715">
        <ele>169</ele>
        <time>2017-05-10T09:42:07Z</time>
      </trkpt>
      <trkpt lat="45.93489" lon="4.77143">
        <ele>169</ele>
        <time>2017-05-10T09:42:08Z</time>
      </trkpt>
      <trkpt lat="45.93487" lon="4.77136">
        <ele>169</ele>
        <time>2017-05-10T09:42:09Z</time>
      </trkpt>
      <trkpt lat="45.93486" lon="4.77129">
        <ele>169</ele>
        <time>2017-05-10T09:42:10Z</time>
      </trkpt>
      <trkpt lat="45.93484" lon="4.77121">
        <ele>169</ele>
        <time>2017-05-10T09:42:11Z</time>
      </trkpt>
      <trkpt lat="45.93483" lon="4.77114">
        <ele>169</ele>
        <time>2017-05-10T09:42:12Z</time>
      </trkpt>
      <trkpt lat="45.93481" lon="4.77107">
        <ele>169</ele>
        <time>2017-05-10T09:42:13Z</time>
      </trkpt>
      <trkpt lat="45.9348" lon="4.77099">
        <ele>169</ele>
        <time>2017-05-10T09:42:14Z</time>
      </trkpt>
      <trkpt lat="45.93479" lon="4.77091">
        <ele>169</ele>
        <time>2017-05-10T09:42:15Z</time>
      </trkpt>
      <trkpt lat="45.93477" lon="4.77084">
        <ele>169</ele>
        <time>2017-05-10T09:42:16Z</time>
      </trkpt>
      <trkpt lat="45.93476" lon="4.77076">
        <ele>170</ele>
        <time>2017-05-10T09:42:17Z</time>
      </trkpt>
      <trkpt lat="45.93474" lon="4.77068">
        <ele>170</ele>
        <time>2017-05-10T09:42:18Z</time>
      </trkpt>
      <trkpt lat="45.93473" lon="4.7706">
        <ele>170</ele>
        <time>2017-05-10T09:42:19Z</time>
      </trkpt>
      <trkpt lat="45.93471" lon="4.77052">
        <ele>170</ele>
        <time>2017-05-10T09:42:20Z</time>
      </trkpt>
      <trkpt lat="45.9347" lon="4.77044">
        <ele>170</ele>
        <time>2017-05-10T09:42:21Z</time>
      </trkpt>
      <trkpt lat="45.93468" lon="4.77036">
        <ele>170</ele>
        <time>2017-05-10T09:42:22Z</time>
      </trkpt>
      <trkpt lat="45.93467" lon="4.77028">
        <ele>170</ele>
        <time>2017-05-10T09:42:23Z</time>
      </trkpt>
      <trkpt lat="45.93466" lon="4.7702">
        <ele>170</ele>
        <time>2017-05-10T09:42:24Z</time>
      </trkpt>
      <trkpt lat="45.93465" lon="4.77013">
        <ele>170</ele>
        <time>2017-05-10T09:42:25Z</time>
      </trkpt>
      <trkpt lat="45.93464" lon="4.77005">
        <ele>170</ele>
        <time>2017-05-10T09:42:26Z</time>
      </trkpt>
      <trkpt lat="45.93462" lon="4.76997">
        <ele>170</ele>
        <time>2017-05-10T09:42:27Z</time>
      </trkpt>
      <trkpt lat="45.93461" lon="4.76989">
        <ele>170</ele>
        <time>2017-05-10T09:42:28Z</time>
      </trkpt>
      <trkpt lat="45.9346" lon="4.7698">
        <ele>170</ele>
        <time>2017-05-10T09:42:29Z</time>
      </trkpt>
      <trkpt lat="45.93459" lon="4.76971">
        <ele>170</ele>
        <time>2017-05-10T09:42:30Z</time>
      </trkpt>
      <trkpt lat="45.93458" lon="4.76962">
        <ele>170</ele>
        <time>2017-05-10T09:42:31Z</time>
      </trkpt>
      <trkpt lat="45.93456" lon="4.76953">
        <ele>170</ele>
        <time>2017-05-10T09:42:32Z</time>
      </trkpt>
      <trkpt lat="45.93455" lon="4.76944">
        <ele>170</ele>
        <time>2017-05-10T09:42:33Z</time>
      </trkpt>
      <trkpt lat="45.93454" lon="4.76935">
        <ele>170</ele>
        <time>2017-05-10T09:42:34Z</time>
      </trkpt>
      <trkpt lat="45.93452" lon="4.76926">
        <ele>170</ele>
        <time>2017-05-10T09:42:35Z</time>
      </trkpt>
      <trkpt lat="45.9345" lon="4.76917">
        <ele>170</ele>
        <time>2017-05-10T09:42:36Z</time>
      </trkpt>
      <trkpt lat="45.93448" lon="4.76909">
        <ele>170</ele>
        <time>2017-05-10T09:42:37Z</time>
      </trkpt>
      <trkpt lat="45.93446" lon="4.76901">
        <ele>170</ele>
        <time>2017-05-10T09:42:38Z</time>
      </trkpt>
      <trkpt lat="45.93444" lon="4.76893">
        <ele>170</ele>
        <time>2017-05-10T09:42:39Z</time>
      </trkpt>
      <trkpt lat="45.93441" lon="4.76886">
        <ele>170</ele>
        <time>2017-05-10T09:42:40Z</time>
      </trkpt>
      <trkpt lat="45.93439" lon="4.76879">
        <ele>171</ele>
        <time>2017-05-10T09:42:41Z</time>
      </trkpt>
      <trkpt lat="45.93436" lon="4.76872">
        <ele>171</ele>
        <time>2017-05-10T09:42:42Z</time>
      </trkpt>
      <trkpt lat="45.93433" lon="4.76866">
        <ele>171</ele>
        <time>2017-05-10T09:42:43Z</time>
      </trkpt>
      <trkpt lat="45.9343" lon="4.76859">
        <ele>171</ele>
        <time>2017-05-10T09:42:44Z</time>
      </trkpt>
      <trkpt lat="45.93426" lon="4.76853">
        <ele>171</ele>
        <time>2017-05-10T09:42:45Z</time>
      </trkpt>
      <trkpt lat="45.93423" lon="4.76846">
        <ele>171</ele>
        <time>2017-05-10T09:42:46Z</time>
      </trkpt>
      <trkpt lat="45.93419" lon="4.76838">
        <ele>172</ele>
        <time>2017-05-10T09:42:47Z</time>
      </trkpt>
      <trkpt lat="45.93416" lon="4.76831">
        <ele>172</ele>
        <time>2017-05-10T09:42:48Z</time>
      </trkpt>
      <trkpt lat="45.93412" lon="4.76824">
        <ele>172</ele>
        <time>2017-05-10T09:42:49Z</time>
      </trkpt>
      <trkpt lat="45.93407" lon="4.76818">
        <ele>172</ele>
        <time>2017-05-10T09:42:50Z</time>
      </trkpt>
      <trkpt lat="45.93403" lon="4.76812">
        <ele>172</ele>
        <time>2017-05-10T09:42:51Z</time>
      </trkpt>
      <trkpt lat="45.93398" lon="4.76806">
        <ele>172</ele>
        <time>2017-05-10T09:42:52Z</time>
      </trkpt>
      <trkpt lat="45.93393" lon="4.768">
        <ele>172</ele>
        <time>2017-05-10T09:42:53Z</time>
      </trkpt>
      <trkpt lat="45.93389" lon="4.76795">
        <ele>172</ele>
        <time>2017-05-10T09:42:54Z</time>
      </trkpt>
      <trkpt lat="45.93384" lon="4.76789">
        <ele>172</ele>
        <time>2017-05-10T09:42:55Z</time>
      </trkpt>
      <trkpt lat="45.93379" lon="4.76784">
        <ele>172</ele>
        <time>2017-05-10T09:42:56Z</time>
      </trkpt>
      <trkpt lat="45.93374" lon="4.7678">
        <ele>172</ele>
        <time>2017-05-10T09:42:57Z</time>
      </trkpt>
      <trkpt lat="45.9337" lon="4.76775">
        <ele>172</ele>
        <time>2017-05-10T09:42:58Z</time>
      </trkpt>
      <trkpt lat="45.93365" lon="4.7677">
        <ele>172</ele>
        <time>2017-05-10T09:42:59Z</time>
      </trkpt>
      <trkpt lat="45.93361" lon="4.76766">
        <ele>172</ele>
        <time>2017-05-10T09:43:00Z</time>
      </trkpt>
      <trkpt lat="45.93357" lon="4.76761">
        <ele>172</ele>
        <time>2017-05-10T09:43:01Z</time>
      </trkpt>
      <trkpt lat="45.93352" lon="4.76756">
        <ele>172</ele>
        <time>2017-05-10T09:43:02Z</time>
      </trkpt>
      <trkpt lat="45.93348" lon="4.76751">
        <ele>172</ele>
        <time>2017-05-10T09:43:03Z</time>
      </trkpt>
      <trkpt lat="45.93343" lon="4.76747">
        <ele>173</ele>
        <time>2017-05-10T09:43:04Z</time>
      </trkpt>
      <trkpt lat="45.93339" lon="4.76743">
        <ele>173</ele>
        <time>2017-05-10T09:43:05Z</time>
      </trkpt>
      <trkpt lat="45.93334" lon="4.76739">
        <ele>173</ele>
        <time>2017-05-10T09:43:06Z</time>
      </trkpt>
      <trkpt lat="45.9333" lon="4.76734">
        <ele>172</ele>
        <time>2017-05-10T09:43:07Z</time>
      </trkpt>
      <trkpt lat="45.93325" lon="4.7673">
        <ele>172</ele>
        <time>2017-05-10T09:43:08Z</time>
      </trkpt>
      <trkpt lat="45.93321" lon="4.76726">
        <ele>172</ele>
        <time>2017-05-10T09:43:09Z</time>
      </trkpt>
      <trkpt lat="45.93317" lon="4.76722">
        <ele>172</ele>
        <time>2017-05-10T09:43:10Z</time>
      </trkpt>
      <trkpt lat="45.93312" lon="4.76717">
        <ele>172</ele>
        <time>2017-05-10T09:43:11Z</time>
      </trkpt>
      <trkpt lat="45.93308" lon="4.76713">
        <ele>172</ele>
        <time>2017-05-10T09:43:12Z</time>
      </trkpt>
      <trkpt lat="45.93304" lon="4.76709">
        <ele>172</ele>
        <time>2017-05-10T09:43:13Z</time>
      </trkpt>
      <trkpt lat="45.93299" lon="4.76705">
        <ele>172</ele>
        <time>2017-05-10T09:43:14Z</time>
      </trkpt>
      <trkpt lat="45.93295" lon="4.767">
        <ele>172</ele>
        <time>2017-05-10T09:43:15Z</time>
      </trkpt>
      <trkpt lat="45.9329" lon="4.76697">
        <ele>172</ele>
        <time>2017-05-10T09:43:16Z</time>
      </trkpt>
      <trkpt lat="45.93285" lon="4.76692">
        <ele>172</ele>
        <time>2017-05-10T09:43:17Z</time>
      </trkpt>
      <trkpt lat="45.93281" lon="4.76688">
        <ele>172</ele>
        <time>2017-05-10T09:43:18Z</time>
      </trkpt>
      <trkpt lat="45.93276" lon="4.76684">
        <ele>172</ele>
        <time>2017-05-10T09:43:19Z</time>
      </trkpt>
      <trkpt lat="45.93272" lon="4.76679">
        <ele>172</ele>
        <time>2017-05-10T09:43:20Z</time>
      </trkpt>
      <trkpt lat="45.93267" lon="4.76675">
        <ele>172</ele>
        <time>2017-05-10T09:43:21Z</time>
      </trkpt>
      <trkpt lat="45.93263" lon="4.7667">
        <ele>172</ele>
        <time>2017-05-10T09:43:22Z</time>
      </trkpt>
      <trkpt lat="45.93259" lon="4.76666">
        <ele>171</ele>
        <time>2017-05-10T09:43:23Z</time>
      </trkpt>
      <trkpt lat="45.93255" lon="4.76662">
        <ele>171</ele>
        <time>2017-05-10T09:43:24Z</time>
      </trkpt>
      <trkpt lat="45.9325" lon="4.76658">
        <ele>171</ele>
        <time>2017-05-10T09:43:25Z</time>
      </trkpt>
      <trkpt lat="45.93246" lon="4.76653">
        <ele>171</ele>
        <time>2017-05-10T09:43:26Z</time>
      </trkpt>
      <trkpt lat="45.93241" lon="4.76648">
        <ele>171</ele>
        <time>2017-05-10T09:43:27Z</time>
      </trkpt>
      <trkpt lat="45.93236" lon="4.76643">
        <ele>171</ele>
        <time>2017-05-10T09:43:28Z</time>
      </trkpt>
      <trkpt lat="45.93231" lon="4.76638">
        <ele>171</ele>
        <time>2017-05-10T09:43:29Z</time>
      </trkpt>
      <trkpt lat="45.93226" lon="4.76634">
        <ele>171</ele>
        <time>2017-05-10T09:43:30Z</time>
      </trkpt>
      <trkpt lat="45.93222" lon="4.76628">
        <ele>170</ele>
        <time>2017-05-10T09:43:31Z</time>
      </trkpt>
      <trkpt lat="45.93216" lon="4.76623">
        <ele>170</ele>
        <time>2017-05-10T09:43:32Z</time>
      </trkpt>
      <trkpt lat="45.93211" lon="4.76617">
        <ele>170</ele>
        <time>2017-05-10T09:43:33Z</time>
      </trkpt>
      <trkpt lat="45.93206" lon="4.76612">
        <ele>170</ele>
        <time>2017-05-10T09:43:34Z</time>
      </trkpt>
      <trkpt lat="45.93201" lon="4.76606">
        <ele>170</ele>
        <time>2017-05-10T09:43:35Z</time>
      </trkpt>
      <trkpt lat="45.93196" lon="4.766">
        <ele>170</ele>
        <time>2017-05-10T09:43:36Z</time>
      </trkpt>
      <trkpt lat="45.93191" lon="4.76596">
        <ele>170</ele>
        <time>2017-05-10T09:43:37Z</time>
      </trkpt>
      <trkpt lat="45.93186" lon="4.76591">
        <ele>171</ele>
        <time>2017-05-10T09:43:38Z</time>
      </trkpt>
      <trkpt lat="45.93181" lon="4.76586">
        <ele>171</ele>
        <time>2017-05-10T09:43:39Z</time>
      </trkpt>
      <trkpt lat="45.93176" lon="4.76581">
        <ele>170</ele>
        <time>2017-05-10T09:43:40Z</time>
      </trkpt>
      <trkpt lat="45.93171" lon="4.76577">
        <ele>170</ele>
        <time>2017-05-10T09:43:41Z</time>
      </trkpt>
      <trkpt lat="45.93166" lon="4.76572">
        <ele>170</ele>
        <time>2017-05-10T09:43:42Z</time>
      </trkpt>
      <trkpt lat="45.93162" lon="4.76567">
        <ele>170</ele>
        <time>2017-05-10T09:43:43Z</time>
      </trkpt>
      <trkpt lat="45.93157" lon="4.76563">
        <ele>170</ele>
        <time>2017-05-10T09:43:44Z</time>
      </trkpt>
      <trkpt lat="45.93152" lon="4.76558">
        <ele>170</ele>
        <time>2017-05-10T09:43:45Z</time>
      </trkpt>
      <trkpt lat="45.93147" lon="4.76554">
        <ele>170</ele>
        <time>2017-05-10T09:43:46Z</time>
      </trkpt>
      <trkpt lat="45.93142" lon="4.7655">
        <ele>170</ele>
        <time>2017-05-10T09:43:47Z</time>
      </trkpt>
      <trkpt lat="45.93137" lon="4.76546">
        <ele>170</ele>
        <time>2017-05-10T09:43:48Z</time>
      </trkpt>
      <trkpt lat="45.93132" lon="4.76542">
        <ele>170</ele>
        <time>2017-05-10T09:43:49Z</time>
      </trkpt>
      <trkpt lat="45.93128" lon="4.76538">
        <ele>170</ele>
        <time>2017-05-10T09:43:50Z</time>
      </trkpt>
      <trkpt lat="45.93124" lon="4.76534">
        <ele>170</ele>
        <time>2017-05-10T09:43:51Z</time>
      </trkpt>
      <trkpt lat="45.9312" lon="4.7653">
        <ele>170</ele>
        <time>2017-05-10T09:43:52Z</time>
      </trkpt>
      <trkpt lat="45.93116" lon="4.76525">
        <ele>170</ele>
        <time>2017-05-10T09:43:53Z</time>
      </trkpt>
      <trkpt lat="45.93112" lon="4.7652">
        <ele>170</ele>
        <time>2017-05-10T09:43:54Z</time>
      </trkpt>
      <trkpt lat="45.93108" lon="4.76516">
        <ele>170</ele>
        <time>2017-05-10T09:43:55Z</time>
      </trkpt>
      <trkpt lat="45.93104" lon="4.76512">
        <ele>170</ele>
        <time>2017-05-10T09:43:56Z</time>
      </trkpt>
      <trkpt lat="45.93099" lon="4.76507">
        <ele>170</ele>
        <time>2017-05-10T09:43:57Z</time>
      </trkpt>
      <trkpt lat="45.93094" lon="4.76502">
        <ele>170</ele>
        <time>2017-05-10T09:43:58Z</time>
      </trkpt>
      <trkpt lat="45.93089" lon="4.76497">
        <ele>170</ele>
        <time>2017-05-10T09:43:59Z</time>
      </trkpt>
      <trkpt lat="45.93084" lon="4.76492">
        <ele>170</ele>
        <time>2017-05-10T09:44:00Z</time>
      </trkpt>
      <trkpt lat="45.93079" lon="4.76487">
        <ele>170</ele>
        <time>2017-05-10T09:44:01Z</time>
      </trkpt>
      <trkpt lat="45.93074" lon="4.76482">
        <ele>169</ele>
        <time>2017-05-10T09:44:02Z</time>
      </trkpt>
      <trkpt lat="45.93069" lon="4.76477">
        <ele>169</ele>
        <time>2017-05-10T09:44:03Z</time>
      </trkpt>
      <trkpt lat="45.93065" lon="4.76473">
        <ele>169</ele>
        <time>2017-05-10T09:44:04Z</time>
      </trkpt>
      <trkpt lat="45.9306" lon="4.76468">
        <ele>169</ele>
        <time>2017-05-10T09:44:05Z</time>
      </trkpt>
      <trkpt lat="45.93056" lon="4.76464">
        <ele>169</ele>
        <time>2017-05-10T09:44:06Z</time>
      </trkpt>
      <trkpt lat="45.93051" lon="4.7646">
        <ele>169</ele>
        <time>2017-05-10T09:44:07Z</time>
      </trkpt>
      <trkpt lat="45.93047" lon="4.76455">
        <ele>169</ele>
        <time>2017-05-10T09:44:08Z</time>
      </trkpt>
      <trkpt lat="45.93044" lon="4.76451">
        <ele>169</ele>
        <time>2017-05-10T09:44:09Z</time>
      </trkpt>
      <trkpt lat="45.9304" lon="4.76447">
        <ele>169</ele>
        <time>2017-05-10T09:44:10Z</time>
      </trkpt>
      <trkpt lat="45.93035" lon="4.76442">
        <ele>169</ele>
        <time>2017-05-10T09:44:11Z</time>
      </trkpt>
      <trkpt lat="45.93031" lon="4.76438">
        <ele>169</ele>
        <time>2017-05-10T09:44:12Z</time>
      </trkpt>
      <trkpt lat="45.93027" lon="4.76434">
        <ele>169</ele>
        <time>2017-05-10T09:44:13Z</time>
      </trkpt>
      <trkpt lat="45.93022" lon="4.7643">
        <ele>169</ele>
        <time>2017-05-10T09:44:14Z</time>
      </trkpt>
      <trkpt lat="45.93018" lon="4.76426">
        <ele>169</ele>
        <time>2017-05-10T09:44:15Z</time>
      </trkpt>
      <trkpt lat="45.93014" lon="4.76422">
        <ele>169</ele>
        <time>2017-05-10T09:44:16Z</time>
      </trkpt>
      <trkpt lat="45.93009" lon="4.76418">
        <ele>169</ele>
        <time>2017-05-10T09:44:17Z</time>
      </trkpt>
      <trkpt lat="45.93005" lon="4.76414">
        <ele>169</ele>
        <time>2017-05-10T09:44:18Z</time>
      </trkpt>
      <trkpt lat="45.93" lon="4.76409">
        <ele>169</ele>
        <time>2017-05-10T09:44:19Z</time>
      </trkpt>
      <trkpt lat="45.92996" lon="4.76404">
        <ele>169</ele>
        <time>2017-05-10T09:44:20Z</time>
      </trkpt>
      <trkpt lat="45.92991" lon="4.764">
        <ele>169</ele>
        <time>2017-05-10T09:44:21Z</time>
      </trkpt>
      <trkpt lat="45.92986" lon="4.76395">
        <ele>169</ele>
        <time>2017-05-10T09:44:22Z</time>
      </trkpt>
      <trkpt lat="45.9298" lon="4.7639">
        <ele>169</ele>
        <time>2017-05-10T09:44:23Z</time>
      </trkpt>
      <trkpt lat="45.92975" lon="4.76386">
        <ele>169</ele>
        <time>2017-05-10T09:44:24Z</time>
      </trkpt>
      <trkpt lat="45.9297" lon="4.76381">
        <ele>169</ele>
        <time>2017-05-10T09:44:25Z</time>
      </trkpt>
      <trkpt lat="45.92966" lon="4.76376">
        <ele>169</ele>
        <time>2017-05-10T09:44:26Z</time>
      </trkpt>
      <trkpt lat="45.92962" lon="4.76372">
        <ele>169</ele>
        <time>2017-05-10T09:44:27Z</time>
      </trkpt>
      <trkpt lat="45.92957" lon="4.76367">
        <ele>169</ele>
        <time>2017-05-10T09:44:28Z</time>
      </trkpt>
      <trkpt lat="45.92953" lon="4.76362">
        <ele>169</ele>
        <time>2017-05-10T09:44:29Z</time>
      </trkpt>
      <trkpt lat="45.92949" lon="4.76358">
        <ele>169</ele>
        <time>2017-05-10T09:44:30Z</time>
      </trkpt>
      <trkpt lat="45.92945" lon="4.76354">
        <ele>169</ele>
        <time>2017-05-10T09:44:31Z</time>
      </trkpt>
      <trkpt lat="45.92942" lon="4.7635">
        <ele>169</ele>
        <time>2017-05-10T09:44:32Z</time>
      </trkpt>
      <trkpt lat="45.92938" lon="4.76346">
        <ele>169</ele>
        <time>2017-05-10T09:44:33Z</time>
      </trkpt>
      <trkpt lat="45.92934" lon="4.76341">
        <ele>169</ele>
        <time>2017-05-10T09:44:34Z</time>
      </trkpt>
      <trkpt lat="45.9293" lon="4.76337">
        <ele>169</ele>
        <time>2017-05-10T09:44:35Z</time>
      </trkpt>
      <trkpt lat="45.92926" lon="4.76332">
        <ele>169</ele>
        <time>2017-05-10T09:44:36Z</time>
      </trkpt>
      <trkpt lat="45.92922" lon="4.76328">
        <ele>169</ele>
        <time>2017-05-10T09:44:37Z</time>
      </trkpt>
      <trkpt lat="45.92917" lon="4.76324">
        <ele>169</ele>
        <time>2017-05-10T09:44:38Z</time>
      </trkpt>
      <trkpt lat="45.92913" lon="4.76319">
        <ele>169</ele>
        <time>2017-05-10T09:44:39Z</time>
      </trkpt>
      <trkpt lat="45.92908" lon="4.76315">
        <ele>169</ele>
        <time>2017-05-10T09:44:40Z</time>
      </trkpt>
      <trkpt lat="45.92904" lon="4.76311">
        <ele>169</ele>
        <time>2017-05-10T09:44:41Z</time>
      </trkpt>
      <trkpt lat="45.92899" lon="4.76306">
        <ele>169</ele>
        <time>2017-05-10T09:44:42Z</time>
      </trkpt>
      <trkpt lat="45.92894" lon="4.76301">
        <ele>169</ele>
        <time>2017-05-10T09:44:43Z</time>
      </trkpt>
      <trkpt lat="45.92888" lon="4.76296">
        <ele>169</ele>
        <time>2017-05-10T09:44:44Z</time>
      </trkpt>
      <trkpt lat="45.92883" lon="4.76291">
        <ele>169</ele>
        <time>2017-05-10T09:44:45Z</time>
      </trkpt>
      <trkpt lat="45.92878" lon="4.76286">
        <ele>169</ele>
        <time>2017-05-10T09:44:46Z</time>
      </trkpt>
      <trkpt lat="45.92873" lon="4.76282">
        <ele>169</ele>
        <time>2017-05-10T09:44:47Z</time>
      </trkpt>
      <trkpt lat="45.92869" lon="4.76277">
        <ele>169</ele>
        <time>2017-05-10T09:44:48Z</time>
      </trkpt>
      <trkpt lat="45.92864" lon="4.76274">
        <ele>169</ele>
        <time>2017-05-10T09:44:49Z</time>
      </trkpt>
      <trkpt lat="45.9286" lon="4.7627">
        <ele>169</ele>
        <time>2017-05-10T09:44:50Z</time>
      </trkpt>
      <trkpt lat="45.92855" lon="4.76267">
        <ele>169</ele>
        <time>2017-05-10T09:44:51Z</time>
      </trkpt>
      <trkpt lat="45.92851" lon="4.76263">
        <ele>169</ele>
        <time>2017-05-10T09:44:52Z</time>
      </trkpt>
      <trkpt lat="45.92844" lon="4.76256">
        <ele>169</ele>
        <time>2017-05-10T09:44:54Z</time>
      </trkpt>
      <trkpt lat="45.9284" lon="4.76252">
        <ele>169</ele>
        <time>2017-05-10T09:44:55Z</time>
      </trkpt>
      <trkpt lat="45.92837" lon="4.76248">
        <ele>169</ele>
        <time>2017-05-10T09:44:56Z</time>
      </trkpt>
      <trkpt lat="45.92833" lon="4.76244">
        <ele>169</ele>
        <time>2017-05-10T09:44:57Z</time>
      </trkpt>
      <trkpt lat="45.92828" lon="4.76238">
        <ele>168</ele>
        <time>2017-05-10T09:44:58Z</time>
      </trkpt>
      <trkpt lat="45.92824" lon="4.76233">
        <ele>168</ele>
        <time>2017-05-10T09:44:59Z</time>
      </trkpt>
      <trkpt lat="45.92819" lon="4.76229">
        <ele>168</ele>
        <time>2017-05-10T09:45:00Z</time>
      </trkpt>
      <trkpt lat="45.92815" lon="4.76224">
        <ele>168</ele>
        <time>2017-05-10T09:45:01Z</time>
      </trkpt>
      <trkpt lat="45.9281" lon="4.76218">
        <ele>168</ele>
        <time>2017-05-10T09:45:02Z</time>
      </trkpt>
      <trkpt lat="45.92806" lon="4.76213">
        <ele>168</ele>
        <time>2017-05-10T09:45:03Z</time>
      </trkpt>
      <trkpt lat="45.92801" lon="4.76208">
        <ele>168</ele>
        <time>2017-05-10T09:45:04Z</time>
      </trkpt>
      <trkpt lat="45.92796" lon="4.76203">
        <ele>168</ele>
        <time>2017-05-10T09:45:05Z</time>
      </trkpt>
      <trkpt lat="45.92791" lon="4.76199">
        <ele>168</ele>
        <time>2017-05-10T09:45:06Z</time>
      </trkpt>
      <trkpt lat="45.92787" lon="4.76194">
        <ele>168</ele>
        <time>2017-05-10T09:45:07Z</time>
      </trkpt>
      <trkpt lat="45.92782" lon="4.7619">
        <ele>168</ele>
        <time>2017-05-10T09:45:08Z</time>
      </trkpt>
      <trkpt lat="45.92778" lon="4.76186">
        <ele>168</ele>
        <time>2017-05-10T09:45:09Z</time>
      </trkpt>
      <trkpt lat="45.92773" lon="4.76181">
        <ele>167</ele>
        <time>2017-05-10T09:45:10Z</time>
      </trkpt>
      <trkpt lat="45.92769" lon="4.76177">
        <ele>167</ele>
        <time>2017-05-10T09:45:11Z</time>
      </trkpt>
      <trkpt lat="45.92764" lon="4.76173">
        <ele>167</ele>
        <time>2017-05-10T09:45:12Z</time>
      </trkpt>
      <trkpt lat="45.9276" lon="4.7617">
        <ele>167</ele>
        <time>2017-05-10T09:45:13Z</time>
      </trkpt>
      <trkpt lat="45.92756" lon="4.76167">
        <ele>167</ele>
        <time>2017-05-10T09:45:14Z</time>
      </trkpt>
      <trkpt lat="45.92752" lon="4.76163">
        <ele>167</ele>
        <time>2017-05-10T09:45:15Z</time>
      </trkpt>
      <trkpt lat="45.92748" lon="4.76159">
        <ele>167</ele>
        <time>2017-05-10T09:45:16Z</time>
      </trkpt>
      <trkpt lat="45.92743" lon="4.76155">
        <ele>168</ele>
        <time>2017-05-10T09:45:17Z</time>
      </trkpt>
      <trkpt lat="45.92738" lon="4.76151">
        <ele>168</ele>
        <time>2017-05-10T09:45:18Z</time>
      </trkpt>
      <trkpt lat="45.92734" lon="4.76148">
        <ele>168</ele>
        <time>2017-05-10T09:45:19Z</time>
      </trkpt>
      <trkpt lat="45.9273" lon="4.76144">
        <ele>168</ele>
        <time>2017-05-10T09:45:20Z</time>
      </trkpt>
      <trkpt lat="45.92724" lon="4.7614">
        <ele>168</ele>
        <time>2017-05-10T09:45:21Z</time>
      </trkpt>
      <trkpt lat="45.92719" lon="4.76136">
        <ele>168</ele>
        <time>2017-05-10T09:45:22Z</time>
      </trkpt>
      <trkpt lat="45.92714" lon="4.76133">
        <ele>168</ele>
        <time>2017-05-10T09:45:23Z</time>
      </trkpt>
      <trkpt lat="45.92708" lon="4.7613">
        <ele>169</ele>
        <time>2017-05-10T09:45:24Z</time>
      </trkpt>
      <trkpt lat="45.92703" lon="4.76127">
        <ele>169</ele>
        <time>2017-05-10T09:45:25Z</time>
      </trkpt>
      <trkpt lat="45.92698" lon="4.76124">
        <ele>169</ele>
        <time>2017-05-10T09:45:26Z</time>
      </trkpt>
      <trkpt lat="45.92694" lon="4.76121">
        <ele>169</ele>
        <time>2017-05-10T09:45:27Z</time>
      </trkpt>
      <trkpt lat="45.9269" lon="4.76117">
        <ele>169</ele>
        <time>2017-05-10T09:45:28Z</time>
      </trkpt>
      <trkpt lat="45.92685" lon="4.76114">
        <ele>169</ele>
        <time>2017-05-10T09:45:29Z</time>
      </trkpt>
      <trkpt lat="45.92681" lon="4.7611">
        <ele>169</ele>
        <time>2017-05-10T09:45:30Z</time>
      </trkpt>
      <trkpt lat="45.92676" lon="4.76106">
        <ele>169</ele>
        <time>2017-05-10T09:45:31Z</time>
      </trkpt>
      <trkpt lat="45.92672" lon="4.76102">
        <ele>169</ele>
        <time>2017-05-10T09:45:32Z</time>
      </trkpt>
      <trkpt lat="45.92667" lon="4.76099">
        <ele>169</ele>
        <time>2017-05-10T09:45:33Z</time>
      </trkpt>
      <trkpt lat="45.92663" lon="4.76095">
        <ele>170</ele>
        <time>2017-05-10T09:45:34Z</time>
      </trkpt>
      <trkpt lat="45.92658" lon="4.76092">
        <ele>170</ele>
        <time>2017-05-10T09:45:35Z</time>
      </trkpt>
      <trkpt lat="45.92654" lon="4.76088">
        <ele>170</ele>
        <time>2017-05-10T09:45:36Z</time>
      </trkpt>
      <trkpt lat="45.9265" lon="4.76084">
        <ele>170</ele>
        <time>2017-05-10T09:45:37Z</time>
      </trkpt>
      <trkpt lat="45.92645" lon="4.76081">
        <ele>170</ele>
        <time>2017-05-10T09:45:38Z</time>
      </trkpt>
      <trkpt lat="45.92641" lon="4.76078">
        <ele>170</ele>
        <time>2017-05-10T09:45:39Z</time>
      </trkpt>
      <trkpt lat="45.92637" lon="4.76074">
        <ele>170</ele>
        <time>2017-05-10T09:45:40Z</time>
      </trkpt>
      <trkpt lat="45.92632" lon="4.76071">
        <ele>170</ele>
        <time>2017-05-10T09:45:41Z</time>
      </trkpt>
      <trkpt lat="45.92628" lon="4.76068">
        <ele>170</ele>
        <time>2017-05-10T09:45:42Z</time>
      </trkpt>
      <trkpt lat="45.92624" lon="4.76065">
        <ele>171</ele>
        <time>2017-05-10T09:45:43Z</time>
      </trkpt>
      <trkpt lat="45.9262" lon="4.76062">
        <ele>171</ele>
        <time>2017-05-10T09:45:44Z</time>
      </trkpt>
      <trkpt lat="45.92615" lon="4.76059">
        <ele>171</ele>
        <time>2017-05-10T09:45:45Z</time>
      </trkpt>
      <trkpt lat="45.92611" lon="4.76055">
        <ele>171</ele>
        <time>2017-05-10T09:45:46Z</time>
      </trkpt>
      <trkpt lat="45.92607" lon="4.76053">
        <ele>171</ele>
        <time>2017-05-10T09:45:47Z</time>
      </trkpt>
      <trkpt lat="45.92602" lon="4.7605">
        <ele>171</ele>
        <time>2017-05-10T09:45:48Z</time>
      </trkpt>
      <trkpt lat="45.92598" lon="4.76048">
        <ele>171</ele>
        <time>2017-05-10T09:45:49Z</time>
      </trkpt>
      <trkpt lat="45.92591" lon="4.76043">
        <ele>171</ele>
        <time>2017-05-10T09:45:51Z</time>
      </trkpt>
      <trkpt lat="45.92588" lon="4.7604">
        <ele>171</ele>
        <time>2017-05-10T09:45:52Z</time>
      </trkpt>
      <trkpt lat="45.92582" lon="4.76035">
        <ele>172</ele>
        <time>2017-05-10T09:45:54Z</time>
      </trkpt>
      <trkpt lat="45.92578" lon="4.76033">
        <ele>172</ele>
        <time>2017-05-10T09:45:55Z</time>
      </trkpt>
      <trkpt lat="45.92572" lon="4.76029">
        <ele>172</ele>
        <time>2017-05-10T09:45:57Z</time>
      </trkpt>
      <trkpt lat="45.92568" lon="4.76026">
        <ele>172</ele>
        <time>2017-05-10T09:45:58Z</time>
      </trkpt>
      <trkpt lat="45.9256" lon="4.7602">
        <ele>172</ele>
        <time>2017-05-10T09:46:00Z</time>
      </trkpt>
      <trkpt lat="45.92556" lon="4.76017">
        <ele>172</ele>
        <time>2017-05-10T09:46:01Z</time>
      </trkpt>
      <trkpt lat="45.92552" lon="4.76014">
        <ele>172</ele>
        <time>2017-05-10T09:46:02Z</time>
      </trkpt>
      <trkpt lat="45.92548" lon="4.76011">
        <ele>172</ele>
        <time>2017-05-10T09:46:03Z</time>
      </trkpt>
      <trkpt lat="45.92543" lon="4.76008">
        <ele>172</ele>
        <time>2017-05-10T09:46:04Z</time>
      </trkpt>
      <trkpt lat="45.92539" lon="4.76005">
        <ele>172</ele>
        <time>2017-05-10T09:46:05Z</time>
      </trkpt>
      <trkpt lat="45.92532" lon="4.76">
        <ele>172</ele>
        <time>2017-05-10T09:46:07Z</time>
      </trkpt>
      <trkpt lat="45.92528" lon="4.75998">
        <ele>172</ele>
        <time>2017-05-10T09:46:08Z</time>
      </trkpt>
      <trkpt lat="45.92521" lon="4.75993">
        <ele>172</ele>
        <time>2017-05-10T09:46:10Z</time>
      </trkpt>
      <trkpt lat="45.92517" lon="4.7599">
        <ele>172</ele>
        <time>2017-05-10T09:46:11Z</time>
      </trkpt>
      <trkpt lat="45.92509" lon="4.75984">
        <ele>172</ele>
        <time>2017-05-10T09:46:13Z</time>
      </trkpt>
      <trkpt lat="45.92505" lon="4.75981">
        <ele>172</ele>
        <time>2017-05-10T09:46:14Z</time>
      </trkpt>
      <trkpt lat="45.92501" lon="4.75979">
        <ele>172</ele>
        <time>2017-05-10T09:46:15Z</time>
      </trkpt>
      <trkpt lat="45.92496" lon="4.75976">
        <ele>172</ele>
        <time>2017-05-10T09:46:16Z</time>
      </trkpt>
      <trkpt lat="45.92492" lon="4.75973">
        <ele>172</ele>
        <time>2017-05-10T09:46:17Z</time>
      </trkpt>
      <trkpt lat="45.92488" lon="4.7597">
        <ele>172</ele>
        <time>2017-05-10T09:46:18Z</time>
      </trkpt>
      <trkpt lat="45.9248" lon="4.75964">
        <ele>172</ele>
        <time>2017-05-10T09:46:20Z</time>
      </trkpt>
      <trkpt lat="45.92476" lon="4.75961">
        <ele>172</ele>
        <time>2017-05-10T09:46:21Z</time>
      </trkpt>
      <trkpt lat="45.92472" lon="4.75959">
        <ele>172</ele>
        <time>2017-05-10T09:46:22Z</time>
      </trkpt>
      <trkpt lat="45.92467" lon="4.75956">
        <ele>172</ele>
        <time>2017-05-10T09:46:23Z</time>
      </trkpt>
      <trkpt lat="45.92463" lon="4.75953">
        <ele>172</ele>
        <time>2017-05-10T09:46:24Z</time>
      </trkpt>
      <trkpt lat="45.92458" lon="4.7595">
        <ele>172</ele>
        <time>2017-05-10T09:46:25Z</time>
      </trkpt>
      <trkpt lat="45.92454" lon="4.75946">
        <ele>172</ele>
        <time>2017-05-10T09:46:26Z</time>
      </trkpt>
      <trkpt lat="45.92449" lon="4.75943">
        <ele>172</ele>
        <time>2017-05-10T09:46:27Z</time>
      </trkpt>
      <trkpt lat="45.92444" lon="4.7594">
        <ele>172</ele>
        <time>2017-05-10T09:46:28Z</time>
      </trkpt>
      <trkpt lat="45.92438" lon="4.75936">
        <ele>172</ele>
        <time>2017-05-10T09:46:29Z</time>
      </trkpt>
      <trkpt lat="45.92433" lon="4.75933">
        <ele>172</ele>
        <time>2017-05-10T09:46:30Z</time>
      </trkpt>
      <trkpt lat="45.92428" lon="4.75929">
        <ele>172</ele>
        <time>2017-05-10T09:46:31Z</time>
      </trkpt>
      <trkpt lat="45.92422" lon="4.75925">
        <ele>172</ele>
        <time>2017-05-10T09:46:32Z</time>
      </trkpt>
      <trkpt lat="45.92416" lon="4.75921">
        <ele>172</ele>
        <time>2017-05-10T09:46:33Z</time>
      </trkpt>
      <trkpt lat="45.92411" lon="4.75917">
        <ele>172</ele>
        <time>2017-05-10T09:46:34Z</time>
      </trkpt>
      <trkpt lat="45.92405" lon="4.75913">
        <ele>172</ele>
        <time>2017-05-10T09:46:35Z</time>
      </trkpt>
      <trkpt lat="45.92399" lon="4.75909">
        <ele>173</ele>
        <time>2017-05-10T09:46:36Z</time>
      </trkpt>
      <trkpt lat="45.92394" lon="4.75905">
        <ele>173</ele>
        <time>2017-05-10T09:46:37Z</time>
      </trkpt>
      <trkpt lat="45.92388" lon="4.75901">
        <ele>173</ele>
        <time>2017-05-10T09:46:38Z</time>
      </trkpt>
      <trkpt lat="45.92383" lon="4.75898">
        <ele>173</ele>
        <time>2017-05-10T09:46:39Z</time>
      </trkpt>
      <trkpt lat="45.92377" lon="4.75894">
        <ele>173</ele>
        <time>2017-05-10T09:46:40Z</time>
      </trkpt>
      <trkpt lat="45.92371" lon="4.7589">
        <ele>173</ele>
        <time>2017-05-10T09:46:41Z</time>
      </trkpt>
      <trkpt lat="45.92366" lon="4.75886">
        <ele>173</ele>
        <time>2017-05-10T09:46:42Z</time>
      </trkpt>
      <trkpt lat="45.92361" lon="4.75883">
        <ele>173</ele>
        <time>2017-05-10T09:46:43Z</time>
      </trkpt>
      <trkpt lat="45.92355" lon="4.75879">
        <ele>173</ele>
        <time>2017-05-10T09:46:44Z</time>
      </trkpt>
      <trkpt lat="45.9235" lon="4.75876">
        <ele>173</ele>
        <time>2017-05-10T09:46:45Z</time>
      </trkpt>
      <trkpt lat="45.92345" lon="4.75873">
        <ele>173</ele>
        <time>2017-05-10T09:46:46Z</time>
      </trkpt>
      <trkpt lat="45.9234" lon="4.7587">
        <ele>173</ele>
        <time>2017-05-10T09:46:47Z</time>
      </trkpt>
      <trkpt lat="45.92336" lon="4.75866">
        <ele>173</ele>
        <time>2017-05-10T09:46:48Z</time>
      </trkpt>
      <trkpt lat="45.92331" lon="4.75863">
        <ele>173</ele>
        <time>2017-05-10T09:46:49Z</time>
      </trkpt>
      <trkpt lat="45.92326" lon="4.75861">
        <ele>173</ele>
        <time>2017-05-10T09:46:50Z</time>
      </trkpt>
      <trkpt lat="45.92322" lon="4.75858">
        <ele>173</ele>
        <time>2017-05-10T09:46:51Z</time>
      </trkpt>
      <trkpt lat="45.92317" lon="4.75855">
        <ele>173</ele>
        <time>2017-05-10T09:46:52Z</time>
      </trkpt>
      <trkpt lat="45.92313" lon="4.75852">
        <ele>173</ele>
        <time>2017-05-10T09:46:53Z</time>
      </trkpt>
      <trkpt lat="45.92307" lon="4.7585">
        <ele>173</ele>
        <time>2017-05-10T09:46:54Z</time>
      </trkpt>
      <trkpt lat="45.92302" lon="4.75846">
        <ele>173</ele>
        <time>2017-05-10T09:46:55Z</time>
      </trkpt>
      <trkpt lat="45.92297" lon="4.75843">
        <ele>173</ele>
        <time>2017-05-10T09:46:56Z</time>
      </trkpt>
      <trkpt lat="45.92291" lon="4.7584">
        <ele>173</ele>
        <time>2017-05-10T09:46:57Z</time>
      </trkpt>
      <trkpt lat="45.92286" lon="4.75836">
        <ele>173</ele>
        <time>2017-05-10T09:46:58Z</time>
      </trkpt>
      <trkpt lat="45.92281" lon="4.75833">
        <ele>174</ele>
        <time>2017-05-10T09:46:59Z</time>
      </trkpt>
      <trkpt lat="45.92276" lon="4.75827">
        <ele>174</ele>
        <time>2017-05-10T09:47:00Z</time>
      </trkpt>
      <trkpt lat="45.92271" lon="4.75821">
        <ele>174</ele>
        <time>2017-05-10T09:47:01Z</time>
      </trkpt>
      <trkpt lat="45.92267" lon="4.75815">
        <ele>174</ele>
        <time>2017-05-10T09:47:02Z</time>
      </trkpt>
      <trkpt lat="45.92263" lon="4.75809">
        <ele>174</ele>
        <time>2017-05-10T09:47:03Z</time>
      </trkpt>
      <trkpt lat="45.92261" lon="4.75801">
        <ele>174</ele>
        <time>2017-05-10T09:47:04Z</time>
      </trkpt>
      <trkpt lat="45.92259" lon="4.75793">
        <ele>174</ele>
        <time>2017-05-10T09:47:05Z</time>
      </trkpt>
      <trkpt lat="45.92257" lon="4.75785">
        <ele>174</ele>
        <time>2017-05-10T09:47:06Z</time>
      </trkpt>
      <trkpt lat="45.92255" lon="4.75777">
        <ele>174</ele>
        <time>2017-05-10T09:47:07Z</time>
      </trkpt>
      <trkpt lat="45.92254" lon="4.75769">
        <ele>174</ele>
        <time>2017-05-10T09:47:08Z</time>
      </trkpt>
      <trkpt lat="45.92253" lon="4.75761">
        <ele>174</ele>
        <time>2017-05-10T09:47:09Z</time>
      </trkpt>
      <trkpt lat="45.92252" lon="4.75753">
        <ele>174</ele>
        <time>2017-05-10T09:47:10Z</time>
      </trkpt>
      <trkpt lat="45.9225" lon="4.75745">
        <ele>174</ele>
        <time>2017-05-10T09:47:11Z</time>
      </trkpt>
      <trkpt lat="45.92248" lon="4.75737">
        <ele>174</ele>
        <time>2017-05-10T09:47:12Z</time>
      </trkpt>
      <trkpt lat="45.92246" lon="4.7573">
        <ele>174</ele>
        <time>2017-05-10T09:47:13Z</time>
      </trkpt>
      <trkpt lat="45.92244" lon="4.75722">
        <ele>174</ele>
        <time>2017-05-10T09:47:14Z</time>
      </trkpt>
      <trkpt lat="45.92241" lon="4.75715">
        <ele>174</ele>
        <time>2017-05-10T09:47:15Z</time>
      </trkpt>
      <trkpt lat="45.92237" lon="4.75709">
        <ele>174</ele>
        <time>2017-05-10T09:47:16Z</time>
      </trkpt>
      <trkpt lat="45.92233" lon="4.75703">
        <ele>174</ele>
        <time>2017-05-10T09:47:17Z</time>
      </trkpt>
      <trkpt lat="45.92229" lon="4.75698">
        <ele>174</ele>
        <time>2017-05-10T09:47:18Z</time>
      </trkpt>
      <trkpt lat="45.92224" lon="4.75693">
        <ele>174</ele>
        <time>2017-05-10T09:47:19Z</time>
      </trkpt>
      <trkpt lat="45.92219" lon="4.75688">
        <ele>174</ele>
        <time>2017-05-10T09:47:20Z</time>
      </trkpt>
      <trkpt lat="45.92214" lon="4.75684">
        <ele>174</ele>
        <time>2017-05-10T09:47:21Z</time>
      </trkpt>
      <trkpt lat="45.92208" lon="4.75679">
        <ele>174</ele>
        <time>2017-05-10T09:47:22Z</time>
      </trkpt>
      <trkpt lat="45.92203" lon="4.75674">
        <ele>174</ele>
        <time>2017-05-10T09:47:23Z</time>
      </trkpt>
      <trkpt lat="45.92198" lon="4.75669">
        <ele>174</ele>
        <time>2017-05-10T09:47:24Z</time>
      </trkpt>
      <trkpt lat="45.92193" lon="4.75665">
        <ele>174</ele>
        <time>2017-05-10T09:47:25Z</time>
      </trkpt>
      <trkpt lat="45.92188" lon="4.7566">
        <ele>174</ele>
        <time>2017-05-10T09:47:26Z</time>
      </trkpt>
      <trkpt lat="45.92183" lon="4.75655">
        <ele>174</ele>
        <time>2017-05-10T09:47:27Z</time>
      </trkpt>
      <trkpt lat="45.92178" lon="4.75651">
        <ele>174</ele>
        <time>2017-05-10T09:47:28Z</time>
      </trkpt>
      <trkpt lat="45.92174" lon="4.75646">
        <ele>174</ele>
        <time>2017-05-10T09:47:29Z</time>
      </trkpt>
      <trkpt lat="45.92169" lon="4.75642">
        <ele>174</ele>
        <time>2017-05-10T09:47:30Z</time>
      </trkpt>
      <trkpt lat="45.92165" lon="4.75638">
        <ele>174</ele>
        <time>2017-05-10T09:47:31Z</time>
      </trkpt>
      <trkpt lat="45.92161" lon="4.75634">
        <ele>174</ele>
        <time>2017-05-10T09:47:32Z</time>
      </trkpt>
      <trkpt lat="45.92156" lon="4.75629">
        <ele>174</ele>
        <time>2017-05-10T09:47:33Z</time>
      </trkpt>
      <trkpt lat="45.92152" lon="4.75625">
        <ele>174</ele>
        <time>2017-05-10T09:47:34Z</time>
      </trkpt>
      <trkpt lat="45.92147" lon="4.7562">
        <ele>174</ele>
        <time>2017-05-10T09:47:35Z</time>
      </trkpt>
      <trkpt lat="45.92142" lon="4.75616">
        <ele>174</ele>
        <time>2017-05-10T09:47:36Z</time>
      </trkpt>
      <trkpt lat="45.92136" lon="4.75611">
        <ele>174</ele>
        <time>2017-05-10T09:47:37Z</time>
      </trkpt>
      <trkpt lat="45.92132" lon="4.75606">
        <ele>174</ele>
        <time>2017-05-10T09:47:38Z</time>
      </trkpt>
      <trkpt lat="45.92128" lon="4.75601">
        <ele>174</ele>
        <time>2017-05-10T09:47:39Z</time>
      </trkpt>
      <trkpt lat="45.92123" lon="4.75596">
        <ele>174</ele>
        <time>2017-05-10T09:47:40Z</time>
      </trkpt>
      <trkpt lat="45.92119" lon="4.75591">
        <ele>174</ele>
        <time>2017-05-10T09:47:41Z</time>
      </trkpt>
      <trkpt lat="45.92115" lon="4.75585">
        <ele>174</ele>
        <time>2017-05-10T09:47:42Z</time>
      </trkpt>
      <trkpt lat="45.92113" lon="4.75579">
        <ele>174</ele>
        <time>2017-05-10T09:47:43Z</time>
      </trkpt>
      <trkpt lat="45.92112" lon="4.75567">
        <ele>174</ele>
        <time>2017-05-10T09:47:45Z</time>
      </trkpt>
      <trkpt lat="45.92115" lon="4.75561">
        <ele>174</ele>
        <time>2017-05-10T09:47:46Z</time>
      </trkpt>
      <trkpt lat="45.92117" lon="4.75555">
        <ele>174</ele>
        <time>2017-05-10T09:47:47Z</time>
      </trkpt>
      <trkpt lat="45.92121" lon="4.75549">
        <ele>174</ele>
        <time>2017-05-10T09:47:48Z</time>
      </trkpt>
      <trkpt lat="45.92124" lon="4.75542">
        <ele>174</ele>
        <time>2017-05-10T09:47:49Z</time>
      </trkpt>
      <trkpt lat="45.92128" lon="4.75536">
        <ele>174</ele>
        <time>2017-05-10T09:47:50Z</time>
      </trkpt>
      <trkpt lat="45.92132" lon="4.7553">
        <ele>174</ele>
        <time>2017-05-10T09:47:51Z</time>
      </trkpt>
      <trkpt lat="45.92136" lon="4.75523">
        <ele>174</ele>
        <time>2017-05-10T09:47:52Z</time>
      </trkpt>
      <trkpt lat="45.92139" lon="4.75516">
        <ele>174</ele>
        <time>2017-05-10T09:47:53Z</time>
      </trkpt>
      <trkpt lat="45.92143" lon="4.75508">
        <ele>174</ele>
        <time>2017-05-10T09:47:54Z</time>
      </trkpt>
      <trkpt lat="45.92145" lon="4.75502">
        <ele>175</ele>
        <time>2017-05-10T09:47:55Z</time>
      </trkpt>
      <trkpt lat="45.92148" lon="4.75495">
        <ele>175</ele>
        <time>2017-05-10T09:47:56Z</time>
      </trkpt>
      <trkpt lat="45.92151" lon="4.75489">
        <ele>176</ele>
        <time>2017-05-10T09:47:57Z</time>
      </trkpt>
      <trkpt lat="45.92155" lon="4.75483">
        <ele>176</ele>
        <time>2017-05-10T09:47:58Z</time>
      </trkpt>
      <trkpt lat="45.92157" lon="4.75476">
        <ele>176</ele>
        <time>2017-05-10T09:47:59Z</time>
      </trkpt>
      <trkpt lat="45.9216" lon="4.75469">
        <ele>176</ele>
        <time>2017-05-10T09:48:00Z</time>
      </trkpt>
      <trkpt lat="45.92163" lon="4.75462">
        <ele>176</ele>
        <time>2017-05-10T09:48:01Z</time>
      </trkpt>
      <trkpt lat="45.92166" lon="4.75454">
        <ele>176</ele>
        <time>2017-05-10T09:48:02Z</time>
      </trkpt>
      <trkpt lat="45.92169" lon="4.75448">
        <ele>176</ele>
        <time>2017-05-10T09:48:03Z</time>
      </trkpt>
      <trkpt lat="45.92171" lon="4.75441">
        <ele>177</ele>
        <time>2017-05-10T09:48:04Z</time>
      </trkpt>
      <trkpt lat="45.92174" lon="4.75433">
        <ele>177</ele>
        <time>2017-05-10T09:48:05Z</time>
      </trkpt>
      <trkpt lat="45.92177" lon="4.75426">
        <ele>177</ele>
        <time>2017-05-10T09:48:06Z</time>
      </trkpt>
      <trkpt lat="45.92181" lon="4.75419">
        <ele>177</ele>
        <time>2017-05-10T09:48:07Z</time>
      </trkpt>
      <trkpt lat="45.92183" lon="4.75412">
        <ele>177</ele>
        <time>2017-05-10T09:48:08Z</time>
      </trkpt>
      <trkpt lat="45.92186" lon="4.75405">
        <ele>177</ele>
        <time>2017-05-10T09:48:09Z</time>
      </trkpt>
      <trkpt lat="45.92189" lon="4.75398">
        <ele>177</ele>
        <time>2017-05-10T09:48:10Z</time>
      </trkpt>
      <trkpt lat="45.92192" lon="4.75391">
        <ele>177</ele>
        <time>2017-05-10T09:48:11Z</time>
      </trkpt>
      <trkpt lat="45.92194" lon="4.75384">
        <ele>177</ele>
        <time>2017-05-10T09:48:12Z</time>
      </trkpt>
      <trkpt lat="45.92197" lon="4.75377">
        <ele>177</ele>
        <time>2017-05-10T09:48:13Z</time>
      </trkpt>
      <trkpt lat="45.922" lon="4.7537">
        <ele>177</ele>
        <time>2017-05-10T09:48:14Z</time>
      </trkpt>
      <trkpt lat="45.92203" lon="4.75363">
        <ele>177</ele>
        <time>2017-05-10T09:48:15Z</time>
      </trkpt>
      <trkpt lat="45.92205" lon="4.75356">
        <ele>177</ele>
        <time>2017-05-10T09:48:16Z</time>
      </trkpt>
      <trkpt lat="45.92207" lon="4.75348">
        <ele>177</ele>
        <time>2017-05-10T09:48:17Z</time>
      </trkpt>
      <trkpt lat="45.92209" lon="4.75339">
        <ele>177</ele>
        <time>2017-05-10T09:48:18Z</time>
      </trkpt>
      <trkpt lat="45.9221" lon="4.7533">
        <ele>176</ele>
        <time>2017-05-10T09:48:19Z</time>
      </trkpt>
      <trkpt lat="45.92211" lon="4.7532">
        <ele>176</ele>
        <time>2017-05-10T09:48:20Z</time>
      </trkpt>
      <trkpt lat="45.92211" lon="4.7531">
        <ele>176</ele>
        <time>2017-05-10T09:48:21Z</time>
      </trkpt>
      <trkpt lat="45.92212" lon="4.753">
        <ele>176</ele>
        <time>2017-05-10T09:48:22Z</time>
      </trkpt>
      <trkpt lat="45.92212" lon="4.75291">
        <ele>176</ele>
        <time>2017-05-10T09:48:23Z</time>
      </trkpt>
      <trkpt lat="45.92213" lon="4.75281">
        <ele>176</ele>
        <time>2017-05-10T09:48:24Z</time>
      </trkpt>
      <trkpt lat="45.92213" lon="4.75272">
        <ele>176</ele>
        <time>2017-05-10T09:48:25Z</time>
      </trkpt>
      <trkpt lat="45.92213" lon="4.75262">
        <ele>176</ele>
        <time>2017-05-10T09:48:26Z</time>
      </trkpt>
      <trkpt lat="45.92213" lon="4.75253">
        <ele>175</ele>
        <time>2017-05-10T09:48:27Z</time>
      </trkpt>
      <trkpt lat="45.92214" lon="4.75243">
        <ele>175</ele>
        <time>2017-05-10T09:48:28Z</time>
      </trkpt>
      <trkpt lat="45.92215" lon="4.75233">
        <ele>175</ele>
        <time>2017-05-10T09:48:29Z</time>
      </trkpt>
      <trkpt lat="45.92215" lon="4.75224">
        <ele>175</ele>
        <time>2017-05-10T09:48:30Z</time>
      </trkpt>
      <trkpt lat="45.92217" lon="4.75214">
        <ele>175</ele>
        <time>2017-05-10T09:48:31Z</time>
      </trkpt>
      <trkpt lat="45.92218" lon="4.75205">
        <ele>175</ele>
        <time>2017-05-10T09:48:32Z</time>
      </trkpt>
      <trkpt lat="45.92221" lon="4.75195">
        <ele>175</ele>
        <time>2017-05-10T09:48:33Z</time>
      </trkpt>
      <trkpt lat="45.92223" lon="4.75186">
        <ele>175</ele>
        <time>2017-05-10T09:48:34Z</time>
      </trkpt>
      <trkpt lat="45.92227" lon="4.75177">
        <ele>175</ele>
        <time>2017-05-10T09:48:35Z</time>
      </trkpt>
      <trkpt lat="45.9223" lon="4.75169">
        <ele>175</ele>
        <time>2017-05-10T09:48:36Z</time>
      </trkpt>
      <trkpt lat="45.92233" lon="4.75161">
        <ele>174</ele>
        <time>2017-05-10T09:48:37Z</time>
      </trkpt>
      <trkpt lat="45.92237" lon="4.75153">
        <ele>174</ele>
        <time>2017-05-10T09:48:38Z</time>
      </trkpt>
      <trkpt lat="45.92242" lon="4.75146">
        <ele>174</ele>
        <time>2017-05-10T09:48:39Z</time>
      </trkpt>
      <trkpt lat="45.92246" lon="4.75139">
        <ele>174</ele>
        <time>2017-05-10T09:48:40Z</time>
      </trkpt>
      <trkpt lat="45.92251" lon="4.75132">
        <ele>174</ele>
        <time>2017-05-10T09:48:41Z</time>
      </trkpt>
      <trkpt lat="45.92256" lon="4.75125">
        <ele>174</ele>
        <time>2017-05-10T09:48:42Z</time>
      </trkpt>
      <trkpt lat="45.92261" lon="4.75119">
        <ele>174</ele>
        <time>2017-05-10T09:48:43Z</time>
      </trkpt>
      <trkpt lat="45.92266" lon="4.75114">
        <ele>174</ele>
        <time>2017-05-10T09:48:44Z</time>
      </trkpt>
      <trkpt lat="45.92271" lon="4.75109">
        <ele>174</ele>
        <time>2017-05-10T09:48:45Z</time>
      </trkpt>
      <trkpt lat="45.92275" lon="4.75103">
        <ele>173</ele>
        <time>2017-05-10T09:48:46Z</time>
      </trkpt>
      <trkpt lat="45.92279" lon="4.75098">
        <ele>173</ele>
        <time>2017-05-10T09:48:47Z</time>
      </trkpt>
      <trkpt lat="45.92284" lon="4.75094">
        <ele>173</ele>
        <time>2017-05-10T09:48:48Z</time>
      </trkpt>
      <trkpt lat="45.92289" lon="4.75089">
        <ele>173</ele>
        <time>2017-05-10T09:48:49Z</time>
      </trkpt>
      <trkpt lat="45.92294" lon="4.75083">
        <ele>172</ele>
        <time>2017-05-10T09:48:50Z</time>
      </trkpt>
      <trkpt lat="45.92299" lon="4.75078">
        <ele>172</ele>
        <time>2017-05-10T09:48:51Z</time>
      </trkpt>
      <trkpt lat="45.92304" lon="4.75072">
        <ele>172</ele>
        <time>2017-05-10T09:48:52Z</time>
      </trkpt>
      <trkpt lat="45.92308" lon="4.75067">
        <ele>172</ele>
        <time>2017-05-10T09:48:53Z</time>
      </trkpt>
      <trkpt lat="45.92313" lon="4.75061">
        <ele>172</ele>
        <time>2017-05-10T09:48:54Z</time>
      </trkpt>
      <trkpt lat="45.92317" lon="4.75055">
        <ele>172</ele>
        <time>2017-05-10T09:48:55Z</time>
      </trkpt>
      <trkpt lat="45.9232" lon="4.75049">
        <ele>172</ele>
        <time>2017-05-10T09:48:56Z</time>
      </trkpt>
      <trkpt lat="45.92324" lon="4.75042">
        <ele>172</ele>
        <time>2017-05-10T09:48:57Z</time>
      </trkpt>
      <trkpt lat="45.92328" lon="4.75035">
        <ele>171</ele>
        <time>2017-05-10T09:48:58Z</time>
      </trkpt>
      <trkpt lat="45.92332" lon="4.75028">
        <ele>171</ele>
        <time>2017-05-10T09:48:59Z</time>
      </trkpt>
      <trkpt lat="45.92335" lon="4.75022">
        <ele>170</ele>
        <time>2017-05-10T09:49:00Z</time>
      </trkpt>
      <trkpt lat="45.92338" lon="4.75014">
        <ele>170</ele>
        <time>2017-05-10T09:49:01Z</time>
      </trkpt>
      <trkpt lat="45.92341" lon="4.75007">
        <ele>170</ele>
        <time>2017-05-10T09:49:02Z</time>
      </trkpt>
      <trkpt lat="45.92345" lon="4.74999">
        <ele>170</ele>
        <time>2017-05-10T09:49:03Z</time>
      </trkpt>
      <trkpt lat="45.92348" lon="4.74991">
        <ele>170</ele>
        <time>2017-05-10T09:49:04Z</time>
      </trkpt>
      <trkpt lat="45.92351" lon="4.74984">
        <ele>170</ele>
        <time>2017-05-10T09:49:05Z</time>
      </trkpt>
      <trkpt lat="45.92355" lon="4.74976">
        <ele>170</ele>
        <time>2017-05-10T09:49:06Z</time>
      </trkpt>
      <trkpt lat="45.92358" lon="4.74968">
        <ele>170</ele>
        <time>2017-05-10T09:49:07Z</time>
      </trkpt>
      <trkpt lat="45.92361" lon="4.7496">
        <ele>170</ele>
        <time>2017-05-10T09:49:08Z</time>
      </trkpt>
      <trkpt lat="45.92364" lon="4.74952">
        <ele>170</ele>
        <time>2017-05-10T09:49:09Z</time>
      </trkpt>
      <trkpt lat="45.92368" lon="4.74944">
        <ele>170</ele>
        <time>2017-05-10T09:49:10Z</time>
      </trkpt>
      <trkpt lat="45.92371" lon="4.74936">
        <ele>170</ele>
        <time>2017-05-10T09:49:11Z</time>
      </trkpt>
      <trkpt lat="45.92374" lon="4.74929">
        <ele>170</ele>
        <time>2017-05-10T09:49:12Z</time>
      </trkpt>
      <trkpt lat="45.92377" lon="4.74922">
        <ele>170</ele>
        <time>2017-05-10T09:49:13Z</time>
      </trkpt>
      <trkpt lat="45.92379" lon="4.74914">
        <ele>171</ele>
        <time>2017-05-10T09:49:14Z</time>
      </trkpt>
      <trkpt lat="45.92382" lon="4.74907">
        <ele>171</ele>
        <time>2017-05-10T09:49:15Z</time>
      </trkpt>
      <trkpt lat="45.92384" lon="4.749">
        <ele>171</ele>
        <time>2017-05-10T09:49:16Z</time>
      </trkpt>
      <trkpt lat="45.92387" lon="4.74894">
        <ele>171</ele>
        <time>2017-05-10T09:49:17Z</time>
      </trkpt>
      <trkpt lat="45.92389" lon="4.74887">
        <ele>171</ele>
        <time>2017-05-10T09:49:18Z</time>
      </trkpt>
      <trkpt lat="45.92392" lon="4.7488">
        <ele>171</ele>
        <time>2017-05-10T09:49:19Z</time>
      </trkpt>
      <trkpt lat="45.92394" lon="4.74874">
        <ele>171</ele>
        <time>2017-05-10T09:49:20Z</time>
      </trkpt>
      <trkpt lat="45.92397" lon="4.74867">
        <ele>171</ele>
        <time>2017-05-10T09:49:21Z</time>
      </trkpt>
      <trkpt lat="45.92399" lon="4.7486">
        <ele>171</ele>
        <time>2017-05-10T09:49:22Z</time>
      </trkpt>
      <trkpt lat="45.92401" lon="4.74853">
        <ele>171</ele>
        <time>2017-05-10T09:49:23Z</time>
      </trkpt>
      <trkpt lat="45.92402" lon="4.74846">
        <ele>171</ele>
        <time>2017-05-10T09:49:24Z</time>
      </trkpt>
      <trkpt lat="45.92404" lon="4.74839">
        <ele>171</ele>
        <time>2017-05-10T09:49:25Z</time>
      </trkpt>
      <trkpt lat="45.92406" lon="4.74832">
        <ele>171</ele>
        <time>2017-05-10T09:49:26Z</time>
      </trkpt>
      <trkpt lat="45.92407" lon="4.74824">
        <ele>171</ele>
        <time>2017-05-10T09:49:27Z</time>
      </trkpt>
      <trkpt lat="45.92409" lon="4.74817">
        <ele>171</ele>
        <time>2017-05-10T09:49:28Z</time>
      </trkpt>
      <trkpt lat="45.92411" lon="4.7481">
        <ele>171</ele>
        <time>2017-05-10T09:49:29Z</time>
      </trkpt>
      <trkpt lat="45.92413" lon="4.74802">
        <ele>171</ele>
        <time>2017-05-10T09:49:30Z</time>
      </trkpt>
      <trkpt lat="45.92415" lon="4.74794">
        <ele>171</ele>
        <time>2017-05-10T09:49:31Z</time>
      </trkpt>
      <trkpt lat="45.92416" lon="4.74786">
        <ele>171</ele>
        <time>2017-05-10T09:49:32Z</time>
      </trkpt>
      <trkpt lat="45.92418" lon="4.74778">
        <ele>171</ele>
        <time>2017-05-10T09:49:33Z</time>
      </trkpt>
      <trkpt lat="45.92419" lon="4.7477">
        <ele>171</ele>
        <time>2017-05-10T09:49:34Z</time>
      </trkpt>
      <trkpt lat="45.92421" lon="4.74763">
        <ele>171</ele>
        <time>2017-05-10T09:49:35Z</time>
      </trkpt>
      <trkpt lat="45.92423" lon="4.74756">
        <ele>172</ele>
        <time>2017-05-10T09:49:36Z</time>
      </trkpt>
      <trkpt lat="45.92426" lon="4.7475">
        <ele>172</ele>
        <time>2017-05-10T09:49:37Z</time>
      </trkpt>
      <trkpt lat="45.92428" lon="4.74743">
        <ele>171</ele>
        <time>2017-05-10T09:49:38Z</time>
      </trkpt>
      <trkpt lat="45.92431" lon="4.74735">
        <ele>171</ele>
        <time>2017-05-10T09:49:39Z</time>
      </trkpt>
      <trkpt lat="45.92433" lon="4.74728">
        <ele>171</ele>
        <time>2017-05-10T09:49:40Z</time>
      </trkpt>
      <trkpt lat="45.92435" lon="4.7472">
        <ele>171</ele>
        <time>2017-05-10T09:49:41Z</time>
      </trkpt>
      <trkpt lat="45.92438" lon="4.74713">
        <ele>171</ele>
        <time>2017-05-10T09:49:42Z</time>
      </trkpt>
      <trkpt lat="45.9244" lon="4.74707">
        <ele>171</ele>
        <time>2017-05-10T09:49:43Z</time>
      </trkpt>
      <trkpt lat="45.92443" lon="4.74701">
        <ele>171</ele>
        <time>2017-05-10T09:49:44Z</time>
      </trkpt>
      <trkpt lat="45.92445" lon="4.74695">
        <ele>171</ele>
        <time>2017-05-10T09:49:45Z</time>
      </trkpt>
      <trkpt lat="45.92448" lon="4.74689">
        <ele>171</ele>
        <time>2017-05-10T09:49:46Z</time>
      </trkpt>
      <trkpt lat="45.92451" lon="4.74684">
        <ele>171</ele>
        <time>2017-05-10T09:49:47Z</time>
      </trkpt>
      <trkpt lat="45.92454" lon="4.74678">
        <ele>171</ele>
        <time>2017-05-10T09:49:48Z</time>
      </trkpt>
      <trkpt lat="45.92457" lon="4.74673">
        <ele>171</ele>
        <time>2017-05-10T09:49:49Z</time>
      </trkpt>
      <trkpt lat="45.92459" lon="4.74668">
        <ele>171</ele>
        <time>2017-05-10T09:49:50Z</time>
      </trkpt>
      <trkpt lat="45.92464" lon="4.74658">
        <ele>171</ele>
        <time>2017-05-10T09:49:52Z</time>
      </trkpt>
      <trkpt lat="45.92467" lon="4.74653">
        <ele>171</ele>
        <time>2017-05-10T09:49:53Z</time>
      </trkpt>
      <trkpt lat="45.9247" lon="4.74649">
        <ele>171</ele>
        <time>2017-05-10T09:49:54Z</time>
      </trkpt>
      <trkpt lat="45.92474" lon="4.74643">
        <ele>171</ele>
        <time>2017-05-10T09:49:55Z</time>
      </trkpt>
      <trkpt lat="45.92479" lon="4.74639">
        <ele>171</ele>
        <time>2017-05-10T09:49:56Z</time>
      </trkpt>
      <trkpt lat="45.92484" lon="4.74634">
        <ele>171</ele>
        <time>2017-05-10T09:49:57Z</time>
      </trkpt>
      <trkpt lat="45.92488" lon="4.74629">
        <ele>171</ele>
        <time>2017-05-10T09:49:58Z</time>
      </trkpt>
      <trkpt lat="45.92494" lon="4.74623">
        <ele>171</ele>
        <time>2017-05-10T09:49:59Z</time>
      </trkpt>
      <trkpt lat="45.92498" lon="4.74617">
        <ele>171</ele>
        <time>2017-05-10T09:50:00Z</time>
      </trkpt>
      <trkpt lat="45.92503" lon="4.74611">
        <ele>170</ele>
        <time>2017-05-10T09:50:01Z</time>
      </trkpt>
      <trkpt lat="45.92507" lon="4.74605">
        <ele>171</ele>
        <time>2017-05-10T09:50:02Z</time>
      </trkpt>
      <trkpt lat="45.92511" lon="4.74599">
        <ele>171</ele>
        <time>2017-05-10T09:50:03Z</time>
      </trkpt>
      <trkpt lat="45.92516" lon="4.74593">
        <ele>171</ele>
        <time>2017-05-10T09:50:04Z</time>
      </trkpt>
      <trkpt lat="45.9252" lon="4.74587">
        <ele>171</ele>
        <time>2017-05-10T09:50:05Z</time>
      </trkpt>
      <trkpt lat="45.92524" lon="4.74582">
        <ele>171</ele>
        <time>2017-05-10T09:50:06Z</time>
      </trkpt>
      <trkpt lat="45.92528" lon="4.74576">
        <ele>171</ele>
        <time>2017-05-10T09:50:07Z</time>
      </trkpt>
      <trkpt lat="45.92531" lon="4.7457">
        <ele>171</ele>
        <time>2017-05-10T09:50:08Z</time>
      </trkpt>
      <trkpt lat="45.92535" lon="4.74563">
        <ele>171</ele>
        <time>2017-05-10T09:50:09Z</time>
      </trkpt>
      <trkpt lat="45.92539" lon="4.74557">
        <ele>171</ele>
        <time>2017-05-10T09:50:10Z</time>
      </trkpt>
      <trkpt lat="45.92543" lon="4.74551">
        <ele>170</ele>
        <time>2017-05-10T09:50:11Z</time>
      </trkpt>
      <trkpt lat="45.92546" lon="4.74545">
        <ele>170</ele>
        <time>2017-05-10T09:50:12Z</time>
      </trkpt>
      <trkpt lat="45.92549" lon="4.74539">
        <ele>170</ele>
        <time>2017-05-10T09:50:13Z</time>
      </trkpt>
      <trkpt lat="45.92553" lon="4.74532">
        <ele>170</ele>
        <time>2017-05-10T09:50:14Z</time>
      </trkpt>
      <trkpt lat="45.92557" lon="4.74525">
        <ele>170</ele>
        <time>2017-05-10T09:50:15Z</time>
      </trkpt>
      <trkpt lat="45.92561" lon="4.74518">
        <ele>170</ele>
        <time>2017-05-10T09:50:16Z</time>
      </trkpt>
      <trkpt lat="45.92564" lon="4.74511">
        <ele>170</ele>
        <time>2017-05-10T09:50:17Z</time>
      </trkpt>
      <trkpt lat="45.92568" lon="4.74504">
        <ele>170</ele>
        <time>2017-05-10T09:50:18Z</time>
      </trkpt>
      <trkpt lat="45.92572" lon="4.74497">
        <ele>170</ele>
        <time>2017-05-10T09:50:19Z</time>
      </trkpt>
      <trkpt lat="45.92576" lon="4.7449">
        <ele>170</ele>
        <time>2017-05-10T09:50:20Z</time>
      </trkpt>
      <trkpt lat="45.92579" lon="4.74483">
        <ele>170</ele>
        <time>2017-05-10T09:50:21Z</time>
      </trkpt>
      <trkpt lat="45.92583" lon="4.74476">
        <ele>170</ele>
        <time>2017-05-10T09:50:22Z</time>
      </trkpt>
      <trkpt lat="45.92586" lon="4.74469">
        <ele>170</ele>
        <time>2017-05-10T09:50:23Z</time>
      </trkpt>
      <trkpt lat="45.9259" lon="4.74463">
        <ele>170</ele>
        <time>2017-05-10T09:50:24Z</time>
      </trkpt>
      <trkpt lat="45.92593" lon="4.74456">
        <ele>170</ele>
        <time>2017-05-10T09:50:25Z</time>
      </trkpt>
      <trkpt lat="45.92597" lon="4.7445">
        <ele>170</ele>
        <time>2017-05-10T09:50:26Z</time>
      </trkpt>
      <trkpt lat="45.926" lon="4.74444">
        <ele>170</ele>
        <time>2017-05-10T09:50:27Z</time>
      </trkpt>
      <trkpt lat="45.92603" lon="4.74438">
        <ele>170</ele>
        <time>2017-05-10T09:50:28Z</time>
      </trkpt>
      <trkpt lat="45.92606" lon="4.74432">
        <ele>170</ele>
        <time>2017-05-10T09:50:29Z</time>
      </trkpt>
      <trkpt lat="45.92608" lon="4.74424">
        <ele>170</ele>
        <time>2017-05-10T09:50:30Z</time>
      </trkpt>
      <trkpt lat="45.92612" lon="4.74417">
        <ele>170</ele>
        <time>2017-05-10T09:50:31Z</time>
      </trkpt>
      <trkpt lat="45.92615" lon="4.74411">
        <ele>170</ele>
        <time>2017-05-10T09:50:32Z</time>
      </trkpt>
      <trkpt lat="45.92618" lon="4.74406">
        <ele>170</ele>
        <time>2017-05-10T09:50:33Z</time>
      </trkpt>
      <trkpt lat="45.92621" lon="4.744">
        <ele>170</ele>
        <time>2017-05-10T09:50:34Z</time>
      </trkpt>
      <trkpt lat="45.92624" lon="4.74395">
        <ele>170</ele>
        <time>2017-05-10T09:50:35Z</time>
      </trkpt>
      <trkpt lat="45.92627" lon="4.7439">
        <ele>170</ele>
        <time>2017-05-10T09:50:36Z</time>
      </trkpt>
      <trkpt lat="45.92631" lon="4.74384">
        <ele>170</ele>
        <time>2017-05-10T09:50:37Z</time>
      </trkpt>
      <trkpt lat="45.92634" lon="4.74377">
        <ele>170</ele>
        <time>2017-05-10T09:50:38Z</time>
      </trkpt>
      <trkpt lat="45.92638" lon="4.74371">
        <ele>171</ele>
        <time>2017-05-10T09:50:39Z</time>
      </trkpt>
      <trkpt lat="45.92641" lon="4.74364">
        <ele>171</ele>
        <time>2017-05-10T09:50:40Z</time>
      </trkpt>
      <trkpt lat="45.92644" lon="4.74358">
        <ele>171</ele>
        <time>2017-05-10T09:50:41Z</time>
      </trkpt>
      <trkpt lat="45.92648" lon="4.74352">
        <ele>171</ele>
        <time>2017-05-10T09:50:42Z</time>
      </trkpt>
      <trkpt lat="45.92651" lon="4.74346">
        <ele>171</ele>
        <time>2017-05-10T09:50:43Z</time>
      </trkpt>
      <trkpt lat="45.92654" lon="4.7434">
        <ele>171</ele>
        <time>2017-05-10T09:50:44Z</time>
      </trkpt>
      <trkpt lat="45.92657" lon="4.74335">
        <ele>171</ele>
        <time>2017-05-10T09:50:45Z</time>
      </trkpt>
      <trkpt lat="45.9266" lon="4.7433">
        <ele>171</ele>
        <time>2017-05-10T09:50:46Z</time>
      </trkpt>
      <trkpt lat="45.92664" lon="4.74324">
        <ele>171</ele>
        <time>2017-05-10T09:50:47Z</time>
      </trkpt>
      <trkpt lat="45.92666" lon="4.74319">
        <ele>171</ele>
        <time>2017-05-10T09:50:48Z</time>
      </trkpt>
      <trkpt lat="45.9267" lon="4.74314">
        <ele>171</ele>
        <time>2017-05-10T09:50:49Z</time>
      </trkpt>
      <trkpt lat="45.92673" lon="4.74309">
        <ele>171</ele>
        <time>2017-05-10T09:50:50Z</time>
      </trkpt>
      <trkpt lat="45.92676" lon="4.74304">
        <ele>171</ele>
        <time>2017-05-10T09:50:51Z</time>
      </trkpt>
      <trkpt lat="45.9268" lon="4.74299">
        <ele>171</ele>
        <time>2017-05-10T09:50:52Z</time>
      </trkpt>
      <trkpt lat="45.92683" lon="4.74293">
        <ele>171</ele>
        <time>2017-05-10T09:50:53Z</time>
      </trkpt>
      <trkpt lat="45.92686" lon="4.74287">
        <ele>171</ele>
        <time>2017-05-10T09:50:54Z</time>
      </trkpt>
      <trkpt lat="45.9269" lon="4.74281">
        <ele>171</ele>
        <time>2017-05-10T09:50:55Z</time>
      </trkpt>
      <trkpt lat="45.92693" lon="4.74275">
        <ele>171</ele>
        <time>2017-05-10T09:50:56Z</time>
      </trkpt>
      <trkpt lat="45.92697" lon="4.74268">
        <ele>171</ele>
        <time>2017-05-10T09:50:57Z</time>
      </trkpt>
      <trkpt lat="45.92701" lon="4.74262">
        <ele>171</ele>
        <time>2017-05-10T09:50:58Z</time>
      </trkpt>
      <trkpt lat="45.92705" lon="4.74255">
        <ele>171</ele>
        <time>2017-05-10T09:50:59Z</time>
      </trkpt>
      <trkpt lat="45.92709" lon="4.74248">
        <ele>171</ele>
        <time>2017-05-10T09:51:00Z</time>
      </trkpt>
      <trkpt lat="45.92713" lon="4.74242">
        <ele>171</ele>
        <time>2017-05-10T09:51:01Z</time>
      </trkpt>
      <trkpt lat="45.92717" lon="4.74236">
        <ele>171</ele>
        <time>2017-05-10T09:51:02Z</time>
      </trkpt>
      <trkpt lat="45.92721" lon="4.7423">
        <ele>171</ele>
        <time>2017-05-10T09:51:03Z</time>
      </trkpt>
      <trkpt lat="45.92725" lon="4.74224">
        <ele>171</ele>
        <time>2017-05-10T09:51:04Z</time>
      </trkpt>
      <trkpt lat="45.92729" lon="4.74218">
        <ele>171</ele>
        <time>2017-05-10T09:51:05Z</time>
      </trkpt>
      <trkpt lat="45.92733" lon="4.74212">
        <ele>171</ele>
        <time>2017-05-10T09:51:06Z</time>
      </trkpt>
      <trkpt lat="45.92738" lon="4.74207">
        <ele>171</ele>
        <time>2017-05-10T09:51:07Z</time>
      </trkpt>
      <trkpt lat="45.92742" lon="4.74202">
        <ele>171</ele>
        <time>2017-05-10T09:51:08Z</time>
      </trkpt>
      <trkpt lat="45.92747" lon="4.74197">
        <ele>171</ele>
        <time>2017-05-10T09:51:09Z</time>
      </trkpt>
      <trkpt lat="45.92751" lon="4.74192">
        <ele>172</ele>
        <time>2017-05-10T09:51:10Z</time>
      </trkpt>
      <trkpt lat="45.92756" lon="4.74187">
        <ele>172</ele>
        <time>2017-05-10T09:51:11Z</time>
      </trkpt>
      <trkpt lat="45.92761" lon="4.74182">
        <ele>172</ele>
        <time>2017-05-10T09:51:12Z</time>
      </trkpt>
      <trkpt lat="45.92766" lon="4.74176">
        <ele>172</ele>
        <time>2017-05-10T09:51:13Z</time>
      </trkpt>
      <trkpt lat="45.92771" lon="4.74171">
        <ele>172</ele>
        <time>2017-05-10T09:51:14Z</time>
      </trkpt>
      <trkpt lat="45.92775" lon="4.74166">
        <ele>172</ele>
        <time>2017-05-10T09:51:15Z</time>
      </trkpt>
      <trkpt lat="45.9278" lon="4.7416">
        <ele>172</ele>
        <time>2017-05-10T09:51:16Z</time>
      </trkpt>
      <trkpt lat="45.92785" lon="4.74155">
        <ele>172</ele>
        <time>2017-05-10T09:51:17Z</time>
      </trkpt>
      <trkpt lat="45.9279" lon="4.7415">
        <ele>172</ele>
        <time>2017-05-10T09:51:18Z</time>
      </trkpt>
      <trkpt lat="45.92795" lon="4.74146">
        <ele>172</ele>
        <time>2017-05-10T09:51:19Z</time>
      </trkpt>
      <trkpt lat="45.92799" lon="4.74141">
        <ele>172</ele>
        <time>2017-05-10T09:51:20Z</time>
      </trkpt>
      <trkpt lat="45.92804" lon="4.74135">
        <ele>172</ele>
        <time>2017-05-10T09:51:21Z</time>
      </trkpt>
      <trkpt lat="45.92809" lon="4.7413">
        <ele>172</ele>
        <time>2017-05-10T09:51:22Z</time>
      </trkpt>
      <trkpt lat="45.92814" lon="4.74125">
        <ele>172</ele>
        <time>2017-05-10T09:51:23Z</time>
      </trkpt>
      <trkpt lat="45.92819" lon="4.74119">
        <ele>172</ele>
        <time>2017-05-10T09:51:24Z</time>
      </trkpt>
      <trkpt lat="45.92824" lon="4.74114">
        <ele>171</ele>
        <time>2017-05-10T09:51:25Z</time>
      </trkpt>
      <trkpt lat="45.92829" lon="4.74108">
        <ele>171</ele>
        <time>2017-05-10T09:51:26Z</time>
      </trkpt>
      <trkpt lat="45.92833" lon="4.74102">
        <ele>171</ele>
        <time>2017-05-10T09:51:27Z</time>
      </trkpt>
      <trkpt lat="45.92838" lon="4.74097">
        <ele>171</ele>
        <time>2017-05-10T09:51:28Z</time>
      </trkpt>
      <trkpt lat="45.92843" lon="4.74091">
        <ele>171</ele>
        <time>2017-05-10T09:51:29Z</time>
      </trkpt>
      <trkpt lat="45.92847" lon="4.74087">
        <ele>171</ele>
        <time>2017-05-10T09:51:30Z</time>
      </trkpt>
      <trkpt lat="45.92852" lon="4.74081">
        <ele>172</ele>
        <time>2017-05-10T09:51:31Z</time>
      </trkpt>
      <trkpt lat="45.92856" lon="4.74076">
        <ele>172</ele>
        <time>2017-05-10T09:51:32Z</time>
      </trkpt>
      <trkpt lat="45.9286" lon="4.74071">
        <ele>172</ele>
        <time>2017-05-10T09:51:33Z</time>
      </trkpt>
      <trkpt lat="45.92863" lon="4.74066">
        <ele>172</ele>
        <time>2017-05-10T09:51:34Z</time>
      </trkpt>
      <trkpt lat="45.92867" lon="4.74062">
        <ele>172</ele>
        <time>2017-05-10T09:51:35Z</time>
      </trkpt>
      <trkpt lat="45.9287" lon="4.74058">
        <ele>172</ele>
        <time>2017-05-10T09:51:36Z</time>
      </trkpt>
      <trkpt lat="45.92874" lon="4.74055">
        <ele>172</ele>
        <time>2017-05-10T09:51:37Z</time>
      </trkpt>
      <trkpt lat="45.92879" lon="4.74053">
        <ele>172</ele>
        <time>2017-05-10T09:51:38Z</time>
      </trkpt>
      <trkpt lat="45.92883" lon="4.74052">
        <ele>172</ele>
        <time>2017-05-10T09:51:39Z</time>
      </trkpt>
      <trkpt lat="45.92888" lon="4.74051">
        <ele>172</ele>
        <time>2017-05-10T09:51:40Z</time>
      </trkpt>
      <trkpt lat="45.92893" lon="4.74051">
        <ele>172</ele>
        <time>2017-05-10T09:51:41Z</time>
      </trkpt>
      <trkpt lat="45.92899" lon="4.74051">
        <ele>172</ele>
        <time>2017-05-10T09:51:42Z</time>
      </trkpt>
      <trkpt lat="45.92904" lon="4.74048">
        <ele>172</ele>
        <time>2017-05-10T09:51:43Z</time>
      </trkpt>
      <trkpt lat="45.92909" lon="4.74045">
        <ele>172</ele>
        <time>2017-05-10T09:51:44Z</time>
      </trkpt>
      <trkpt lat="45.92913" lon="4.74039">
        <ele>172</ele>
        <time>2017-05-10T09:51:45Z</time>
      </trkpt>
      <trkpt lat="45.92916" lon="4.74033">
        <ele>172</ele>
        <time>2017-05-10T09:51:46Z</time>
      </trkpt>
      <trkpt lat="45.92918" lon="4.74026">
        <ele>172</ele>
        <time>2017-05-10T09:51:47Z</time>
      </trkpt>
      <trkpt lat="45.92919" lon="4.74019">
        <ele>172</ele>
        <time>2017-05-10T09:51:48Z</time>
      </trkpt>
      <trkpt lat="45.92919" lon="4.74012">
        <ele>172</ele>
        <time>2017-05-10T09:51:49Z</time>
      </trkpt>
      <trkpt lat="45.92917" lon="4.74005">
        <ele>172</ele>
        <time>2017-05-10T09:51:50Z</time>
      </trkpt>
      <trkpt lat="45.92913" lon="4.73999">
        <ele>172</ele>
        <time>2017-05-10T09:51:51Z</time>
      </trkpt>
      <trkpt lat="45.92909" lon="4.73994">
        <ele>172</ele>
        <time>2017-05-10T09:51:52Z</time>
      </trkpt>
      <trkpt lat="45.92904" lon="4.7399">
        <ele>172</ele>
        <time>2017-05-10T09:51:53Z</time>
      </trkpt>
      <trkpt lat="45.92899" lon="4.73986">
        <ele>172</ele>
        <time>2017-05-10T09:51:54Z</time>
      </trkpt>
      <trkpt lat="45.92894" lon="4.73981">
        <ele>172</ele>
        <time>2017-05-10T09:51:55Z</time>
      </trkpt>
      <trkpt lat="45.9289" lon="4.73975">
        <ele>172</ele>
        <time>2017-05-10T09:51:56Z</time>
      </trkpt>
      <trkpt lat="45.92887" lon="4.73967">
        <ele>172</ele>
        <time>2017-05-10T09:51:57Z</time>
      </trkpt>
      <trkpt lat="45.92886" lon="4.73958">
        <ele>172</ele>
        <time>2017-05-10T09:51:58Z</time>
      </trkpt>
      <trkpt lat="45.92886" lon="4.7395">
        <ele>172</ele>
        <time>2017-05-10T09:51:59Z</time>
      </trkpt>
      <trkpt lat="45.92885" lon="4.73941">
        <ele>172</ele>
        <time>2017-05-10T09:52:00Z</time>
      </trkpt>
      <trkpt lat="45.92884" lon="4.73933">
        <ele>172</ele>
        <time>2017-05-10T09:52:01Z</time>
      </trkpt>
      <trkpt lat="45.92883" lon="4.73924">
        <ele>172</ele>
        <time>2017-05-10T09:52:02Z</time>
      </trkpt>
      <trkpt lat="45.92882" lon="4.73915">
        <ele>173</ele>
        <time>2017-05-10T09:52:03Z</time>
      </trkpt>
      <trkpt lat="45.92881" lon="4.73906">
        <ele>173</ele>
        <time>2017-05-10T09:52:04Z</time>
      </trkpt>
      <trkpt lat="45.92879" lon="4.73896">
        <ele>173</ele>
        <time>2017-05-10T09:52:05Z</time>
      </trkpt>
      <trkpt lat="45.92877" lon="4.73887">
        <ele>173</ele>
        <time>2017-05-10T09:52:06Z</time>
      </trkpt>
      <trkpt lat="45.92874" lon="4.73878">
        <ele>173</ele>
        <time>2017-05-10T09:52:07Z</time>
      </trkpt>
      <trkpt lat="45.92872" lon="4.73869">
        <ele>173</ele>
        <time>2017-05-10T09:52:08Z</time>
      </trkpt>
      <trkpt lat="45.92871" lon="4.73861">
        <ele>173</ele>
        <time>2017-05-10T09:52:09Z</time>
      </trkpt>
      <trkpt lat="45.92868" lon="4.73853">
        <ele>173</ele>
        <time>2017-05-10T09:52:10Z</time>
      </trkpt>
      <trkpt lat="45.92866" lon="4.73846">
        <ele>173</ele>
        <time>2017-05-10T09:52:11Z</time>
      </trkpt>
      <trkpt lat="45.92864" lon="4.73838">
        <ele>173</ele>
        <time>2017-05-10T09:52:12Z</time>
      </trkpt>
      <trkpt lat="45.92861" lon="4.73831">
        <ele>173</ele>
        <time>2017-05-10T09:52:13Z</time>
      </trkpt>
      <trkpt lat="45.92859" lon="4.73824">
        <ele>173</ele>
        <time>2017-05-10T09:52:14Z</time>
      </trkpt>
      <trkpt lat="45.92857" lon="4.73817">
        <ele>173</ele>
        <time>2017-05-10T09:52:15Z</time>
      </trkpt>
      <trkpt lat="45.92855" lon="4.7381">
        <ele>173</ele>
        <time>2017-05-10T09:52:16Z</time>
      </trkpt>
      <trkpt lat="45.92851" lon="4.73805">
        <ele>173</ele>
        <time>2017-05-10T09:52:17Z</time>
      </trkpt>
      <trkpt lat="45.92847" lon="4.738">
        <ele>173</ele>
        <time>2017-05-10T09:52:18Z</time>
      </trkpt>
      <trkpt lat="45.92842" lon="4.73796">
        <ele>173</ele>
        <time>2017-05-10T09:52:19Z</time>
      </trkpt>
      <trkpt lat="45.92837" lon="4.73792">
        <ele>173</ele>
        <time>2017-05-10T09:52:20Z</time>
      </trkpt>
      <trkpt lat="45.92832" lon="4.73788">
        <ele>173</ele>
        <time>2017-05-10T09:52:21Z</time>
      </trkpt>
      <trkpt lat="45.92828" lon="4.73783">
        <ele>173</ele>
        <time>2017-05-10T09:52:22Z</time>
      </trkpt>
      <trkpt lat="45.92823" lon="4.73779">
        <ele>173</ele>
        <time>2017-05-10T09:52:23Z</time>
      </trkpt>
      <trkpt lat="45.92818" lon="4.73776">
        <ele>173</ele>
        <time>2017-05-10T09:52:24Z</time>
      </trkpt>
      <trkpt lat="45.92814" lon="4.73773">
        <ele>173</ele>
        <time>2017-05-10T09:52:25Z</time>
      </trkpt>
      <trkpt lat="45.92809" lon="4.73771">
        <ele>173</ele>
        <time>2017-05-10T09:52:26Z</time>
      </trkpt>
      <trkpt lat="45.92805" lon="4.73768">
        <ele>173</ele>
        <time>2017-05-10T09:52:27Z</time>
      </trkpt>
      <trkpt lat="45.92798" lon="4.73765">
        <ele>173</ele>
        <time>2017-05-10T09:52:29Z</time>
      </trkpt>
      <trkpt lat="45.92795" lon="4.73763">
        <ele>173</ele>
        <time>2017-05-10T09:52:30Z</time>
      </trkpt>
      <trkpt lat="45.92788" lon="4.73758">
        <ele>173</ele>
        <time>2017-05-10T09:52:32Z</time>
      </trkpt>
      <trkpt lat="45.92785" lon="4.73755">
        <ele>173</ele>
        <time>2017-05-10T09:52:33Z</time>
      </trkpt>
      <trkpt lat="45.9278" lon="4.73746">
        <ele>172</ele>
        <time>2017-05-10T09:52:35Z</time>
      </trkpt>
      <trkpt lat="45.92778" lon="4.73742">
        <ele>172</ele>
        <time>2017-05-10T09:52:36Z</time>
      </trkpt>
      <trkpt lat="45.92772" lon="4.73734">
        <ele>172</ele>
        <time>2017-05-10T09:52:38Z</time>
      </trkpt>
      <trkpt lat="45.92767" lon="4.73732">
        <ele>172</ele>
        <time>2017-05-10T09:52:39Z</time>
      </trkpt>
      <trkpt lat="45.92759" lon="4.73729">
        <ele>172</ele>
        <time>2017-05-10T09:52:41Z</time>
      </trkpt>
      <trkpt lat="45.92755" lon="4.73727">
        <ele>172</ele>
        <time>2017-05-10T09:52:42Z</time>
      </trkpt>
      <trkpt lat="45.92747" lon="4.73725">
        <ele>173</ele>
        <time>2017-05-10T09:52:44Z</time>
      </trkpt>
      <trkpt lat="45.92742" lon="4.73722">
        <ele>173</ele>
        <time>2017-05-10T09:52:45Z</time>
      </trkpt>
      <trkpt lat="45.92737" lon="4.73721">
        <ele>173</ele>
        <time>2017-05-10T09:52:46Z</time>
      </trkpt>
      <trkpt lat="45.92733" lon="4.7372">
        <ele>173</ele>
        <time>2017-05-10T09:52:47Z</time>
      </trkpt>
      <trkpt lat="45.92724" lon="4.73718">
        <ele>173</ele>
        <time>2017-05-10T09:52:49Z</time>
      </trkpt>
      <trkpt lat="45.92719" lon="4.73716">
        <ele>173</ele>
        <time>2017-05-10T09:52:50Z</time>
      </trkpt>
      <trkpt lat="45.92714" lon="4.73714">
        <ele>173</ele>
        <time>2017-05-10T09:52:51Z</time>
      </trkpt>
      <trkpt lat="45.92708" lon="4.73713">
        <ele>173</ele>
        <time>2017-05-10T09:52:52Z</time>
      </trkpt>
      <trkpt lat="45.92703" lon="4.73711">
        <ele>173</ele>
        <time>2017-05-10T09:52:53Z</time>
      </trkpt>
      <trkpt lat="45.92697" lon="4.7371">
        <ele>173</ele>
        <time>2017-05-10T09:52:54Z</time>
      </trkpt>
      <trkpt lat="45.92691" lon="4.73708">
        <ele>173</ele>
        <time>2017-05-10T09:52:55Z</time>
      </trkpt>
      <trkpt lat="45.92685" lon="4.73706">
        <ele>173</ele>
        <time>2017-05-10T09:52:56Z</time>
      </trkpt>
      <trkpt lat="45.92678" lon="4.73704">
        <ele>173</ele>
        <time>2017-05-10T09:52:57Z</time>
      </trkpt>
      <trkpt lat="45.92672" lon="4.73703">
        <ele>174</ele>
        <time>2017-05-10T09:52:58Z</time>
      </trkpt>
      <trkpt lat="45.92666" lon="4.73701">
        <ele>173</ele>
        <time>2017-05-10T09:52:59Z</time>
      </trkpt>
      <trkpt lat="45.92661" lon="4.73698">
        <ele>173</ele>
        <time>2017-05-10T09:53:00Z</time>
      </trkpt>
      <trkpt lat="45.92656" lon="4.73695">
        <ele>173</ele>
        <time>2017-05-10T09:53:01Z</time>
      </trkpt>
      <trkpt lat="45.92652" lon="4.73691">
        <ele>173</ele>
        <time>2017-05-10T09:53:02Z</time>
      </trkpt>
      <trkpt lat="45.92648" lon="4.73687">
        <ele>173</ele>
        <time>2017-05-10T09:53:03Z</time>
      </trkpt>
      <trkpt lat="45.92644" lon="4.73682">
        <ele>173</ele>
        <time>2017-05-10T09:53:04Z</time>
      </trkpt>
      <trkpt lat="45.9264" lon="4.73676">
        <ele>173</ele>
        <time>2017-05-10T09:53:05Z</time>
      </trkpt>
      <trkpt lat="45.92636" lon="4.7367">
        <ele>173</ele>
        <time>2017-05-10T09:53:06Z</time>
      </trkpt>
      <trkpt lat="45.92634" lon="4.73665">
        <ele>173</ele>
        <time>2017-05-10T09:53:07Z</time>
      </trkpt>
      <trkpt lat="45.92632" lon="4.73658">
        <ele>173</ele>
        <time>2017-05-10T09:53:08Z</time>
      </trkpt>
      <trkpt lat="45.92629" lon="4.73651">
        <ele>173</ele>
        <time>2017-05-10T09:53:09Z</time>
      </trkpt>
      <trkpt lat="45.92626" lon="4.73645">
        <ele>173</ele>
        <time>2017-05-10T09:53:10Z</time>
      </trkpt>
      <trkpt lat="45.92624" lon="4.73639">
        <ele>173</ele>
        <time>2017-05-10T09:53:11Z</time>
      </trkpt>
      <trkpt lat="45.92621" lon="4.73634">
        <ele>173</ele>
        <time>2017-05-10T09:53:12Z</time>
      </trkpt>
      <trkpt lat="45.92618" lon="4.73629">
        <ele>173</ele>
        <time>2017-05-10T09:53:13Z</time>
      </trkpt>
      <trkpt lat="45.92614" lon="4.73624">
        <ele>173</ele>
        <time>2017-05-10T09:53:14Z</time>
      </trkpt>
      <trkpt lat="45.9261" lon="4.73622">
        <ele>173</ele>
        <time>2017-05-10T09:53:15Z</time>
      </trkpt>
      <trkpt lat="45.92605" lon="4.73619">
        <ele>173</ele>
        <time>2017-05-10T09:53:16Z</time>
      </trkpt>
      <trkpt lat="45.92599" lon="4.73619">
        <ele>173</ele>
        <time>2017-05-10T09:53:17Z</time>
      </trkpt>
      <trkpt lat="45.92593" lon="4.73619">
        <ele>173</ele>
        <time>2017-05-10T09:53:18Z</time>
      </trkpt>
      <trkpt lat="45.92587" lon="4.73619">
        <ele>173</ele>
        <time>2017-05-10T09:53:19Z</time>
      </trkpt>
      <trkpt lat="45.92581" lon="4.7362">
        <ele>173</ele>
        <time>2017-05-10T09:53:20Z</time>
      </trkpt>
      <trkpt lat="45.92575" lon="4.73621">
        <ele>173</ele>
        <time>2017-05-10T09:53:21Z</time>
      </trkpt>
      <trkpt lat="45.9257" lon="4.73623">
        <ele>173</ele>
        <time>2017-05-10T09:53:22Z</time>
      </trkpt>
      <trkpt lat="45.92565" lon="4.73624">
        <ele>173</ele>
        <time>2017-05-10T09:53:23Z</time>
      </trkpt>
      <trkpt lat="45.9256" lon="4.73625">
        <ele>173</ele>
        <time>2017-05-10T09:53:24Z</time>
      </trkpt>
      <trkpt lat="45.92555" lon="4.73626">
        <ele>173</ele>
        <time>2017-05-10T09:53:25Z</time>
      </trkpt>
      <trkpt lat="45.9255" lon="4.73627">
        <ele>173</ele>
        <time>2017-05-10T09:53:26Z</time>
      </trkpt>
      <trkpt lat="45.92545" lon="4.73627">
        <ele>173</ele>
        <time>2017-05-10T09:53:27Z</time>
      </trkpt>
      <trkpt lat="45.9254" lon="4.73628">
        <ele>173</ele>
        <time>2017-05-10T09:53:28Z</time>
      </trkpt>
      <trkpt lat="45.92536" lon="4.73629">
        <ele>173</ele>
        <time>2017-05-10T09:53:29Z</time>
      </trkpt>
      <trkpt lat="45.92531" lon="4.7363">
        <ele>173</ele>
        <time>2017-05-10T09:53:30Z</time>
      </trkpt>
      <trkpt lat="45.92526" lon="4.73631">
        <ele>173</ele>
        <time>2017-05-10T09:53:31Z</time>
      </trkpt>
      <trkpt lat="45.92522" lon="4.73631">
        <ele>173</ele>
        <time>2017-05-10T09:53:32Z</time>
      </trkpt>
      <trkpt lat="45.92518" lon="4.73632">
        <ele>173</ele>
        <time>2017-05-10T09:53:33Z</time>
      </trkpt>
      <trkpt lat="45.92513" lon="4.73633">
        <ele>173</ele>
        <time>2017-05-10T09:53:34Z</time>
      </trkpt>
      <trkpt lat="45.92508" lon="4.73633">
        <ele>173</ele>
        <time>2017-05-10T09:53:35Z</time>
      </trkpt>
      <trkpt lat="45.92504" lon="4.73634">
        <ele>174</ele>
        <time>2017-05-10T09:53:36Z</time>
      </trkpt>
      <trkpt lat="45.92499" lon="4.73634">
        <ele>174</ele>
        <time>2017-05-10T09:53:37Z</time>
      </trkpt>
      <trkpt lat="45.92495" lon="4.73634">
        <ele>174</ele>
        <time>2017-05-10T09:53:38Z</time>
      </trkpt>
      <trkpt lat="45.9249" lon="4.73634">
        <ele>174</ele>
        <time>2017-05-10T09:53:39Z</time>
      </trkpt>
      <trkpt lat="45.92486" lon="4.73634">
        <ele>174</ele>
        <time>2017-05-10T09:53:40Z</time>
      </trkpt>
      <trkpt lat="45.92477" lon="4.73633">
        <ele>174</ele>
        <time>2017-05-10T09:53:42Z</time>
      </trkpt>
      <trkpt lat="45.92473" lon="4.73634">
        <ele>174</ele>
        <time>2017-05-10T09:53:43Z</time>
      </trkpt>
      <trkpt lat="45.92466" lon="4.73642">
        <ele>174</ele>
        <time>2017-05-10T09:53:45Z</time>
      </trkpt>
      <trkpt lat="45.92465" lon="4.73649">
        <ele>174</ele>
        <time>2017-05-10T09:53:46Z</time>
      </trkpt>
      <trkpt lat="45.92464" lon="4.7366">
        <ele>174</ele>
        <time>2017-05-10T09:53:48Z</time>
      </trkpt>
      <trkpt lat="45.92462" lon="4.73665">
        <ele>174</ele>
        <time>2017-05-10T09:53:49Z</time>
      </trkpt>
      <trkpt lat="45.92461" lon="4.73675">
        <ele>174</ele>
        <time>2017-05-10T09:53:51Z</time>
      </trkpt>
      <trkpt lat="45.9246" lon="4.7368">
        <ele>174</ele>
        <time>2017-05-10T09:53:52Z</time>
      </trkpt>
      <trkpt lat="45.92458" lon="4.73691">
        <ele>174</ele>
        <time>2017-05-10T09:53:54Z</time>
      </trkpt>
      <trkpt lat="45.92458" lon="4.73695">
        <ele>174</ele>
        <time>2017-05-10T09:53:55Z</time>
      </trkpt>
      <trkpt lat="45.92456" lon="4.73701">
        <ele>174</ele>
        <time>2017-05-10T09:53:57Z</time>
      </trkpt>
      <trkpt lat="45.92456" lon="4.73703">
        <ele>174</ele>
        <time>2017-05-10T09:53:58Z</time>
      </trkpt>
      <trkpt lat="45.92457" lon="4.73704">
        <ele>174</ele>
        <time>2017-05-10T09:54:30.843Z</time>
      </trkpt>
    </trkseg>
  </trk>
</gpx>